<?xml version="1.0" encoding="UTF-8" standalone="no" ?>
<gpx xmlns="http://www.topografix.com/GPX/1/1" xmlns:gpxtpx="http://www.garmin.com/xmlschemas/TrackPointExtension/v1" creator="OruxMaps v.7.0.2" version="1.1" xmlns:xsi="http://www.w3.org/2001/XMLSchema-instance" xsi:schemaLocation="http://www.topografix.com/GPX/1/1 http://www.topografix.com/GPX/1/1/gpx.xsd">
<metadata>
<name><![CDATA[Cap de Formentor Mallorca 15.10.2016]]></name>
<link href="http://www.oruxmaps.com">
<text>OruxMaps</text>
</link>
<time>2016-10-15T07:06:16Z</time><bounds maxlat="39.9612128" maxlon="3.2127798" minlat="39.7599792" minlon="2.9642325"/>
</metadata>
<trk>
<name><![CDATA[Cap de Formentor Mallorca 15.10.2016]]></name>
<desc><![CDATA[<p>Startzeit: 10/15/2016 09:06<br/>Zielzeit: 10/15/2016 16:52<br/>Strecke: 126,7 km (07:33)<br/>Bewegungszeit: 05:37<br/>Ø-Geschwindigkeit: 16,77 km/h<br/>Netto-Geschwindigkeit: 22,51 km/h<br/>Max. Geschwindigkeit: 51,21 km/h<br/>Minimale Höhe: -11 m<br/>Maximale Höhe: 248 m<br/>Steig-Geschw.: 704 m/h<br/>Sink-Geschw.: -771,3 m/h<br/>Aufstieg: 2333 m<br/>Abstieg: -2309 m<br/>Steigzeit: 03:18<br/>Sinkzeit: 02:59<br/></p><hr align="center" width="480" style="height: 2px; width: 517px"/>]]></desc>
<type>Fahrrad/ Strasse</type>
<extensions>
<om:oruxmapsextensions xmlns:om="http://www.oruxmaps.com/oruxmapsextensions/1/0">
<om:ext type="TYPE" subtype="0">8</om:ext>
<om:ext type="DIFFICULTY">0</om:ext>
</om:oruxmapsextensions>
</extensions>
<trkseg>
<trkpt lat="39.7657163" lon="3.1482365">
<ele>17.52</ele>
<time>2016-10-15T07:06:15Z</time>
</trkpt>
<trkpt lat="39.7655650" lon="3.1481096">
<ele>16.58</ele>
<time>2016-10-15T07:06:35Z</time>
</trkpt>
<trkpt lat="39.7653673" lon="3.1482302">
<ele>13.71</ele>
<time>2016-10-15T07:10:15Z</time>
</trkpt>
<trkpt lat="39.7656026" lon="3.1480483">
<ele>4.20</ele>
<time>2016-10-15T07:11:48Z</time>
</trkpt>
<trkpt lat="39.7654878" lon="3.1482486">
<ele>17.41</ele>
<time>2016-10-15T07:14:57Z</time>
</trkpt>
<trkpt lat="39.7653479" lon="3.1484217">
<ele>17.45</ele>
<time>2016-10-15T07:15:02Z</time>
</trkpt>
<trkpt lat="39.7653100" lon="3.1486747">
<ele>16.95</ele>
<time>2016-10-15T07:15:09Z</time>
</trkpt>
<trkpt lat="39.7654654" lon="3.1485297">
<ele>19.07</ele>
<time>2016-10-15T07:15:15Z</time>
</trkpt>
<trkpt lat="39.7656319" lon="3.1483543">
<ele>18.81</ele>
<time>2016-10-15T07:15:19Z</time>
</trkpt>
<trkpt lat="39.7658037" lon="3.1481683">
<ele>19.03</ele>
<time>2016-10-15T07:15:23Z</time>
</trkpt>
<trkpt lat="39.7659784" lon="3.1479876">
<ele>20.50</ele>
<time>2016-10-15T07:15:27Z</time>
</trkpt>
<trkpt lat="39.7661190" lon="3.1478377">
<ele>20.08</ele>
<time>2016-10-15T07:15:30Z</time>
</trkpt>
<trkpt lat="39.7662605" lon="3.1476874">
<ele>19.18</ele>
<time>2016-10-15T07:15:33Z</time>
</trkpt>
<trkpt lat="39.7664065" lon="3.1475365">
<ele>18.72</ele>
<time>2016-10-15T07:15:36Z</time>
</trkpt>
<trkpt lat="39.7665516" lon="3.1473898">
<ele>18.17</ele>
<time>2016-10-15T07:15:39Z</time>
</trkpt>
<trkpt lat="39.7667392" lon="3.1472060">
<ele>19.44</ele>
<time>2016-10-15T07:15:43Z</time>
</trkpt>
<trkpt lat="39.7668888" lon="3.1470591">
<ele>18.84</ele>
<time>2016-10-15T07:15:46Z</time>
</trkpt>
<trkpt lat="39.7670764" lon="3.1468613">
<ele>17.91</ele>
<time>2016-10-15T07:15:50Z</time>
</trkpt>
<trkpt lat="39.7672151" lon="3.1467081">
<ele>16.56</ele>
<time>2016-10-15T07:15:53Z</time>
</trkpt>
<trkpt lat="39.7673860" lon="3.1465326">
<ele>15.66</ele>
<time>2016-10-15T07:15:57Z</time>
</trkpt>
<trkpt lat="39.7675615" lon="3.1463601">
<ele>14.24</ele>
<time>2016-10-15T07:16:01Z</time>
</trkpt>
<trkpt lat="39.7677138" lon="3.1462150">
<ele>12.64</ele>
<time>2016-10-15T07:16:05Z</time>
</trkpt>
<trkpt lat="39.7678858" lon="3.1460373">
<ele>9.52</ele>
<time>2016-10-15T07:16:09Z</time>
</trkpt>
<trkpt lat="39.7680545" lon="3.1458310">
<ele>9.10</ele>
<time>2016-10-15T07:16:13Z</time>
</trkpt>
<trkpt lat="39.7681969" lon="3.1456762">
<ele>9.06</ele>
<time>2016-10-15T07:16:16Z</time>
</trkpt>
<trkpt lat="39.7683528" lon="3.1454956">
<ele>8.58</ele>
<time>2016-10-15T07:16:19Z</time>
</trkpt>
<trkpt lat="39.7685015" lon="3.1453314">
<ele>7.11</ele>
<time>2016-10-15T07:16:22Z</time>
</trkpt>
<trkpt lat="39.7686522" lon="3.1451802">
<ele>6.58</ele>
<time>2016-10-15T07:16:25Z</time>
</trkpt>
<trkpt lat="39.7688042" lon="3.1450440">
<ele>6.99</ele>
<time>2016-10-15T07:16:28Z</time>
</trkpt>
<trkpt lat="39.7689451" lon="3.1448945">
<ele>8.62</ele>
<time>2016-10-15T07:16:31Z</time>
</trkpt>
<trkpt lat="39.7691058" lon="3.1447312">
<ele>9.61</ele>
<time>2016-10-15T07:16:34Z</time>
</trkpt>
<trkpt lat="39.7692656" lon="3.1445634">
<ele>9.17</ele>
<time>2016-10-15T07:16:37Z</time>
</trkpt>
<trkpt lat="39.7694103" lon="3.1444136">
<ele>9.11</ele>
<time>2016-10-15T07:16:40Z</time>
</trkpt>
<trkpt lat="39.7695496" lon="3.1442583">
<ele>9.10</ele>
<time>2016-10-15T07:16:43Z</time>
</trkpt>
<trkpt lat="39.7696948" lon="3.1440989">
<ele>8.74</ele>
<time>2016-10-15T07:16:46Z</time>
</trkpt>
<trkpt lat="39.7698504" lon="3.1439434">
<ele>8.30</ele>
<time>2016-10-15T07:16:49Z</time>
</trkpt>
<trkpt lat="39.7700009" lon="3.1437897">
<ele>8.57</ele>
<time>2016-10-15T07:16:52Z</time>
</trkpt>
<trkpt lat="39.7701878" lon="3.1435965">
<ele>9.46</ele>
<time>2016-10-15T07:16:56Z</time>
</trkpt>
<trkpt lat="39.7703688" lon="3.1434113">
<ele>10.12</ele>
<time>2016-10-15T07:17:00Z</time>
</trkpt>
<trkpt lat="39.7705111" lon="3.1432534">
<ele>9.10</ele>
<time>2016-10-15T07:17:03Z</time>
</trkpt>
<trkpt lat="39.7706597" lon="3.1430736">
<ele>7.60</ele>
<time>2016-10-15T07:17:06Z</time>
</trkpt>
<trkpt lat="39.7708072" lon="3.1428972">
<ele>8.22</ele>
<time>2016-10-15T07:17:09Z</time>
</trkpt>
<trkpt lat="39.7709630" lon="3.1427317">
<ele>7.86</ele>
<time>2016-10-15T07:17:12Z</time>
</trkpt>
<trkpt lat="39.7711465" lon="3.1425312">
<ele>7.84</ele>
<time>2016-10-15T07:17:16Z</time>
</trkpt>
<trkpt lat="39.7713673" lon="3.1424489">
<ele>8.22</ele>
<time>2016-10-15T07:17:20Z</time>
</trkpt>
<trkpt lat="39.7715389" lon="3.1423778">
<ele>7.34</ele>
<time>2016-10-15T07:17:23Z</time>
</trkpt>
<trkpt lat="39.7715836" lon="3.1421375">
<ele>5.43</ele>
<time>2016-10-15T07:17:27Z</time>
</trkpt>
<trkpt lat="39.7714059" lon="3.1419200">
<ele>4.02</ele>
<time>2016-10-15T07:17:31Z</time>
</trkpt>
<trkpt lat="39.7712424" lon="3.1417278">
<ele>3.44</ele>
<time>2016-10-15T07:17:34Z</time>
</trkpt>
<trkpt lat="39.7711353" lon="3.1415126">
<ele>2.93</ele>
<time>2016-10-15T07:17:37Z</time>
</trkpt>
<trkpt lat="39.7710257" lon="3.1412435">
<ele>2.92</ele>
<time>2016-10-15T07:17:41Z</time>
</trkpt>
<trkpt lat="39.7709645" lon="3.1409716">
<ele>3.43</ele>
<time>2016-10-15T07:17:45Z</time>
</trkpt>
<trkpt lat="39.7708975" lon="3.1406965">
<ele>3.83</ele>
<time>2016-10-15T07:17:49Z</time>
</trkpt>
<trkpt lat="39.7708063" lon="3.1404940">
<ele>3.77</ele>
<time>2016-10-15T07:17:52Z</time>
</trkpt>
<trkpt lat="39.7706981" lon="3.1402169">
<ele>4.42</ele>
<time>2016-10-15T07:17:56Z</time>
</trkpt>
<trkpt lat="39.7706231" lon="3.1399430">
<ele>4.81</ele>
<time>2016-10-15T07:18:00Z</time>
</trkpt>
<trkpt lat="39.7705759" lon="3.1397088">
<ele>4.12</ele>
<time>2016-10-15T07:18:03Z</time>
</trkpt>
<trkpt lat="39.7705436" lon="3.1394551">
<ele>5.69</ele>
<time>2016-10-15T07:18:06Z</time>
</trkpt>
<trkpt lat="39.7704951" lon="3.1391601">
<ele>8.02</ele>
<time>2016-10-15T07:18:10Z</time>
</trkpt>
<trkpt lat="39.7704176" lon="3.1388860">
<ele>7.11</ele>
<time>2016-10-15T07:18:14Z</time>
</trkpt>
<trkpt lat="39.7703288" lon="3.1386135">
<ele>6.05</ele>
<time>2016-10-15T07:18:18Z</time>
</trkpt>
<trkpt lat="39.7702385" lon="3.1383548">
<ele>5.34</ele>
<time>2016-10-15T07:18:22Z</time>
</trkpt>
<trkpt lat="39.7701297" lon="3.1381207">
<ele>5.44</ele>
<time>2016-10-15T07:18:26Z</time>
</trkpt>
<trkpt lat="39.7700160" lon="3.1378778">
<ele>5.66</ele>
<time>2016-10-15T07:18:30Z</time>
</trkpt>
<trkpt lat="39.7698997" lon="3.1376428">
<ele>5.63</ele>
<time>2016-10-15T07:18:35Z</time>
</trkpt>
<trkpt lat="39.7697546" lon="3.1374109">
<ele>8.36</ele>
<time>2016-10-15T07:18:39Z</time>
</trkpt>
<trkpt lat="39.7696093" lon="3.1372335">
<ele>11.07</ele>
<time>2016-10-15T07:18:42Z</time>
</trkpt>
<trkpt lat="39.7693886" lon="3.1370538">
<ele>13.44</ele>
<time>2016-10-15T07:18:45Z</time>
</trkpt>
<trkpt lat="39.7691920" lon="3.1368305">
<ele>14.66</ele>
<time>2016-10-15T07:18:48Z</time>
</trkpt>
<trkpt lat="39.7690153" lon="3.1366170">
<ele>14.88</ele>
<time>2016-10-15T07:18:51Z</time>
</trkpt>
<trkpt lat="39.7688576" lon="3.1364065">
<ele>13.68</ele>
<time>2016-10-15T07:18:54Z</time>
</trkpt>
<trkpt lat="39.7687114" lon="3.1362022">
<ele>11.57</ele>
<time>2016-10-15T07:18:57Z</time>
</trkpt>
<trkpt lat="39.7685685" lon="3.1359936">
<ele>10.52</ele>
<time>2016-10-15T07:19:00Z</time>
</trkpt>
<trkpt lat="39.7684224" lon="3.1357952">
<ele>9.90</ele>
<time>2016-10-15T07:19:03Z</time>
</trkpt>
<trkpt lat="39.7682789" lon="3.1355969">
<ele>8.38</ele>
<time>2016-10-15T07:19:06Z</time>
</trkpt>
<trkpt lat="39.7681329" lon="3.1354065">
<ele>8.93</ele>
<time>2016-10-15T07:19:09Z</time>
</trkpt>
<trkpt lat="39.7679796" lon="3.1352279">
<ele>9.91</ele>
<time>2016-10-15T07:19:12Z</time>
</trkpt>
<trkpt lat="39.7678347" lon="3.1350553">
<ele>10.96</ele>
<time>2016-10-15T07:19:15Z</time>
</trkpt>
<trkpt lat="39.7677002" lon="3.1348635">
<ele>10.82</ele>
<time>2016-10-15T07:19:18Z</time>
</trkpt>
<trkpt lat="39.7675641" lon="3.1346530">
<ele>10.06</ele>
<time>2016-10-15T07:19:21Z</time>
</trkpt>
<trkpt lat="39.7674133" lon="3.1344558">
<ele>9.68</ele>
<time>2016-10-15T07:19:24Z</time>
</trkpt>
<trkpt lat="39.7672723" lon="3.1342727">
<ele>9.26</ele>
<time>2016-10-15T07:19:27Z</time>
</trkpt>
<trkpt lat="39.7671446" lon="3.1341064">
<ele>8.00</ele>
<time>2016-10-15T07:19:30Z</time>
</trkpt>
<trkpt lat="39.7670148" lon="3.1339194">
<ele>6.42</ele>
<time>2016-10-15T07:19:33Z</time>
</trkpt>
<trkpt lat="39.7668679" lon="3.1337088">
<ele>6.11</ele>
<time>2016-10-15T07:19:37Z</time>
</trkpt>
<trkpt lat="39.7667227" lon="3.1335265">
<ele>8.33</ele>
<time>2016-10-15T07:19:41Z</time>
</trkpt>
<trkpt lat="39.7665857" lon="3.1333286">
<ele>9.69</ele>
<time>2016-10-15T07:19:45Z</time>
</trkpt>
<trkpt lat="39.7664249" lon="3.1331398">
<ele>11.87</ele>
<time>2016-10-15T07:19:49Z</time>
</trkpt>
<trkpt lat="39.7662885" lon="3.1329852">
<ele>14.77</ele>
<time>2016-10-15T07:19:53Z</time>
</trkpt>
<trkpt lat="39.7661328" lon="3.1327855">
<ele>18.24</ele>
<time>2016-10-15T07:19:57Z</time>
</trkpt>
<trkpt lat="39.7659717" lon="3.1326018">
<ele>19.93</ele>
<time>2016-10-15T07:20:01Z</time>
</trkpt>
<trkpt lat="39.7658107" lon="3.1323932">
<ele>18.42</ele>
<time>2016-10-15T07:20:05Z</time>
</trkpt>
<trkpt lat="39.7656489" lon="3.1322369">
<ele>18.77</ele>
<time>2016-10-15T07:20:08Z</time>
</trkpt>
<trkpt lat="39.7654926" lon="3.1320959">
<ele>20.06</ele>
<time>2016-10-15T07:20:11Z</time>
</trkpt>
<trkpt lat="39.7653543" lon="3.1319378">
<ele>20.78</ele>
<time>2016-10-15T07:20:14Z</time>
</trkpt>
<trkpt lat="39.7651868" lon="3.1317159">
<ele>21.29</ele>
<time>2016-10-15T07:20:18Z</time>
</trkpt>
<trkpt lat="39.7650259" lon="3.1315151">
<ele>20.53</ele>
<time>2016-10-15T07:20:22Z</time>
</trkpt>
<trkpt lat="39.7648819" lon="3.1313236">
<ele>20.09</ele>
<time>2016-10-15T07:20:25Z</time>
</trkpt>
<trkpt lat="39.7647271" lon="3.1311429">
<ele>17.62</ele>
<time>2016-10-15T07:20:28Z</time>
</trkpt>
<trkpt lat="39.7645932" lon="3.1309779">
<ele>15.29</ele>
<time>2016-10-15T07:20:31Z</time>
</trkpt>
<trkpt lat="39.7644590" lon="3.1308036">
<ele>13.39</ele>
<time>2016-10-15T07:20:34Z</time>
</trkpt>
<trkpt lat="39.7643142" lon="3.1306257">
<ele>11.85</ele>
<time>2016-10-15T07:20:37Z</time>
</trkpt>
<trkpt lat="39.7641735" lon="3.1304547">
<ele>10.94</ele>
<time>2016-10-15T07:20:40Z</time>
</trkpt>
<trkpt lat="39.7640423" lon="3.1302702">
<ele>10.52</ele>
<time>2016-10-15T07:20:43Z</time>
</trkpt>
<trkpt lat="39.7639113" lon="3.1300571">
<ele>9.79</ele>
<time>2016-10-15T07:20:46Z</time>
</trkpt>
<trkpt lat="39.7637921" lon="3.1298198">
<ele>9.22</ele>
<time>2016-10-15T07:20:49Z</time>
</trkpt>
<trkpt lat="39.7636769" lon="3.1295772">
<ele>9.75</ele>
<time>2016-10-15T07:20:52Z</time>
</trkpt>
<trkpt lat="39.7635730" lon="3.1293426">
<ele>10.55</ele>
<time>2016-10-15T07:20:55Z</time>
</trkpt>
<trkpt lat="39.7634781" lon="3.1291254">
<ele>10.44</ele>
<time>2016-10-15T07:20:58Z</time>
</trkpt>
<trkpt lat="39.7633755" lon="3.1289062">
<ele>9.92</ele>
<time>2016-10-15T07:21:01Z</time>
</trkpt>
<trkpt lat="39.7632723" lon="3.1286804">
<ele>9.66</ele>
<time>2016-10-15T07:21:04Z</time>
</trkpt>
<trkpt lat="39.7631617" lon="3.1284355">
<ele>8.99</ele>
<time>2016-10-15T07:21:07Z</time>
</trkpt>
<trkpt lat="39.7630449" lon="3.1281844">
<ele>7.58</ele>
<time>2016-10-15T07:21:10Z</time>
</trkpt>
<trkpt lat="39.7629276" lon="3.1279495">
<ele>5.98</ele>
<time>2016-10-15T07:21:13Z</time>
</trkpt>
<trkpt lat="39.7627951" lon="3.1277378">
<ele>5.06</ele>
<time>2016-10-15T07:21:16Z</time>
</trkpt>
<trkpt lat="39.7626621" lon="3.1275755">
<ele>4.59</ele>
<time>2016-10-15T07:21:19Z</time>
</trkpt>
<trkpt lat="39.7625185" lon="3.1274198">
<ele>5.15</ele>
<time>2016-10-15T07:21:21Z</time>
</trkpt>
<trkpt lat="39.7623343" lon="3.1272388">
<ele>7.04</ele>
<time>2016-10-15T07:21:25Z</time>
</trkpt>
<trkpt lat="39.7621883" lon="3.1270950">
<ele>9.36</ele>
<time>2016-10-15T07:21:28Z</time>
</trkpt>
<trkpt lat="39.7620105" lon="3.1268845">
<ele>12.02</ele>
<time>2016-10-15T07:21:32Z</time>
</trkpt>
<trkpt lat="39.7618814" lon="3.1266788">
<ele>11.82</ele>
<time>2016-10-15T07:21:35Z</time>
</trkpt>
<trkpt lat="39.7617945" lon="3.1264344">
<ele>11.81</ele>
<time>2016-10-15T07:21:38Z</time>
</trkpt>
<trkpt lat="39.7617489" lon="3.1261777">
<ele>11.74</ele>
<time>2016-10-15T07:21:41Z</time>
</trkpt>
<trkpt lat="39.7617247" lon="3.1259310">
<ele>14.03</ele>
<time>2016-10-15T07:21:44Z</time>
</trkpt>
<trkpt lat="39.7617059" lon="3.1256970">
<ele>14.49</ele>
<time>2016-10-15T07:21:47Z</time>
</trkpt>
<trkpt lat="39.7616853" lon="3.1254111">
<ele>15.60</ele>
<time>2016-10-15T07:21:51Z</time>
</trkpt>
<trkpt lat="39.7616390" lon="3.1251312">
<ele>14.56</ele>
<time>2016-10-15T07:21:55Z</time>
</trkpt>
<trkpt lat="39.7615580" lon="3.1248572">
<ele>13.92</ele>
<time>2016-10-15T07:21:59Z</time>
</trkpt>
<trkpt lat="39.7614646" lon="3.1245858">
<ele>12.86</ele>
<time>2016-10-15T07:22:03Z</time>
</trkpt>
<trkpt lat="39.7613775" lon="3.1243112">
<ele>13.42</ele>
<time>2016-10-15T07:22:07Z</time>
</trkpt>
<trkpt lat="39.7612942" lon="3.1240464">
<ele>13.43</ele>
<time>2016-10-15T07:22:11Z</time>
</trkpt>
<trkpt lat="39.7612088" lon="3.1237818">
<ele>14.96</ele>
<time>2016-10-15T07:22:15Z</time>
</trkpt>
<trkpt lat="39.7611230" lon="3.1235327">
<ele>16.94</ele>
<time>2016-10-15T07:22:19Z</time>
</trkpt>
<trkpt lat="39.7610388" lon="3.1232930">
<ele>17.99</ele>
<time>2016-10-15T07:22:23Z</time>
</trkpt>
<trkpt lat="39.7609518" lon="3.1230461">
<ele>18.68</ele>
<time>2016-10-15T07:22:27Z</time>
</trkpt>
<trkpt lat="39.7608774" lon="3.1227912">
<ele>18.95</ele>
<time>2016-10-15T07:22:31Z</time>
</trkpt>
<trkpt lat="39.7608003" lon="3.1225460">
<ele>19.19</ele>
<time>2016-10-15T07:22:35Z</time>
</trkpt>
<trkpt lat="39.7607258" lon="3.1223018">
<ele>20.42</ele>
<time>2016-10-15T07:22:39Z</time>
</trkpt>
<trkpt lat="39.7606625" lon="3.1220495">
<ele>20.13</ele>
<time>2016-10-15T07:22:43Z</time>
</trkpt>
<trkpt lat="39.7606193" lon="3.1217805">
<ele>20.08</ele>
<time>2016-10-15T07:22:47Z</time>
</trkpt>
<trkpt lat="39.7605794" lon="3.1215105">
<ele>21.12</ele>
<time>2016-10-15T07:22:51Z</time>
</trkpt>
<trkpt lat="39.7605188" lon="3.1212200">
<ele>22.11</ele>
<time>2016-10-15T07:22:55Z</time>
</trkpt>
<trkpt lat="39.7604172" lon="3.1209684">
<ele>21.65</ele>
<time>2016-10-15T07:22:58Z</time>
</trkpt>
<trkpt lat="39.7602869" lon="3.1207400">
<ele>20.75</ele>
<time>2016-10-15T07:23:01Z</time>
</trkpt>
<trkpt lat="39.7601457" lon="3.1204952">
<ele>20.03</ele>
<time>2016-10-15T07:23:04Z</time>
</trkpt>
<trkpt lat="39.7600606" lon="3.1201958">
<ele>19.06</ele>
<time>2016-10-15T07:23:07Z</time>
</trkpt>
<trkpt lat="39.7600271" lon="3.1198670">
<ele>17.30</ele>
<time>2016-10-15T07:23:10Z</time>
</trkpt>
<trkpt lat="39.7600290" lon="3.1195141">
<ele>15.75</ele>
<time>2016-10-15T07:23:13Z</time>
</trkpt>
<trkpt lat="39.7600361" lon="3.1192651">
<ele>14.47</ele>
<time>2016-10-15T07:23:15Z</time>
</trkpt>
<trkpt lat="39.7600442" lon="3.1190136">
<ele>13.33</ele>
<time>2016-10-15T07:23:17Z</time>
</trkpt>
<trkpt lat="39.7600485" lon="3.1187451">
<ele>12.56</ele>
<time>2016-10-15T07:23:19Z</time>
</trkpt>
<trkpt lat="39.7600554" lon="3.1184935">
<ele>11.62</ele>
<time>2016-10-15T07:23:21Z</time>
</trkpt>
<trkpt lat="39.7600618" lon="3.1182372">
<ele>10.12</ele>
<time>2016-10-15T07:23:23Z</time>
</trkpt>
<trkpt lat="39.7600683" lon="3.1179847">
<ele>8.64</ele>
<time>2016-10-15T07:23:25Z</time>
</trkpt>
<trkpt lat="39.7600728" lon="3.1177463">
<ele>8.05</ele>
<time>2016-10-15T07:23:27Z</time>
</trkpt>
<trkpt lat="39.7600836" lon="3.1174055">
<ele>8.36</ele>
<time>2016-10-15T07:23:30Z</time>
</trkpt>
<trkpt lat="39.7600884" lon="3.1171689">
<ele>8.05</ele>
<time>2016-10-15T07:23:32Z</time>
</trkpt>
<trkpt lat="39.7600937" lon="3.1168328">
<ele>7.51</ele>
<time>2016-10-15T07:23:35Z</time>
</trkpt>
<trkpt lat="39.7600988" lon="3.1164911">
<ele>8.10</ele>
<time>2016-10-15T07:23:38Z</time>
</trkpt>
<trkpt lat="39.7601014" lon="3.1162453">
<ele>7.95</ele>
<time>2016-10-15T07:23:40Z</time>
</trkpt>
<trkpt lat="39.7601017" lon="3.1160010">
<ele>7.47</ele>
<time>2016-10-15T07:23:42Z</time>
</trkpt>
<trkpt lat="39.7601059" lon="3.1157514">
<ele>7.30</ele>
<time>2016-10-15T07:23:44Z</time>
</trkpt>
<trkpt lat="39.7601105" lon="3.1154850">
<ele>7.08</ele>
<time>2016-10-15T07:23:46Z</time>
</trkpt>
<trkpt lat="39.7601149" lon="3.1152199">
<ele>6.21</ele>
<time>2016-10-15T07:23:48Z</time>
</trkpt>
<trkpt lat="39.7601166" lon="3.1149601">
<ele>5.51</ele>
<time>2016-10-15T07:23:50Z</time>
</trkpt>
<trkpt lat="39.7601189" lon="3.1147125">
<ele>5.28</ele>
<time>2016-10-15T07:23:52Z</time>
</trkpt>
<trkpt lat="39.7601204" lon="3.1144688">
<ele>6.19</ele>
<time>2016-10-15T07:23:54Z</time>
</trkpt>
<trkpt lat="39.7601212" lon="3.1142260">
<ele>6.27</ele>
<time>2016-10-15T07:23:56Z</time>
</trkpt>
<trkpt lat="39.7601247" lon="3.1139707">
<ele>6.33</ele>
<time>2016-10-15T07:23:58Z</time>
</trkpt>
<trkpt lat="39.7601339" lon="3.1137325">
<ele>6.69</ele>
<time>2016-10-15T07:24:00Z</time>
</trkpt>
<trkpt lat="39.7601388" lon="3.1134906">
<ele>6.45</ele>
<time>2016-10-15T07:24:02Z</time>
</trkpt>
<trkpt lat="39.7601447" lon="3.1132484">
<ele>5.79</ele>
<time>2016-10-15T07:24:04Z</time>
</trkpt>
<trkpt lat="39.7601483" lon="3.1130112">
<ele>4.68</ele>
<time>2016-10-15T07:24:06Z</time>
</trkpt>
<trkpt lat="39.7601568" lon="3.1126753">
<ele>2.69</ele>
<time>2016-10-15T07:24:09Z</time>
</trkpt>
<trkpt lat="39.7601914" lon="3.1123368">
<ele>2.45</ele>
<time>2016-10-15T07:24:12Z</time>
</trkpt>
<trkpt lat="39.7602428" lon="3.1121025">
<ele>2.14</ele>
<time>2016-10-15T07:24:14Z</time>
</trkpt>
<trkpt lat="39.7603389" lon="3.1118889">
<ele>1.87</ele>
<time>2016-10-15T07:24:16Z</time>
</trkpt>
<trkpt lat="39.7604420" lon="3.1116855">
<ele>0.82</ele>
<time>2016-10-15T07:24:18Z</time>
</trkpt>
<trkpt lat="39.7605455" lon="3.1114804">
<ele>-0.33</ele>
<time>2016-10-15T07:24:20Z</time>
</trkpt>
<trkpt lat="39.7606963" lon="3.1111928">
<ele>-1.35</ele>
<time>2016-10-15T07:24:23Z</time>
</trkpt>
<trkpt lat="39.7608503" lon="3.1109171">
<ele>-1.57</ele>
<time>2016-10-15T07:24:26Z</time>
</trkpt>
<trkpt lat="39.7609965" lon="3.1106503">
<ele>-1.84</ele>
<time>2016-10-15T07:24:29Z</time>
</trkpt>
<trkpt lat="39.7611386" lon="3.1103905">
<ele>-1.95</ele>
<time>2016-10-15T07:24:32Z</time>
</trkpt>
<trkpt lat="39.7612712" lon="3.1101511">
<ele>-1.05</ele>
<time>2016-10-15T07:24:35Z</time>
</trkpt>
<trkpt lat="39.7613979" lon="3.1099145">
<ele>0.31</ele>
<time>2016-10-15T07:24:38Z</time>
</trkpt>
<trkpt lat="39.7615246" lon="3.1096810">
<ele>0.70</ele>
<time>2016-10-15T07:24:41Z</time>
</trkpt>
<trkpt lat="39.7616478" lon="3.1094500">
<ele>0.63</ele>
<time>2016-10-15T07:24:44Z</time>
</trkpt>
<trkpt lat="39.7617607" lon="3.1092149">
<ele>2.38</ele>
<time>2016-10-15T07:24:47Z</time>
</trkpt>
<trkpt lat="39.7618905" lon="3.1089718">
<ele>3.90</ele>
<time>2016-10-15T07:24:50Z</time>
</trkpt>
<trkpt lat="39.7620313" lon="3.1087108">
<ele>4.51</ele>
<time>2016-10-15T07:24:53Z</time>
</trkpt>
<trkpt lat="39.7621712" lon="3.1084450">
<ele>5.94</ele>
<time>2016-10-15T07:24:56Z</time>
</trkpt>
<trkpt lat="39.7623159" lon="3.1081689">
<ele>5.39</ele>
<time>2016-10-15T07:24:59Z</time>
</trkpt>
<trkpt lat="39.7624373" lon="3.1079483">
<ele>6.31</ele>
<time>2016-10-15T07:25:02Z</time>
</trkpt>
<trkpt lat="39.7625496" lon="3.1077264">
<ele>7.74</ele>
<time>2016-10-15T07:25:05Z</time>
</trkpt>
<trkpt lat="39.7626614" lon="3.1075028">
<ele>7.56</ele>
<time>2016-10-15T07:25:08Z</time>
</trkpt>
<trkpt lat="39.7627856" lon="3.1072627">
<ele>7.45</ele>
<time>2016-10-15T07:25:11Z</time>
</trkpt>
<trkpt lat="39.7629135" lon="3.1070215">
<ele>6.97</ele>
<time>2016-10-15T07:25:14Z</time>
</trkpt>
<trkpt lat="39.7630505" lon="3.1067787">
<ele>5.80</ele>
<time>2016-10-15T07:25:17Z</time>
</trkpt>
<trkpt lat="39.7631858" lon="3.1065467">
<ele>5.05</ele>
<time>2016-10-15T07:25:20Z</time>
</trkpt>
<trkpt lat="39.7633126" lon="3.1063232">
<ele>3.73</ele>
<time>2016-10-15T07:25:23Z</time>
</trkpt>
<trkpt lat="39.7634392" lon="3.1060985">
<ele>2.28</ele>
<time>2016-10-15T07:25:26Z</time>
</trkpt>
<trkpt lat="39.7635653" lon="3.1058623">
<ele>2.25</ele>
<time>2016-10-15T07:25:29Z</time>
</trkpt>
<trkpt lat="39.7636932" lon="3.1056218">
<ele>1.86</ele>
<time>2016-10-15T07:25:32Z</time>
</trkpt>
<trkpt lat="39.7638284" lon="3.1053855">
<ele>1.70</ele>
<time>2016-10-15T07:25:35Z</time>
</trkpt>
<trkpt lat="39.7639562" lon="3.1051482">
<ele>2.42</ele>
<time>2016-10-15T07:25:38Z</time>
</trkpt>
<trkpt lat="39.7640867" lon="3.1049079">
<ele>2.19</ele>
<time>2016-10-15T07:25:41Z</time>
</trkpt>
<trkpt lat="39.7642030" lon="3.1046841">
<ele>2.48</ele>
<time>2016-10-15T07:25:44Z</time>
</trkpt>
<trkpt lat="39.7643232" lon="3.1044601">
<ele>3.18</ele>
<time>2016-10-15T07:25:47Z</time>
</trkpt>
<trkpt lat="39.7644429" lon="3.1042221">
<ele>2.76</ele>
<time>2016-10-15T07:25:50Z</time>
</trkpt>
<trkpt lat="39.7645323" lon="3.1039535">
<ele>2.08</ele>
<time>2016-10-15T07:25:53Z</time>
</trkpt>
<trkpt lat="39.7646008" lon="3.1036841">
<ele>1.72</ele>
<time>2016-10-15T07:25:56Z</time>
</trkpt>
<trkpt lat="39.7646642" lon="3.1033954">
<ele>2.05</ele>
<time>2016-10-15T07:25:59Z</time>
</trkpt>
<trkpt lat="39.7647203" lon="3.1031062">
<ele>2.80</ele>
<time>2016-10-15T07:26:02Z</time>
</trkpt>
<trkpt lat="39.7647735" lon="3.1028362">
<ele>4.02</ele>
<time>2016-10-15T07:26:05Z</time>
</trkpt>
<trkpt lat="39.7648324" lon="3.1025790">
<ele>4.78</ele>
<time>2016-10-15T07:26:08Z</time>
</trkpt>
<trkpt lat="39.7649020" lon="3.1023133">
<ele>4.79</ele>
<time>2016-10-15T07:26:11Z</time>
</trkpt>
<trkpt lat="39.7649693" lon="3.1020326">
<ele>4.38</ele>
<time>2016-10-15T07:26:14Z</time>
</trkpt>
<trkpt lat="39.7650373" lon="3.1017645">
<ele>3.96</ele>
<time>2016-10-15T07:26:17Z</time>
</trkpt>
<trkpt lat="39.7651104" lon="3.1015000">
<ele>3.59</ele>
<time>2016-10-15T07:26:20Z</time>
</trkpt>
<trkpt lat="39.7651741" lon="3.1012356">
<ele>3.59</ele>
<time>2016-10-15T07:26:23Z</time>
</trkpt>
<trkpt lat="39.7652481" lon="3.1009432">
<ele>2.83</ele>
<time>2016-10-15T07:26:26Z</time>
</trkpt>
<trkpt lat="39.7653246" lon="3.1006556">
<ele>1.74</ele>
<time>2016-10-15T07:26:29Z</time>
</trkpt>
<trkpt lat="39.7653988" lon="3.1004022">
<ele>2.54</ele>
<time>2016-10-15T07:26:32Z</time>
</trkpt>
<trkpt lat="39.7654752" lon="3.1001530">
<ele>3.19</ele>
<time>2016-10-15T07:26:35Z</time>
</trkpt>
<trkpt lat="39.7655405" lon="3.0998885">
<ele>3.91</ele>
<time>2016-10-15T07:26:38Z</time>
</trkpt>
<trkpt lat="39.7655944" lon="3.0996122">
<ele>3.51</ele>
<time>2016-10-15T07:26:41Z</time>
</trkpt>
<trkpt lat="39.7656294" lon="3.0993279">
<ele>2.85</ele>
<time>2016-10-15T07:26:44Z</time>
</trkpt>
<trkpt lat="39.7656566" lon="3.0990314">
<ele>2.18</ele>
<time>2016-10-15T07:26:47Z</time>
</trkpt>
<trkpt lat="39.7656776" lon="3.0987409">
<ele>1.81</ele>
<time>2016-10-15T07:26:50Z</time>
</trkpt>
<trkpt lat="39.7656886" lon="3.0984390">
<ele>1.39</ele>
<time>2016-10-15T07:26:53Z</time>
</trkpt>
<trkpt lat="39.7656730" lon="3.0981369">
<ele>0.71</ele>
<time>2016-10-15T07:26:56Z</time>
</trkpt>
<trkpt lat="39.7656438" lon="3.0978576">
<ele>0.00</ele>
<time>2016-10-15T07:26:59Z</time>
</trkpt>
<trkpt lat="39.7656251" lon="3.0976088">
<ele>1.08</ele>
<time>2016-10-15T07:27:02Z</time>
</trkpt>
<trkpt lat="39.7656018" lon="3.0973365">
<ele>1.73</ele>
<time>2016-10-15T07:27:05Z</time>
</trkpt>
<trkpt lat="39.7655741" lon="3.0970720">
<ele>2.33</ele>
<time>2016-10-15T07:27:08Z</time>
</trkpt>
<trkpt lat="39.7654921" lon="3.0968020">
<ele>2.37</ele>
<time>2016-10-15T07:27:11Z</time>
</trkpt>
<trkpt lat="39.7653942" lon="3.0965509">
<ele>2.74</ele>
<time>2016-10-15T07:27:14Z</time>
</trkpt>
<trkpt lat="39.7653022" lon="3.0963020">
<ele>3.51</ele>
<time>2016-10-15T07:27:17Z</time>
</trkpt>
<trkpt lat="39.7652086" lon="3.0960518">
<ele>4.52</ele>
<time>2016-10-15T07:27:20Z</time>
</trkpt>
<trkpt lat="39.7651094" lon="3.0957945">
<ele>5.56</ele>
<time>2016-10-15T07:27:23Z</time>
</trkpt>
<trkpt lat="39.7650234" lon="3.0955223">
<ele>6.21</ele>
<time>2016-10-15T07:27:26Z</time>
</trkpt>
<trkpt lat="39.7649637" lon="3.0952530">
<ele>6.49</ele>
<time>2016-10-15T07:27:29Z</time>
</trkpt>
<trkpt lat="39.7649135" lon="3.0949678">
<ele>6.63</ele>
<time>2016-10-15T07:27:32Z</time>
</trkpt>
<trkpt lat="39.7648685" lon="3.0946840">
<ele>5.92</ele>
<time>2016-10-15T07:27:35Z</time>
</trkpt>
<trkpt lat="39.7648290" lon="3.0944074">
<ele>5.74</ele>
<time>2016-10-15T07:27:38Z</time>
</trkpt>
<trkpt lat="39.7647895" lon="3.0941222">
<ele>5.70</ele>
<time>2016-10-15T07:27:41Z</time>
</trkpt>
<trkpt lat="39.7647482" lon="3.0938341">
<ele>5.43</ele>
<time>2016-10-15T07:27:44Z</time>
</trkpt>
<trkpt lat="39.7647093" lon="3.0935431">
<ele>4.79</ele>
<time>2016-10-15T07:27:47Z</time>
</trkpt>
<trkpt lat="39.7646730" lon="3.0932645">
<ele>4.12</ele>
<time>2016-10-15T07:27:50Z</time>
</trkpt>
<trkpt lat="39.7646379" lon="3.0929895">
<ele>4.29</ele>
<time>2016-10-15T07:27:53Z</time>
</trkpt>
<trkpt lat="39.7646040" lon="3.0927284">
<ele>4.39</ele>
<time>2016-10-15T07:27:56Z</time>
</trkpt>
<trkpt lat="39.7645709" lon="3.0924630">
<ele>4.05</ele>
<time>2016-10-15T07:27:59Z</time>
</trkpt>
<trkpt lat="39.7645395" lon="3.0921944">
<ele>3.58</ele>
<time>2016-10-15T07:28:02Z</time>
</trkpt>
<trkpt lat="39.7645023" lon="3.0919190">
<ele>3.45</ele>
<time>2016-10-15T07:28:05Z</time>
</trkpt>
<trkpt lat="39.7644618" lon="3.0916426">
<ele>3.63</ele>
<time>2016-10-15T07:28:08Z</time>
</trkpt>
<trkpt lat="39.7644205" lon="3.0913520">
<ele>3.54</ele>
<time>2016-10-15T07:28:11Z</time>
</trkpt>
<trkpt lat="39.7643803" lon="3.0910567">
<ele>3.55</ele>
<time>2016-10-15T07:28:14Z</time>
</trkpt>
<trkpt lat="39.7643441" lon="3.0907695">
<ele>3.63</ele>
<time>2016-10-15T07:28:17Z</time>
</trkpt>
<trkpt lat="39.7643032" lon="3.0904834">
<ele>3.23</ele>
<time>2016-10-15T07:28:20Z</time>
</trkpt>
<trkpt lat="39.7642685" lon="3.0902083">
<ele>2.96</ele>
<time>2016-10-15T07:28:23Z</time>
</trkpt>
<trkpt lat="39.7642320" lon="3.0899394">
<ele>2.38</ele>
<time>2016-10-15T07:28:26Z</time>
</trkpt>
<trkpt lat="39.7641897" lon="3.0896744">
<ele>2.43</ele>
<time>2016-10-15T07:28:29Z</time>
</trkpt>
<trkpt lat="39.7641525" lon="3.0894010">
<ele>2.94</ele>
<time>2016-10-15T07:28:32Z</time>
</trkpt>
<trkpt lat="39.7641159" lon="3.0891313">
<ele>3.16</ele>
<time>2016-10-15T07:28:35Z</time>
</trkpt>
<trkpt lat="39.7640834" lon="3.0888724">
<ele>3.64</ele>
<time>2016-10-15T07:28:38Z</time>
</trkpt>
<trkpt lat="39.7640527" lon="3.0886051">
<ele>4.00</ele>
<time>2016-10-15T07:28:41Z</time>
</trkpt>
<trkpt lat="39.7640252" lon="3.0883169">
<ele>3.77</ele>
<time>2016-10-15T07:28:44Z</time>
</trkpt>
<trkpt lat="39.7640184" lon="3.0880266">
<ele>3.67</ele>
<time>2016-10-15T07:28:47Z</time>
</trkpt>
<trkpt lat="39.7640254" lon="3.0877300">
<ele>3.71</ele>
<time>2016-10-15T07:28:50Z</time>
</trkpt>
<trkpt lat="39.7640603" lon="3.0873263">
<ele>2.93</ele>
<time>2016-10-15T07:28:54Z</time>
</trkpt>
<trkpt lat="39.7641031" lon="3.0870458">
<ele>2.53</ele>
<time>2016-10-15T07:28:57Z</time>
</trkpt>
<trkpt lat="39.7641498" lon="3.0867707">
<ele>2.20</ele>
<time>2016-10-15T07:29:00Z</time>
</trkpt>
<trkpt lat="39.7642040" lon="3.0865027">
<ele>1.95</ele>
<time>2016-10-15T07:29:03Z</time>
</trkpt>
<trkpt lat="39.7642749" lon="3.0862269">
<ele>2.21</ele>
<time>2016-10-15T07:29:06Z</time>
</trkpt>
<trkpt lat="39.7643415" lon="3.0859826">
<ele>5.04</ele>
<time>2016-10-15T07:29:09Z</time>
</trkpt>
<trkpt lat="39.7644204" lon="3.0857275">
<ele>6.93</ele>
<time>2016-10-15T07:29:12Z</time>
</trkpt>
<trkpt lat="39.7645199" lon="3.0854654">
<ele>7.56</ele>
<time>2016-10-15T07:29:15Z</time>
</trkpt>
<trkpt lat="39.7646355" lon="3.0852077">
<ele>7.14</ele>
<time>2016-10-15T07:29:18Z</time>
</trkpt>
<trkpt lat="39.7647715" lon="3.0849565">
<ele>4.98</ele>
<time>2016-10-15T07:29:21Z</time>
</trkpt>
<trkpt lat="39.7649002" lon="3.0847115">
<ele>3.63</ele>
<time>2016-10-15T07:29:24Z</time>
</trkpt>
<trkpt lat="39.7650289" lon="3.0844612">
<ele>3.59</ele>
<time>2016-10-15T07:29:27Z</time>
</trkpt>
<trkpt lat="39.7651581" lon="3.0842217">
<ele>2.74</ele>
<time>2016-10-15T07:29:31Z</time>
</trkpt>
<trkpt lat="39.7652724" lon="3.0840105">
<ele>3.40</ele>
<time>2016-10-15T07:29:34Z</time>
</trkpt>
<trkpt lat="39.7653842" lon="3.0838088">
<ele>2.74</ele>
<time>2016-10-15T07:29:37Z</time>
</trkpt>
<trkpt lat="39.7655018" lon="3.0835750">
<ele>2.35</ele>
<time>2016-10-15T07:29:40Z</time>
</trkpt>
<trkpt lat="39.7655984" lon="3.0833244">
<ele>2.73</ele>
<time>2016-10-15T07:29:43Z</time>
</trkpt>
<trkpt lat="39.7656582" lon="3.0830590">
<ele>3.84</ele>
<time>2016-10-15T07:29:46Z</time>
</trkpt>
<trkpt lat="39.7657068" lon="3.0827895">
<ele>4.30</ele>
<time>2016-10-15T07:29:49Z</time>
</trkpt>
<trkpt lat="39.7657587" lon="3.0825355">
<ele>4.65</ele>
<time>2016-10-15T07:29:52Z</time>
</trkpt>
<trkpt lat="39.7658732" lon="3.0823444">
<ele>4.87</ele>
<time>2016-10-15T07:29:55Z</time>
</trkpt>
<trkpt lat="39.7660756" lon="3.0822796">
<ele>4.40</ele>
<time>2016-10-15T07:29:58Z</time>
</trkpt>
<trkpt lat="39.7662579" lon="3.0821349">
<ele>3.29</ele>
<time>2016-10-15T07:30:01Z</time>
</trkpt>
<trkpt lat="39.7664055" lon="3.0818773">
<ele>3.55</ele>
<time>2016-10-15T07:30:04Z</time>
</trkpt>
<trkpt lat="39.7665395" lon="3.0816036">
<ele>3.30</ele>
<time>2016-10-15T07:30:07Z</time>
</trkpt>
<trkpt lat="39.7666780" lon="3.0813443">
<ele>3.78</ele>
<time>2016-10-15T07:30:10Z</time>
</trkpt>
<trkpt lat="39.7668140" lon="3.0810808">
<ele>4.70</ele>
<time>2016-10-15T07:30:13Z</time>
</trkpt>
<trkpt lat="39.7669540" lon="3.0808171">
<ele>4.39</ele>
<time>2016-10-15T07:30:16Z</time>
</trkpt>
<trkpt lat="39.7670758" lon="3.0805979">
<ele>3.60</ele>
<time>2016-10-15T07:30:19Z</time>
</trkpt>
<trkpt lat="39.7671950" lon="3.0803565">
<ele>3.53</ele>
<time>2016-10-15T07:30:22Z</time>
</trkpt>
<trkpt lat="39.7673205" lon="3.0801085">
<ele>2.35</ele>
<time>2016-10-15T07:30:25Z</time>
</trkpt>
<trkpt lat="39.7674528" lon="3.0798689">
<ele>2.51</ele>
<time>2016-10-15T07:30:28Z</time>
</trkpt>
<trkpt lat="39.7675806" lon="3.0796310">
<ele>3.34</ele>
<time>2016-10-15T07:30:31Z</time>
</trkpt>
<trkpt lat="39.7677039" lon="3.0794103">
<ele>5.03</ele>
<time>2016-10-15T07:30:34Z</time>
</trkpt>
<trkpt lat="39.7678334" lon="3.0791709">
<ele>5.32</ele>
<time>2016-10-15T07:30:37Z</time>
</trkpt>
<trkpt lat="39.7679545" lon="3.0789239">
<ele>4.95</ele>
<time>2016-10-15T07:30:40Z</time>
</trkpt>
<trkpt lat="39.7680724" lon="3.0786799">
<ele>4.83</ele>
<time>2016-10-15T07:30:43Z</time>
</trkpt>
<trkpt lat="39.7681962" lon="3.0784301">
<ele>2.89</ele>
<time>2016-10-15T07:30:46Z</time>
</trkpt>
<trkpt lat="39.7683177" lon="3.0781814">
<ele>2.22</ele>
<time>2016-10-15T07:30:49Z</time>
</trkpt>
<trkpt lat="39.7684358" lon="3.0779364">
<ele>2.69</ele>
<time>2016-10-15T07:30:52Z</time>
</trkpt>
<trkpt lat="39.7685380" lon="3.0776884">
<ele>2.74</ele>
<time>2016-10-15T07:30:55Z</time>
</trkpt>
<trkpt lat="39.7686238" lon="3.0774314">
<ele>4.28</ele>
<time>2016-10-15T07:30:58Z</time>
</trkpt>
<trkpt lat="39.7686968" lon="3.0771743">
<ele>5.28</ele>
<time>2016-10-15T07:31:01Z</time>
</trkpt>
<trkpt lat="39.7687864" lon="3.0769107">
<ele>4.52</ele>
<time>2016-10-15T07:31:04Z</time>
</trkpt>
<trkpt lat="39.7688822" lon="3.0766872">
<ele>6.01</ele>
<time>2016-10-15T07:31:07Z</time>
</trkpt>
<trkpt lat="39.7689839" lon="3.0764376">
<ele>8.06</ele>
<time>2016-10-15T07:31:10Z</time>
</trkpt>
<trkpt lat="39.7690887" lon="3.0761591">
<ele>7.80</ele>
<time>2016-10-15T07:31:13Z</time>
</trkpt>
<trkpt lat="39.7691843" lon="3.0758670">
<ele>6.40</ele>
<time>2016-10-15T07:31:16Z</time>
</trkpt>
<trkpt lat="39.7692570" lon="3.0755917">
<ele>5.68</ele>
<time>2016-10-15T07:31:19Z</time>
</trkpt>
<trkpt lat="39.7693339" lon="3.0753580">
<ele>6.84</ele>
<time>2016-10-15T07:31:22Z</time>
</trkpt>
<trkpt lat="39.7694413" lon="3.0751135">
<ele>6.64</ele>
<time>2016-10-15T07:31:25Z</time>
</trkpt>
<trkpt lat="39.7695570" lon="3.0748719">
<ele>6.15</ele>
<time>2016-10-15T07:31:28Z</time>
</trkpt>
<trkpt lat="39.7696670" lon="3.0746501">
<ele>5.87</ele>
<time>2016-10-15T07:31:31Z</time>
</trkpt>
<trkpt lat="39.7697904" lon="3.0744349">
<ele>5.68</ele>
<time>2016-10-15T07:31:34Z</time>
</trkpt>
<trkpt lat="39.7699114" lon="3.0742159">
<ele>5.60</ele>
<time>2016-10-15T07:31:37Z</time>
</trkpt>
<trkpt lat="39.7700202" lon="3.0739911">
<ele>5.89</ele>
<time>2016-10-15T07:31:40Z</time>
</trkpt>
<trkpt lat="39.7701353" lon="3.0737443">
<ele>5.28</ele>
<time>2016-10-15T07:31:43Z</time>
</trkpt>
<trkpt lat="39.7702523" lon="3.0735046">
<ele>4.65</ele>
<time>2016-10-15T07:31:46Z</time>
</trkpt>
<trkpt lat="39.7703817" lon="3.0732606">
<ele>4.53</ele>
<time>2016-10-15T07:31:49Z</time>
</trkpt>
<trkpt lat="39.7705161" lon="3.0730057">
<ele>3.78</ele>
<time>2016-10-15T07:31:52Z</time>
</trkpt>
<trkpt lat="39.7706463" lon="3.0727411">
<ele>2.37</ele>
<time>2016-10-15T07:31:55Z</time>
</trkpt>
<trkpt lat="39.7707769" lon="3.0724904">
<ele>1.30</ele>
<time>2016-10-15T07:31:58Z</time>
</trkpt>
<trkpt lat="39.7708910" lon="3.0722713">
<ele>-0.25</ele>
<time>2016-10-15T07:32:01Z</time>
</trkpt>
<trkpt lat="39.7709915" lon="3.0720634">
<ele>-0.63</ele>
<time>2016-10-15T07:32:04Z</time>
</trkpt>
<trkpt lat="39.7710922" lon="3.0718463">
<ele>-0.38</ele>
<time>2016-10-15T07:32:07Z</time>
</trkpt>
<trkpt lat="39.7711828" lon="3.0716157">
<ele>0.38</ele>
<time>2016-10-15T07:32:10Z</time>
</trkpt>
<trkpt lat="39.7712784" lon="3.0713735">
<ele>1.72</ele>
<time>2016-10-15T07:32:13Z</time>
</trkpt>
<trkpt lat="39.7713922" lon="3.0711200">
<ele>2.06</ele>
<time>2016-10-15T07:32:16Z</time>
</trkpt>
<trkpt lat="39.7714974" lon="3.0708601">
<ele>2.41</ele>
<time>2016-10-15T07:32:19Z</time>
</trkpt>
<trkpt lat="39.7715970" lon="3.0705959">
<ele>3.32</ele>
<time>2016-10-15T07:32:22Z</time>
</trkpt>
<trkpt lat="39.7716918" lon="3.0703400">
<ele>4.18</ele>
<time>2016-10-15T07:32:25Z</time>
</trkpt>
<trkpt lat="39.7717948" lon="3.0700792">
<ele>5.33</ele>
<time>2016-10-15T07:32:28Z</time>
</trkpt>
<trkpt lat="39.7719019" lon="3.0698077">
<ele>5.26</ele>
<time>2016-10-15T07:32:31Z</time>
</trkpt>
<trkpt lat="39.7720101" lon="3.0695454">
<ele>4.91</ele>
<time>2016-10-15T07:32:34Z</time>
</trkpt>
<trkpt lat="39.7721147" lon="3.0692967">
<ele>4.45</ele>
<time>2016-10-15T07:32:37Z</time>
</trkpt>
<trkpt lat="39.7722194" lon="3.0690395">
<ele>3.32</ele>
<time>2016-10-15T07:32:40Z</time>
</trkpt>
<trkpt lat="39.7723044" lon="3.0687947">
<ele>3.24</ele>
<time>2016-10-15T07:32:43Z</time>
</trkpt>
<trkpt lat="39.7724108" lon="3.0685630">
<ele>3.48</ele>
<time>2016-10-15T07:32:46Z</time>
</trkpt>
<trkpt lat="39.7725326" lon="3.0683400">
<ele>4.40</ele>
<time>2016-10-15T07:32:49Z</time>
</trkpt>
<trkpt lat="39.7726450" lon="3.0681315">
<ele>4.70</ele>
<time>2016-10-15T07:32:52Z</time>
</trkpt>
<trkpt lat="39.7727686" lon="3.0679211">
<ele>4.82</ele>
<time>2016-10-15T07:32:55Z</time>
</trkpt>
<trkpt lat="39.7728836" lon="3.0676940">
<ele>5.04</ele>
<time>2016-10-15T07:32:58Z</time>
</trkpt>
<trkpt lat="39.7729998" lon="3.0674589">
<ele>5.15</ele>
<time>2016-10-15T07:33:01Z</time>
</trkpt>
<trkpt lat="39.7731080" lon="3.0672469">
<ele>6.25</ele>
<time>2016-10-15T07:33:04Z</time>
</trkpt>
<trkpt lat="39.7732506" lon="3.0670360">
<ele>7.20</ele>
<time>2016-10-15T07:33:07Z</time>
</trkpt>
<trkpt lat="39.7734043" lon="3.0668299">
<ele>6.94</ele>
<time>2016-10-15T07:33:10Z</time>
</trkpt>
<trkpt lat="39.7735668" lon="3.0666259">
<ele>6.38</ele>
<time>2016-10-15T07:33:13Z</time>
</trkpt>
<trkpt lat="39.7737288" lon="3.0664256">
<ele>6.59</ele>
<time>2016-10-15T07:33:16Z</time>
</trkpt>
<trkpt lat="39.7738762" lon="3.0662441">
<ele>7.73</ele>
<time>2016-10-15T07:33:19Z</time>
</trkpt>
<trkpt lat="39.7740280" lon="3.0660588">
<ele>8.27</ele>
<time>2016-10-15T07:33:22Z</time>
</trkpt>
<trkpt lat="39.7741881" lon="3.0658555">
<ele>8.73</ele>
<time>2016-10-15T07:33:25Z</time>
</trkpt>
<trkpt lat="39.7743253" lon="3.0656688">
<ele>8.74</ele>
<time>2016-10-15T07:33:28Z</time>
</trkpt>
<trkpt lat="39.7744626" lon="3.0654583">
<ele>7.20</ele>
<time>2016-10-15T07:33:31Z</time>
</trkpt>
<trkpt lat="39.7745817" lon="3.0652478">
<ele>6.20</ele>
<time>2016-10-15T07:33:34Z</time>
</trkpt>
<trkpt lat="39.7747121" lon="3.0650086">
<ele>5.50</ele>
<time>2016-10-15T07:33:37Z</time>
</trkpt>
<trkpt lat="39.7748431" lon="3.0647798">
<ele>4.81</ele>
<time>2016-10-15T07:33:40Z</time>
</trkpt>
<trkpt lat="39.7749605" lon="3.0645743">
<ele>3.55</ele>
<time>2016-10-15T07:33:43Z</time>
</trkpt>
<trkpt lat="39.7750956" lon="3.0643287">
<ele>4.50</ele>
<time>2016-10-15T07:33:47Z</time>
</trkpt>
<trkpt lat="39.7752251" lon="3.0640929">
<ele>4.73</ele>
<time>2016-10-15T07:33:51Z</time>
</trkpt>
<trkpt lat="39.7753446" lon="3.0638455">
<ele>4.72</ele>
<time>2016-10-15T07:33:55Z</time>
</trkpt>
<trkpt lat="39.7754326" lon="3.0636324">
<ele>6.41</ele>
<time>2016-10-15T07:33:58Z</time>
</trkpt>
<trkpt lat="39.7755284" lon="3.0633788">
<ele>7.63</ele>
<time>2016-10-15T07:34:01Z</time>
</trkpt>
<trkpt lat="39.7756093" lon="3.0630922">
<ele>7.03</ele>
<time>2016-10-15T07:34:04Z</time>
</trkpt>
<trkpt lat="39.7756838" lon="3.0627667">
<ele>6.00</ele>
<time>2016-10-15T07:34:07Z</time>
</trkpt>
<trkpt lat="39.7757548" lon="3.0624642">
<ele>5.78</ele>
<time>2016-10-15T07:34:10Z</time>
</trkpt>
<trkpt lat="39.7758221" lon="3.0621917">
<ele>7.01</ele>
<time>2016-10-15T07:34:13Z</time>
</trkpt>
<trkpt lat="39.7758969" lon="3.0619192">
<ele>8.22</ele>
<time>2016-10-15T07:34:16Z</time>
</trkpt>
<trkpt lat="39.7759747" lon="3.0616477">
<ele>6.45</ele>
<time>2016-10-15T07:34:19Z</time>
</trkpt>
<trkpt lat="39.7760467" lon="3.0613740">
<ele>5.31</ele>
<time>2016-10-15T07:34:22Z</time>
</trkpt>
<trkpt lat="39.7761169" lon="3.0611107">
<ele>4.45</ele>
<time>2016-10-15T07:34:25Z</time>
</trkpt>
<trkpt lat="39.7761894" lon="3.0608411">
<ele>3.77</ele>
<time>2016-10-15T07:34:28Z</time>
</trkpt>
<trkpt lat="39.7762626" lon="3.0605585">
<ele>3.48</ele>
<time>2016-10-15T07:34:31Z</time>
</trkpt>
<trkpt lat="39.7763288" lon="3.0602936">
<ele>3.41</ele>
<time>2016-10-15T07:34:34Z</time>
</trkpt>
<trkpt lat="39.7763923" lon="3.0600167">
<ele>3.25</ele>
<time>2016-10-15T07:34:37Z</time>
</trkpt>
<trkpt lat="39.7764559" lon="3.0597689">
<ele>3.48</ele>
<time>2016-10-15T07:34:40Z</time>
</trkpt>
<trkpt lat="39.7765241" lon="3.0595286">
<ele>3.66</ele>
<time>2016-10-15T07:34:43Z</time>
</trkpt>
<trkpt lat="39.7765964" lon="3.0592967">
<ele>3.65</ele>
<time>2016-10-15T07:34:46Z</time>
</trkpt>
<trkpt lat="39.7766686" lon="3.0590528">
<ele>4.33</ele>
<time>2016-10-15T07:34:49Z</time>
</trkpt>
<trkpt lat="39.7767394" lon="3.0588159">
<ele>4.24</ele>
<time>2016-10-15T07:34:52Z</time>
</trkpt>
<trkpt lat="39.7768040" lon="3.0585783">
<ele>4.37</ele>
<time>2016-10-15T07:34:55Z</time>
</trkpt>
<trkpt lat="39.7768752" lon="3.0583336">
<ele>5.19</ele>
<time>2016-10-15T07:34:58Z</time>
</trkpt>
<trkpt lat="39.7769366" lon="3.0580977">
<ele>6.01</ele>
<time>2016-10-15T07:35:01Z</time>
</trkpt>
<trkpt lat="39.7770071" lon="3.0578463">
<ele>7.47</ele>
<time>2016-10-15T07:35:04Z</time>
</trkpt>
<trkpt lat="39.7770840" lon="3.0575949">
<ele>7.77</ele>
<time>2016-10-15T07:35:07Z</time>
</trkpt>
<trkpt lat="39.7771606" lon="3.0573296">
<ele>7.51</ele>
<time>2016-10-15T07:35:10Z</time>
</trkpt>
<trkpt lat="39.7772435" lon="3.0570951">
<ele>6.58</ele>
<time>2016-10-15T07:35:13Z</time>
</trkpt>
<trkpt lat="39.7773332" lon="3.0568480">
<ele>5.87</ele>
<time>2016-10-15T07:35:16Z</time>
</trkpt>
<trkpt lat="39.7774229" lon="3.0565901">
<ele>4.65</ele>
<time>2016-10-15T07:35:19Z</time>
</trkpt>
<trkpt lat="39.7775015" lon="3.0563394">
<ele>3.45</ele>
<time>2016-10-15T07:35:22Z</time>
</trkpt>
<trkpt lat="39.7775695" lon="3.0560960">
<ele>2.99</ele>
<time>2016-10-15T07:35:25Z</time>
</trkpt>
<trkpt lat="39.7776489" lon="3.0558561">
<ele>3.97</ele>
<time>2016-10-15T07:35:28Z</time>
</trkpt>
<trkpt lat="39.7777445" lon="3.0556086">
<ele>4.22</ele>
<time>2016-10-15T07:35:31Z</time>
</trkpt>
<trkpt lat="39.7778395" lon="3.0553614">
<ele>4.27</ele>
<time>2016-10-15T07:35:34Z</time>
</trkpt>
<trkpt lat="39.7779450" lon="3.0551554">
<ele>3.85</ele>
<time>2016-10-15T07:35:37Z</time>
</trkpt>
<trkpt lat="39.7780634" lon="3.0549663">
<ele>3.44</ele>
<time>2016-10-15T07:35:40Z</time>
</trkpt>
<trkpt lat="39.7781893" lon="3.0547641">
<ele>3.18</ele>
<time>2016-10-15T07:35:43Z</time>
</trkpt>
<trkpt lat="39.7783147" lon="3.0545494">
<ele>2.70</ele>
<time>2016-10-15T07:35:46Z</time>
</trkpt>
<trkpt lat="39.7784250" lon="3.0543344">
<ele>2.50</ele>
<time>2016-10-15T07:35:49Z</time>
</trkpt>
<trkpt lat="39.7785196" lon="3.0541066">
<ele>2.88</ele>
<time>2016-10-15T07:35:52Z</time>
</trkpt>
<trkpt lat="39.7786140" lon="3.0538618">
<ele>2.87</ele>
<time>2016-10-15T07:35:55Z</time>
</trkpt>
<trkpt lat="39.7786908" lon="3.0536103">
<ele>3.20</ele>
<time>2016-10-15T07:35:58Z</time>
</trkpt>
<trkpt lat="39.7787450" lon="3.0533565">
<ele>2.85</ele>
<time>2016-10-15T07:36:01Z</time>
</trkpt>
<trkpt lat="39.7787615" lon="3.0531020">
<ele>2.68</ele>
<time>2016-10-15T07:36:04Z</time>
</trkpt>
<trkpt lat="39.7786918" lon="3.0528662">
<ele>2.94</ele>
<time>2016-10-15T07:36:07Z</time>
</trkpt>
<trkpt lat="39.7785701" lon="3.0526420">
<ele>2.66</ele>
<time>2016-10-15T07:36:10Z</time>
</trkpt>
<trkpt lat="39.7784325" lon="3.0524210">
<ele>0.78</ele>
<time>2016-10-15T07:36:13Z</time>
</trkpt>
<trkpt lat="39.7782776" lon="3.0521965">
<ele>-1.32</ele>
<time>2016-10-15T07:36:16Z</time>
</trkpt>
<trkpt lat="39.7781252" lon="3.0519915">
<ele>-1.74</ele>
<time>2016-10-15T07:36:19Z</time>
</trkpt>
<trkpt lat="39.7779811" lon="3.0517997">
<ele>-1.48</ele>
<time>2016-10-15T07:36:22Z</time>
</trkpt>
<trkpt lat="39.7778462" lon="3.0516020">
<ele>-0.79</ele>
<time>2016-10-15T07:36:25Z</time>
</trkpt>
<trkpt lat="39.7777079" lon="3.0513975">
<ele>0.54</ele>
<time>2016-10-15T07:36:28Z</time>
</trkpt>
<trkpt lat="39.7775786" lon="3.0512092">
<ele>1.52</ele>
<time>2016-10-15T07:36:31Z</time>
</trkpt>
<trkpt lat="39.7774456" lon="3.0510058">
<ele>2.10</ele>
<time>2016-10-15T07:36:34Z</time>
</trkpt>
<trkpt lat="39.7773157" lon="3.0508159">
<ele>1.70</ele>
<time>2016-10-15T07:36:37Z</time>
</trkpt>
<trkpt lat="39.7771760" lon="3.0506181">
<ele>1.41</ele>
<time>2016-10-15T07:36:40Z</time>
</trkpt>
<trkpt lat="39.7770329" lon="3.0504098">
<ele>0.73</ele>
<time>2016-10-15T07:36:43Z</time>
</trkpt>
<trkpt lat="39.7768919" lon="3.0502079">
<ele>-0.26</ele>
<time>2016-10-15T07:36:46Z</time>
</trkpt>
<trkpt lat="39.7767607" lon="3.0500224">
<ele>-1.09</ele>
<time>2016-10-15T07:36:49Z</time>
</trkpt>
<trkpt lat="39.7766309" lon="3.0498346">
<ele>-2.03</ele>
<time>2016-10-15T07:36:52Z</time>
</trkpt>
<trkpt lat="39.7764729" lon="3.0496541">
<ele>-3.16</ele>
<time>2016-10-15T07:36:55Z</time>
</trkpt>
<trkpt lat="39.7763068" lon="3.0495110">
<ele>-4.43</ele>
<time>2016-10-15T07:36:58Z</time>
</trkpt>
<trkpt lat="39.7761630" lon="3.0493677">
<ele>-4.49</ele>
<time>2016-10-15T07:37:01Z</time>
</trkpt>
<trkpt lat="39.7760375" lon="3.0491880">
<ele>-3.60</ele>
<time>2016-10-15T07:37:04Z</time>
</trkpt>
<trkpt lat="39.7759172" lon="3.0489925">
<ele>-2.72</ele>
<time>2016-10-15T07:37:07Z</time>
</trkpt>
<trkpt lat="39.7758033" lon="3.0488027">
<ele>-1.60</ele>
<time>2016-10-15T07:37:10Z</time>
</trkpt>
<trkpt lat="39.7756803" lon="3.0485876">
<ele>-0.66</ele>
<time>2016-10-15T07:37:13Z</time>
</trkpt>
<trkpt lat="39.7755622" lon="3.0483707">
<ele>-0.27</ele>
<time>2016-10-15T07:37:16Z</time>
</trkpt>
<trkpt lat="39.7754457" lon="3.0481475">
<ele>0.09</ele>
<time>2016-10-15T07:37:19Z</time>
</trkpt>
<trkpt lat="39.7753244" lon="3.0479275">
<ele>0.16</ele>
<time>2016-10-15T07:37:22Z</time>
</trkpt>
<trkpt lat="39.7752064" lon="3.0477162">
<ele>0.61</ele>
<time>2016-10-15T07:37:25Z</time>
</trkpt>
<trkpt lat="39.7750964" lon="3.0475211">
<ele>1.26</ele>
<time>2016-10-15T07:37:28Z</time>
</trkpt>
<trkpt lat="39.7749828" lon="3.0473126">
<ele>1.73</ele>
<time>2016-10-15T07:37:31Z</time>
</trkpt>
<trkpt lat="39.7748725" lon="3.0471180">
<ele>2.12</ele>
<time>2016-10-15T07:37:34Z</time>
</trkpt>
<trkpt lat="39.7747523" lon="3.0469052">
<ele>2.43</ele>
<time>2016-10-15T07:37:36Z</time>
</trkpt>
<trkpt lat="39.7746398" lon="3.0466988">
<ele>2.44</ele>
<time>2016-10-15T07:37:39Z</time>
</trkpt>
<trkpt lat="39.7745175" lon="3.0464890">
<ele>2.69</ele>
<time>2016-10-15T07:37:42Z</time>
</trkpt>
<trkpt lat="39.7744037" lon="3.0462846">
<ele>3.10</ele>
<time>2016-10-15T07:37:45Z</time>
</trkpt>
<trkpt lat="39.7742922" lon="3.0460780">
<ele>2.98</ele>
<time>2016-10-15T07:37:48Z</time>
</trkpt>
<trkpt lat="39.7741769" lon="3.0458747">
<ele>3.06</ele>
<time>2016-10-15T07:37:51Z</time>
</trkpt>
<trkpt lat="39.7740678" lon="3.0456772">
<ele>3.61</ele>
<time>2016-10-15T07:37:54Z</time>
</trkpt>
<trkpt lat="39.7739577" lon="3.0454818">
<ele>5.26</ele>
<time>2016-10-15T07:37:57Z</time>
</trkpt>
<trkpt lat="39.7738365" lon="3.0452658">
<ele>6.11</ele>
<time>2016-10-15T07:38:00Z</time>
</trkpt>
<trkpt lat="39.7737184" lon="3.0450539">
<ele>6.71</ele>
<time>2016-10-15T07:38:03Z</time>
</trkpt>
<trkpt lat="39.7735907" lon="3.0448359">
<ele>6.38</ele>
<time>2016-10-15T07:38:06Z</time>
</trkpt>
<trkpt lat="39.7734729" lon="3.0446150">
<ele>5.38</ele>
<time>2016-10-15T07:38:09Z</time>
</trkpt>
<trkpt lat="39.7733558" lon="3.0444002">
<ele>4.83</ele>
<time>2016-10-15T07:38:12Z</time>
</trkpt>
<trkpt lat="39.7732447" lon="3.0441961">
<ele>4.56</ele>
<time>2016-10-15T07:38:15Z</time>
</trkpt>
<trkpt lat="39.7731374" lon="3.0439969">
<ele>4.72</ele>
<time>2016-10-15T07:38:18Z</time>
</trkpt>
<trkpt lat="39.7730253" lon="3.0437854">
<ele>4.52</ele>
<time>2016-10-15T07:38:21Z</time>
</trkpt>
<trkpt lat="39.7729209" lon="3.0435873">
<ele>4.52</ele>
<time>2016-10-15T07:38:24Z</time>
</trkpt>
<trkpt lat="39.7728019" lon="3.0433777">
<ele>4.69</ele>
<time>2016-10-15T07:38:27Z</time>
</trkpt>
<trkpt lat="39.7726571" lon="3.0431317">
<ele>6.32</ele>
<time>2016-10-15T07:38:31Z</time>
</trkpt>
<trkpt lat="39.7725339" lon="3.0429167">
<ele>7.23</ele>
<time>2016-10-15T07:38:34Z</time>
</trkpt>
<trkpt lat="39.7724143" lon="3.0427044">
<ele>7.51</ele>
<time>2016-10-15T07:38:37Z</time>
</trkpt>
<trkpt lat="39.7722915" lon="3.0424764">
<ele>7.37</ele>
<time>2016-10-15T07:38:40Z</time>
</trkpt>
<trkpt lat="39.7721706" lon="3.0422591">
<ele>7.15</ele>
<time>2016-10-15T07:38:43Z</time>
</trkpt>
<trkpt lat="39.7720549" lon="3.0420429">
<ele>8.02</ele>
<time>2016-10-15T07:38:46Z</time>
</trkpt>
<trkpt lat="39.7719376" lon="3.0418216">
<ele>8.01</ele>
<time>2016-10-15T07:38:49Z</time>
</trkpt>
<trkpt lat="39.7718227" lon="3.0416105">
<ele>7.14</ele>
<time>2016-10-15T07:38:52Z</time>
</trkpt>
<trkpt lat="39.7717082" lon="3.0413981">
<ele>6.31</ele>
<time>2016-10-15T07:38:55Z</time>
</trkpt>
<trkpt lat="39.7715948" lon="3.0411895">
<ele>5.86</ele>
<time>2016-10-15T07:38:58Z</time>
</trkpt>
<trkpt lat="39.7714720" lon="3.0409721">
<ele>5.19</ele>
<time>2016-10-15T07:39:01Z</time>
</trkpt>
<trkpt lat="39.7713579" lon="3.0407553">
<ele>4.29</ele>
<time>2016-10-15T07:39:04Z</time>
</trkpt>
<trkpt lat="39.7712481" lon="3.0405361">
<ele>3.38</ele>
<time>2016-10-15T07:39:07Z</time>
</trkpt>
<trkpt lat="39.7711115" lon="3.0402961">
<ele>3.12</ele>
<time>2016-10-15T07:39:11Z</time>
</trkpt>
<trkpt lat="39.7710273" lon="3.0400817">
<ele>4.05</ele>
<time>2016-10-15T07:39:15Z</time>
</trkpt>
<trkpt lat="39.7711890" lon="3.0398820">
<ele>7.65</ele>
<time>2016-10-15T07:39:20Z</time>
</trkpt>
<trkpt lat="39.7713486" lon="3.0397560">
<ele>7.98</ele>
<time>2016-10-15T07:39:23Z</time>
</trkpt>
<trkpt lat="39.7715173" lon="3.0396316">
<ele>9.21</ele>
<time>2016-10-15T07:39:26Z</time>
</trkpt>
<trkpt lat="39.7716944" lon="3.0394961">
<ele>9.71</ele>
<time>2016-10-15T07:39:29Z</time>
</trkpt>
<trkpt lat="39.7718870" lon="3.0393524">
<ele>9.91</ele>
<time>2016-10-15T07:39:32Z</time>
</trkpt>
<trkpt lat="39.7720947" lon="3.0391965">
<ele>9.22</ele>
<time>2016-10-15T07:39:35Z</time>
</trkpt>
<trkpt lat="39.7722865" lon="3.0390452">
<ele>8.40</ele>
<time>2016-10-15T07:39:38Z</time>
</trkpt>
<trkpt lat="39.7724739" lon="3.0389044">
<ele>8.49</ele>
<time>2016-10-15T07:39:41Z</time>
</trkpt>
<trkpt lat="39.7726511" lon="3.0387705">
<ele>9.10</ele>
<time>2016-10-15T07:39:44Z</time>
</trkpt>
<trkpt lat="39.7728268" lon="3.0386396">
<ele>9.54</ele>
<time>2016-10-15T07:39:47Z</time>
</trkpt>
<trkpt lat="39.7730018" lon="3.0385008">
<ele>8.98</ele>
<time>2016-10-15T07:39:50Z</time>
</trkpt>
<trkpt lat="39.7731026" lon="3.0382655">
<ele>9.08</ele>
<time>2016-10-15T07:39:53Z</time>
</trkpt>
<trkpt lat="39.7730973" lon="3.0380077">
<ele>8.30</ele>
<time>2016-10-15T07:39:56Z</time>
</trkpt>
<trkpt lat="39.7730392" lon="3.0377361">
<ele>8.41</ele>
<time>2016-10-15T07:39:59Z</time>
</trkpt>
<trkpt lat="39.7729717" lon="3.0374650">
<ele>8.74</ele>
<time>2016-10-15T07:40:02Z</time>
</trkpt>
<trkpt lat="39.7729004" lon="3.0372188">
<ele>9.22</ele>
<time>2016-10-15T07:40:05Z</time>
</trkpt>
<trkpt lat="39.7728343" lon="3.0369793">
<ele>8.42</ele>
<time>2016-10-15T07:40:08Z</time>
</trkpt>
<trkpt lat="39.7727594" lon="3.0367339">
<ele>7.89</ele>
<time>2016-10-15T07:40:11Z</time>
</trkpt>
<trkpt lat="39.7726688" lon="3.0364954">
<ele>8.38</ele>
<time>2016-10-15T07:40:14Z</time>
</trkpt>
<trkpt lat="39.7725616" lon="3.0362394">
<ele>9.90</ele>
<time>2016-10-15T07:40:17Z</time>
</trkpt>
<trkpt lat="39.7724589" lon="3.0359998">
<ele>10.71</ele>
<time>2016-10-15T07:40:20Z</time>
</trkpt>
<trkpt lat="39.7723585" lon="3.0357804">
<ele>10.24</ele>
<time>2016-10-15T07:40:23Z</time>
</trkpt>
<trkpt lat="39.7722644" lon="3.0355590">
<ele>10.03</ele>
<time>2016-10-15T07:40:26Z</time>
</trkpt>
<trkpt lat="39.7721775" lon="3.0353389">
<ele>9.90</ele>
<time>2016-10-15T07:40:29Z</time>
</trkpt>
<trkpt lat="39.7720898" lon="3.0351280">
<ele>10.20</ele>
<time>2016-10-15T07:40:32Z</time>
</trkpt>
<trkpt lat="39.7719980" lon="3.0349204">
<ele>11.16</ele>
<time>2016-10-15T07:40:35Z</time>
</trkpt>
<trkpt lat="39.7719090" lon="3.0347041">
<ele>11.50</ele>
<time>2016-10-15T07:40:38Z</time>
</trkpt>
<trkpt lat="39.7718207" lon="3.0344860">
<ele>11.38</ele>
<time>2016-10-15T07:40:41Z</time>
</trkpt>
<trkpt lat="39.7717049" lon="3.0342279">
<ele>10.90</ele>
<time>2016-10-15T07:40:45Z</time>
</trkpt>
<trkpt lat="39.7716682" lon="3.0339961">
<ele>10.98</ele>
<time>2016-10-15T07:40:49Z</time>
</trkpt>
<trkpt lat="39.7718147" lon="3.0338242">
<ele>10.93</ele>
<time>2016-10-15T07:40:53Z</time>
</trkpt>
<trkpt lat="39.7720047" lon="3.0336675">
<ele>11.02</ele>
<time>2016-10-15T07:40:57Z</time>
</trkpt>
<trkpt lat="39.7721083" lon="3.0334299">
<ele>11.41</ele>
<time>2016-10-15T07:41:02Z</time>
</trkpt>
<trkpt lat="39.7720807" lon="3.0331219">
<ele>14.10</ele>
<time>2016-10-15T07:41:06Z</time>
</trkpt>
<trkpt lat="39.7720436" lon="3.0328246">
<ele>15.54</ele>
<time>2016-10-15T07:41:10Z</time>
</trkpt>
<trkpt lat="39.7720230" lon="3.0325831">
<ele>14.35</ele>
<time>2016-10-15T07:41:13Z</time>
</trkpt>
<trkpt lat="39.7720087" lon="3.0323279">
<ele>13.21</ele>
<time>2016-10-15T07:41:16Z</time>
</trkpt>
<trkpt lat="39.7719866" lon="3.0320591">
<ele>12.18</ele>
<time>2016-10-15T07:41:19Z</time>
</trkpt>
<trkpt lat="39.7719575" lon="3.0317979">
<ele>11.98</ele>
<time>2016-10-15T07:41:22Z</time>
</trkpt>
<trkpt lat="39.7719267" lon="3.0314955">
<ele>11.93</ele>
<time>2016-10-15T07:41:26Z</time>
</trkpt>
<trkpt lat="39.7719108" lon="3.0311988">
<ele>12.94</ele>
<time>2016-10-15T07:41:30Z</time>
</trkpt>
<trkpt lat="39.7719015" lon="3.0309503">
<ele>13.77</ele>
<time>2016-10-15T07:41:34Z</time>
</trkpt>
<trkpt lat="39.7719020" lon="3.0307052">
<ele>13.53</ele>
<time>2016-10-15T07:41:38Z</time>
</trkpt>
<trkpt lat="39.7720549" lon="3.0305396">
<ele>12.45</ele>
<time>2016-10-15T07:41:42Z</time>
</trkpt>
<trkpt lat="39.7722069" lon="3.0303927">
<ele>11.63</ele>
<time>2016-10-15T07:41:45Z</time>
</trkpt>
<trkpt lat="39.7723844" lon="3.0302924">
<ele>11.56</ele>
<time>2016-10-15T07:41:48Z</time>
</trkpt>
<trkpt lat="39.7725717" lon="3.0301571">
<ele>12.17</ele>
<time>2016-10-15T07:41:51Z</time>
</trkpt>
<trkpt lat="39.7727259" lon="3.0300127">
<ele>14.14</ele>
<time>2016-10-15T07:41:54Z</time>
</trkpt>
<trkpt lat="39.7728962" lon="3.0298644">
<ele>15.88</ele>
<time>2016-10-15T07:41:57Z</time>
</trkpt>
<trkpt lat="39.7730708" lon="3.0297029">
<ele>17.83</ele>
<time>2016-10-15T07:42:00Z</time>
</trkpt>
<trkpt lat="39.7732641" lon="3.0295298">
<ele>18.53</ele>
<time>2016-10-15T07:42:03Z</time>
</trkpt>
<trkpt lat="39.7734469" lon="3.0293643">
<ele>19.04</ele>
<time>2016-10-15T07:42:06Z</time>
</trkpt>
<trkpt lat="39.7736148" lon="3.0292025">
<ele>19.76</ele>
<time>2016-10-15T07:42:09Z</time>
</trkpt>
<trkpt lat="39.7737916" lon="3.0290558">
<ele>20.33</ele>
<time>2016-10-15T07:42:12Z</time>
</trkpt>
<trkpt lat="39.7739828" lon="3.0288831">
<ele>20.43</ele>
<time>2016-10-15T07:42:15Z</time>
</trkpt>
<trkpt lat="39.7741713" lon="3.0287173">
<ele>20.23</ele>
<time>2016-10-15T07:42:18Z</time>
</trkpt>
<trkpt lat="39.7743371" lon="3.0285725">
<ele>20.38</ele>
<time>2016-10-15T07:42:21Z</time>
</trkpt>
<trkpt lat="39.7744985" lon="3.0284367">
<ele>20.49</ele>
<time>2016-10-15T07:42:24Z</time>
</trkpt>
<trkpt lat="39.7746982" lon="3.0282868">
<ele>20.27</ele>
<time>2016-10-15T07:42:28Z</time>
</trkpt>
<trkpt lat="39.7749093" lon="3.0281563">
<ele>22.34</ele>
<time>2016-10-15T07:42:32Z</time>
</trkpt>
<trkpt lat="39.7750673" lon="3.0279648">
<ele>22.74</ele>
<time>2016-10-15T07:42:35Z</time>
</trkpt>
<trkpt lat="39.7752344" lon="3.0277672">
<ele>20.37</ele>
<time>2016-10-15T07:42:38Z</time>
</trkpt>
<trkpt lat="39.7754290" lon="3.0276028">
<ele>18.26</ele>
<time>2016-10-15T07:42:41Z</time>
</trkpt>
<trkpt lat="39.7756098" lon="3.0274437">
<ele>17.22</ele>
<time>2016-10-15T07:42:44Z</time>
</trkpt>
<trkpt lat="39.7757930" lon="3.0272786">
<ele>17.49</ele>
<time>2016-10-15T07:42:47Z</time>
</trkpt>
<trkpt lat="39.7759602" lon="3.0270990">
<ele>17.22</ele>
<time>2016-10-15T07:42:50Z</time>
</trkpt>
<trkpt lat="39.7760917" lon="3.0268953">
<ele>16.72</ele>
<time>2016-10-15T07:42:53Z</time>
</trkpt>
<trkpt lat="39.7761858" lon="3.0266610">
<ele>16.90</ele>
<time>2016-10-15T07:42:56Z</time>
</trkpt>
<trkpt lat="39.7762581" lon="3.0264030">
<ele>17.54</ele>
<time>2016-10-15T07:42:59Z</time>
</trkpt>
<trkpt lat="39.7762842" lon="3.0261339">
<ele>18.04</ele>
<time>2016-10-15T07:43:02Z</time>
</trkpt>
<trkpt lat="39.7762747" lon="3.0258635">
<ele>18.69</ele>
<time>2016-10-15T07:43:05Z</time>
</trkpt>
<trkpt lat="39.7762468" lon="3.0255894">
<ele>18.21</ele>
<time>2016-10-15T07:43:08Z</time>
</trkpt>
<trkpt lat="39.7762151" lon="3.0253203">
<ele>17.34</ele>
<time>2016-10-15T07:43:11Z</time>
</trkpt>
<trkpt lat="39.7761897" lon="3.0250658">
<ele>17.17</ele>
<time>2016-10-15T07:43:14Z</time>
</trkpt>
<trkpt lat="39.7761598" lon="3.0247681">
<ele>18.39</ele>
<time>2016-10-15T07:43:18Z</time>
</trkpt>
<trkpt lat="39.7761539" lon="3.0244785">
<ele>18.91</ele>
<time>2016-10-15T07:43:22Z</time>
</trkpt>
<trkpt lat="39.7761504" lon="3.0241694">
<ele>18.70</ele>
<time>2016-10-15T07:43:26Z</time>
</trkpt>
<trkpt lat="39.7761055" lon="3.0239209">
<ele>18.95</ele>
<time>2016-10-15T07:43:29Z</time>
</trkpt>
<trkpt lat="39.7760786" lon="3.0236537">
<ele>18.84</ele>
<time>2016-10-15T07:43:32Z</time>
</trkpt>
<trkpt lat="39.7760577" lon="3.0233696">
<ele>18.24</ele>
<time>2016-10-15T07:43:35Z</time>
</trkpt>
<trkpt lat="39.7760459" lon="3.0230801">
<ele>16.98</ele>
<time>2016-10-15T07:43:38Z</time>
</trkpt>
<trkpt lat="39.7760342" lon="3.0227866">
<ele>16.08</ele>
<time>2016-10-15T07:43:41Z</time>
</trkpt>
<trkpt lat="39.7760161" lon="3.0224997">
<ele>15.99</ele>
<time>2016-10-15T07:43:44Z</time>
</trkpt>
<trkpt lat="39.7760074" lon="3.0222383">
<ele>16.66</ele>
<time>2016-10-15T07:43:47Z</time>
</trkpt>
<trkpt lat="39.7759982" lon="3.0220038">
<ele>18.24</ele>
<time>2016-10-15T07:43:50Z</time>
</trkpt>
<trkpt lat="39.7759860" lon="3.0217597">
<ele>19.74</ele>
<time>2016-10-15T07:43:53Z</time>
</trkpt>
<trkpt lat="39.7759732" lon="3.0214908">
<ele>19.15</ele>
<time>2016-10-15T07:43:56Z</time>
</trkpt>
<trkpt lat="39.7759453" lon="3.0212249">
<ele>18.46</ele>
<time>2016-10-15T07:43:59Z</time>
</trkpt>
<trkpt lat="39.7758917" lon="3.0209753">
<ele>17.75</ele>
<time>2016-10-15T07:44:02Z</time>
</trkpt>
<trkpt lat="39.7758007" lon="3.0207044">
<ele>15.76</ele>
<time>2016-10-15T07:44:05Z</time>
</trkpt>
<trkpt lat="39.7756955" lon="3.0204797">
<ele>15.18</ele>
<time>2016-10-15T07:44:08Z</time>
</trkpt>
<trkpt lat="39.7755884" lon="3.0202494">
<ele>13.92</ele>
<time>2016-10-15T07:44:11Z</time>
</trkpt>
<trkpt lat="39.7754700" lon="3.0199722">
<ele>14.37</ele>
<time>2016-10-15T07:44:15Z</time>
</trkpt>
<trkpt lat="39.7753714" lon="3.0197559">
<ele>14.49</ele>
<time>2016-10-15T07:44:18Z</time>
</trkpt>
<trkpt lat="39.7752793" lon="3.0195455">
<ele>15.08</ele>
<time>2016-10-15T07:44:21Z</time>
</trkpt>
<trkpt lat="39.7751761" lon="3.0193323">
<ele>16.46</ele>
<time>2016-10-15T07:44:24Z</time>
</trkpt>
<trkpt lat="39.7750596" lon="3.0191101">
<ele>17.56</ele>
<time>2016-10-15T07:44:27Z</time>
</trkpt>
<trkpt lat="39.7749545" lon="3.0188847">
<ele>17.16</ele>
<time>2016-10-15T07:44:30Z</time>
</trkpt>
<trkpt lat="39.7748621" lon="3.0186712">
<ele>16.65</ele>
<time>2016-10-15T07:44:33Z</time>
</trkpt>
<trkpt lat="39.7747611" lon="3.0184525">
<ele>16.31</ele>
<time>2016-10-15T07:44:36Z</time>
</trkpt>
<trkpt lat="39.7746613" lon="3.0182386">
<ele>16.05</ele>
<time>2016-10-15T07:44:39Z</time>
</trkpt>
<trkpt lat="39.7745590" lon="3.0180273">
<ele>15.88</ele>
<time>2016-10-15T07:44:42Z</time>
</trkpt>
<trkpt lat="39.7744565" lon="3.0178065">
<ele>16.71</ele>
<time>2016-10-15T07:44:45Z</time>
</trkpt>
<trkpt lat="39.7743342" lon="3.0175477">
<ele>15.45</ele>
<time>2016-10-15T07:44:49Z</time>
</trkpt>
<trkpt lat="39.7742235" lon="3.0173207">
<ele>16.05</ele>
<time>2016-10-15T07:44:53Z</time>
</trkpt>
<trkpt lat="39.7741103" lon="3.0170855">
<ele>16.71</ele>
<time>2016-10-15T07:44:57Z</time>
</trkpt>
<trkpt lat="39.7740504" lon="3.0168258">
<ele>16.71</ele>
<time>2016-10-15T07:45:02Z</time>
</trkpt>
<trkpt lat="39.7739070" lon="3.0166382">
<ele>16.20</ele>
<time>2016-10-15T07:45:06Z</time>
</trkpt>
<trkpt lat="39.7737690" lon="3.0164512">
<ele>16.61</ele>
<time>2016-10-15T07:45:09Z</time>
</trkpt>
<trkpt lat="39.7736487" lon="3.0161822">
<ele>18.15</ele>
<time>2016-10-15T07:45:13Z</time>
</trkpt>
<trkpt lat="39.7735485" lon="3.0159628">
<ele>18.92</ele>
<time>2016-10-15T07:45:16Z</time>
</trkpt>
<trkpt lat="39.7734377" lon="3.0157300">
<ele>20.50</ele>
<time>2016-10-15T07:45:19Z</time>
</trkpt>
<trkpt lat="39.7733332" lon="3.0155192">
<ele>21.94</ele>
<time>2016-10-15T07:45:22Z</time>
</trkpt>
<trkpt lat="39.7732257" lon="3.0152951">
<ele>22.57</ele>
<time>2016-10-15T07:45:25Z</time>
</trkpt>
<trkpt lat="39.7731220" lon="3.0150839">
<ele>21.45</ele>
<time>2016-10-15T07:45:28Z</time>
</trkpt>
<trkpt lat="39.7729944" lon="3.0148409">
<ele>20.98</ele>
<time>2016-10-15T07:45:32Z</time>
</trkpt>
<trkpt lat="39.7728653" lon="3.0145843">
<ele>22.18</ele>
<time>2016-10-15T07:45:36Z</time>
</trkpt>
<trkpt lat="39.7727417" lon="3.0143395">
<ele>22.58</ele>
<time>2016-10-15T07:45:40Z</time>
</trkpt>
<trkpt lat="39.7726275" lon="3.0141169">
<ele>23.14</ele>
<time>2016-10-15T07:45:45Z</time>
</trkpt>
<trkpt lat="39.7725632" lon="3.0138229">
<ele>23.52</ele>
<time>2016-10-15T07:45:49Z</time>
</trkpt>
<trkpt lat="39.7725482" lon="3.0135744">
<ele>23.60</ele>
<time>2016-10-15T07:45:52Z</time>
</trkpt>
<trkpt lat="39.7726030" lon="3.0133389">
<ele>24.70</ele>
<time>2016-10-15T07:45:55Z</time>
</trkpt>
<trkpt lat="39.7726806" lon="3.0131030">
<ele>27.96</ele>
<time>2016-10-15T07:45:58Z</time>
</trkpt>
<trkpt lat="39.7727729" lon="3.0128444">
<ele>29.50</ele>
<time>2016-10-15T07:46:01Z</time>
</trkpt>
<trkpt lat="39.7728768" lon="3.0125725">
<ele>28.70</ele>
<time>2016-10-15T07:46:04Z</time>
</trkpt>
<trkpt lat="39.7729811" lon="3.0123172">
<ele>26.86</ele>
<time>2016-10-15T07:46:07Z</time>
</trkpt>
<trkpt lat="39.7730779" lon="3.0120746">
<ele>26.30</ele>
<time>2016-10-15T07:46:10Z</time>
</trkpt>
<trkpt lat="39.7731720" lon="3.0118245">
<ele>26.57</ele>
<time>2016-10-15T07:46:13Z</time>
</trkpt>
<trkpt lat="39.7732707" lon="3.0115674">
<ele>25.80</ele>
<time>2016-10-15T07:46:16Z</time>
</trkpt>
<trkpt lat="39.7733740" lon="3.0113012">
<ele>24.44</ele>
<time>2016-10-15T07:46:19Z</time>
</trkpt>
<trkpt lat="39.7734717" lon="3.0110382">
<ele>25.03</ele>
<time>2016-10-15T07:46:22Z</time>
</trkpt>
<trkpt lat="39.7735632" lon="3.0107899">
<ele>25.25</ele>
<time>2016-10-15T07:46:25Z</time>
</trkpt>
<trkpt lat="39.7736527" lon="3.0105343">
<ele>25.02</ele>
<time>2016-10-15T07:46:28Z</time>
</trkpt>
<trkpt lat="39.7737385" lon="3.0102946">
<ele>24.86</ele>
<time>2016-10-15T07:46:31Z</time>
</trkpt>
<trkpt lat="39.7738202" lon="3.0100405">
<ele>25.25</ele>
<time>2016-10-15T07:46:34Z</time>
</trkpt>
<trkpt lat="39.7739075" lon="3.0097765">
<ele>25.06</ele>
<time>2016-10-15T07:46:37Z</time>
</trkpt>
<trkpt lat="39.7739994" lon="3.0095218">
<ele>24.65</ele>
<time>2016-10-15T07:46:40Z</time>
</trkpt>
<trkpt lat="39.7740903" lon="3.0092759">
<ele>24.42</ele>
<time>2016-10-15T07:46:43Z</time>
</trkpt>
<trkpt lat="39.7741782" lon="3.0090344">
<ele>23.59</ele>
<time>2016-10-15T07:46:46Z</time>
</trkpt>
<trkpt lat="39.7742640" lon="3.0088067">
<ele>24.39</ele>
<time>2016-10-15T07:46:49Z</time>
</trkpt>
<trkpt lat="39.7743545" lon="3.0085655">
<ele>25.91</ele>
<time>2016-10-15T07:46:52Z</time>
</trkpt>
<trkpt lat="39.7744471" lon="3.0083163">
<ele>26.28</ele>
<time>2016-10-15T07:46:55Z</time>
</trkpt>
<trkpt lat="39.7745378" lon="3.0080876">
<ele>25.48</ele>
<time>2016-10-15T07:46:58Z</time>
</trkpt>
<trkpt lat="39.7746457" lon="3.0078270">
<ele>24.37</ele>
<time>2016-10-15T07:47:01Z</time>
</trkpt>
<trkpt lat="39.7747442" lon="3.0075958">
<ele>24.24</ele>
<time>2016-10-15T07:47:04Z</time>
</trkpt>
<trkpt lat="39.7748546" lon="3.0073551">
<ele>24.28</ele>
<time>2016-10-15T07:47:07Z</time>
</trkpt>
<trkpt lat="39.7749663" lon="3.0071278">
<ele>25.14</ele>
<time>2016-10-15T07:47:10Z</time>
</trkpt>
<trkpt lat="39.7750804" lon="3.0068890">
<ele>25.10</ele>
<time>2016-10-15T07:47:13Z</time>
</trkpt>
<trkpt lat="39.7751961" lon="3.0066469">
<ele>26.78</ele>
<time>2016-10-15T07:47:16Z</time>
</trkpt>
<trkpt lat="39.7753012" lon="3.0064358">
<ele>27.53</ele>
<time>2016-10-15T07:47:19Z</time>
</trkpt>
<trkpt lat="39.7754144" lon="3.0062022">
<ele>27.74</ele>
<time>2016-10-15T07:47:22Z</time>
</trkpt>
<trkpt lat="39.7755317" lon="3.0059652">
<ele>26.64</ele>
<time>2016-10-15T07:47:25Z</time>
</trkpt>
<trkpt lat="39.7756479" lon="3.0057215">
<ele>25.51</ele>
<time>2016-10-15T07:47:28Z</time>
</trkpt>
<trkpt lat="39.7757553" lon="3.0054962">
<ele>25.56</ele>
<time>2016-10-15T07:47:31Z</time>
</trkpt>
<trkpt lat="39.7758729" lon="3.0052618">
<ele>25.40</ele>
<time>2016-10-15T07:47:34Z</time>
</trkpt>
<trkpt lat="39.7759803" lon="3.0050349">
<ele>25.15</ele>
<time>2016-10-15T07:47:37Z</time>
</trkpt>
<trkpt lat="39.7760924" lon="3.0048145">
<ele>24.18</ele>
<time>2016-10-15T07:47:40Z</time>
</trkpt>
<trkpt lat="39.7762097" lon="3.0045797">
<ele>24.57</ele>
<time>2016-10-15T07:47:43Z</time>
</trkpt>
<trkpt lat="39.7763350" lon="3.0043250">
<ele>24.46</ele>
<time>2016-10-15T07:47:47Z</time>
</trkpt>
<trkpt lat="39.7764362" lon="3.0041159">
<ele>24.94</ele>
<time>2016-10-15T07:47:50Z</time>
</trkpt>
<trkpt lat="39.7765464" lon="3.0038894">
<ele>25.60</ele>
<time>2016-10-15T07:47:53Z</time>
</trkpt>
<trkpt lat="39.7766583" lon="3.0036431">
<ele>25.57</ele>
<time>2016-10-15T07:47:56Z</time>
</trkpt>
<trkpt lat="39.7767738" lon="3.0033961">
<ele>25.56</ele>
<time>2016-10-15T07:47:59Z</time>
</trkpt>
<trkpt lat="39.7768964" lon="3.0031335">
<ele>24.03</ele>
<time>2016-10-15T07:48:02Z</time>
</trkpt>
<trkpt lat="39.7770068" lon="3.0028921">
<ele>23.73</ele>
<time>2016-10-15T07:48:05Z</time>
</trkpt>
<trkpt lat="39.7771304" lon="3.0026450">
<ele>23.76</ele>
<time>2016-10-15T07:48:08Z</time>
</trkpt>
<trkpt lat="39.7772468" lon="3.0024135">
<ele>23.96</ele>
<time>2016-10-15T07:48:11Z</time>
</trkpt>
<trkpt lat="39.7773593" lon="3.0021899">
<ele>24.20</ele>
<time>2016-10-15T07:48:14Z</time>
</trkpt>
<trkpt lat="39.7774793" lon="3.0019570">
<ele>24.33</ele>
<time>2016-10-15T07:48:17Z</time>
</trkpt>
<trkpt lat="39.7775930" lon="3.0017256">
<ele>23.77</ele>
<time>2016-10-15T07:48:20Z</time>
</trkpt>
<trkpt lat="39.7777059" lon="3.0014948">
<ele>24.30</ele>
<time>2016-10-15T07:48:23Z</time>
</trkpt>
<trkpt lat="39.7777978" lon="3.0012927">
<ele>24.51</ele>
<time>2016-10-15T07:48:26Z</time>
</trkpt>
<trkpt lat="39.7779029" lon="3.0010662">
<ele>25.76</ele>
<time>2016-10-15T07:48:29Z</time>
</trkpt>
<trkpt lat="39.7780184" lon="3.0008191">
<ele>26.88</ele>
<time>2016-10-15T07:48:32Z</time>
</trkpt>
<trkpt lat="39.7781391" lon="3.0005798">
<ele>26.93</ele>
<time>2016-10-15T07:48:35Z</time>
</trkpt>
<trkpt lat="39.7782660" lon="3.0003400">
<ele>25.29</ele>
<time>2016-10-15T07:48:38Z</time>
</trkpt>
<trkpt lat="39.7783899" lon="3.0001024">
<ele>23.37</ele>
<time>2016-10-15T07:48:41Z</time>
</trkpt>
<trkpt lat="39.7784974" lon="2.9998830">
<ele>21.58</ele>
<time>2016-10-15T07:48:44Z</time>
</trkpt>
<trkpt lat="39.7785998" lon="2.9996585">
<ele>21.38</ele>
<time>2016-10-15T07:48:47Z</time>
</trkpt>
<trkpt lat="39.7787081" lon="2.9994205">
<ele>23.32</ele>
<time>2016-10-15T07:48:50Z</time>
</trkpt>
<trkpt lat="39.7788240" lon="2.9992030">
<ele>25.93</ele>
<time>2016-10-15T07:48:53Z</time>
</trkpt>
<trkpt lat="39.7789332" lon="2.9989863">
<ele>27.47</ele>
<time>2016-10-15T07:48:56Z</time>
</trkpt>
<trkpt lat="39.7790349" lon="2.9987745">
<ele>26.40</ele>
<time>2016-10-15T07:48:59Z</time>
</trkpt>
<trkpt lat="39.7791433" lon="2.9985447">
<ele>26.37</ele>
<time>2016-10-15T07:49:02Z</time>
</trkpt>
<trkpt lat="39.7792419" lon="2.9983266">
<ele>26.59</ele>
<time>2016-10-15T07:49:05Z</time>
</trkpt>
<trkpt lat="39.7793458" lon="2.9981123">
<ele>26.01</ele>
<time>2016-10-15T07:49:08Z</time>
</trkpt>
<trkpt lat="39.7794524" lon="2.9978946">
<ele>26.31</ele>
<time>2016-10-15T07:49:11Z</time>
</trkpt>
<trkpt lat="39.7795699" lon="2.9976700">
<ele>26.21</ele>
<time>2016-10-15T07:49:14Z</time>
</trkpt>
<trkpt lat="39.7796706" lon="2.9974681">
<ele>25.04</ele>
<time>2016-10-15T07:49:17Z</time>
</trkpt>
<trkpt lat="39.7797838" lon="2.9972272">
<ele>24.22</ele>
<time>2016-10-15T07:49:21Z</time>
</trkpt>
<trkpt lat="39.7798926" lon="2.9969905">
<ele>26.30</ele>
<time>2016-10-15T07:49:25Z</time>
</trkpt>
<trkpt lat="39.7799865" lon="2.9967855">
<ele>28.71</ele>
<time>2016-10-15T07:49:29Z</time>
</trkpt>
<trkpt lat="39.7800656" lon="2.9965316">
<ele>30.00</ele>
<time>2016-10-15T07:49:35Z</time>
</trkpt>
<trkpt lat="39.7801813" lon="2.9963051">
<ele>30.34</ele>
<time>2016-10-15T07:49:40Z</time>
</trkpt>
<trkpt lat="39.7803787" lon="2.9963282">
<ele>30.10</ele>
<time>2016-10-15T07:49:44Z</time>
</trkpt>
<trkpt lat="39.7806001" lon="2.9963239">
<ele>28.74</ele>
<time>2016-10-15T07:49:48Z</time>
</trkpt>
<trkpt lat="39.7807921" lon="2.9961631">
<ele>28.87</ele>
<time>2016-10-15T07:49:52Z</time>
</trkpt>
<trkpt lat="39.7809021" lon="2.9958876">
<ele>30.67</ele>
<time>2016-10-15T07:49:56Z</time>
</trkpt>
<trkpt lat="39.7808929" lon="2.9956492">
<ele>32.42</ele>
<time>2016-10-15T07:49:59Z</time>
</trkpt>
<trkpt lat="39.7808427" lon="2.9954177">
<ele>34.40</ele>
<time>2016-10-15T07:50:02Z</time>
</trkpt>
<trkpt lat="39.7808567" lon="2.9951209">
<ele>37.64</ele>
<time>2016-10-15T07:50:06Z</time>
</trkpt>
<trkpt lat="39.7809100" lon="2.9948525">
<ele>39.76</ele>
<time>2016-10-15T07:50:09Z</time>
</trkpt>
<trkpt lat="39.7810256" lon="2.9945639">
<ele>38.92</ele>
<time>2016-10-15T07:50:12Z</time>
</trkpt>
<trkpt lat="39.7811279" lon="2.9943495">
<ele>37.43</ele>
<time>2016-10-15T07:50:14Z</time>
</trkpt>
<trkpt lat="39.7812479" lon="2.9941277">
<ele>35.34</ele>
<time>2016-10-15T07:50:16Z</time>
</trkpt>
<trkpt lat="39.7813688" lon="2.9939191">
<ele>33.16</ele>
<time>2016-10-15T07:50:18Z</time>
</trkpt>
<trkpt lat="39.7814764" lon="2.9937203">
<ele>31.73</ele>
<time>2016-10-15T07:50:20Z</time>
</trkpt>
<trkpt lat="39.7816217" lon="2.9934373">
<ele>30.57</ele>
<time>2016-10-15T07:50:23Z</time>
</trkpt>
<trkpt lat="39.7817182" lon="2.9932336">
<ele>29.97</ele>
<time>2016-10-15T07:50:25Z</time>
</trkpt>
<trkpt lat="39.7818514" lon="2.9929442">
<ele>29.04</ele>
<time>2016-10-15T07:50:28Z</time>
</trkpt>
<trkpt lat="39.7819767" lon="2.9926784">
<ele>28.33</ele>
<time>2016-10-15T07:50:31Z</time>
</trkpt>
<trkpt lat="39.7821003" lon="2.9924331">
<ele>28.40</ele>
<time>2016-10-15T07:50:34Z</time>
</trkpt>
<trkpt lat="39.7822124" lon="2.9922146">
<ele>29.23</ele>
<time>2016-10-15T07:50:37Z</time>
</trkpt>
<trkpt lat="39.7823280" lon="2.9919960">
<ele>30.18</ele>
<time>2016-10-15T07:50:40Z</time>
</trkpt>
<trkpt lat="39.7823797" lon="2.9917434">
<ele>28.96</ele>
<time>2016-10-15T07:50:43Z</time>
</trkpt>
<trkpt lat="39.7823436" lon="2.9914778">
<ele>27.83</ele>
<time>2016-10-15T07:50:46Z</time>
</trkpt>
<trkpt lat="39.7822828" lon="2.9912342">
<ele>27.44</ele>
<time>2016-10-15T07:50:49Z</time>
</trkpt>
<trkpt lat="39.7822449" lon="2.9909827">
<ele>28.19</ele>
<time>2016-10-15T07:50:52Z</time>
</trkpt>
<trkpt lat="39.7822260" lon="2.9907192">
<ele>30.39</ele>
<time>2016-10-15T07:50:55Z</time>
</trkpt>
<trkpt lat="39.7822160" lon="2.9904439">
<ele>30.88</ele>
<time>2016-10-15T07:50:58Z</time>
</trkpt>
<trkpt lat="39.7822189" lon="2.9901995">
<ele>29.08</ele>
<time>2016-10-15T07:51:01Z</time>
</trkpt>
<trkpt lat="39.7822107" lon="2.9899280">
<ele>29.00</ele>
<time>2016-10-15T07:51:04Z</time>
</trkpt>
<trkpt lat="39.7820639" lon="2.9896871">
<ele>29.94</ele>
<time>2016-10-15T07:51:08Z</time>
</trkpt>
<trkpt lat="39.7818980" lon="2.9895306">
<ele>29.92</ele>
<time>2016-10-15T07:51:11Z</time>
</trkpt>
<trkpt lat="39.7817079" lon="2.9893956">
<ele>29.44</ele>
<time>2016-10-15T07:51:14Z</time>
</trkpt>
<trkpt lat="39.7815487" lon="2.9892857">
<ele>29.52</ele>
<time>2016-10-15T07:51:17Z</time>
</trkpt>
<trkpt lat="39.7813841" lon="2.9891735">
<ele>28.59</ele>
<time>2016-10-15T07:51:20Z</time>
</trkpt>
<trkpt lat="39.7811995" lon="2.9890406">
<ele>27.69</ele>
<time>2016-10-15T07:51:23Z</time>
</trkpt>
<trkpt lat="39.7810226" lon="2.9889241">
<ele>27.58</ele>
<time>2016-10-15T07:51:26Z</time>
</trkpt>
<trkpt lat="39.7808195" lon="2.9887854">
<ele>29.30</ele>
<time>2016-10-15T07:51:30Z</time>
</trkpt>
<trkpt lat="39.7806706" lon="2.9886477">
<ele>30.15</ele>
<time>2016-10-15T07:51:33Z</time>
</trkpt>
<trkpt lat="39.7806069" lon="2.9884268">
<ele>32.16</ele>
<time>2016-10-15T07:51:36Z</time>
</trkpt>
<trkpt lat="39.7806448" lon="2.9881638">
<ele>33.49</ele>
<time>2016-10-15T07:51:39Z</time>
</trkpt>
<trkpt lat="39.7807094" lon="2.9878929">
<ele>35.32</ele>
<time>2016-10-15T07:51:42Z</time>
</trkpt>
<trkpt lat="39.7807773" lon="2.9876068">
<ele>34.53</ele>
<time>2016-10-15T07:51:45Z</time>
</trkpt>
<trkpt lat="39.7808324" lon="2.9873423">
<ele>33.15</ele>
<time>2016-10-15T07:51:48Z</time>
</trkpt>
<trkpt lat="39.7808752" lon="2.9871140">
<ele>32.58</ele>
<time>2016-10-15T07:51:51Z</time>
</trkpt>
<trkpt lat="39.7809309" lon="2.9868774">
<ele>33.58</ele>
<time>2016-10-15T07:51:54Z</time>
</trkpt>
<trkpt lat="39.7809918" lon="2.9866501">
<ele>33.66</ele>
<time>2016-10-15T07:51:57Z</time>
</trkpt>
<trkpt lat="39.7810522" lon="2.9863998">
<ele>33.83</ele>
<time>2016-10-15T07:52:00Z</time>
</trkpt>
<trkpt lat="39.7811133" lon="2.9861396">
<ele>33.72</ele>
<time>2016-10-15T07:52:03Z</time>
</trkpt>
<trkpt lat="39.7811745" lon="2.9858988">
<ele>34.40</ele>
<time>2016-10-15T07:52:06Z</time>
</trkpt>
<trkpt lat="39.7812458" lon="2.9856087">
<ele>34.06</ele>
<time>2016-10-15T07:52:10Z</time>
</trkpt>
<trkpt lat="39.7812967" lon="2.9853835">
<ele>33.53</ele>
<time>2016-10-15T07:52:13Z</time>
</trkpt>
<trkpt lat="39.7813468" lon="2.9851346">
<ele>33.19</ele>
<time>2016-10-15T07:52:16Z</time>
</trkpt>
<trkpt lat="39.7814023" lon="2.9848744">
<ele>32.80</ele>
<time>2016-10-15T07:52:19Z</time>
</trkpt>
<trkpt lat="39.7814611" lon="2.9846430">
<ele>32.72</ele>
<time>2016-10-15T07:52:22Z</time>
</trkpt>
<trkpt lat="39.7815190" lon="2.9843951">
<ele>33.53</ele>
<time>2016-10-15T07:52:25Z</time>
</trkpt>
<trkpt lat="39.7815787" lon="2.9841492">
<ele>33.77</ele>
<time>2016-10-15T07:52:28Z</time>
</trkpt>
<trkpt lat="39.7816341" lon="2.9838917">
<ele>34.90</ele>
<time>2016-10-15T07:52:31Z</time>
</trkpt>
<trkpt lat="39.7816924" lon="2.9836409">
<ele>35.10</ele>
<time>2016-10-15T07:52:34Z</time>
</trkpt>
<trkpt lat="39.7817472" lon="2.9833973">
<ele>35.03</ele>
<time>2016-10-15T07:52:37Z</time>
</trkpt>
<trkpt lat="39.7818069" lon="2.9831190">
<ele>34.28</ele>
<time>2016-10-15T07:52:40Z</time>
</trkpt>
<trkpt lat="39.7818684" lon="2.9828563">
<ele>35.21</ele>
<time>2016-10-15T07:52:43Z</time>
</trkpt>
<trkpt lat="39.7819287" lon="2.9825878">
<ele>35.17</ele>
<time>2016-10-15T07:52:46Z</time>
</trkpt>
<trkpt lat="39.7819903" lon="2.9823329">
<ele>34.30</ele>
<time>2016-10-15T07:52:49Z</time>
</trkpt>
<trkpt lat="39.7820510" lon="2.9820645">
<ele>34.43</ele>
<time>2016-10-15T07:52:52Z</time>
</trkpt>
<trkpt lat="39.7821125" lon="2.9818094">
<ele>34.38</ele>
<time>2016-10-15T07:52:55Z</time>
</trkpt>
<trkpt lat="39.7821709" lon="2.9815609">
<ele>34.49</ele>
<time>2016-10-15T07:52:58Z</time>
</trkpt>
<trkpt lat="39.7822219" lon="2.9813176">
<ele>35.48</ele>
<time>2016-10-15T07:53:01Z</time>
</trkpt>
<trkpt lat="39.7822854" lon="2.9810198">
<ele>37.66</ele>
<time>2016-10-15T07:53:05Z</time>
</trkpt>
<trkpt lat="39.7823482" lon="2.9807731">
<ele>37.20</ele>
<time>2016-10-15T07:53:08Z</time>
</trkpt>
<trkpt lat="39.7824217" lon="2.9805176">
<ele>37.19</ele>
<time>2016-10-15T07:53:11Z</time>
</trkpt>
<trkpt lat="39.7825205" lon="2.9803138">
<ele>37.03</ele>
<time>2016-10-15T07:53:14Z</time>
</trkpt>
<trkpt lat="39.7826681" lon="2.9800711">
<ele>37.14</ele>
<time>2016-10-15T07:53:18Z</time>
</trkpt>
<trkpt lat="39.7827876" lon="2.9798938">
<ele>37.86</ele>
<time>2016-10-15T07:53:21Z</time>
</trkpt>
<trkpt lat="39.7829356" lon="2.9796806">
<ele>37.74</ele>
<time>2016-10-15T07:53:25Z</time>
</trkpt>
<trkpt lat="39.7830726" lon="2.9794711">
<ele>38.85</ele>
<time>2016-10-15T07:53:29Z</time>
</trkpt>
<trkpt lat="39.7832046" lon="2.9792729">
<ele>38.57</ele>
<time>2016-10-15T07:53:33Z</time>
</trkpt>
<trkpt lat="39.7833209" lon="2.9790935">
<ele>38.48</ele>
<time>2016-10-15T07:53:36Z</time>
</trkpt>
<trkpt lat="39.7834395" lon="2.9789109">
<ele>37.58</ele>
<time>2016-10-15T07:53:39Z</time>
</trkpt>
<trkpt lat="39.7835594" lon="2.9787090">
<ele>37.63</ele>
<time>2016-10-15T07:53:42Z</time>
</trkpt>
<trkpt lat="39.7837141" lon="2.9784613">
<ele>37.33</ele>
<time>2016-10-15T07:53:46Z</time>
</trkpt>
<trkpt lat="39.7838557" lon="2.9782595">
<ele>36.68</ele>
<time>2016-10-15T07:53:49Z</time>
</trkpt>
<trkpt lat="39.7839928" lon="2.9780778">
<ele>37.34</ele>
<time>2016-10-15T07:53:51Z</time>
</trkpt>
<trkpt lat="39.7841247" lon="2.9779046">
<ele>38.59</ele>
<time>2016-10-15T07:53:54Z</time>
</trkpt>
<trkpt lat="39.7842691" lon="2.9777082">
<ele>40.45</ele>
<time>2016-10-15T07:53:57Z</time>
</trkpt>
<trkpt lat="39.7843969" lon="2.9775155">
<ele>41.17</ele>
<time>2016-10-15T07:54:00Z</time>
</trkpt>
<trkpt lat="39.7845268" lon="2.9773183">
<ele>41.86</ele>
<time>2016-10-15T07:54:03Z</time>
</trkpt>
<trkpt lat="39.7846539" lon="2.9771252">
<ele>42.67</ele>
<time>2016-10-15T07:54:06Z</time>
</trkpt>
<trkpt lat="39.7847787" lon="2.9769207">
<ele>43.18</ele>
<time>2016-10-15T07:54:09Z</time>
</trkpt>
<trkpt lat="39.7848772" lon="2.9767042">
<ele>42.84</ele>
<time>2016-10-15T07:54:12Z</time>
</trkpt>
<trkpt lat="39.7849852" lon="2.9764344">
<ele>42.88</ele>
<time>2016-10-15T07:54:16Z</time>
</trkpt>
<trkpt lat="39.7850558" lon="2.9762101">
<ele>43.57</ele>
<time>2016-10-15T07:54:19Z</time>
</trkpt>
<trkpt lat="39.7851433" lon="2.9759264">
<ele>44.40</ele>
<time>2016-10-15T07:54:23Z</time>
</trkpt>
<trkpt lat="39.7852184" lon="2.9756818">
<ele>44.71</ele>
<time>2016-10-15T07:54:26Z</time>
</trkpt>
<trkpt lat="39.7852935" lon="2.9754544">
<ele>44.87</ele>
<time>2016-10-15T07:54:29Z</time>
</trkpt>
<trkpt lat="39.7853730" lon="2.9752348">
<ele>44.66</ele>
<time>2016-10-15T07:54:32Z</time>
</trkpt>
<trkpt lat="39.7854708" lon="2.9750271">
<ele>45.18</ele>
<time>2016-10-15T07:54:35Z</time>
</trkpt>
<trkpt lat="39.7855868" lon="2.9748066">
<ele>45.53</ele>
<time>2016-10-15T07:54:38Z</time>
</trkpt>
<trkpt lat="39.7856918" lon="2.9746053">
<ele>45.48</ele>
<time>2016-10-15T07:54:41Z</time>
</trkpt>
<trkpt lat="39.7858172" lon="2.9743792">
<ele>45.39</ele>
<time>2016-10-15T07:54:44Z</time>
</trkpt>
<trkpt lat="39.7859391" lon="2.9741599">
<ele>45.31</ele>
<time>2016-10-15T07:54:47Z</time>
</trkpt>
<trkpt lat="39.7860619" lon="2.9739347">
<ele>45.50</ele>
<time>2016-10-15T07:54:50Z</time>
</trkpt>
<trkpt lat="39.7861868" lon="2.9737102">
<ele>46.10</ele>
<time>2016-10-15T07:54:53Z</time>
</trkpt>
<trkpt lat="39.7862932" lon="2.9735172">
<ele>45.32</ele>
<time>2016-10-15T07:54:56Z</time>
</trkpt>
<trkpt lat="39.7864029" lon="2.9733150">
<ele>45.41</ele>
<time>2016-10-15T07:54:59Z</time>
</trkpt>
<trkpt lat="39.7865169" lon="2.9731007">
<ele>46.18</ele>
<time>2016-10-15T07:55:02Z</time>
</trkpt>
<trkpt lat="39.7866405" lon="2.9728738">
<ele>47.16</ele>
<time>2016-10-15T07:55:05Z</time>
</trkpt>
<trkpt lat="39.7867679" lon="2.9726467">
<ele>47.52</ele>
<time>2016-10-15T07:55:08Z</time>
</trkpt>
<trkpt lat="39.7868742" lon="2.9724295">
<ele>47.52</ele>
<time>2016-10-15T07:55:11Z</time>
</trkpt>
<trkpt lat="39.7869984" lon="2.9722052">
<ele>47.63</ele>
<time>2016-10-15T07:55:14Z</time>
</trkpt>
<trkpt lat="39.7871163" lon="2.9719979">
<ele>47.77</ele>
<time>2016-10-15T07:55:17Z</time>
</trkpt>
<trkpt lat="39.7872359" lon="2.9717727">
<ele>48.05</ele>
<time>2016-10-15T07:55:20Z</time>
</trkpt>
<trkpt lat="39.7873587" lon="2.9715592">
<ele>47.80</ele>
<time>2016-10-15T07:55:23Z</time>
</trkpt>
<trkpt lat="39.7874562" lon="2.9713449">
<ele>47.98</ele>
<time>2016-10-15T07:55:26Z</time>
</trkpt>
<trkpt lat="39.7875687" lon="2.9711108">
<ele>48.00</ele>
<time>2016-10-15T07:55:29Z</time>
</trkpt>
<trkpt lat="39.7876543" lon="2.9708825">
<ele>47.32</ele>
<time>2016-10-15T07:55:32Z</time>
</trkpt>
<trkpt lat="39.7877334" lon="2.9706405">
<ele>45.39</ele>
<time>2016-10-15T07:55:35Z</time>
</trkpt>
<trkpt lat="39.7877995" lon="2.9704078">
<ele>45.37</ele>
<time>2016-10-15T07:55:38Z</time>
</trkpt>
<trkpt lat="39.7878707" lon="2.9701348">
<ele>47.42</ele>
<time>2016-10-15T07:55:42Z</time>
</trkpt>
<trkpt lat="39.7879354" lon="2.9698416">
<ele>48.65</ele>
<time>2016-10-15T07:55:46Z</time>
</trkpt>
<trkpt lat="39.7879661" lon="2.9695419">
<ele>48.54</ele>
<time>2016-10-15T07:55:50Z</time>
</trkpt>
<trkpt lat="39.7880733" lon="2.9692807">
<ele>47.37</ele>
<time>2016-10-15T07:55:54Z</time>
</trkpt>
<trkpt lat="39.7881978" lon="2.9690841">
<ele>47.03</ele>
<time>2016-10-15T07:55:57Z</time>
</trkpt>
<trkpt lat="39.7883185" lon="2.9689104">
<ele>47.02</ele>
<time>2016-10-15T07:56:00Z</time>
</trkpt>
<trkpt lat="39.7884533" lon="2.9687369">
<ele>49.24</ele>
<time>2016-10-15T07:56:03Z</time>
</trkpt>
<trkpt lat="39.7885994" lon="2.9685779">
<ele>50.81</ele>
<time>2016-10-15T07:56:06Z</time>
</trkpt>
<trkpt lat="39.7887797" lon="2.9683812">
<ele>51.65</ele>
<time>2016-10-15T07:56:10Z</time>
</trkpt>
<trkpt lat="39.7889526" lon="2.9681675">
<ele>50.98</ele>
<time>2016-10-15T07:56:14Z</time>
</trkpt>
<trkpt lat="39.7890895" lon="2.9679986">
<ele>49.81</ele>
<time>2016-10-15T07:56:17Z</time>
</trkpt>
<trkpt lat="39.7892408" lon="2.9678208">
<ele>49.19</ele>
<time>2016-10-15T07:56:20Z</time>
</trkpt>
<trkpt lat="39.7893896" lon="2.9676559">
<ele>49.16</ele>
<time>2016-10-15T07:56:23Z</time>
</trkpt>
<trkpt lat="39.7895374" lon="2.9674958">
<ele>49.48</ele>
<time>2016-10-15T07:56:26Z</time>
</trkpt>
<trkpt lat="39.7896734" lon="2.9673376">
<ele>50.30</ele>
<time>2016-10-15T07:56:29Z</time>
</trkpt>
<trkpt lat="39.7898188" lon="2.9671769">
<ele>51.32</ele>
<time>2016-10-15T07:56:32Z</time>
</trkpt>
<trkpt lat="39.7899605" lon="2.9670171">
<ele>51.91</ele>
<time>2016-10-15T07:56:35Z</time>
</trkpt>
<trkpt lat="39.7900977" lon="2.9668535">
<ele>52.65</ele>
<time>2016-10-15T07:56:38Z</time>
</trkpt>
<trkpt lat="39.7902647" lon="2.9666393">
<ele>53.11</ele>
<time>2016-10-15T07:56:42Z</time>
</trkpt>
<trkpt lat="39.7904120" lon="2.9664585">
<ele>52.18</ele>
<time>2016-10-15T07:56:45Z</time>
</trkpt>
<trkpt lat="39.7905607" lon="2.9662802">
<ele>50.64</ele>
<time>2016-10-15T07:56:48Z</time>
</trkpt>
<trkpt lat="39.7907150" lon="2.9661024">
<ele>49.29</ele>
<time>2016-10-15T07:56:51Z</time>
</trkpt>
<trkpt lat="39.7908893" lon="2.9659021">
<ele>48.81</ele>
<time>2016-10-15T07:56:55Z</time>
</trkpt>
<trkpt lat="39.7910692" lon="2.9657086">
<ele>49.63</ele>
<time>2016-10-15T07:56:59Z</time>
</trkpt>
<trkpt lat="39.7912377" lon="2.9655281">
<ele>50.35</ele>
<time>2016-10-15T07:57:03Z</time>
</trkpt>
<trkpt lat="39.7914106" lon="2.9653243">
<ele>50.35</ele>
<time>2016-10-15T07:57:07Z</time>
</trkpt>
<trkpt lat="39.7915495" lon="2.9651689">
<ele>50.98</ele>
<time>2016-10-15T07:57:10Z</time>
</trkpt>
<trkpt lat="39.7916939" lon="2.9650197">
<ele>51.11</ele>
<time>2016-10-15T07:57:13Z</time>
</trkpt>
<trkpt lat="39.7918405" lon="2.9648719">
<ele>50.99</ele>
<time>2016-10-15T07:57:16Z</time>
</trkpt>
<trkpt lat="39.7920172" lon="2.9646813">
<ele>50.05</ele>
<time>2016-10-15T07:57:20Z</time>
</trkpt>
<trkpt lat="39.7922092" lon="2.9645065">
<ele>50.65</ele>
<time>2016-10-15T07:57:24Z</time>
</trkpt>
<trkpt lat="39.7924005" lon="2.9643760">
<ele>50.66</ele>
<time>2016-10-15T07:57:28Z</time>
</trkpt>
<trkpt lat="39.7925814" lon="2.9642325">
<ele>51.04</ele>
<time>2016-10-15T07:57:33Z</time>
</trkpt>
<trkpt lat="39.7927735" lon="2.9642824">
<ele>53.04</ele>
<time>2016-10-15T07:57:38Z</time>
</trkpt>
<trkpt lat="39.7929110" lon="2.9644662">
<ele>54.74</ele>
<time>2016-10-15T07:57:41Z</time>
</trkpt>
<trkpt lat="39.7930845" lon="2.9646560">
<ele>54.64</ele>
<time>2016-10-15T07:57:44Z</time>
</trkpt>
<trkpt lat="39.7932307" lon="2.9648270">
<ele>52.30</ele>
<time>2016-10-15T07:57:47Z</time>
</trkpt>
<trkpt lat="39.7934100" lon="2.9650085">
<ele>49.72</ele>
<time>2016-10-15T07:57:51Z</time>
</trkpt>
<trkpt lat="39.7935722" lon="2.9651255">
<ele>50.01</ele>
<time>2016-10-15T07:57:55Z</time>
</trkpt>
<trkpt lat="39.7937589" lon="2.9653060">
<ele>50.91</ele>
<time>2016-10-15T07:58:00Z</time>
</trkpt>
<trkpt lat="39.7939155" lon="2.9654800">
<ele>49.60</ele>
<time>2016-10-15T07:58:03Z</time>
</trkpt>
<trkpt lat="39.7940917" lon="2.9656358">
<ele>47.52</ele>
<time>2016-10-15T07:58:06Z</time>
</trkpt>
<trkpt lat="39.7942806" lon="2.9657389">
<ele>46.90</ele>
<time>2016-10-15T07:58:09Z</time>
</trkpt>
<trkpt lat="39.7944764" lon="2.9658123">
<ele>47.52</ele>
<time>2016-10-15T07:58:12Z</time>
</trkpt>
<trkpt lat="39.7946539" lon="2.9658764">
<ele>48.41</ele>
<time>2016-10-15T07:58:15Z</time>
</trkpt>
<trkpt lat="39.7948499" lon="2.9659253">
<ele>49.70</ele>
<time>2016-10-15T07:58:18Z</time>
</trkpt>
<trkpt lat="39.7950531" lon="2.9659378">
<ele>50.33</ele>
<time>2016-10-15T07:58:21Z</time>
</trkpt>
<trkpt lat="39.7952439" lon="2.9659257">
<ele>51.68</ele>
<time>2016-10-15T07:58:24Z</time>
</trkpt>
<trkpt lat="39.7954737" lon="2.9658998">
<ele>52.63</ele>
<time>2016-10-15T07:58:28Z</time>
</trkpt>
<trkpt lat="39.7957042" lon="2.9658566">
<ele>53.51</ele>
<time>2016-10-15T07:58:32Z</time>
</trkpt>
<trkpt lat="39.7959123" lon="2.9658308">
<ele>54.77</ele>
<time>2016-10-15T07:58:36Z</time>
</trkpt>
<trkpt lat="39.7961305" lon="2.9658169">
<ele>55.41</ele>
<time>2016-10-15T07:58:40Z</time>
</trkpt>
<trkpt lat="39.7963552" lon="2.9658100">
<ele>55.16</ele>
<time>2016-10-15T07:58:44Z</time>
</trkpt>
<trkpt lat="39.7965402" lon="2.9658354">
<ele>55.24</ele>
<time>2016-10-15T07:58:47Z</time>
</trkpt>
<trkpt lat="39.7967377" lon="2.9659187">
<ele>54.56</ele>
<time>2016-10-15T07:58:50Z</time>
</trkpt>
<trkpt lat="39.7969122" lon="2.9660059">
<ele>53.75</ele>
<time>2016-10-15T07:58:53Z</time>
</trkpt>
<trkpt lat="39.7971216" lon="2.9661248">
<ele>53.42</ele>
<time>2016-10-15T07:58:57Z</time>
</trkpt>
<trkpt lat="39.7973227" lon="2.9662579">
<ele>57.30</ele>
<time>2016-10-15T07:59:01Z</time>
</trkpt>
<trkpt lat="39.7975310" lon="2.9664191">
<ele>60.05</ele>
<time>2016-10-15T07:59:05Z</time>
</trkpt>
<trkpt lat="39.7977408" lon="2.9665708">
<ele>60.86</ele>
<time>2016-10-15T07:59:09Z</time>
</trkpt>
<trkpt lat="39.7979323" lon="2.9666896">
<ele>60.76</ele>
<time>2016-10-15T07:59:13Z</time>
</trkpt>
<trkpt lat="39.7980897" lon="2.9668076">
<ele>63.02</ele>
<time>2016-10-15T07:59:17Z</time>
</trkpt>
<trkpt lat="39.7982534" lon="2.9669412">
<ele>66.72</ele>
<time>2016-10-15T07:59:21Z</time>
</trkpt>
<trkpt lat="39.7984362" lon="2.9670928">
<ele>69.90</ele>
<time>2016-10-15T07:59:25Z</time>
</trkpt>
<trkpt lat="39.7986327" lon="2.9672442">
<ele>70.24</ele>
<time>2016-10-15T07:59:29Z</time>
</trkpt>
<trkpt lat="39.7988447" lon="2.9673896">
<ele>71.34</ele>
<time>2016-10-15T07:59:33Z</time>
</trkpt>
<trkpt lat="39.7990361" lon="2.9675518">
<ele>70.69</ele>
<time>2016-10-15T07:59:37Z</time>
</trkpt>
<trkpt lat="39.7992083" lon="2.9676841">
<ele>71.41</ele>
<time>2016-10-15T07:59:41Z</time>
</trkpt>
<trkpt lat="39.7993743" lon="2.9678365">
<ele>72.09</ele>
<time>2016-10-15T07:59:45Z</time>
</trkpt>
<trkpt lat="39.7995439" lon="2.9679858">
<ele>72.26</ele>
<time>2016-10-15T07:59:49Z</time>
</trkpt>
<trkpt lat="39.7997057" lon="2.9681546">
<ele>74.42</ele>
<time>2016-10-15T07:59:54Z</time>
</trkpt>
<trkpt lat="39.7998734" lon="2.9682917">
<ele>78.57</ele>
<time>2016-10-15T07:59:59Z</time>
</trkpt>
<trkpt lat="39.8000491" lon="2.9683746">
<ele>84.06</ele>
<time>2016-10-15T08:00:03Z</time>
</trkpt>
<trkpt lat="39.8002432" lon="2.9684869">
<ele>84.62</ele>
<time>2016-10-15T08:00:09Z</time>
</trkpt>
<trkpt lat="39.8003892" lon="2.9686239">
<ele>84.55</ele>
<time>2016-10-15T08:00:14Z</time>
</trkpt>
<trkpt lat="39.8005681" lon="2.9687836">
<ele>78.44</ele>
<time>2016-10-15T08:02:59Z</time>
</trkpt>
<trkpt lat="39.8007650" lon="2.9688577">
<ele>78.46</ele>
<time>2016-10-15T08:03:06Z</time>
</trkpt>
<trkpt lat="39.8009618" lon="2.9689197">
<ele>78.73</ele>
<time>2016-10-15T08:03:11Z</time>
</trkpt>
<trkpt lat="39.8011559" lon="2.9689848">
<ele>80.04</ele>
<time>2016-10-15T08:03:15Z</time>
</trkpt>
<trkpt lat="39.8013632" lon="2.9690451">
<ele>80.17</ele>
<time>2016-10-15T08:03:19Z</time>
</trkpt>
<trkpt lat="39.8015441" lon="2.9690879">
<ele>76.57</ele>
<time>2016-10-15T08:03:23Z</time>
</trkpt>
<trkpt lat="39.8017289" lon="2.9691412">
<ele>73.22</ele>
<time>2016-10-15T08:03:27Z</time>
</trkpt>
<trkpt lat="39.8019451" lon="2.9691864">
<ele>72.29</ele>
<time>2016-10-15T08:03:31Z</time>
</trkpt>
<trkpt lat="39.8021659" lon="2.9692233">
<ele>70.83</ele>
<time>2016-10-15T08:03:35Z</time>
</trkpt>
<trkpt lat="39.8023807" lon="2.9693055">
<ele>71.56</ele>
<time>2016-10-15T08:03:39Z</time>
</trkpt>
<trkpt lat="39.8025537" lon="2.9693844">
<ele>71.27</ele>
<time>2016-10-15T08:03:42Z</time>
</trkpt>
<trkpt lat="39.8027368" lon="2.9694888">
<ele>69.92</ele>
<time>2016-10-15T08:03:45Z</time>
</trkpt>
<trkpt lat="39.8029221" lon="2.9696228">
<ele>68.33</ele>
<time>2016-10-15T08:03:48Z</time>
</trkpt>
<trkpt lat="39.8031158" lon="2.9697745">
<ele>68.74</ele>
<time>2016-10-15T08:03:51Z</time>
</trkpt>
<trkpt lat="39.8033109" lon="2.9699019">
<ele>69.73</ele>
<time>2016-10-15T08:03:54Z</time>
</trkpt>
<trkpt lat="39.8035193" lon="2.9700094">
<ele>70.20</ele>
<time>2016-10-15T08:03:57Z</time>
</trkpt>
<trkpt lat="39.8037347" lon="2.9700870">
<ele>69.58</ele>
<time>2016-10-15T08:04:00Z</time>
</trkpt>
<trkpt lat="39.8039570" lon="2.9700692">
<ele>68.46</ele>
<time>2016-10-15T08:04:03Z</time>
</trkpt>
<trkpt lat="39.8041720" lon="2.9700235">
<ele>68.06</ele>
<time>2016-10-15T08:04:06Z</time>
</trkpt>
<trkpt lat="39.8044005" lon="2.9700666">
<ele>67.22</ele>
<time>2016-10-15T08:04:09Z</time>
</trkpt>
<trkpt lat="39.8045828" lon="2.9702058">
<ele>66.55</ele>
<time>2016-10-15T08:04:12Z</time>
</trkpt>
<trkpt lat="39.8047567" lon="2.9703732">
<ele>64.98</ele>
<time>2016-10-15T08:04:15Z</time>
</trkpt>
<trkpt lat="39.8049208" lon="2.9705398">
<ele>63.31</ele>
<time>2016-10-15T08:04:18Z</time>
</trkpt>
<trkpt lat="39.8050603" lon="2.9706968">
<ele>62.78</ele>
<time>2016-10-15T08:04:21Z</time>
</trkpt>
<trkpt lat="39.8052030" lon="2.9708568">
<ele>61.90</ele>
<time>2016-10-15T08:04:24Z</time>
</trkpt>
<trkpt lat="39.8053675" lon="2.9710402">
<ele>60.03</ele>
<time>2016-10-15T08:04:28Z</time>
</trkpt>
<trkpt lat="39.8055406" lon="2.9712259">
<ele>58.69</ele>
<time>2016-10-15T08:04:32Z</time>
</trkpt>
<trkpt lat="39.8056804" lon="2.9713734">
<ele>58.45</ele>
<time>2016-10-15T08:04:35Z</time>
</trkpt>
<trkpt lat="39.8058601" lon="2.9715632">
<ele>60.14</ele>
<time>2016-10-15T08:04:39Z</time>
</trkpt>
<trkpt lat="39.8060374" lon="2.9717509">
<ele>60.27</ele>
<time>2016-10-15T08:04:43Z</time>
</trkpt>
<trkpt lat="39.8062103" lon="2.9719657">
<ele>59.95</ele>
<time>2016-10-15T08:04:47Z</time>
</trkpt>
<trkpt lat="39.8063507" lon="2.9721234">
<ele>59.70</ele>
<time>2016-10-15T08:04:50Z</time>
</trkpt>
<trkpt lat="39.8065052" lon="2.9722917">
<ele>61.38</ele>
<time>2016-10-15T08:04:53Z</time>
</trkpt>
<trkpt lat="39.8066467" lon="2.9724477">
<ele>61.96</ele>
<time>2016-10-15T08:04:56Z</time>
</trkpt>
<trkpt lat="39.8067697" lon="2.9726324">
<ele>62.12</ele>
<time>2016-10-15T08:04:59Z</time>
</trkpt>
<trkpt lat="39.8068842" lon="2.9728472">
<ele>62.05</ele>
<time>2016-10-15T08:05:02Z</time>
</trkpt>
<trkpt lat="39.8069932" lon="2.9730640">
<ele>61.97</ele>
<time>2016-10-15T08:05:05Z</time>
</trkpt>
<trkpt lat="39.8071111" lon="2.9732917">
<ele>61.72</ele>
<time>2016-10-15T08:05:08Z</time>
</trkpt>
<trkpt lat="39.8072237" lon="2.9735006">
<ele>61.94</ele>
<time>2016-10-15T08:05:11Z</time>
</trkpt>
<trkpt lat="39.8073374" lon="2.9737045">
<ele>62.01</ele>
<time>2016-10-15T08:05:14Z</time>
</trkpt>
<trkpt lat="39.8074630" lon="2.9739138">
<ele>61.23</ele>
<time>2016-10-15T08:05:17Z</time>
</trkpt>
<trkpt lat="39.8075970" lon="2.9741112">
<ele>59.48</ele>
<time>2016-10-15T08:05:20Z</time>
</trkpt>
<trkpt lat="39.8077614" lon="2.9742790">
<ele>60.40</ele>
<time>2016-10-15T08:05:23Z</time>
</trkpt>
<trkpt lat="39.8079184" lon="2.9744108">
<ele>60.81</ele>
<time>2016-10-15T08:05:26Z</time>
</trkpt>
<trkpt lat="39.8081014" lon="2.9746096">
<ele>60.35</ele>
<time>2016-10-15T08:05:30Z</time>
</trkpt>
<trkpt lat="39.8082691" lon="2.9748210">
<ele>61.18</ele>
<time>2016-10-15T08:05:34Z</time>
</trkpt>
<trkpt lat="39.8084211" lon="2.9750338">
<ele>62.78</ele>
<time>2016-10-15T08:05:38Z</time>
</trkpt>
<trkpt lat="39.8085939" lon="2.9752458">
<ele>61.82</ele>
<time>2016-10-15T08:05:42Z</time>
</trkpt>
<trkpt lat="39.8087475" lon="2.9753869">
<ele>60.90</ele>
<time>2016-10-15T08:05:45Z</time>
</trkpt>
<trkpt lat="39.8089269" lon="2.9755170">
<ele>59.11</ele>
<time>2016-10-15T08:05:48Z</time>
</trkpt>
<trkpt lat="39.8091030" lon="2.9756537">
<ele>59.56</ele>
<time>2016-10-15T08:05:51Z</time>
</trkpt>
<trkpt lat="39.8092551" lon="2.9758484">
<ele>60.10</ele>
<time>2016-10-15T08:05:54Z</time>
</trkpt>
<trkpt lat="39.8093933" lon="2.9760495">
<ele>59.44</ele>
<time>2016-10-15T08:05:57Z</time>
</trkpt>
<trkpt lat="39.8095116" lon="2.9762566">
<ele>57.72</ele>
<time>2016-10-15T08:06:00Z</time>
</trkpt>
<trkpt lat="39.8096156" lon="2.9764931">
<ele>56.38</ele>
<time>2016-10-15T08:06:03Z</time>
</trkpt>
<trkpt lat="39.8096908" lon="2.9767492">
<ele>55.26</ele>
<time>2016-10-15T08:06:06Z</time>
</trkpt>
<trkpt lat="39.8097359" lon="2.9769824">
<ele>55.73</ele>
<time>2016-10-15T08:06:09Z</time>
</trkpt>
<trkpt lat="39.8097561" lon="2.9772777">
<ele>57.67</ele>
<time>2016-10-15T08:06:13Z</time>
</trkpt>
<trkpt lat="39.8097583" lon="2.9775204">
<ele>58.51</ele>
<time>2016-10-15T08:06:16Z</time>
</trkpt>
<trkpt lat="39.8097428" lon="2.9778205">
<ele>59.95</ele>
<time>2016-10-15T08:06:20Z</time>
</trkpt>
<trkpt lat="39.8097162" lon="2.9781152">
<ele>61.97</ele>
<time>2016-10-15T08:06:24Z</time>
</trkpt>
<trkpt lat="39.8096968" lon="2.9783605">
<ele>63.01</ele>
<time>2016-10-15T08:06:27Z</time>
</trkpt>
<trkpt lat="39.8096872" lon="2.9786104">
<ele>62.60</ele>
<time>2016-10-15T08:06:30Z</time>
</trkpt>
<trkpt lat="39.8096815" lon="2.9788916">
<ele>62.66</ele>
<time>2016-10-15T08:06:34Z</time>
</trkpt>
<trkpt lat="39.8097494" lon="2.9791703">
<ele>62.93</ele>
<time>2016-10-15T08:06:38Z</time>
</trkpt>
<trkpt lat="39.8098777" lon="2.9794161">
<ele>64.25</ele>
<time>2016-10-15T08:06:42Z</time>
</trkpt>
<trkpt lat="39.8100064" lon="2.9795952">
<ele>67.19</ele>
<time>2016-10-15T08:06:46Z</time>
</trkpt>
<trkpt lat="39.8101226" lon="2.9797977">
<ele>67.63</ele>
<time>2016-10-15T08:06:50Z</time>
</trkpt>
<trkpt lat="39.8102324" lon="2.9800673">
<ele>70.70</ele>
<time>2016-10-15T08:06:54Z</time>
</trkpt>
<trkpt lat="39.8103547" lon="2.9803174">
<ele>75.09</ele>
<time>2016-10-15T08:06:58Z</time>
</trkpt>
<trkpt lat="39.8104953" lon="2.9805157">
<ele>77.35</ele>
<time>2016-10-15T08:07:02Z</time>
</trkpt>
<trkpt lat="39.8106773" lon="2.9806524">
<ele>78.75</ele>
<time>2016-10-15T08:07:07Z</time>
</trkpt>
<trkpt lat="39.8108171" lon="2.9808221">
<ele>81.01</ele>
<time>2016-10-15T08:07:11Z</time>
</trkpt>
<trkpt lat="39.8109823" lon="2.9810097">
<ele>82.75</ele>
<time>2016-10-15T08:07:16Z</time>
</trkpt>
<trkpt lat="39.8111332" lon="2.9812236">
<ele>82.97</ele>
<time>2016-10-15T08:07:20Z</time>
</trkpt>
<trkpt lat="39.8112676" lon="2.9814680">
<ele>81.92</ele>
<time>2016-10-15T08:07:24Z</time>
</trkpt>
<trkpt lat="39.8113986" lon="2.9817261">
<ele>81.19</ele>
<time>2016-10-15T08:07:28Z</time>
</trkpt>
<trkpt lat="39.8114788" lon="2.9819403">
<ele>80.51</ele>
<time>2016-10-15T08:07:31Z</time>
</trkpt>
<trkpt lat="39.8115757" lon="2.9821843">
<ele>80.70</ele>
<time>2016-10-15T08:07:35Z</time>
</trkpt>
<trkpt lat="39.8117175" lon="2.9823830">
<ele>81.08</ele>
<time>2016-10-15T08:07:39Z</time>
</trkpt>
<trkpt lat="39.8118917" lon="2.9825839">
<ele>81.49</ele>
<time>2016-10-15T08:07:43Z</time>
</trkpt>
<trkpt lat="39.8120408" lon="2.9827483">
<ele>81.57</ele>
<time>2016-10-15T08:07:46Z</time>
</trkpt>
<trkpt lat="39.8122043" lon="2.9829065">
<ele>81.81</ele>
<time>2016-10-15T08:07:49Z</time>
</trkpt>
<trkpt lat="39.8123620" lon="2.9830225">
<ele>81.57</ele>
<time>2016-10-15T08:07:52Z</time>
</trkpt>
<trkpt lat="39.8125091" lon="2.9831588">
<ele>80.82</ele>
<time>2016-10-15T08:07:55Z</time>
</trkpt>
<trkpt lat="39.8125960" lon="2.9833646">
<ele>79.81</ele>
<time>2016-10-15T08:07:58Z</time>
</trkpt>
<trkpt lat="39.8126841" lon="2.9835973">
<ele>78.17</ele>
<time>2016-10-15T08:08:01Z</time>
</trkpt>
<trkpt lat="39.8127782" lon="2.9838383">
<ele>78.81</ele>
<time>2016-10-15T08:08:04Z</time>
</trkpt>
<trkpt lat="39.8128713" lon="2.9840477">
<ele>78.65</ele>
<time>2016-10-15T08:08:07Z</time>
</trkpt>
<trkpt lat="39.8129820" lon="2.9842766">
<ele>77.50</ele>
<time>2016-10-15T08:08:10Z</time>
</trkpt>
<trkpt lat="39.8130951" lon="2.9845061">
<ele>76.85</ele>
<time>2016-10-15T08:08:13Z</time>
</trkpt>
<trkpt lat="39.8132113" lon="2.9847285">
<ele>75.60</ele>
<time>2016-10-15T08:08:16Z</time>
</trkpt>
<trkpt lat="39.8133521" lon="2.9848958">
<ele>75.66</ele>
<time>2016-10-15T08:08:19Z</time>
</trkpt>
<trkpt lat="39.8135218" lon="2.9850185">
<ele>76.97</ele>
<time>2016-10-15T08:08:22Z</time>
</trkpt>
<trkpt lat="39.8136883" lon="2.9851324">
<ele>78.60</ele>
<time>2016-10-15T08:08:25Z</time>
</trkpt>
<trkpt lat="39.8138376" lon="2.9852696">
<ele>79.89</ele>
<time>2016-10-15T08:08:28Z</time>
</trkpt>
<trkpt lat="39.8139775" lon="2.9854287">
<ele>81.40</ele>
<time>2016-10-15T08:08:31Z</time>
</trkpt>
<trkpt lat="39.8141199" lon="2.9855877">
<ele>82.25</ele>
<time>2016-10-15T08:08:34Z</time>
</trkpt>
<trkpt lat="39.8142553" lon="2.9857521">
<ele>81.67</ele>
<time>2016-10-15T08:08:37Z</time>
</trkpt>
<trkpt lat="39.8143851" lon="2.9859248">
<ele>81.34</ele>
<time>2016-10-15T08:08:40Z</time>
</trkpt>
<trkpt lat="39.8145204" lon="2.9861241">
<ele>81.74</ele>
<time>2016-10-15T08:08:44Z</time>
</trkpt>
<trkpt lat="39.8146587" lon="2.9863323">
<ele>79.93</ele>
<time>2016-10-15T08:08:48Z</time>
</trkpt>
<trkpt lat="39.8147754" lon="2.9865152">
<ele>78.35</ele>
<time>2016-10-15T08:08:51Z</time>
</trkpt>
<trkpt lat="39.8149083" lon="2.9867345">
<ele>77.84</ele>
<time>2016-10-15T08:08:55Z</time>
</trkpt>
<trkpt lat="39.8150108" lon="2.9869461">
<ele>77.91</ele>
<time>2016-10-15T08:08:58Z</time>
</trkpt>
<trkpt lat="39.8151093" lon="2.9871729">
<ele>76.02</ele>
<time>2016-10-15T08:09:01Z</time>
</trkpt>
<trkpt lat="39.8152084" lon="2.9874071">
<ele>74.96</ele>
<time>2016-10-15T08:09:04Z</time>
</trkpt>
<trkpt lat="39.8153168" lon="2.9876451">
<ele>74.90</ele>
<time>2016-10-15T08:09:07Z</time>
</trkpt>
<trkpt lat="39.8154157" lon="2.9878501">
<ele>75.93</ele>
<time>2016-10-15T08:09:10Z</time>
</trkpt>
<trkpt lat="39.8155323" lon="2.9880390">
<ele>77.13</ele>
<time>2016-10-15T08:09:13Z</time>
</trkpt>
<trkpt lat="39.8156645" lon="2.9882448">
<ele>78.23</ele>
<time>2016-10-15T08:09:16Z</time>
</trkpt>
<trkpt lat="39.8157732" lon="2.9884340">
<ele>77.75</ele>
<time>2016-10-15T08:09:19Z</time>
</trkpt>
<trkpt lat="39.8158810" lon="2.9886439">
<ele>77.27</ele>
<time>2016-10-15T08:09:23Z</time>
</trkpt>
<trkpt lat="39.8159517" lon="2.9888772">
<ele>76.71</ele>
<time>2016-10-15T08:09:27Z</time>
</trkpt>
<trkpt lat="39.8159976" lon="2.9891219">
<ele>78.87</ele>
<time>2016-10-15T08:09:31Z</time>
</trkpt>
<trkpt lat="39.8160562" lon="2.9893531">
<ele>80.81</ele>
<time>2016-10-15T08:09:34Z</time>
</trkpt>
<trkpt lat="39.8161384" lon="2.9895980">
<ele>80.78</ele>
<time>2016-10-15T08:09:37Z</time>
</trkpt>
<trkpt lat="39.8162660" lon="2.9898460">
<ele>79.65</ele>
<time>2016-10-15T08:09:40Z</time>
</trkpt>
<trkpt lat="39.8164276" lon="2.9900334">
<ele>79.97</ele>
<time>2016-10-15T08:09:43Z</time>
</trkpt>
<trkpt lat="39.8165949" lon="2.9902155">
<ele>81.59</ele>
<time>2016-10-15T08:09:46Z</time>
</trkpt>
<trkpt lat="39.8167439" lon="2.9904022">
<ele>83.96</ele>
<time>2016-10-15T08:09:49Z</time>
</trkpt>
<trkpt lat="39.8168631" lon="2.9905832">
<ele>84.20</ele>
<time>2016-10-15T08:09:52Z</time>
</trkpt>
<trkpt lat="39.8170121" lon="2.9908030">
<ele>82.61</ele>
<time>2016-10-15T08:09:56Z</time>
</trkpt>
<trkpt lat="39.8171700" lon="2.9910381">
<ele>82.78</ele>
<time>2016-10-15T08:10:00Z</time>
</trkpt>
<trkpt lat="39.8173114" lon="2.9912332">
<ele>84.85</ele>
<time>2016-10-15T08:10:04Z</time>
</trkpt>
<trkpt lat="39.8174456" lon="2.9914239">
<ele>88.29</ele>
<time>2016-10-15T08:10:08Z</time>
</trkpt>
<trkpt lat="39.8175781" lon="2.9916595">
<ele>90.73</ele>
<time>2016-10-15T08:10:12Z</time>
</trkpt>
<trkpt lat="39.8177103" lon="2.9918333">
<ele>90.51</ele>
<time>2016-10-15T08:10:14Z</time>
</trkpt>
<trkpt lat="39.8178615" lon="2.9920556">
<ele>91.72</ele>
<time>2016-10-15T08:10:18Z</time>
</trkpt>
<trkpt lat="39.8179660" lon="2.9922734">
<ele>91.14</ele>
<time>2016-10-15T08:10:21Z</time>
</trkpt>
<trkpt lat="39.8180856" lon="2.9925452">
<ele>89.45</ele>
<time>2016-10-15T08:10:25Z</time>
</trkpt>
<trkpt lat="39.8181702" lon="2.9927613">
<ele>87.83</ele>
<time>2016-10-15T08:10:28Z</time>
</trkpt>
<trkpt lat="39.8182506" lon="2.9929977">
<ele>86.85</ele>
<time>2016-10-15T08:10:31Z</time>
</trkpt>
<trkpt lat="39.8183236" lon="2.9932277">
<ele>85.80</ele>
<time>2016-10-15T08:10:34Z</time>
</trkpt>
<trkpt lat="39.8184026" lon="2.9934649">
<ele>84.69</ele>
<time>2016-10-15T08:10:37Z</time>
</trkpt>
<trkpt lat="39.8184764" lon="2.9936821">
<ele>84.26</ele>
<time>2016-10-15T08:10:40Z</time>
</trkpt>
<trkpt lat="39.8185620" lon="2.9939804">
<ele>84.09</ele>
<time>2016-10-15T08:10:44Z</time>
</trkpt>
<trkpt lat="39.8186203" lon="2.9942020">
<ele>83.88</ele>
<time>2016-10-15T08:10:47Z</time>
</trkpt>
<trkpt lat="39.8186815" lon="2.9944457">
<ele>84.85</ele>
<time>2016-10-15T08:10:50Z</time>
</trkpt>
<trkpt lat="39.8187340" lon="2.9946889">
<ele>85.24</ele>
<time>2016-10-15T08:10:53Z</time>
</trkpt>
<trkpt lat="39.8187870" lon="2.9949328">
<ele>84.55</ele>
<time>2016-10-15T08:10:56Z</time>
</trkpt>
<trkpt lat="39.8188553" lon="2.9951715">
<ele>83.84</ele>
<time>2016-10-15T08:10:59Z</time>
</trkpt>
<trkpt lat="39.8189650" lon="2.9954001">
<ele>84.03</ele>
<time>2016-10-15T08:11:02Z</time>
</trkpt>
<trkpt lat="39.8191100" lon="2.9956086">
<ele>83.81</ele>
<time>2016-10-15T08:11:05Z</time>
</trkpt>
<trkpt lat="39.8192589" lon="2.9958117">
<ele>82.63</ele>
<time>2016-10-15T08:11:08Z</time>
</trkpt>
<trkpt lat="39.8193984" lon="2.9959967">
<ele>81.29</ele>
<time>2016-10-15T08:11:11Z</time>
</trkpt>
<trkpt lat="39.8195291" lon="2.9961640">
<ele>80.39</ele>
<time>2016-10-15T08:11:14Z</time>
</trkpt>
<trkpt lat="39.8197061" lon="2.9963890">
<ele>81.37</ele>
<time>2016-10-15T08:11:18Z</time>
</trkpt>
<trkpt lat="39.8198708" lon="2.9965948">
<ele>82.11</ele>
<time>2016-10-15T08:11:22Z</time>
</trkpt>
<trkpt lat="39.8199911" lon="2.9967691">
<ele>81.26</ele>
<time>2016-10-15T08:11:25Z</time>
</trkpt>
<trkpt lat="39.8201165" lon="2.9969460">
<ele>79.37</ele>
<time>2016-10-15T08:11:28Z</time>
</trkpt>
<trkpt lat="39.8202498" lon="2.9971270">
<ele>78.41</ele>
<time>2016-10-15T08:11:31Z</time>
</trkpt>
<trkpt lat="39.8203878" lon="2.9973045">
<ele>78.66</ele>
<time>2016-10-15T08:11:34Z</time>
</trkpt>
<trkpt lat="39.8205297" lon="2.9974656">
<ele>80.54</ele>
<time>2016-10-15T08:11:37Z</time>
</trkpt>
<trkpt lat="39.8207019" lon="2.9976776">
<ele>81.25</ele>
<time>2016-10-15T08:11:41Z</time>
</trkpt>
<trkpt lat="39.8208763" lon="2.9978916">
<ele>81.50</ele>
<time>2016-10-15T08:11:45Z</time>
</trkpt>
<trkpt lat="39.8210029" lon="2.9980614">
<ele>81.48</ele>
<time>2016-10-15T08:11:48Z</time>
</trkpt>
<trkpt lat="39.8211627" lon="2.9982751">
<ele>81.66</ele>
<time>2016-10-15T08:11:52Z</time>
</trkpt>
<trkpt lat="39.8213184" lon="2.9984854">
<ele>81.57</ele>
<time>2016-10-15T08:11:56Z</time>
</trkpt>
<trkpt lat="39.8214713" lon="2.9986884">
<ele>83.26</ele>
<time>2016-10-15T08:12:00Z</time>
</trkpt>
<trkpt lat="39.8216173" lon="2.9988785">
<ele>84.01</ele>
<time>2016-10-15T08:12:04Z</time>
</trkpt>
<trkpt lat="39.8217600" lon="2.9990542">
<ele>84.27</ele>
<time>2016-10-15T08:12:08Z</time>
</trkpt>
<trkpt lat="39.8219219" lon="2.9992648">
<ele>84.60</ele>
<time>2016-10-15T08:12:12Z</time>
</trkpt>
<trkpt lat="39.8220605" lon="2.9994221">
<ele>84.08</ele>
<time>2016-10-15T08:12:15Z</time>
</trkpt>
<trkpt lat="39.8222051" lon="2.9995728">
<ele>83.86</ele>
<time>2016-10-15T08:12:18Z</time>
</trkpt>
<trkpt lat="39.8223701" lon="2.9997324">
<ele>84.33</ele>
<time>2016-10-15T08:12:22Z</time>
</trkpt>
<trkpt lat="39.8225263" lon="2.9999057">
<ele>83.98</ele>
<time>2016-10-15T08:12:26Z</time>
</trkpt>
<trkpt lat="39.8226890" lon="3.0001118">
<ele>84.85</ele>
<time>2016-10-15T08:12:30Z</time>
</trkpt>
<trkpt lat="39.8228462" lon="3.0003237">
<ele>84.98</ele>
<time>2016-10-15T08:12:34Z</time>
</trkpt>
<trkpt lat="39.8229843" lon="3.0005182">
<ele>87.29</ele>
<time>2016-10-15T08:12:38Z</time>
</trkpt>
<trkpt lat="39.8231505" lon="3.0007105">
<ele>89.80</ele>
<time>2016-10-15T08:12:42Z</time>
</trkpt>
<trkpt lat="39.8233311" lon="3.0008610">
<ele>91.65</ele>
<time>2016-10-15T08:12:46Z</time>
</trkpt>
<trkpt lat="39.8235395" lon="3.0010063">
<ele>94.42</ele>
<time>2016-10-15T08:12:50Z</time>
</trkpt>
<trkpt lat="39.8237622" lon="3.0010920">
<ele>97.17</ele>
<time>2016-10-15T08:12:54Z</time>
</trkpt>
<trkpt lat="39.8239523" lon="3.0011847">
<ele>98.42</ele>
<time>2016-10-15T08:12:57Z</time>
</trkpt>
<trkpt lat="39.8241268" lon="3.0012884">
<ele>97.91</ele>
<time>2016-10-15T08:13:00Z</time>
</trkpt>
<trkpt lat="39.8242844" lon="3.0014359">
<ele>97.11</ele>
<time>2016-10-15T08:13:03Z</time>
</trkpt>
<trkpt lat="39.8244250" lon="3.0016648">
<ele>95.92</ele>
<time>2016-10-15T08:13:06Z</time>
</trkpt>
<trkpt lat="39.8245526" lon="3.0018997">
<ele>93.53</ele>
<time>2016-10-15T08:13:09Z</time>
</trkpt>
<trkpt lat="39.8246850" lon="3.0021200">
<ele>91.78</ele>
<time>2016-10-15T08:13:12Z</time>
</trkpt>
<trkpt lat="39.8248327" lon="3.0023441">
<ele>90.55</ele>
<time>2016-10-15T08:13:15Z</time>
</trkpt>
<trkpt lat="39.8249849" lon="3.0025881">
<ele>89.33</ele>
<time>2016-10-15T08:13:18Z</time>
</trkpt>
<trkpt lat="39.8251111" lon="3.0027866">
<ele>89.50</ele>
<time>2016-10-15T08:13:21Z</time>
</trkpt>
<trkpt lat="39.8252534" lon="3.0029775">
<ele>88.95</ele>
<time>2016-10-15T08:13:24Z</time>
</trkpt>
<trkpt lat="39.8254134" lon="3.0031773">
<ele>89.31</ele>
<time>2016-10-15T08:13:27Z</time>
</trkpt>
<trkpt lat="39.8255721" lon="3.0033521">
<ele>88.94</ele>
<time>2016-10-15T08:13:30Z</time>
</trkpt>
<trkpt lat="39.8257290" lon="3.0035308">
<ele>89.04</ele>
<time>2016-10-15T08:13:33Z</time>
</trkpt>
<trkpt lat="39.8258807" lon="3.0037210">
<ele>90.01</ele>
<time>2016-10-15T08:13:36Z</time>
</trkpt>
<trkpt lat="39.8260283" lon="3.0039170">
<ele>91.14</ele>
<time>2016-10-15T08:13:39Z</time>
</trkpt>
<trkpt lat="39.8261775" lon="3.0040974">
<ele>91.89</ele>
<time>2016-10-15T08:13:42Z</time>
</trkpt>
<trkpt lat="39.8263203" lon="3.0042577">
<ele>93.46</ele>
<time>2016-10-15T08:13:45Z</time>
</trkpt>
<trkpt lat="39.8264627" lon="3.0044239">
<ele>94.86</ele>
<time>2016-10-15T08:13:48Z</time>
</trkpt>
<trkpt lat="39.8265888" lon="3.0046010">
<ele>95.52</ele>
<time>2016-10-15T08:13:51Z</time>
</trkpt>
<trkpt lat="39.8267127" lon="3.0048390">
<ele>95.97</ele>
<time>2016-10-15T08:13:54Z</time>
</trkpt>
<trkpt lat="39.8268208" lon="3.0050639">
<ele>95.91</ele>
<time>2016-10-15T08:13:57Z</time>
</trkpt>
<trkpt lat="39.8269326" lon="3.0052705">
<ele>96.53</ele>
<time>2016-10-15T08:14:00Z</time>
</trkpt>
<trkpt lat="39.8270565" lon="3.0055203">
<ele>96.25</ele>
<time>2016-10-15T08:14:03Z</time>
</trkpt>
<trkpt lat="39.8271662" lon="3.0057685">
<ele>94.27</ele>
<time>2016-10-15T08:14:06Z</time>
</trkpt>
<trkpt lat="39.8272805" lon="3.0060229">
<ele>93.55</ele>
<time>2016-10-15T08:14:09Z</time>
</trkpt>
<trkpt lat="39.8274264" lon="3.0062187">
<ele>92.75</ele>
<time>2016-10-15T08:14:12Z</time>
</trkpt>
<trkpt lat="39.8276250" lon="3.0063537">
<ele>91.90</ele>
<time>2016-10-15T08:14:15Z</time>
</trkpt>
<trkpt lat="39.8278220" lon="3.0064798">
<ele>92.53</ele>
<time>2016-10-15T08:14:18Z</time>
</trkpt>
<trkpt lat="39.8280122" lon="3.0066051">
<ele>93.49</ele>
<time>2016-10-15T08:14:21Z</time>
</trkpt>
<trkpt lat="39.8281882" lon="3.0067265">
<ele>94.71</ele>
<time>2016-10-15T08:14:24Z</time>
</trkpt>
<trkpt lat="39.8284008" lon="3.0068778">
<ele>97.13</ele>
<time>2016-10-15T08:14:28Z</time>
</trkpt>
<trkpt lat="39.8285572" lon="3.0070239">
<ele>98.18</ele>
<time>2016-10-15T08:14:31Z</time>
</trkpt>
<trkpt lat="39.8287077" lon="3.0071897">
<ele>99.34</ele>
<time>2016-10-15T08:14:34Z</time>
</trkpt>
<trkpt lat="39.8288962" lon="3.0074143">
<ele>99.01</ele>
<time>2016-10-15T08:14:37Z</time>
</trkpt>
<trkpt lat="39.8290560" lon="3.0076789">
<ele>98.61</ele>
<time>2016-10-15T08:14:40Z</time>
</trkpt>
<trkpt lat="39.8291632" lon="3.0079766">
<ele>97.14</ele>
<time>2016-10-15T08:14:43Z</time>
</trkpt>
<trkpt lat="39.8292569" lon="3.0082596">
<ele>95.89</ele>
<time>2016-10-15T08:14:46Z</time>
</trkpt>
<trkpt lat="39.8293510" lon="3.0085447">
<ele>95.54</ele>
<time>2016-10-15T08:14:49Z</time>
</trkpt>
<trkpt lat="39.8294294" lon="3.0087625">
<ele>94.75</ele>
<time>2016-10-15T08:14:51Z</time>
</trkpt>
<trkpt lat="39.8295279" lon="3.0090075">
<ele>93.51</ele>
<time>2016-10-15T08:14:53Z</time>
</trkpt>
<trkpt lat="39.8296494" lon="3.0092740">
<ele>92.38</ele>
<time>2016-10-15T08:14:55Z</time>
</trkpt>
<trkpt lat="39.8297716" lon="3.0095100">
<ele>91.02</ele>
<time>2016-10-15T08:14:57Z</time>
</trkpt>
<trkpt lat="39.8298878" lon="3.0097389">
<ele>89.47</ele>
<time>2016-10-15T08:14:59Z</time>
</trkpt>
<trkpt lat="39.8299907" lon="3.0099369">
<ele>87.74</ele>
<time>2016-10-15T08:15:01Z</time>
</trkpt>
<trkpt lat="39.8300885" lon="3.0101369">
<ele>86.51</ele>
<time>2016-10-15T08:15:03Z</time>
</trkpt>
<trkpt lat="39.8302260" lon="3.0103859">
<ele>85.85</ele>
<time>2016-10-15T08:15:06Z</time>
</trkpt>
<trkpt lat="39.8304005" lon="3.0106536">
<ele>84.85</ele>
<time>2016-10-15T08:15:09Z</time>
</trkpt>
<trkpt lat="39.8305231" lon="3.0108522">
<ele>85.16</ele>
<time>2016-10-15T08:15:11Z</time>
</trkpt>
<trkpt lat="39.8306360" lon="3.0110416">
<ele>85.47</ele>
<time>2016-10-15T08:15:13Z</time>
</trkpt>
<trkpt lat="39.8307698" lon="3.0112681">
<ele>85.04</ele>
<time>2016-10-15T08:15:16Z</time>
</trkpt>
<trkpt lat="39.8309232" lon="3.0114313">
<ele>84.28</ele>
<time>2016-10-15T08:15:19Z</time>
</trkpt>
<trkpt lat="39.8311077" lon="3.0116063">
<ele>84.83</ele>
<time>2016-10-15T08:15:22Z</time>
</trkpt>
<trkpt lat="39.8312626" lon="3.0118217">
<ele>85.31</ele>
<time>2016-10-15T08:15:25Z</time>
</trkpt>
<trkpt lat="39.8314340" lon="3.0120000">
<ele>88.03</ele>
<time>2016-10-15T08:15:28Z</time>
</trkpt>
<trkpt lat="39.8316132" lon="3.0121408">
<ele>91.31</ele>
<time>2016-10-15T08:15:31Z</time>
</trkpt>
<trkpt lat="39.8317677" lon="3.0122839">
<ele>93.49</ele>
<time>2016-10-15T08:15:34Z</time>
</trkpt>
<trkpt lat="39.8318924" lon="3.0124533">
<ele>95.07</ele>
<time>2016-10-15T08:15:37Z</time>
</trkpt>
<trkpt lat="39.8320070" lon="3.0126702">
<ele>94.78</ele>
<time>2016-10-15T08:15:40Z</time>
</trkpt>
<trkpt lat="39.8320979" lon="3.0129022">
<ele>92.33</ele>
<time>2016-10-15T08:15:43Z</time>
</trkpt>
<trkpt lat="39.8321731" lon="3.0131157">
<ele>90.72</ele>
<time>2016-10-15T08:15:46Z</time>
</trkpt>
<trkpt lat="39.8322444" lon="3.0133317">
<ele>89.51</ele>
<time>2016-10-15T08:15:49Z</time>
</trkpt>
<trkpt lat="39.8323201" lon="3.0135764">
<ele>87.43</ele>
<time>2016-10-15T08:15:52Z</time>
</trkpt>
<trkpt lat="39.8324092" lon="3.0138431">
<ele>86.29</ele>
<time>2016-10-15T08:15:55Z</time>
</trkpt>
<trkpt lat="39.8325189" lon="3.0141275">
<ele>86.56</ele>
<time>2016-10-15T08:15:58Z</time>
</trkpt>
<trkpt lat="39.8326828" lon="3.0143619">
<ele>87.33</ele>
<time>2016-10-15T08:16:01Z</time>
</trkpt>
<trkpt lat="39.8328604" lon="3.0145747">
<ele>87.63</ele>
<time>2016-10-15T08:16:04Z</time>
</trkpt>
<trkpt lat="39.8330324" lon="3.0147882">
<ele>88.19</ele>
<time>2016-10-15T08:16:07Z</time>
</trkpt>
<trkpt lat="39.8331802" lon="3.0149392">
<ele>86.41</ele>
<time>2016-10-15T08:16:09Z</time>
</trkpt>
<trkpt lat="39.8333854" lon="3.0151110">
<ele>81.62</ele>
<time>2016-10-15T08:16:12Z</time>
</trkpt>
<trkpt lat="39.8335413" lon="3.0153615">
<ele>79.39</ele>
<time>2016-10-15T08:16:15Z</time>
</trkpt>
<trkpt lat="39.8336507" lon="3.0155975">
<ele>78.25</ele>
<time>2016-10-15T08:16:17Z</time>
</trkpt>
<trkpt lat="39.8337667" lon="3.0158642">
<ele>76.83</ele>
<time>2016-10-15T08:16:19Z</time>
</trkpt>
<trkpt lat="39.8338804" lon="3.0161329">
<ele>75.43</ele>
<time>2016-10-15T08:16:21Z</time>
</trkpt>
<trkpt lat="39.8339918" lon="3.0163963">
<ele>74.14</ele>
<time>2016-10-15T08:16:23Z</time>
</trkpt>
<trkpt lat="39.8341003" lon="3.0166700">
<ele>73.22</ele>
<time>2016-10-15T08:16:25Z</time>
</trkpt>
<trkpt lat="39.8341814" lon="3.0169499">
<ele>71.69</ele>
<time>2016-10-15T08:16:27Z</time>
</trkpt>
<trkpt lat="39.8342428" lon="3.0172147">
<ele>70.00</ele>
<time>2016-10-15T08:16:29Z</time>
</trkpt>
<trkpt lat="39.8342974" lon="3.0174673">
<ele>68.75</ele>
<time>2016-10-15T08:16:31Z</time>
</trkpt>
<trkpt lat="39.8343504" lon="3.0177220">
<ele>68.57</ele>
<time>2016-10-15T08:16:33Z</time>
</trkpt>
<trkpt lat="39.8344006" lon="3.0179633">
<ele>69.04</ele>
<time>2016-10-15T08:16:35Z</time>
</trkpt>
<trkpt lat="39.8344711" lon="3.0183011">
<ele>70.14</ele>
<time>2016-10-15T08:16:38Z</time>
</trkpt>
<trkpt lat="39.8345426" lon="3.0186206">
<ele>71.79</ele>
<time>2016-10-15T08:16:41Z</time>
</trkpt>
<trkpt lat="39.8346571" lon="3.0189119">
<ele>74.12</ele>
<time>2016-10-15T08:16:44Z</time>
</trkpt>
<trkpt lat="39.8347564" lon="3.0192133">
<ele>75.10</ele>
<time>2016-10-15T08:16:47Z</time>
</trkpt>
<trkpt lat="39.8347901" lon="3.0195543">
<ele>74.62</ele>
<time>2016-10-15T08:16:50Z</time>
</trkpt>
<trkpt lat="39.8347794" lon="3.0198946">
<ele>70.87</ele>
<time>2016-10-15T08:16:53Z</time>
</trkpt>
<trkpt lat="39.8347924" lon="3.0201378">
<ele>68.40</ele>
<time>2016-10-15T08:16:55Z</time>
</trkpt>
<trkpt lat="39.8348324" lon="3.0203753">
<ele>66.89</ele>
<time>2016-10-15T08:16:57Z</time>
</trkpt>
<trkpt lat="39.8348888" lon="3.0206037">
<ele>66.32</ele>
<time>2016-10-15T08:16:59Z</time>
</trkpt>
<trkpt lat="39.8349557" lon="3.0208253">
<ele>67.44</ele>
<time>2016-10-15T08:17:01Z</time>
</trkpt>
<trkpt lat="39.8350572" lon="3.0211352">
<ele>68.13</ele>
<time>2016-10-15T08:17:04Z</time>
</trkpt>
<trkpt lat="39.8351456" lon="3.0214448">
<ele>69.94</ele>
<time>2016-10-15T08:17:07Z</time>
</trkpt>
<trkpt lat="39.8352523" lon="3.0217345">
<ele>71.07</ele>
<time>2016-10-15T08:17:10Z</time>
</trkpt>
<trkpt lat="39.8353561" lon="3.0220241">
<ele>71.10</ele>
<time>2016-10-15T08:17:13Z</time>
</trkpt>
<trkpt lat="39.8354352" lon="3.0223402">
<ele>69.44</ele>
<time>2016-10-15T08:17:16Z</time>
</trkpt>
<trkpt lat="39.8355364" lon="3.0226680">
<ele>68.50</ele>
<time>2016-10-15T08:17:19Z</time>
</trkpt>
<trkpt lat="39.8356097" lon="3.0228835">
<ele>68.68</ele>
<time>2016-10-15T08:17:21Z</time>
</trkpt>
<trkpt lat="39.8357609" lon="3.0231552">
<ele>68.00</ele>
<time>2016-10-15T08:17:24Z</time>
</trkpt>
<trkpt lat="39.8359442" lon="3.0233916">
<ele>67.19</ele>
<time>2016-10-15T08:17:27Z</time>
</trkpt>
<trkpt lat="39.8361135" lon="3.0236065">
<ele>67.43</ele>
<time>2016-10-15T08:17:30Z</time>
</trkpt>
<trkpt lat="39.8362765" lon="3.0238543">
<ele>66.89</ele>
<time>2016-10-15T08:17:33Z</time>
</trkpt>
<trkpt lat="39.8364411" lon="3.0241204">
<ele>66.09</ele>
<time>2016-10-15T08:17:36Z</time>
</trkpt>
<trkpt lat="39.8365874" lon="3.0243797">
<ele>65.37</ele>
<time>2016-10-15T08:17:39Z</time>
</trkpt>
<trkpt lat="39.8367504" lon="3.0246162">
<ele>64.62</ele>
<time>2016-10-15T08:17:42Z</time>
</trkpt>
<trkpt lat="39.8369162" lon="3.0248644">
<ele>64.02</ele>
<time>2016-10-15T08:17:45Z</time>
</trkpt>
<trkpt lat="39.8370562" lon="3.0251410">
<ele>63.15</ele>
<time>2016-10-15T08:17:48Z</time>
</trkpt>
<trkpt lat="39.8372127" lon="3.0253403">
<ele>61.34</ele>
<time>2016-10-15T08:17:51Z</time>
</trkpt>
<trkpt lat="39.8374049" lon="3.0254929">
<ele>60.57</ele>
<time>2016-10-15T08:17:54Z</time>
</trkpt>
<trkpt lat="39.8376022" lon="3.0256283">
<ele>60.45</ele>
<time>2016-10-15T08:17:57Z</time>
</trkpt>
<trkpt lat="39.8377690" lon="3.0258052">
<ele>62.60</ele>
<time>2016-10-15T08:18:00Z</time>
</trkpt>
<trkpt lat="39.8379204" lon="3.0260666">
<ele>62.88</ele>
<time>2016-10-15T08:18:03Z</time>
</trkpt>
<trkpt lat="39.8380239" lon="3.0262671">
<ele>61.18</ele>
<time>2016-10-15T08:18:05Z</time>
</trkpt>
<trkpt lat="39.8381238" lon="3.0264773">
<ele>60.15</ele>
<time>2016-10-15T08:18:07Z</time>
</trkpt>
<trkpt lat="39.8383160" lon="3.0266974">
<ele>59.40</ele>
<time>2016-10-15T08:18:10Z</time>
</trkpt>
<trkpt lat="39.8385424" lon="3.0268296">
<ele>59.61</ele>
<time>2016-10-15T08:18:13Z</time>
</trkpt>
<trkpt lat="39.8387647" lon="3.0269339">
<ele>60.40</ele>
<time>2016-10-15T08:18:16Z</time>
</trkpt>
<trkpt lat="39.8389595" lon="3.0270250">
<ele>62.20</ele>
<time>2016-10-15T08:18:19Z</time>
</trkpt>
<trkpt lat="39.8391885" lon="3.0270123">
<ele>65.01</ele>
<time>2016-10-15T08:18:23Z</time>
</trkpt>
<trkpt lat="39.8394048" lon="3.0269311">
<ele>69.48</ele>
<time>2016-10-15T08:18:27Z</time>
</trkpt>
<trkpt lat="39.8395881" lon="3.0269023">
<ele>71.54</ele>
<time>2016-10-15T08:18:30Z</time>
</trkpt>
<trkpt lat="39.8398203" lon="3.0268249">
<ele>73.35</ele>
<time>2016-10-15T08:18:35Z</time>
</trkpt>
<trkpt lat="39.8400047" lon="3.0267743">
<ele>74.50</ele>
<time>2016-10-15T08:18:39Z</time>
</trkpt>
<trkpt lat="39.8400582" lon="3.0270040">
<ele>74.83</ele>
<time>2016-10-15T08:18:42Z</time>
</trkpt>
<trkpt lat="39.8400530" lon="3.0272769">
<ele>74.24</ele>
<time>2016-10-15T08:18:46Z</time>
</trkpt>
<trkpt lat="39.8401324" lon="3.0275257">
<ele>73.55</ele>
<time>2016-10-15T08:18:50Z</time>
</trkpt>
<trkpt lat="39.8402749" lon="3.0277935">
<ele>73.73</ele>
<time>2016-10-15T08:18:54Z</time>
</trkpt>
<trkpt lat="39.8404190" lon="3.0280236">
<ele>72.04</ele>
<time>2016-10-15T08:18:57Z</time>
</trkpt>
<trkpt lat="39.8405954" lon="3.0281950">
<ele>71.98</ele>
<time>2016-10-15T08:19:00Z</time>
</trkpt>
<trkpt lat="39.8407957" lon="3.0283109">
<ele>73.09</ele>
<time>2016-10-15T08:19:03Z</time>
</trkpt>
<trkpt lat="39.8409505" lon="3.0285671">
<ele>72.56</ele>
<time>2016-10-15T08:19:06Z</time>
</trkpt>
<trkpt lat="39.8410473" lon="3.0288014">
<ele>72.29</ele>
<time>2016-10-15T08:19:09Z</time>
</trkpt>
<trkpt lat="39.8411471" lon="3.0290176">
<ele>71.87</ele>
<time>2016-10-15T08:19:14Z</time>
</trkpt>
<trkpt lat="39.8412512" lon="3.0292501">
<ele>72.13</ele>
<time>2016-10-15T08:19:21Z</time>
</trkpt>
<trkpt lat="39.8413712" lon="3.0294685">
<ele>72.82</ele>
<time>2016-10-15T08:19:30Z</time>
</trkpt>
<trkpt lat="39.8415251" lon="3.0296606">
<ele>76.54</ele>
<time>2016-10-15T08:19:35Z</time>
</trkpt>
<trkpt lat="39.8417083" lon="3.0297822">
<ele>78.12</ele>
<time>2016-10-15T08:19:40Z</time>
</trkpt>
<trkpt lat="39.8419053" lon="3.0298962">
<ele>78.91</ele>
<time>2016-10-15T08:19:46Z</time>
</trkpt>
<trkpt lat="39.8420939" lon="3.0299480">
<ele>79.39</ele>
<time>2016-10-15T08:19:50Z</time>
</trkpt>
<trkpt lat="39.8422805" lon="3.0300032">
<ele>80.59</ele>
<time>2016-10-15T08:19:54Z</time>
</trkpt>
<trkpt lat="39.8424876" lon="3.0300792">
<ele>81.92</ele>
<time>2016-10-15T08:19:58Z</time>
</trkpt>
<trkpt lat="39.8426758" lon="3.0301570">
<ele>80.29</ele>
<time>2016-10-15T08:20:01Z</time>
</trkpt>
<trkpt lat="39.8428715" lon="3.0302304">
<ele>78.03</ele>
<time>2016-10-15T08:20:04Z</time>
</trkpt>
<trkpt lat="39.8430633" lon="3.0303137">
<ele>78.35</ele>
<time>2016-10-15T08:20:07Z</time>
</trkpt>
<trkpt lat="39.8432987" lon="3.0304742">
<ele>79.63</ele>
<time>2016-10-15T08:20:10Z</time>
</trkpt>
<trkpt lat="39.8434784" lon="3.0305523">
<ele>80.67</ele>
<time>2016-10-15T08:20:13Z</time>
</trkpt>
<trkpt lat="39.8436889" lon="3.0306121">
<ele>80.41</ele>
<time>2016-10-15T08:20:16Z</time>
</trkpt>
<trkpt lat="39.8439062" lon="3.0306878">
<ele>78.85</ele>
<time>2016-10-15T08:20:19Z</time>
</trkpt>
<trkpt lat="39.8441245" lon="3.0308005">
<ele>78.41</ele>
<time>2016-10-15T08:20:22Z</time>
</trkpt>
<trkpt lat="39.8443449" lon="3.0309526">
<ele>79.63</ele>
<time>2016-10-15T08:20:25Z</time>
</trkpt>
<trkpt lat="39.8445668" lon="3.0311241">
<ele>82.46</ele>
<time>2016-10-15T08:20:28Z</time>
</trkpt>
<trkpt lat="39.8448082" lon="3.0312957">
<ele>84.46</ele>
<time>2016-10-15T08:20:31Z</time>
</trkpt>
<trkpt lat="39.8449685" lon="3.0314164">
<ele>85.22</ele>
<time>2016-10-15T08:20:33Z</time>
</trkpt>
<trkpt lat="39.8451241" lon="3.0315575">
<ele>86.18</ele>
<time>2016-10-15T08:20:35Z</time>
</trkpt>
<trkpt lat="39.8452785" lon="3.0317077">
<ele>85.30</ele>
<time>2016-10-15T08:20:37Z</time>
</trkpt>
<trkpt lat="39.8454307" lon="3.0318634">
<ele>83.87</ele>
<time>2016-10-15T08:20:39Z</time>
</trkpt>
<trkpt lat="39.8455848" lon="3.0320140">
<ele>81.97</ele>
<time>2016-10-15T08:20:41Z</time>
</trkpt>
<trkpt lat="39.8457363" lon="3.0321567">
<ele>79.81</ele>
<time>2016-10-15T08:20:43Z</time>
</trkpt>
<trkpt lat="39.8458933" lon="3.0322969">
<ele>77.95</ele>
<time>2016-10-15T08:20:45Z</time>
</trkpt>
<trkpt lat="39.8460516" lon="3.0324383">
<ele>76.52</ele>
<time>2016-10-15T08:20:47Z</time>
</trkpt>
<trkpt lat="39.8462118" lon="3.0325707">
<ele>75.56</ele>
<time>2016-10-15T08:20:49Z</time>
</trkpt>
<trkpt lat="39.8463810" lon="3.0327034">
<ele>74.92</ele>
<time>2016-10-15T08:20:51Z</time>
</trkpt>
<trkpt lat="39.8465594" lon="3.0328303">
<ele>74.50</ele>
<time>2016-10-15T08:20:53Z</time>
</trkpt>
<trkpt lat="39.8467495" lon="3.0329523">
<ele>73.56</ele>
<time>2016-10-15T08:20:55Z</time>
</trkpt>
<trkpt lat="39.8469376" lon="3.0330501">
<ele>72.53</ele>
<time>2016-10-15T08:20:57Z</time>
</trkpt>
<trkpt lat="39.8471442" lon="3.0331393">
<ele>72.91</ele>
<time>2016-10-15T08:20:59Z</time>
</trkpt>
<trkpt lat="39.8473547" lon="3.0332077">
<ele>73.76</ele>
<time>2016-10-15T08:21:01Z</time>
</trkpt>
<trkpt lat="39.8475670" lon="3.0332651">
<ele>74.08</ele>
<time>2016-10-15T08:21:03Z</time>
</trkpt>
<trkpt lat="39.8477744" lon="3.0333190">
<ele>73.58</ele>
<time>2016-10-15T08:21:05Z</time>
</trkpt>
<trkpt lat="39.8479823" lon="3.0333620">
<ele>72.20</ele>
<time>2016-10-15T08:21:07Z</time>
</trkpt>
<trkpt lat="39.8481868" lon="3.0333875">
<ele>71.06</ele>
<time>2016-10-15T08:21:09Z</time>
</trkpt>
<trkpt lat="39.8483972" lon="3.0334037">
<ele>70.40</ele>
<time>2016-10-15T08:21:11Z</time>
</trkpt>
<trkpt lat="39.8486161" lon="3.0334143">
<ele>70.33</ele>
<time>2016-10-15T08:21:13Z</time>
</trkpt>
<trkpt lat="39.8488377" lon="3.0334246">
<ele>69.38</ele>
<time>2016-10-15T08:21:15Z</time>
</trkpt>
<trkpt lat="39.8490552" lon="3.0334349">
<ele>68.11</ele>
<time>2016-10-15T08:21:17Z</time>
</trkpt>
<trkpt lat="39.8492748" lon="3.0334560">
<ele>68.66</ele>
<time>2016-10-15T08:21:19Z</time>
</trkpt>
<trkpt lat="39.8494889" lon="3.0334804">
<ele>68.77</ele>
<time>2016-10-15T08:21:21Z</time>
</trkpt>
<trkpt lat="39.8496971" lon="3.0334990">
<ele>67.80</ele>
<time>2016-10-15T08:21:23Z</time>
</trkpt>
<trkpt lat="39.8498966" lon="3.0335244">
<ele>66.27</ele>
<time>2016-10-15T08:21:25Z</time>
</trkpt>
<trkpt lat="39.8500924" lon="3.0335660">
<ele>63.87</ele>
<time>2016-10-15T08:21:27Z</time>
</trkpt>
<trkpt lat="39.8502843" lon="3.0336218">
<ele>61.71</ele>
<time>2016-10-15T08:21:29Z</time>
</trkpt>
<trkpt lat="39.8504713" lon="3.0336830">
<ele>60.88</ele>
<time>2016-10-15T08:21:31Z</time>
</trkpt>
<trkpt lat="39.8506575" lon="3.0337584">
<ele>60.99</ele>
<time>2016-10-15T08:21:33Z</time>
</trkpt>
<trkpt lat="39.8508387" lon="3.0338435">
<ele>61.76</ele>
<time>2016-10-15T08:21:35Z</time>
</trkpt>
<trkpt lat="39.8510223" lon="3.0339363">
<ele>63.27</ele>
<time>2016-10-15T08:21:37Z</time>
</trkpt>
<trkpt lat="39.8511961" lon="3.0340218">
<ele>64.50</ele>
<time>2016-10-15T08:21:39Z</time>
</trkpt>
<trkpt lat="39.8513678" lon="3.0341141">
<ele>65.36</ele>
<time>2016-10-15T08:21:41Z</time>
</trkpt>
<trkpt lat="39.8515502" lon="3.0342202">
<ele>65.31</ele>
<time>2016-10-15T08:21:43Z</time>
</trkpt>
<trkpt lat="39.8517379" lon="3.0343162">
<ele>64.88</ele>
<time>2016-10-15T08:21:45Z</time>
</trkpt>
<trkpt lat="39.8519256" lon="3.0343948">
<ele>64.55</ele>
<time>2016-10-15T08:21:47Z</time>
</trkpt>
<trkpt lat="39.8521726" lon="3.0344708">
<ele>61.99</ele>
<time>2016-10-15T08:21:50Z</time>
</trkpt>
<trkpt lat="39.8524003" lon="3.0345017">
<ele>60.32</ele>
<time>2016-10-15T08:21:53Z</time>
</trkpt>
<trkpt lat="39.8526405" lon="3.0344782">
<ele>60.79</ele>
<time>2016-10-15T08:21:56Z</time>
</trkpt>
<trkpt lat="39.8528705" lon="3.0344120">
<ele>62.36</ele>
<time>2016-10-15T08:21:59Z</time>
</trkpt>
<trkpt lat="39.8531045" lon="3.0343094">
<ele>63.76</ele>
<time>2016-10-15T08:22:02Z</time>
</trkpt>
<trkpt lat="39.8533133" lon="3.0341684">
<ele>65.31</ele>
<time>2016-10-15T08:22:05Z</time>
</trkpt>
<trkpt lat="39.8535145" lon="3.0339837">
<ele>64.09</ele>
<time>2016-10-15T08:22:08Z</time>
</trkpt>
<trkpt lat="39.8537007" lon="3.0337669">
<ele>61.67</ele>
<time>2016-10-15T08:22:11Z</time>
</trkpt>
<trkpt lat="39.8538960" lon="3.0335394">
<ele>59.52</ele>
<time>2016-10-15T08:22:14Z</time>
</trkpt>
<trkpt lat="39.8540343" lon="3.0333877">
<ele>59.00</ele>
<time>2016-10-15T08:22:16Z</time>
</trkpt>
<trkpt lat="39.8541846" lon="3.0332187">
<ele>59.42</ele>
<time>2016-10-15T08:22:18Z</time>
</trkpt>
<trkpt lat="39.8543431" lon="3.0330586">
<ele>60.36</ele>
<time>2016-10-15T08:22:20Z</time>
</trkpt>
<trkpt lat="39.8544948" lon="3.0329004">
<ele>61.24</ele>
<time>2016-10-15T08:22:22Z</time>
</trkpt>
<trkpt lat="39.8546408" lon="3.0327478">
<ele>61.94</ele>
<time>2016-10-15T08:22:24Z</time>
</trkpt>
<trkpt lat="39.8547950" lon="3.0325909">
<ele>62.32</ele>
<time>2016-10-15T08:22:26Z</time>
</trkpt>
<trkpt lat="39.8549451" lon="3.0324302">
<ele>61.87</ele>
<time>2016-10-15T08:22:28Z</time>
</trkpt>
<trkpt lat="39.8551457" lon="3.0322147">
<ele>61.25</ele>
<time>2016-10-15T08:22:31Z</time>
</trkpt>
<trkpt lat="39.8552884" lon="3.0320543">
<ele>60.72</ele>
<time>2016-10-15T08:22:33Z</time>
</trkpt>
<trkpt lat="39.8554912" lon="3.0318218">
<ele>59.71</ele>
<time>2016-10-15T08:22:36Z</time>
</trkpt>
<trkpt lat="39.8556925" lon="3.0315997">
<ele>58.42</ele>
<time>2016-10-15T08:22:39Z</time>
</trkpt>
<trkpt lat="39.8558758" lon="3.0313985">
<ele>57.48</ele>
<time>2016-10-15T08:22:42Z</time>
</trkpt>
<trkpt lat="39.8560276" lon="3.0312296">
<ele>57.83</ele>
<time>2016-10-15T08:22:45Z</time>
</trkpt>
<trkpt lat="39.8561746" lon="3.0310394">
<ele>59.48</ele>
<time>2016-10-15T08:22:48Z</time>
</trkpt>
<trkpt lat="39.8563140" lon="3.0308405">
<ele>58.24</ele>
<time>2016-10-15T08:22:52Z</time>
</trkpt>
<trkpt lat="39.8564381" lon="3.0306297">
<ele>57.68</ele>
<time>2016-10-15T08:22:56Z</time>
</trkpt>
<trkpt lat="39.8565680" lon="3.0304407">
<ele>61.20</ele>
<time>2016-10-15T08:23:00Z</time>
</trkpt>
<trkpt lat="39.8566902" lon="3.0302626">
<ele>61.54</ele>
<time>2016-10-15T08:23:04Z</time>
</trkpt>
<trkpt lat="39.8568208" lon="3.0300690">
<ele>62.65</ele>
<time>2016-10-15T08:23:08Z</time>
</trkpt>
<trkpt lat="39.8569447" lon="3.0298748">
<ele>64.15</ele>
<time>2016-10-15T08:23:12Z</time>
</trkpt>
<trkpt lat="39.8570699" lon="3.0296739">
<ele>65.66</ele>
<time>2016-10-15T08:23:16Z</time>
</trkpt>
<trkpt lat="39.8572073" lon="3.0294579">
<ele>65.48</ele>
<time>2016-10-15T08:23:21Z</time>
</trkpt>
<trkpt lat="39.8573228" lon="3.0292688">
<ele>67.05</ele>
<time>2016-10-15T08:23:25Z</time>
</trkpt>
<trkpt lat="39.8574600" lon="3.0290442">
<ele>68.98</ele>
<time>2016-10-15T08:23:29Z</time>
</trkpt>
<trkpt lat="39.8575942" lon="3.0288229">
<ele>69.95</ele>
<time>2016-10-15T08:23:33Z</time>
</trkpt>
<trkpt lat="39.8577446" lon="3.0286026">
<ele>69.35</ele>
<time>2016-10-15T08:23:37Z</time>
</trkpt>
<trkpt lat="39.8579126" lon="3.0283996">
<ele>69.27</ele>
<time>2016-10-15T08:23:41Z</time>
</trkpt>
<trkpt lat="39.8580440" lon="3.0282320">
<ele>68.78</ele>
<time>2016-10-15T08:23:44Z</time>
</trkpt>
<trkpt lat="39.8581815" lon="3.0280431">
<ele>67.62</ele>
<time>2016-10-15T08:23:47Z</time>
</trkpt>
<trkpt lat="39.8583257" lon="3.0278424">
<ele>66.06</ele>
<time>2016-10-15T08:23:50Z</time>
</trkpt>
<trkpt lat="39.8584689" lon="3.0276454">
<ele>64.91</ele>
<time>2016-10-15T08:23:53Z</time>
</trkpt>
<trkpt lat="39.8586313" lon="3.0274357">
<ele>64.30</ele>
<time>2016-10-15T08:23:56Z</time>
</trkpt>
<trkpt lat="39.8587975" lon="3.0272161">
<ele>63.66</ele>
<time>2016-10-15T08:23:59Z</time>
</trkpt>
<trkpt lat="39.8589695" lon="3.0269641">
<ele>62.82</ele>
<time>2016-10-15T08:24:02Z</time>
</trkpt>
<trkpt lat="39.8591422" lon="3.0267228">
<ele>62.28</ele>
<time>2016-10-15T08:24:05Z</time>
</trkpt>
<trkpt lat="39.8593272" lon="3.0264753">
<ele>60.37</ele>
<time>2016-10-15T08:24:08Z</time>
</trkpt>
<trkpt lat="39.8594728" lon="3.0262691">
<ele>59.02</ele>
<time>2016-10-15T08:24:10Z</time>
</trkpt>
<trkpt lat="39.8596294" lon="3.0260616">
<ele>57.55</ele>
<time>2016-10-15T08:24:12Z</time>
</trkpt>
<trkpt lat="39.8597855" lon="3.0258485">
<ele>56.31</ele>
<time>2016-10-15T08:24:14Z</time>
</trkpt>
<trkpt lat="39.8599641" lon="3.0256111">
<ele>54.98</ele>
<time>2016-10-15T08:24:16Z</time>
</trkpt>
<trkpt lat="39.8601388" lon="3.0253799">
<ele>54.70</ele>
<time>2016-10-15T08:24:18Z</time>
</trkpt>
<trkpt lat="39.8603192" lon="3.0251420">
<ele>55.02</ele>
<time>2016-10-15T08:24:20Z</time>
</trkpt>
<trkpt lat="39.8605049" lon="3.0249007">
<ele>55.22</ele>
<time>2016-10-15T08:24:22Z</time>
</trkpt>
<trkpt lat="39.8606888" lon="3.0246567">
<ele>54.93</ele>
<time>2016-10-15T08:24:24Z</time>
</trkpt>
<trkpt lat="39.8608652" lon="3.0244283">
<ele>54.38</ele>
<time>2016-10-15T08:24:26Z</time>
</trkpt>
<trkpt lat="39.8610425" lon="3.0242029">
<ele>53.80</ele>
<time>2016-10-15T08:24:28Z</time>
</trkpt>
<trkpt lat="39.8612063" lon="3.0239859">
<ele>53.54</ele>
<time>2016-10-15T08:24:30Z</time>
</trkpt>
<trkpt lat="39.8613542" lon="3.0237692">
<ele>53.16</ele>
<time>2016-10-15T08:24:32Z</time>
</trkpt>
<trkpt lat="39.8614862" lon="3.0235445">
<ele>52.98</ele>
<time>2016-10-15T08:24:34Z</time>
</trkpt>
<trkpt lat="39.8616003" lon="3.0233206">
<ele>52.08</ele>
<time>2016-10-15T08:24:36Z</time>
</trkpt>
<trkpt lat="39.8617006" lon="3.0230923">
<ele>50.14</ele>
<time>2016-10-15T08:24:38Z</time>
</trkpt>
<trkpt lat="39.8617920" lon="3.0228589">
<ele>47.52</ele>
<time>2016-10-15T08:24:40Z</time>
</trkpt>
<trkpt lat="39.8618726" lon="3.0226287">
<ele>44.78</ele>
<time>2016-10-15T08:24:42Z</time>
</trkpt>
<trkpt lat="39.8619588" lon="3.0224000">
<ele>43.35</ele>
<time>2016-10-15T08:24:44Z</time>
</trkpt>
<trkpt lat="39.8620402" lon="3.0221719">
<ele>43.15</ele>
<time>2016-10-15T08:24:46Z</time>
</trkpt>
<trkpt lat="39.8621209" lon="3.0219488">
<ele>43.38</ele>
<time>2016-10-15T08:24:48Z</time>
</trkpt>
<trkpt lat="39.8622294" lon="3.0216375">
<ele>45.17</ele>
<time>2016-10-15T08:24:51Z</time>
</trkpt>
<trkpt lat="39.8623405" lon="3.0213234">
<ele>45.80</ele>
<time>2016-10-15T08:24:54Z</time>
</trkpt>
<trkpt lat="39.8624518" lon="3.0210125">
<ele>45.57</ele>
<time>2016-10-15T08:24:57Z</time>
</trkpt>
<trkpt lat="39.8625598" lon="3.0207137">
<ele>45.18</ele>
<time>2016-10-15T08:25:00Z</time>
</trkpt>
<trkpt lat="39.8626542" lon="3.0204298">
<ele>45.92</ele>
<time>2016-10-15T08:25:03Z</time>
</trkpt>
<trkpt lat="39.8627444" lon="3.0201686">
<ele>47.30</ele>
<time>2016-10-15T08:25:06Z</time>
</trkpt>
<trkpt lat="39.8628392" lon="3.0198889">
<ele>48.07</ele>
<time>2016-10-15T08:25:09Z</time>
</trkpt>
<trkpt lat="39.8629353" lon="3.0196104">
<ele>47.09</ele>
<time>2016-10-15T08:25:12Z</time>
</trkpt>
<trkpt lat="39.8630216" lon="3.0193676">
<ele>45.64</ele>
<time>2016-10-15T08:25:15Z</time>
</trkpt>
<trkpt lat="39.8630994" lon="3.0191479">
<ele>44.50</ele>
<time>2016-10-15T08:25:18Z</time>
</trkpt>
<trkpt lat="39.8631797" lon="3.0189279">
<ele>44.05</ele>
<time>2016-10-15T08:25:21Z</time>
</trkpt>
<trkpt lat="39.8632661" lon="3.0187055">
<ele>43.99</ele>
<time>2016-10-15T08:25:24Z</time>
</trkpt>
<trkpt lat="39.8633480" lon="3.0184920">
<ele>43.69</ele>
<time>2016-10-15T08:25:27Z</time>
</trkpt>
<trkpt lat="39.8634363" lon="3.0182360">
<ele>44.59</ele>
<time>2016-10-15T08:25:31Z</time>
</trkpt>
<trkpt lat="39.8635257" lon="3.0179987">
<ele>47.16</ele>
<time>2016-10-15T08:25:35Z</time>
</trkpt>
<trkpt lat="39.8636232" lon="3.0177480">
<ele>50.54</ele>
<time>2016-10-15T08:25:40Z</time>
</trkpt>
<trkpt lat="39.8637225" lon="3.0174998">
<ele>54.63</ele>
<time>2016-10-15T08:25:45Z</time>
</trkpt>
<trkpt lat="39.8638174" lon="3.0172979">
<ele>57.87</ele>
<time>2016-10-15T08:25:49Z</time>
</trkpt>
<trkpt lat="39.8639263" lon="3.0170963">
<ele>60.86</ele>
<time>2016-10-15T08:25:53Z</time>
</trkpt>
<trkpt lat="39.8640651" lon="3.0169021">
<ele>63.64</ele>
<time>2016-10-15T08:25:58Z</time>
</trkpt>
<trkpt lat="39.8642085" lon="3.0166925">
<ele>63.64</ele>
<time>2016-10-15T08:26:03Z</time>
</trkpt>
<trkpt lat="39.8643400" lon="3.0165014">
<ele>64.45</ele>
<time>2016-10-15T08:26:07Z</time>
</trkpt>
<trkpt lat="39.8644555" lon="3.0163069">
<ele>62.55</ele>
<time>2016-10-15T08:26:11Z</time>
</trkpt>
<trkpt lat="39.8645698" lon="3.0161080">
<ele>61.21</ele>
<time>2016-10-15T08:26:15Z</time>
</trkpt>
<trkpt lat="39.8646892" lon="3.0159190">
<ele>61.95</ele>
<time>2016-10-15T08:26:19Z</time>
</trkpt>
<trkpt lat="39.8648191" lon="3.0157353">
<ele>64.03</ele>
<time>2016-10-15T08:26:23Z</time>
</trkpt>
<trkpt lat="39.8649544" lon="3.0155414">
<ele>64.80</ele>
<time>2016-10-15T08:26:27Z</time>
</trkpt>
<trkpt lat="39.8650792" lon="3.0153645">
<ele>65.28</ele>
<time>2016-10-15T08:26:31Z</time>
</trkpt>
<trkpt lat="39.8652156" lon="3.0151628">
<ele>65.52</ele>
<time>2016-10-15T08:26:35Z</time>
</trkpt>
<trkpt lat="39.8653796" lon="3.0149840">
<ele>65.54</ele>
<time>2016-10-15T08:26:39Z</time>
</trkpt>
<trkpt lat="39.8655542" lon="3.0148182">
<ele>65.06</ele>
<time>2016-10-15T08:26:43Z</time>
</trkpt>
<trkpt lat="39.8657331" lon="3.0146528">
<ele>64.98</ele>
<time>2016-10-15T08:26:47Z</time>
</trkpt>
<trkpt lat="39.8659147" lon="3.0144965">
<ele>66.00</ele>
<time>2016-10-15T08:26:51Z</time>
</trkpt>
<trkpt lat="39.8660724" lon="3.0143685">
<ele>66.91</ele>
<time>2016-10-15T08:26:54Z</time>
</trkpt>
<trkpt lat="39.8662501" lon="3.0142507">
<ele>67.81</ele>
<time>2016-10-15T08:26:58Z</time>
</trkpt>
<trkpt lat="39.8664454" lon="3.0141465">
<ele>68.89</ele>
<time>2016-10-15T08:27:02Z</time>
</trkpt>
<trkpt lat="39.8666413" lon="3.0140720">
<ele>70.62</ele>
<time>2016-10-15T08:27:06Z</time>
</trkpt>
<trkpt lat="39.8668493" lon="3.0139973">
<ele>72.86</ele>
<time>2016-10-15T08:27:10Z</time>
</trkpt>
<trkpt lat="39.8670307" lon="3.0139386">
<ele>73.75</ele>
<time>2016-10-15T08:27:13Z</time>
</trkpt>
<trkpt lat="39.8672578" lon="3.0138537">
<ele>73.58</ele>
<time>2016-10-15T08:27:17Z</time>
</trkpt>
<trkpt lat="39.8674315" lon="3.0137860">
<ele>73.78</ele>
<time>2016-10-15T08:27:20Z</time>
</trkpt>
<trkpt lat="39.8676162" lon="3.0137251">
<ele>73.27</ele>
<time>2016-10-15T08:27:23Z</time>
</trkpt>
<trkpt lat="39.8677998" lon="3.0136566">
<ele>72.74</ele>
<time>2016-10-15T08:27:26Z</time>
</trkpt>
<trkpt lat="39.8679876" lon="3.0135870">
<ele>72.30</ele>
<time>2016-10-15T08:27:29Z</time>
</trkpt>
<trkpt lat="39.8681672" lon="3.0135091">
<ele>72.13</ele>
<time>2016-10-15T08:27:32Z</time>
</trkpt>
<trkpt lat="39.8683529" lon="3.0134258">
<ele>72.00</ele>
<time>2016-10-15T08:27:35Z</time>
</trkpt>
<trkpt lat="39.8685478" lon="3.0133596">
<ele>72.53</ele>
<time>2016-10-15T08:27:38Z</time>
</trkpt>
<trkpt lat="39.8687350" lon="3.0133138">
<ele>70.22</ele>
<time>2016-10-15T08:27:41Z</time>
</trkpt>
<trkpt lat="39.8689509" lon="3.0132855">
<ele>68.99</ele>
<time>2016-10-15T08:27:44Z</time>
</trkpt>
<trkpt lat="39.8691562" lon="3.0132941">
<ele>69.50</ele>
<time>2016-10-15T08:27:47Z</time>
</trkpt>
<trkpt lat="39.8693710" lon="3.0133231">
<ele>70.54</ele>
<time>2016-10-15T08:27:50Z</time>
</trkpt>
<trkpt lat="39.8695812" lon="3.0133665">
<ele>70.70</ele>
<time>2016-10-15T08:27:53Z</time>
</trkpt>
<trkpt lat="39.8697895" lon="3.0134271">
<ele>69.15</ele>
<time>2016-10-15T08:27:56Z</time>
</trkpt>
<trkpt lat="39.8699850" lon="3.0135058">
<ele>67.14</ele>
<time>2016-10-15T08:27:59Z</time>
</trkpt>
<trkpt lat="39.8701890" lon="3.0136263">
<ele>64.99</ele>
<time>2016-10-15T08:28:02Z</time>
</trkpt>
<trkpt lat="39.8704079" lon="3.0137972">
<ele>63.08</ele>
<time>2016-10-15T08:28:05Z</time>
</trkpt>
<trkpt lat="39.8705596" lon="3.0139318">
<ele>61.62</ele>
<time>2016-10-15T08:28:07Z</time>
</trkpt>
<trkpt lat="39.8707104" lon="3.0140801">
<ele>59.99</ele>
<time>2016-10-15T08:28:09Z</time>
</trkpt>
<trkpt lat="39.8709078" lon="3.0143086">
<ele>58.46</ele>
<time>2016-10-15T08:28:12Z</time>
</trkpt>
<trkpt lat="39.8710337" lon="3.0144892">
<ele>57.24</ele>
<time>2016-10-15T08:28:14Z</time>
</trkpt>
<trkpt lat="39.8711507" lon="3.0146768">
<ele>55.41</ele>
<time>2016-10-15T08:28:16Z</time>
</trkpt>
<trkpt lat="39.8712600" lon="3.0148644">
<ele>54.55</ele>
<time>2016-10-15T08:28:18Z</time>
</trkpt>
<trkpt lat="39.8714125" lon="3.0151370">
<ele>53.67</ele>
<time>2016-10-15T08:28:21Z</time>
</trkpt>
<trkpt lat="39.8715721" lon="3.0154150">
<ele>51.47</ele>
<time>2016-10-15T08:28:24Z</time>
</trkpt>
<trkpt lat="39.8717144" lon="3.0156614">
<ele>51.08</ele>
<time>2016-10-15T08:28:27Z</time>
</trkpt>
<trkpt lat="39.8718667" lon="3.0159216">
<ele>50.36</ele>
<time>2016-10-15T08:28:30Z</time>
</trkpt>
<trkpt lat="39.8720264" lon="3.0161993">
<ele>49.48</ele>
<time>2016-10-15T08:28:33Z</time>
</trkpt>
<trkpt lat="39.8721771" lon="3.0164597">
<ele>49.48</ele>
<time>2016-10-15T08:28:36Z</time>
</trkpt>
<trkpt lat="39.8723202" lon="3.0166997">
<ele>49.61</ele>
<time>2016-10-15T08:28:39Z</time>
</trkpt>
<trkpt lat="39.8724622" lon="3.0169360">
<ele>49.46</ele>
<time>2016-10-15T08:28:42Z</time>
</trkpt>
<trkpt lat="39.8726141" lon="3.0171913">
<ele>49.13</ele>
<time>2016-10-15T08:28:45Z</time>
</trkpt>
<trkpt lat="39.8727689" lon="3.0174440">
<ele>49.02</ele>
<time>2016-10-15T08:28:48Z</time>
</trkpt>
<trkpt lat="39.8729345" lon="3.0177157">
<ele>49.04</ele>
<time>2016-10-15T08:28:51Z</time>
</trkpt>
<trkpt lat="39.8730916" lon="3.0179767">
<ele>49.42</ele>
<time>2016-10-15T08:28:54Z</time>
</trkpt>
<trkpt lat="39.8732479" lon="3.0182421">
<ele>49.20</ele>
<time>2016-10-15T08:28:57Z</time>
</trkpt>
<trkpt lat="39.8734046" lon="3.0185113">
<ele>48.23</ele>
<time>2016-10-15T08:29:00Z</time>
</trkpt>
<trkpt lat="39.8735629" lon="3.0187759">
<ele>47.07</ele>
<time>2016-10-15T08:29:03Z</time>
</trkpt>
<trkpt lat="39.8737269" lon="3.0190464">
<ele>44.99</ele>
<time>2016-10-15T08:29:06Z</time>
</trkpt>
<trkpt lat="39.8738823" lon="3.0193045">
<ele>42.72</ele>
<time>2016-10-15T08:29:09Z</time>
</trkpt>
<trkpt lat="39.8740407" lon="3.0195547">
<ele>41.61</ele>
<time>2016-10-15T08:29:12Z</time>
</trkpt>
<trkpt lat="39.8742048" lon="3.0198151">
<ele>42.23</ele>
<time>2016-10-15T08:29:15Z</time>
</trkpt>
<trkpt lat="39.8743724" lon="3.0200833">
<ele>43.20</ele>
<time>2016-10-15T08:29:18Z</time>
</trkpt>
<trkpt lat="39.8745437" lon="3.0203368">
<ele>43.08</ele>
<time>2016-10-15T08:29:21Z</time>
</trkpt>
<trkpt lat="39.8747329" lon="3.0205797">
<ele>42.41</ele>
<time>2016-10-15T08:29:24Z</time>
</trkpt>
<trkpt lat="39.8749331" lon="3.0208063">
<ele>41.38</ele>
<time>2016-10-15T08:29:27Z</time>
</trkpt>
<trkpt lat="39.8751347" lon="3.0210165">
<ele>39.90</ele>
<time>2016-10-15T08:29:30Z</time>
</trkpt>
<trkpt lat="39.8753249" lon="3.0212066">
<ele>38.36</ele>
<time>2016-10-15T08:29:33Z</time>
</trkpt>
<trkpt lat="39.8754902" lon="3.0214158">
<ele>37.78</ele>
<time>2016-10-15T08:29:36Z</time>
</trkpt>
<trkpt lat="39.8756594" lon="3.0216472">
<ele>38.12</ele>
<time>2016-10-15T08:29:39Z</time>
</trkpt>
<trkpt lat="39.8759103" lon="3.0217456">
<ele>38.06</ele>
<time>2016-10-15T08:29:42Z</time>
</trkpt>
<trkpt lat="39.8760920" lon="3.0217766">
<ele>39.55</ele>
<time>2016-10-15T08:29:44Z</time>
</trkpt>
<trkpt lat="39.8763472" lon="3.0218650">
<ele>43.68</ele>
<time>2016-10-15T08:29:47Z</time>
</trkpt>
<trkpt lat="39.8765948" lon="3.0219924">
<ele>47.85</ele>
<time>2016-10-15T08:29:50Z</time>
</trkpt>
<trkpt lat="39.8768403" lon="3.0221356">
<ele>48.58</ele>
<time>2016-10-15T08:29:53Z</time>
</trkpt>
<trkpt lat="39.8770104" lon="3.0222403">
<ele>46.56</ele>
<time>2016-10-15T08:29:55Z</time>
</trkpt>
<trkpt lat="39.8772439" lon="3.0223893">
<ele>44.30</ele>
<time>2016-10-15T08:29:58Z</time>
</trkpt>
<trkpt lat="39.8774708" lon="3.0225278">
<ele>42.13</ele>
<time>2016-10-15T08:30:01Z</time>
</trkpt>
<trkpt lat="39.8776992" lon="3.0226585">
<ele>42.60</ele>
<time>2016-10-15T08:30:04Z</time>
</trkpt>
<trkpt lat="39.8779276" lon="3.0227955">
<ele>43.28</ele>
<time>2016-10-15T08:30:07Z</time>
</trkpt>
<trkpt lat="39.8781482" lon="3.0229177">
<ele>42.56</ele>
<time>2016-10-15T08:30:10Z</time>
</trkpt>
<trkpt lat="39.8783553" lon="3.0230355">
<ele>43.65</ele>
<time>2016-10-15T08:30:13Z</time>
</trkpt>
<trkpt lat="39.8785536" lon="3.0231518">
<ele>45.79</ele>
<time>2016-10-15T08:30:16Z</time>
</trkpt>
<trkpt lat="39.8787453" lon="3.0232644">
<ele>47.18</ele>
<time>2016-10-15T08:30:19Z</time>
</trkpt>
<trkpt lat="39.8789509" lon="3.0233772">
<ele>49.30</ele>
<time>2016-10-15T08:30:22Z</time>
</trkpt>
<trkpt lat="39.8791400" lon="3.0234929">
<ele>51.22</ele>
<time>2016-10-15T08:30:25Z</time>
</trkpt>
<trkpt lat="39.8793182" lon="3.0235996">
<ele>52.55</ele>
<time>2016-10-15T08:30:28Z</time>
</trkpt>
<trkpt lat="39.8795003" lon="3.0237040">
<ele>51.86</ele>
<time>2016-10-15T08:30:31Z</time>
</trkpt>
<trkpt lat="39.8796809" lon="3.0238117">
<ele>51.65</ele>
<time>2016-10-15T08:30:34Z</time>
</trkpt>
<trkpt lat="39.8798597" lon="3.0239050">
<ele>53.19</ele>
<time>2016-10-15T08:30:37Z</time>
</trkpt>
<trkpt lat="39.8800654" lon="3.0240191">
<ele>52.83</ele>
<time>2016-10-15T08:30:41Z</time>
</trkpt>
<trkpt lat="39.8802483" lon="3.0241134">
<ele>51.60</ele>
<time>2016-10-15T08:30:44Z</time>
</trkpt>
<trkpt lat="39.8804389" lon="3.0241990">
<ele>51.64</ele>
<time>2016-10-15T08:30:47Z</time>
</trkpt>
<trkpt lat="39.8806289" lon="3.0242508">
<ele>52.53</ele>
<time>2016-10-15T08:30:50Z</time>
</trkpt>
<trkpt lat="39.8808206" lon="3.0242770">
<ele>53.81</ele>
<time>2016-10-15T08:30:53Z</time>
</trkpt>
<trkpt lat="39.8810418" lon="3.0242701">
<ele>54.86</ele>
<time>2016-10-15T08:30:57Z</time>
</trkpt>
<trkpt lat="39.8812205" lon="3.0242427">
<ele>54.10</ele>
<time>2016-10-15T08:31:00Z</time>
</trkpt>
<trkpt lat="39.8814275" lon="3.0241732">
<ele>52.66</ele>
<time>2016-10-15T08:31:04Z</time>
</trkpt>
<trkpt lat="39.8816212" lon="3.0240739">
<ele>52.55</ele>
<time>2016-10-15T08:31:08Z</time>
</trkpt>
<trkpt lat="39.8817966" lon="3.0239422">
<ele>52.27</ele>
<time>2016-10-15T08:31:12Z</time>
</trkpt>
<trkpt lat="39.8819657" lon="3.0238256">
<ele>54.39</ele>
<time>2016-10-15T08:31:16Z</time>
</trkpt>
<trkpt lat="39.8821570" lon="3.0236817">
<ele>55.18</ele>
<time>2016-10-15T08:31:20Z</time>
</trkpt>
<trkpt lat="39.8823302" lon="3.0235518">
<ele>55.12</ele>
<time>2016-10-15T08:31:23Z</time>
</trkpt>
<trkpt lat="39.8825080" lon="3.0234118">
<ele>55.13</ele>
<time>2016-10-15T08:31:26Z</time>
</trkpt>
<trkpt lat="39.8826922" lon="3.0232625">
<ele>54.72</ele>
<time>2016-10-15T08:31:29Z</time>
</trkpt>
<trkpt lat="39.8828726" lon="3.0231141">
<ele>53.98</ele>
<time>2016-10-15T08:31:32Z</time>
</trkpt>
<trkpt lat="39.8830605" lon="3.0229543">
<ele>54.00</ele>
<time>2016-10-15T08:31:35Z</time>
</trkpt>
<trkpt lat="39.8832574" lon="3.0228099">
<ele>54.11</ele>
<time>2016-10-15T08:31:38Z</time>
</trkpt>
<trkpt lat="39.8834475" lon="3.0226894">
<ele>54.00</ele>
<time>2016-10-15T08:31:41Z</time>
</trkpt>
<trkpt lat="39.8836560" lon="3.0225896">
<ele>53.42</ele>
<time>2016-10-15T08:31:44Z</time>
</trkpt>
<trkpt lat="39.8838656" lon="3.0225004">
<ele>53.36</ele>
<time>2016-10-15T08:31:47Z</time>
</trkpt>
<trkpt lat="39.8840711" lon="3.0224445">
<ele>53.58</ele>
<time>2016-10-15T08:31:50Z</time>
</trkpt>
<trkpt lat="39.8842973" lon="3.0225105">
<ele>52.21</ele>
<time>2016-10-15T08:31:54Z</time>
</trkpt>
<trkpt lat="39.8844921" lon="3.0226869">
<ele>51.48</ele>
<time>2016-10-15T08:31:57Z</time>
</trkpt>
<trkpt lat="39.8846560" lon="3.0229153">
<ele>50.26</ele>
<time>2016-10-15T08:32:00Z</time>
</trkpt>
<trkpt lat="39.8848065" lon="3.0231757">
<ele>47.93</ele>
<time>2016-10-15T08:32:03Z</time>
</trkpt>
<trkpt lat="39.8849263" lon="3.0234460">
<ele>45.41</ele>
<time>2016-10-15T08:32:06Z</time>
</trkpt>
<trkpt lat="39.8850324" lon="3.0237253">
<ele>42.95</ele>
<time>2016-10-15T08:32:09Z</time>
</trkpt>
<trkpt lat="39.8851396" lon="3.0240114">
<ele>42.72</ele>
<time>2016-10-15T08:32:12Z</time>
</trkpt>
<trkpt lat="39.8852275" lon="3.0242578">
<ele>41.76</ele>
<time>2016-10-15T08:32:15Z</time>
</trkpt>
<trkpt lat="39.8853295" lon="3.0245159">
<ele>41.39</ele>
<time>2016-10-15T08:32:18Z</time>
</trkpt>
<trkpt lat="39.8854311" lon="3.0247673">
<ele>41.57</ele>
<time>2016-10-15T08:32:21Z</time>
</trkpt>
<trkpt lat="39.8855339" lon="3.0250154">
<ele>41.62</ele>
<time>2016-10-15T08:32:24Z</time>
</trkpt>
<trkpt lat="39.8856314" lon="3.0252604">
<ele>41.87</ele>
<time>2016-10-15T08:32:27Z</time>
</trkpt>
<trkpt lat="39.8857322" lon="3.0255286">
<ele>41.18</ele>
<time>2016-10-15T08:32:30Z</time>
</trkpt>
<trkpt lat="39.8858362" lon="3.0257918">
<ele>39.14</ele>
<time>2016-10-15T08:32:33Z</time>
</trkpt>
<trkpt lat="39.8859387" lon="3.0260541">
<ele>37.71</ele>
<time>2016-10-15T08:32:36Z</time>
</trkpt>
<trkpt lat="39.8860380" lon="3.0263229">
<ele>37.43</ele>
<time>2016-10-15T08:32:39Z</time>
</trkpt>
<trkpt lat="39.8861427" lon="3.0265855">
<ele>38.07</ele>
<time>2016-10-15T08:32:42Z</time>
</trkpt>
<trkpt lat="39.8862499" lon="3.0268629">
<ele>37.53</ele>
<time>2016-10-15T08:32:45Z</time>
</trkpt>
<trkpt lat="39.8863562" lon="3.0271357">
<ele>37.23</ele>
<time>2016-10-15T08:32:48Z</time>
</trkpt>
<trkpt lat="39.8864717" lon="3.0274245">
<ele>36.57</ele>
<time>2016-10-15T08:32:51Z</time>
</trkpt>
<trkpt lat="39.8865851" lon="3.0276974">
<ele>35.93</ele>
<time>2016-10-15T08:32:54Z</time>
</trkpt>
<trkpt lat="39.8867068" lon="3.0279697">
<ele>34.72</ele>
<time>2016-10-15T08:32:57Z</time>
</trkpt>
<trkpt lat="39.8868400" lon="3.0282128">
<ele>34.55</ele>
<time>2016-10-15T08:33:00Z</time>
</trkpt>
<trkpt lat="39.8869705" lon="3.0284430">
<ele>35.31</ele>
<time>2016-10-15T08:33:03Z</time>
</trkpt>
<trkpt lat="39.8870983" lon="3.0286766">
<ele>35.73</ele>
<time>2016-10-15T08:33:06Z</time>
</trkpt>
<trkpt lat="39.8872259" lon="3.0289118">
<ele>35.60</ele>
<time>2016-10-15T08:33:09Z</time>
</trkpt>
<trkpt lat="39.8873720" lon="3.0291765">
<ele>34.54</ele>
<time>2016-10-15T08:33:12Z</time>
</trkpt>
<trkpt lat="39.8875306" lon="3.0294360">
<ele>33.54</ele>
<time>2016-10-15T08:33:15Z</time>
</trkpt>
<trkpt lat="39.8877005" lon="3.0296729">
<ele>33.08</ele>
<time>2016-10-15T08:33:18Z</time>
</trkpt>
<trkpt lat="39.8878645" lon="3.0298788">
<ele>32.98</ele>
<time>2016-10-15T08:33:21Z</time>
</trkpt>
<trkpt lat="39.8880316" lon="3.0300793">
<ele>32.68</ele>
<time>2016-10-15T08:33:24Z</time>
</trkpt>
<trkpt lat="39.8881995" lon="3.0302662">
<ele>32.98</ele>
<time>2016-10-15T08:33:27Z</time>
</trkpt>
<trkpt lat="39.8883593" lon="3.0304512">
<ele>32.87</ele>
<time>2016-10-15T08:33:30Z</time>
</trkpt>
<trkpt lat="39.8885089" lon="3.0306279">
<ele>32.60</ele>
<time>2016-10-15T08:33:33Z</time>
</trkpt>
<trkpt lat="39.8886831" lon="3.0308029">
<ele>33.43</ele>
<time>2016-10-15T08:33:36Z</time>
</trkpt>
<trkpt lat="39.8888521" lon="3.0309931">
<ele>34.95</ele>
<time>2016-10-15T08:33:39Z</time>
</trkpt>
<trkpt lat="39.8890148" lon="3.0311858">
<ele>35.73</ele>
<time>2016-10-15T08:33:42Z</time>
</trkpt>
<trkpt lat="39.8891721" lon="3.0313863">
<ele>35.04</ele>
<time>2016-10-15T08:33:45Z</time>
</trkpt>
<trkpt lat="39.8893465" lon="3.0315914">
<ele>35.92</ele>
<time>2016-10-15T08:33:48Z</time>
</trkpt>
<trkpt lat="39.8895250" lon="3.0317947">
<ele>36.34</ele>
<time>2016-10-15T08:33:51Z</time>
</trkpt>
<trkpt lat="39.8896989" lon="3.0320050">
<ele>35.51</ele>
<time>2016-10-15T08:33:54Z</time>
</trkpt>
<trkpt lat="39.8898668" lon="3.0322009">
<ele>34.20</ele>
<time>2016-10-15T08:33:57Z</time>
</trkpt>
<trkpt lat="39.8900180" lon="3.0323956">
<ele>34.53</ele>
<time>2016-10-15T08:34:00Z</time>
</trkpt>
<trkpt lat="39.8901813" lon="3.0325918">
<ele>34.96</ele>
<time>2016-10-15T08:34:03Z</time>
</trkpt>
<trkpt lat="39.8903362" lon="3.0327829">
<ele>34.42</ele>
<time>2016-10-15T08:34:06Z</time>
</trkpt>
<trkpt lat="39.8904984" lon="3.0329749">
<ele>34.21</ele>
<time>2016-10-15T08:34:09Z</time>
</trkpt>
<trkpt lat="39.8906649" lon="3.0331866">
<ele>35.74</ele>
<time>2016-10-15T08:34:12Z</time>
</trkpt>
<trkpt lat="39.8908316" lon="3.0334007">
<ele>36.01</ele>
<time>2016-10-15T08:34:15Z</time>
</trkpt>
<trkpt lat="39.8909966" lon="3.0336146">
<ele>35.83</ele>
<time>2016-10-15T08:34:18Z</time>
</trkpt>
<trkpt lat="39.8911583" lon="3.0338498">
<ele>34.48</ele>
<time>2016-10-15T08:34:21Z</time>
</trkpt>
<trkpt lat="39.8913067" lon="3.0340719">
<ele>33.68</ele>
<time>2016-10-15T08:34:24Z</time>
</trkpt>
<trkpt lat="39.8914366" lon="3.0342734">
<ele>32.29</ele>
<time>2016-10-15T08:34:27Z</time>
</trkpt>
<trkpt lat="39.8915619" lon="3.0344869">
<ele>30.85</ele>
<time>2016-10-15T08:34:30Z</time>
</trkpt>
<trkpt lat="39.8916711" lon="3.0347026">
<ele>30.18</ele>
<time>2016-10-15T08:34:33Z</time>
</trkpt>
<trkpt lat="39.8917921" lon="3.0349582">
<ele>29.55</ele>
<time>2016-10-15T08:34:36Z</time>
</trkpt>
<trkpt lat="39.8919072" lon="3.0352197">
<ele>29.50</ele>
<time>2016-10-15T08:34:39Z</time>
</trkpt>
<trkpt lat="39.8920090" lon="3.0354789">
<ele>29.49</ele>
<time>2016-10-15T08:34:42Z</time>
</trkpt>
<trkpt lat="39.8921041" lon="3.0357540">
<ele>27.94</ele>
<time>2016-10-15T08:34:45Z</time>
</trkpt>
<trkpt lat="39.8921996" lon="3.0360501">
<ele>27.67</ele>
<time>2016-10-15T08:34:48Z</time>
</trkpt>
<trkpt lat="39.8922947" lon="3.0363399">
<ele>28.63</ele>
<time>2016-10-15T08:34:51Z</time>
</trkpt>
<trkpt lat="39.8923905" lon="3.0366472">
<ele>28.93</ele>
<time>2016-10-15T08:34:54Z</time>
</trkpt>
<trkpt lat="39.8924893" lon="3.0369561">
<ele>28.67</ele>
<time>2016-10-15T08:34:57Z</time>
</trkpt>
<trkpt lat="39.8925761" lon="3.0372222">
<ele>28.41</ele>
<time>2016-10-15T08:35:00Z</time>
</trkpt>
<trkpt lat="39.8926466" lon="3.0374730">
<ele>27.91</ele>
<time>2016-10-15T08:35:03Z</time>
</trkpt>
<trkpt lat="39.8927269" lon="3.0377473">
<ele>27.07</ele>
<time>2016-10-15T08:35:07Z</time>
</trkpt>
<trkpt lat="39.8928123" lon="3.0380351">
<ele>25.95</ele>
<time>2016-10-15T08:35:10Z</time>
</trkpt>
<trkpt lat="39.8928996" lon="3.0382990">
<ele>25.61</ele>
<time>2016-10-15T08:35:13Z</time>
</trkpt>
<trkpt lat="39.8929891" lon="3.0385797">
<ele>25.29</ele>
<time>2016-10-15T08:35:16Z</time>
</trkpt>
<trkpt lat="39.8930881" lon="3.0388514">
<ele>25.72</ele>
<time>2016-10-15T08:35:19Z</time>
</trkpt>
<trkpt lat="39.8931871" lon="3.0391201">
<ele>26.89</ele>
<time>2016-10-15T08:35:22Z</time>
</trkpt>
<trkpt lat="39.8932768" lon="3.0394006">
<ele>26.48</ele>
<time>2016-10-15T08:35:25Z</time>
</trkpt>
<trkpt lat="39.8933620" lon="3.0396740">
<ele>26.73</ele>
<time>2016-10-15T08:35:28Z</time>
</trkpt>
<trkpt lat="39.8934471" lon="3.0399410">
<ele>27.40</ele>
<time>2016-10-15T08:35:31Z</time>
</trkpt>
<trkpt lat="39.8935382" lon="3.0402008">
<ele>28.28</ele>
<time>2016-10-15T08:35:34Z</time>
</trkpt>
<trkpt lat="39.8936443" lon="3.0404876">
<ele>27.95</ele>
<time>2016-10-15T08:35:37Z</time>
</trkpt>
<trkpt lat="39.8937489" lon="3.0407752">
<ele>27.74</ele>
<time>2016-10-15T08:35:40Z</time>
</trkpt>
<trkpt lat="39.8938475" lon="3.0410449">
<ele>26.93</ele>
<time>2016-10-15T08:35:43Z</time>
</trkpt>
<trkpt lat="39.8939481" lon="3.0413177">
<ele>27.49</ele>
<time>2016-10-15T08:35:46Z</time>
</trkpt>
<trkpt lat="39.8940631" lon="3.0415974">
<ele>27.51</ele>
<time>2016-10-15T08:35:49Z</time>
</trkpt>
<trkpt lat="39.8941582" lon="3.0418768">
<ele>27.85</ele>
<time>2016-10-15T08:35:52Z</time>
</trkpt>
<trkpt lat="39.8942532" lon="3.0421536">
<ele>27.76</ele>
<time>2016-10-15T08:35:55Z</time>
</trkpt>
<trkpt lat="39.8943563" lon="3.0424258">
<ele>27.52</ele>
<time>2016-10-15T08:35:58Z</time>
</trkpt>
<trkpt lat="39.8944580" lon="3.0426856">
<ele>28.01</ele>
<time>2016-10-15T08:36:01Z</time>
</trkpt>
<trkpt lat="39.8945536" lon="3.0429406">
<ele>29.01</ele>
<time>2016-10-15T08:36:04Z</time>
</trkpt>
<trkpt lat="39.8946447" lon="3.0432063">
<ele>28.32</ele>
<time>2016-10-15T08:36:07Z</time>
</trkpt>
<trkpt lat="39.8947338" lon="3.0434761">
<ele>28.01</ele>
<time>2016-10-15T08:36:10Z</time>
</trkpt>
<trkpt lat="39.8948305" lon="3.0437523">
<ele>26.36</ele>
<time>2016-10-15T08:36:13Z</time>
</trkpt>
<trkpt lat="39.8949336" lon="3.0440200">
<ele>25.76</ele>
<time>2016-10-15T08:36:16Z</time>
</trkpt>
<trkpt lat="39.8950346" lon="3.0442901">
<ele>25.78</ele>
<time>2016-10-15T08:36:19Z</time>
</trkpt>
<trkpt lat="39.8951448" lon="3.0445872">
<ele>25.71</ele>
<time>2016-10-15T08:36:22Z</time>
</trkpt>
<trkpt lat="39.8952486" lon="3.0449002">
<ele>25.91</ele>
<time>2016-10-15T08:36:25Z</time>
</trkpt>
<trkpt lat="39.8953433" lon="3.0452154">
<ele>25.91</ele>
<time>2016-10-15T08:36:28Z</time>
</trkpt>
<trkpt lat="39.8954194" lon="3.0454327">
<ele>25.60</ele>
<time>2016-10-15T08:36:30Z</time>
</trkpt>
<trkpt lat="39.8954983" lon="3.0456528">
<ele>25.08</ele>
<time>2016-10-15T08:36:32Z</time>
</trkpt>
<trkpt lat="39.8955758" lon="3.0458790">
<ele>24.86</ele>
<time>2016-10-15T08:36:34Z</time>
</trkpt>
<trkpt lat="39.8956509" lon="3.0461051">
<ele>24.69</ele>
<time>2016-10-15T08:36:36Z</time>
</trkpt>
<trkpt lat="39.8957497" lon="3.0464202">
<ele>23.60</ele>
<time>2016-10-15T08:36:39Z</time>
</trkpt>
<trkpt lat="39.8958487" lon="3.0467454">
<ele>22.81</ele>
<time>2016-10-15T08:36:42Z</time>
</trkpt>
<trkpt lat="39.8959443" lon="3.0470635">
<ele>21.97</ele>
<time>2016-10-15T08:36:45Z</time>
</trkpt>
<trkpt lat="39.8960474" lon="3.0473953">
<ele>22.05</ele>
<time>2016-10-15T08:36:48Z</time>
</trkpt>
<trkpt lat="39.8961120" lon="3.0476203">
<ele>21.61</ele>
<time>2016-10-15T08:36:50Z</time>
</trkpt>
<trkpt lat="39.8961809" lon="3.0478563">
<ele>20.76</ele>
<time>2016-10-15T08:36:52Z</time>
</trkpt>
<trkpt lat="39.8962541" lon="3.0480901">
<ele>19.33</ele>
<time>2016-10-15T08:36:54Z</time>
</trkpt>
<trkpt lat="39.8963529" lon="3.0484114">
<ele>17.83</ele>
<time>2016-10-15T08:36:57Z</time>
</trkpt>
<trkpt lat="39.8964396" lon="3.0487341">
<ele>18.25</ele>
<time>2016-10-15T08:37:00Z</time>
</trkpt>
<trkpt lat="39.8964978" lon="3.0489569">
<ele>18.47</ele>
<time>2016-10-15T08:37:02Z</time>
</trkpt>
<trkpt lat="39.8965832" lon="3.0492669">
<ele>18.16</ele>
<time>2016-10-15T08:37:05Z</time>
</trkpt>
<trkpt lat="39.8966694" lon="3.0495804">
<ele>18.04</ele>
<time>2016-10-15T08:37:08Z</time>
</trkpt>
<trkpt lat="39.8967639" lon="3.0499093">
<ele>16.74</ele>
<time>2016-10-15T08:37:11Z</time>
</trkpt>
<trkpt lat="39.8968292" lon="3.0501370">
<ele>15.44</ele>
<time>2016-10-15T08:37:13Z</time>
</trkpt>
<trkpt lat="39.8969243" lon="3.0504465">
<ele>14.50</ele>
<time>2016-10-15T08:37:16Z</time>
</trkpt>
<trkpt lat="39.8970169" lon="3.0507670">
<ele>14.39</ele>
<time>2016-10-15T08:37:19Z</time>
</trkpt>
<trkpt lat="39.8971136" lon="3.0510951">
<ele>14.20</ele>
<time>2016-10-15T08:37:22Z</time>
</trkpt>
<trkpt lat="39.8971798" lon="3.0513143">
<ele>13.87</ele>
<time>2016-10-15T08:37:24Z</time>
</trkpt>
<trkpt lat="39.8972420" lon="3.0515363">
<ele>13.34</ele>
<time>2016-10-15T08:37:26Z</time>
</trkpt>
<trkpt lat="39.8973300" lon="3.0518577">
<ele>12.31</ele>
<time>2016-10-15T08:37:29Z</time>
</trkpt>
<trkpt lat="39.8974193" lon="3.0521444">
<ele>11.96</ele>
<time>2016-10-15T08:37:32Z</time>
</trkpt>
<trkpt lat="39.8975125" lon="3.0524276">
<ele>12.28</ele>
<time>2016-10-15T08:37:35Z</time>
</trkpt>
<trkpt lat="39.8976111" lon="3.0527398">
<ele>11.54</ele>
<time>2016-10-15T08:37:38Z</time>
</trkpt>
<trkpt lat="39.8976772" lon="3.0529595">
<ele>10.86</ele>
<time>2016-10-15T08:37:40Z</time>
</trkpt>
<trkpt lat="39.8977633" lon="3.0532776">
<ele>10.56</ele>
<time>2016-10-15T08:37:43Z</time>
</trkpt>
<trkpt lat="39.8978478" lon="3.0535793">
<ele>11.30</ele>
<time>2016-10-15T08:37:46Z</time>
</trkpt>
<trkpt lat="39.8979305" lon="3.0538727">
<ele>12.83</ele>
<time>2016-10-15T08:37:49Z</time>
</trkpt>
<trkpt lat="39.8980152" lon="3.0541467">
<ele>13.87</ele>
<time>2016-10-15T08:37:52Z</time>
</trkpt>
<trkpt lat="39.8981067" lon="3.0544488">
<ele>13.02</ele>
<time>2016-10-15T08:37:55Z</time>
</trkpt>
<trkpt lat="39.8981996" lon="3.0547632">
<ele>11.75</ele>
<time>2016-10-15T08:37:58Z</time>
</trkpt>
<trkpt lat="39.8982982" lon="3.0550712">
<ele>11.13</ele>
<time>2016-10-15T08:38:01Z</time>
</trkpt>
<trkpt lat="39.8983959" lon="3.0553818">
<ele>9.90</ele>
<time>2016-10-15T08:38:04Z</time>
</trkpt>
<trkpt lat="39.8984975" lon="3.0556824">
<ele>8.94</ele>
<time>2016-10-15T08:38:07Z</time>
</trkpt>
<trkpt lat="39.8985718" lon="3.0558980">
<ele>8.60</ele>
<time>2016-10-15T08:38:09Z</time>
</trkpt>
<trkpt lat="39.8986733" lon="3.0562177">
<ele>8.39</ele>
<time>2016-10-15T08:38:12Z</time>
</trkpt>
<trkpt lat="39.8987600" lon="3.0565359">
<ele>7.94</ele>
<time>2016-10-15T08:38:15Z</time>
</trkpt>
<trkpt lat="39.8988381" lon="3.0568341">
<ele>7.40</ele>
<time>2016-10-15T08:38:18Z</time>
</trkpt>
<trkpt lat="39.8989258" lon="3.0571501">
<ele>7.28</ele>
<time>2016-10-15T08:38:21Z</time>
</trkpt>
<trkpt lat="39.8990283" lon="3.0574608">
<ele>6.34</ele>
<time>2016-10-15T08:38:24Z</time>
</trkpt>
<trkpt lat="39.8991333" lon="3.0577573">
<ele>6.64</ele>
<time>2016-10-15T08:38:27Z</time>
</trkpt>
<trkpt lat="39.8992369" lon="3.0580640">
<ele>8.00</ele>
<time>2016-10-15T08:38:30Z</time>
</trkpt>
<trkpt lat="39.8993349" lon="3.0583819">
<ele>9.15</ele>
<time>2016-10-15T08:38:33Z</time>
</trkpt>
<trkpt lat="39.8994039" lon="3.0586015">
<ele>9.14</ele>
<time>2016-10-15T08:38:35Z</time>
</trkpt>
<trkpt lat="39.8994679" lon="3.0588262">
<ele>8.96</ele>
<time>2016-10-15T08:38:37Z</time>
</trkpt>
<trkpt lat="39.8995575" lon="3.0591414">
<ele>8.92</ele>
<time>2016-10-15T08:38:40Z</time>
</trkpt>
<trkpt lat="39.8996529" lon="3.0594515">
<ele>9.17</ele>
<time>2016-10-15T08:38:43Z</time>
</trkpt>
<trkpt lat="39.8997370" lon="3.0597637">
<ele>8.59</ele>
<time>2016-10-15T08:38:46Z</time>
</trkpt>
<trkpt lat="39.8998241" lon="3.0600598">
<ele>7.84</ele>
<time>2016-10-15T08:38:49Z</time>
</trkpt>
<trkpt lat="39.8999148" lon="3.0603662">
<ele>7.11</ele>
<time>2016-10-15T08:38:52Z</time>
</trkpt>
<trkpt lat="39.9000074" lon="3.0606783">
<ele>6.51</ele>
<time>2016-10-15T08:38:55Z</time>
</trkpt>
<trkpt lat="39.9000913" lon="3.0609807">
<ele>6.37</ele>
<time>2016-10-15T08:38:58Z</time>
</trkpt>
<trkpt lat="39.9001785" lon="3.0613001">
<ele>4.99</ele>
<time>2016-10-15T08:39:01Z</time>
</trkpt>
<trkpt lat="39.9002425" lon="3.0615279">
<ele>4.06</ele>
<time>2016-10-15T08:39:03Z</time>
</trkpt>
<trkpt lat="39.9003444" lon="3.0618362">
<ele>4.05</ele>
<time>2016-10-15T08:39:06Z</time>
</trkpt>
<trkpt lat="39.9004452" lon="3.0621301">
<ele>5.43</ele>
<time>2016-10-15T08:39:09Z</time>
</trkpt>
<trkpt lat="39.9005415" lon="3.0624321">
<ele>6.19</ele>
<time>2016-10-15T08:39:12Z</time>
</trkpt>
<trkpt lat="39.9006328" lon="3.0627350">
<ele>6.42</ele>
<time>2016-10-15T08:39:15Z</time>
</trkpt>
<trkpt lat="39.9007281" lon="3.0630546">
<ele>6.20</ele>
<time>2016-10-15T08:39:18Z</time>
</trkpt>
<trkpt lat="39.9007982" lon="3.0632842">
<ele>5.88</ele>
<time>2016-10-15T08:39:20Z</time>
</trkpt>
<trkpt lat="39.9008697" lon="3.0635159">
<ele>5.12</ele>
<time>2016-10-15T08:39:22Z</time>
</trkpt>
<trkpt lat="39.9009413" lon="3.0637484">
<ele>3.94</ele>
<time>2016-10-15T08:39:24Z</time>
</trkpt>
<trkpt lat="39.9010088" lon="3.0639735">
<ele>3.36</ele>
<time>2016-10-15T08:39:26Z</time>
</trkpt>
<trkpt lat="39.9010707" lon="3.0641956">
<ele>2.71</ele>
<time>2016-10-15T08:39:28Z</time>
</trkpt>
<trkpt lat="39.9011656" lon="3.0645296">
<ele>1.54</ele>
<time>2016-10-15T08:39:31Z</time>
</trkpt>
<trkpt lat="39.9012351" lon="3.0647505">
<ele>0.69</ele>
<time>2016-10-15T08:39:33Z</time>
</trkpt>
<trkpt lat="39.9013157" lon="3.0650548">
<ele>0.41</ele>
<time>2016-10-15T08:39:36Z</time>
</trkpt>
<trkpt lat="39.9013922" lon="3.0653412">
<ele>0.86</ele>
<time>2016-10-15T08:39:39Z</time>
</trkpt>
<trkpt lat="39.9014751" lon="3.0656223">
<ele>1.63</ele>
<time>2016-10-15T08:39:42Z</time>
</trkpt>
<trkpt lat="39.9015644" lon="3.0659002">
<ele>3.13</ele>
<time>2016-10-15T08:39:45Z</time>
</trkpt>
<trkpt lat="39.9016649" lon="3.0662170">
<ele>4.12</ele>
<time>2016-10-15T08:39:48Z</time>
</trkpt>
<trkpt lat="39.9017340" lon="3.0664436">
<ele>3.66</ele>
<time>2016-10-15T08:39:50Z</time>
</trkpt>
<trkpt lat="39.9018257" lon="3.0667470">
<ele>2.53</ele>
<time>2016-10-15T08:39:53Z</time>
</trkpt>
<trkpt lat="39.9019071" lon="3.0669921">
<ele>3.64</ele>
<time>2016-10-15T08:39:56Z</time>
</trkpt>
<trkpt lat="39.9019864" lon="3.0672538">
<ele>5.43</ele>
<time>2016-10-15T08:39:59Z</time>
</trkpt>
<trkpt lat="39.9020741" lon="3.0675482">
<ele>6.56</ele>
<time>2016-10-15T08:40:02Z</time>
</trkpt>
<trkpt lat="39.9021702" lon="3.0678759">
<ele>6.71</ele>
<time>2016-10-15T08:40:05Z</time>
</trkpt>
<trkpt lat="39.9022415" lon="3.0680972">
<ele>5.38</ele>
<time>2016-10-15T08:40:07Z</time>
</trkpt>
<trkpt lat="39.9023384" lon="3.0683816">
<ele>4.01</ele>
<time>2016-10-15T08:40:10Z</time>
</trkpt>
<trkpt lat="39.9024209" lon="3.0686170">
<ele>4.25</ele>
<time>2016-10-15T08:40:13Z</time>
</trkpt>
<trkpt lat="39.9024977" lon="3.0688506">
<ele>5.06</ele>
<time>2016-10-15T08:40:16Z</time>
</trkpt>
<trkpt lat="39.9025407" lon="3.0691150">
<ele>6.22</ele>
<time>2016-10-15T08:40:19Z</time>
</trkpt>
<trkpt lat="39.9025494" lon="3.0693959">
<ele>5.34</ele>
<time>2016-10-15T08:40:22Z</time>
</trkpt>
<trkpt lat="39.9026651" lon="3.0696595">
<ele>5.05</ele>
<time>2016-10-15T08:40:25Z</time>
</trkpt>
<trkpt lat="39.9027938" lon="3.0699038">
<ele>5.31</ele>
<time>2016-10-15T08:40:28Z</time>
</trkpt>
<trkpt lat="39.9029056" lon="3.0701961">
<ele>6.35</ele>
<time>2016-10-15T08:40:31Z</time>
</trkpt>
<trkpt lat="39.9030045" lon="3.0705058">
<ele>6.30</ele>
<time>2016-10-15T08:40:34Z</time>
</trkpt>
<trkpt lat="39.9030873" lon="3.0707895">
<ele>7.29</ele>
<time>2016-10-15T08:40:37Z</time>
</trkpt>
<trkpt lat="39.9031741" lon="3.0710739">
<ele>8.12</ele>
<time>2016-10-15T08:40:40Z</time>
</trkpt>
<trkpt lat="39.9032551" lon="3.0713635">
<ele>7.88</ele>
<time>2016-10-15T08:40:43Z</time>
</trkpt>
<trkpt lat="39.9033334" lon="3.0716429">
<ele>6.94</ele>
<time>2016-10-15T08:40:46Z</time>
</trkpt>
<trkpt lat="39.9034148" lon="3.0719187">
<ele>7.03</ele>
<time>2016-10-15T08:40:49Z</time>
</trkpt>
<trkpt lat="39.9035067" lon="3.0722106">
<ele>7.01</ele>
<time>2016-10-15T08:40:52Z</time>
</trkpt>
<trkpt lat="39.9035963" lon="3.0725051">
<ele>6.16</ele>
<time>2016-10-15T08:40:55Z</time>
</trkpt>
<trkpt lat="39.9036857" lon="3.0727941">
<ele>5.53</ele>
<time>2016-10-15T08:40:58Z</time>
</trkpt>
<trkpt lat="39.9037713" lon="3.0730892">
<ele>4.40</ele>
<time>2016-10-15T08:41:01Z</time>
</trkpt>
<trkpt lat="39.9038468" lon="3.0733729">
<ele>2.69</ele>
<time>2016-10-15T08:41:04Z</time>
</trkpt>
<trkpt lat="39.9039172" lon="3.0736313">
<ele>1.53</ele>
<time>2016-10-15T08:41:07Z</time>
</trkpt>
<trkpt lat="39.9039834" lon="3.0738614">
<ele>1.75</ele>
<time>2016-10-15T08:41:10Z</time>
</trkpt>
<trkpt lat="39.9040582" lon="3.0741047">
<ele>2.02</ele>
<time>2016-10-15T08:41:13Z</time>
</trkpt>
<trkpt lat="39.9041311" lon="3.0743572">
<ele>1.19</ele>
<time>2016-10-15T08:41:16Z</time>
</trkpt>
<trkpt lat="39.9042017" lon="3.0745869">
<ele>0.95</ele>
<time>2016-10-15T08:41:19Z</time>
</trkpt>
<trkpt lat="39.9042539" lon="3.0748352">
<ele>1.12</ele>
<time>2016-10-15T08:41:23Z</time>
</trkpt>
<trkpt lat="39.9042573" lon="3.0750861">
<ele>1.14</ele>
<time>2016-10-15T08:41:29Z</time>
</trkpt>
<trkpt lat="39.9042265" lon="3.0753321">
<ele>-0.06</ele>
<time>2016-10-15T08:41:33Z</time>
</trkpt>
<trkpt lat="39.9043195" lon="3.0755998">
<ele>0.01</ele>
<time>2016-10-15T08:41:37Z</time>
</trkpt>
<trkpt lat="39.9045404" lon="3.0756863">
<ele>1.35</ele>
<time>2016-10-15T08:41:41Z</time>
</trkpt>
<trkpt lat="39.9047683" lon="3.0756522">
<ele>3.10</ele>
<time>2016-10-15T08:41:44Z</time>
</trkpt>
<trkpt lat="39.9049707" lon="3.0757466">
<ele>3.62</ele>
<time>2016-10-15T08:41:47Z</time>
</trkpt>
<trkpt lat="39.9051582" lon="3.0758688">
<ele>4.60</ele>
<time>2016-10-15T08:41:50Z</time>
</trkpt>
<trkpt lat="39.9053292" lon="3.0759710">
<ele>5.47</ele>
<time>2016-10-15T08:41:53Z</time>
</trkpt>
<trkpt lat="39.9054983" lon="3.0760691">
<ele>7.36</ele>
<time>2016-10-15T08:41:56Z</time>
</trkpt>
<trkpt lat="39.9056896" lon="3.0762020">
<ele>9.29</ele>
<time>2016-10-15T08:42:00Z</time>
</trkpt>
<trkpt lat="39.9058598" lon="3.0763230">
<ele>8.13</ele>
<time>2016-10-15T08:42:04Z</time>
</trkpt>
<trkpt lat="39.9060234" lon="3.0764420">
<ele>7.43</ele>
<time>2016-10-15T08:42:07Z</time>
</trkpt>
<trkpt lat="39.9062260" lon="3.0765925">
<ele>5.28</ele>
<time>2016-10-15T08:42:11Z</time>
</trkpt>
<trkpt lat="39.9063950" lon="3.0767237">
<ele>5.48</ele>
<time>2016-10-15T08:42:14Z</time>
</trkpt>
<trkpt lat="39.9065896" lon="3.0768572">
<ele>5.11</ele>
<time>2016-10-15T08:42:17Z</time>
</trkpt>
<trkpt lat="39.9067873" lon="3.0770045">
<ele>5.09</ele>
<time>2016-10-15T08:42:20Z</time>
</trkpt>
<trkpt lat="39.9070016" lon="3.0771617">
<ele>5.12</ele>
<time>2016-10-15T08:42:23Z</time>
</trkpt>
<trkpt lat="39.9071885" lon="3.0773064">
<ele>4.61</ele>
<time>2016-10-15T08:42:26Z</time>
</trkpt>
<trkpt lat="39.9073752" lon="3.0774659">
<ele>4.64</ele>
<time>2016-10-15T08:42:30Z</time>
</trkpt>
<trkpt lat="39.9075271" lon="3.0775941">
<ele>3.93</ele>
<time>2016-10-15T08:42:34Z</time>
</trkpt>
<trkpt lat="39.9076941" lon="3.0777278">
<ele>4.32</ele>
<time>2016-10-15T08:42:38Z</time>
</trkpt>
<trkpt lat="39.9078458" lon="3.0778786">
<ele>3.30</ele>
<time>2016-10-15T08:42:42Z</time>
</trkpt>
<trkpt lat="39.9080235" lon="3.0780518">
<ele>2.70</ele>
<time>2016-10-15T08:42:46Z</time>
</trkpt>
<trkpt lat="39.9082011" lon="3.0782202">
<ele>4.30</ele>
<time>2016-10-15T08:42:50Z</time>
</trkpt>
<trkpt lat="39.9083966" lon="3.0784056">
<ele>3.61</ele>
<time>2016-10-15T08:42:54Z</time>
</trkpt>
<trkpt lat="39.9085455" lon="3.0785462">
<ele>4.46</ele>
<time>2016-10-15T08:42:57Z</time>
</trkpt>
<trkpt lat="39.9087301" lon="3.0787282">
<ele>5.73</ele>
<time>2016-10-15T08:43:01Z</time>
</trkpt>
<trkpt lat="39.9089144" lon="3.0789143">
<ele>6.79</ele>
<time>2016-10-15T08:43:05Z</time>
</trkpt>
<trkpt lat="39.9090951" lon="3.0790908">
<ele>7.42</ele>
<time>2016-10-15T08:43:08Z</time>
</trkpt>
<trkpt lat="39.9092787" lon="3.0792170">
<ele>9.28</ele>
<time>2016-10-15T08:43:11Z</time>
</trkpt>
<trkpt lat="39.9094345" lon="3.0793355">
<ele>10.37</ele>
<time>2016-10-15T08:43:14Z</time>
</trkpt>
<trkpt lat="39.9096153" lon="3.0795240">
<ele>11.02</ele>
<time>2016-10-15T08:43:18Z</time>
</trkpt>
<trkpt lat="39.9097905" lon="3.0797369">
<ele>9.91</ele>
<time>2016-10-15T08:43:21Z</time>
</trkpt>
<trkpt lat="39.9099575" lon="3.0799401">
<ele>10.29</ele>
<time>2016-10-15T08:43:25Z</time>
</trkpt>
<trkpt lat="39.9101261" lon="3.0801542">
<ele>10.84</ele>
<time>2016-10-15T08:43:29Z</time>
</trkpt>
<trkpt lat="39.9102840" lon="3.0803640">
<ele>11.04</ele>
<time>2016-10-15T08:43:33Z</time>
</trkpt>
<trkpt lat="39.9104273" lon="3.0805807">
<ele>11.91</ele>
<time>2016-10-15T08:43:37Z</time>
</trkpt>
<trkpt lat="39.9105532" lon="3.0807605">
<ele>11.75</ele>
<time>2016-10-15T08:43:40Z</time>
</trkpt>
<trkpt lat="39.9106709" lon="3.0809387">
<ele>11.02</ele>
<time>2016-10-15T08:43:43Z</time>
</trkpt>
<trkpt lat="39.9107937" lon="3.0811187">
<ele>10.19</ele>
<time>2016-10-15T08:43:46Z</time>
</trkpt>
<trkpt lat="39.9109164" lon="3.0812975">
<ele>8.77</ele>
<time>2016-10-15T08:43:49Z</time>
</trkpt>
<trkpt lat="39.9110660" lon="3.0815235">
<ele>8.07</ele>
<time>2016-10-15T08:43:53Z</time>
</trkpt>
<trkpt lat="39.9112092" lon="3.0817509">
<ele>8.07</ele>
<time>2016-10-15T08:43:57Z</time>
</trkpt>
<trkpt lat="39.9113580" lon="3.0819887">
<ele>8.66</ele>
<time>2016-10-15T08:44:01Z</time>
</trkpt>
<trkpt lat="39.9114975" lon="3.0822324">
<ele>8.25</ele>
<time>2016-10-15T08:44:05Z</time>
</trkpt>
<trkpt lat="39.9116366" lon="3.0824746">
<ele>7.66</ele>
<time>2016-10-15T08:44:09Z</time>
</trkpt>
<trkpt lat="39.9117427" lon="3.0826712">
<ele>7.64</ele>
<time>2016-10-15T08:44:12Z</time>
</trkpt>
<trkpt lat="39.9118493" lon="3.0828706">
<ele>6.98</ele>
<time>2016-10-15T08:44:15Z</time>
</trkpt>
<trkpt lat="39.9119683" lon="3.0830882">
<ele>6.17</ele>
<time>2016-10-15T08:44:18Z</time>
</trkpt>
<trkpt lat="39.9120817" lon="3.0833025">
<ele>4.96</ele>
<time>2016-10-15T08:44:21Z</time>
</trkpt>
<trkpt lat="39.9121843" lon="3.0834972">
<ele>4.99</ele>
<time>2016-10-15T08:44:24Z</time>
</trkpt>
<trkpt lat="39.9123076" lon="3.0837463">
<ele>4.92</ele>
<time>2016-10-15T08:44:28Z</time>
</trkpt>
<trkpt lat="39.9123334" lon="3.0840156">
<ele>2.59</ele>
<time>2016-10-15T08:44:32Z</time>
</trkpt>
<trkpt lat="39.9123180" lon="3.0842677">
<ele>2.62</ele>
<time>2016-10-15T08:44:35Z</time>
</trkpt>
<trkpt lat="39.9124212" lon="3.0845043">
<ele>4.00</ele>
<time>2016-10-15T08:44:38Z</time>
</trkpt>
<trkpt lat="39.9125928" lon="3.0846410">
<ele>3.71</ele>
<time>2016-10-15T08:44:41Z</time>
</trkpt>
<trkpt lat="39.9127502" lon="3.0848151">
<ele>2.07</ele>
<time>2016-10-15T08:44:45Z</time>
</trkpt>
<trkpt lat="39.9128630" lon="3.0850825">
<ele>1.12</ele>
<time>2016-10-15T08:44:49Z</time>
</trkpt>
<trkpt lat="39.9129580" lon="3.0853228">
<ele>-0.05</ele>
<time>2016-10-15T08:44:52Z</time>
</trkpt>
<trkpt lat="39.9130472" lon="3.0855710">
<ele>-0.97</ele>
<time>2016-10-15T08:44:55Z</time>
</trkpt>
<trkpt lat="39.9131219" lon="3.0858007">
<ele>-0.36</ele>
<time>2016-10-15T08:44:58Z</time>
</trkpt>
<trkpt lat="39.9131915" lon="3.0860188">
<ele>-0.17</ele>
<time>2016-10-15T08:45:01Z</time>
</trkpt>
<trkpt lat="39.9132725" lon="3.0863145">
<ele>0.37</ele>
<time>2016-10-15T08:45:05Z</time>
</trkpt>
<trkpt lat="39.9133287" lon="3.0866029">
<ele>1.71</ele>
<time>2016-10-15T08:45:09Z</time>
</trkpt>
<trkpt lat="39.9133709" lon="3.0868881">
<ele>3.45</ele>
<time>2016-10-15T08:45:13Z</time>
</trkpt>
<trkpt lat="39.9134093" lon="3.0871666">
<ele>5.61</ele>
<time>2016-10-15T08:45:17Z</time>
</trkpt>
<trkpt lat="39.9134384" lon="3.0874572">
<ele>6.84</ele>
<time>2016-10-15T08:45:21Z</time>
</trkpt>
<trkpt lat="39.9134655" lon="3.0877604">
<ele>6.50</ele>
<time>2016-10-15T08:45:25Z</time>
</trkpt>
<trkpt lat="39.9134832" lon="3.0880669">
<ele>6.74</ele>
<time>2016-10-15T08:45:29Z</time>
</trkpt>
<trkpt lat="39.9134931" lon="3.0883068">
<ele>6.80</ele>
<time>2016-10-15T08:45:32Z</time>
</trkpt>
<trkpt lat="39.9135052" lon="3.0885495">
<ele>7.12</ele>
<time>2016-10-15T08:45:35Z</time>
</trkpt>
<trkpt lat="39.9135181" lon="3.0888088">
<ele>7.12</ele>
<time>2016-10-15T08:45:38Z</time>
</trkpt>
<trkpt lat="39.9135343" lon="3.0890498">
<ele>6.24</ele>
<time>2016-10-15T08:45:41Z</time>
</trkpt>
<trkpt lat="39.9135463" lon="3.0892915">
<ele>4.38</ele>
<time>2016-10-15T08:45:44Z</time>
</trkpt>
<trkpt lat="39.9135501" lon="3.0896046">
<ele>4.56</ele>
<time>2016-10-15T08:45:48Z</time>
</trkpt>
<trkpt lat="39.9135573" lon="3.0899097">
<ele>4.02</ele>
<time>2016-10-15T08:45:52Z</time>
</trkpt>
<trkpt lat="39.9135593" lon="3.0901500">
<ele>4.18</ele>
<time>2016-10-15T08:45:55Z</time>
</trkpt>
<trkpt lat="39.9135728" lon="3.0904585">
<ele>5.14</ele>
<time>2016-10-15T08:45:59Z</time>
</trkpt>
<trkpt lat="39.9135893" lon="3.0907073">
<ele>6.12</ele>
<time>2016-10-15T08:46:02Z</time>
</trkpt>
<trkpt lat="39.9136032" lon="3.0909584">
<ele>7.27</ele>
<time>2016-10-15T08:46:05Z</time>
</trkpt>
<trkpt lat="39.9136185" lon="3.0912101">
<ele>8.80</ele>
<time>2016-10-15T08:46:08Z</time>
</trkpt>
<trkpt lat="39.9136326" lon="3.0914503">
<ele>9.34</ele>
<time>2016-10-15T08:46:11Z</time>
</trkpt>
<trkpt lat="39.9136592" lon="3.0916864">
<ele>9.79</ele>
<time>2016-10-15T08:46:14Z</time>
</trkpt>
<trkpt lat="39.9136786" lon="3.0919352">
<ele>10.33</ele>
<time>2016-10-15T08:46:17Z</time>
</trkpt>
<trkpt lat="39.9136897" lon="3.0922089">
<ele>9.46</ele>
<time>2016-10-15T08:46:20Z</time>
</trkpt>
<trkpt lat="39.9137011" lon="3.0925019">
<ele>7.96</ele>
<time>2016-10-15T08:46:23Z</time>
</trkpt>
<trkpt lat="39.9137031" lon="3.0928034">
<ele>6.75</ele>
<time>2016-10-15T08:46:26Z</time>
</trkpt>
<trkpt lat="39.9137106" lon="3.0931071">
<ele>6.17</ele>
<time>2016-10-15T08:46:29Z</time>
</trkpt>
<trkpt lat="39.9137294" lon="3.0934246">
<ele>5.54</ele>
<time>2016-10-15T08:46:32Z</time>
</trkpt>
<trkpt lat="39.9137474" lon="3.0937407">
<ele>5.03</ele>
<time>2016-10-15T08:46:35Z</time>
</trkpt>
<trkpt lat="39.9137744" lon="3.0940442">
<ele>4.56</ele>
<time>2016-10-15T08:46:38Z</time>
</trkpt>
<trkpt lat="39.9137833" lon="3.0943396">
<ele>5.10</ele>
<time>2016-10-15T08:46:41Z</time>
</trkpt>
<trkpt lat="39.9137857" lon="3.0946302">
<ele>6.16</ele>
<time>2016-10-15T08:46:44Z</time>
</trkpt>
<trkpt lat="39.9137892" lon="3.0949100">
<ele>6.19</ele>
<time>2016-10-15T08:46:47Z</time>
</trkpt>
<trkpt lat="39.9137821" lon="3.0951827">
<ele>4.85</ele>
<time>2016-10-15T08:46:50Z</time>
</trkpt>
<trkpt lat="39.9137618" lon="3.0954411">
<ele>6.01</ele>
<time>2016-10-15T08:46:53Z</time>
</trkpt>
<trkpt lat="39.9137315" lon="3.0957010">
<ele>6.49</ele>
<time>2016-10-15T08:46:56Z</time>
</trkpt>
<trkpt lat="39.9136873" lon="3.0959715">
<ele>6.19</ele>
<time>2016-10-15T08:46:59Z</time>
</trkpt>
<trkpt lat="39.9136258" lon="3.0962409">
<ele>6.94</ele>
<time>2016-10-15T08:47:02Z</time>
</trkpt>
<trkpt lat="39.9135588" lon="3.0964992">
<ele>8.17</ele>
<time>2016-10-15T08:47:05Z</time>
</trkpt>
<trkpt lat="39.9134862" lon="3.0967488">
<ele>9.63</ele>
<time>2016-10-15T08:47:08Z</time>
</trkpt>
<trkpt lat="39.9134172" lon="3.0970054">
<ele>9.30</ele>
<time>2016-10-15T08:47:11Z</time>
</trkpt>
<trkpt lat="39.9133578" lon="3.0972568">
<ele>9.34</ele>
<time>2016-10-15T08:47:14Z</time>
</trkpt>
<trkpt lat="39.9133083" lon="3.0975132">
<ele>9.12</ele>
<time>2016-10-15T08:47:17Z</time>
</trkpt>
<trkpt lat="39.9132567" lon="3.0977649">
<ele>9.22</ele>
<time>2016-10-15T08:47:20Z</time>
</trkpt>
<trkpt lat="39.9131982" lon="3.0980089">
<ele>8.80</ele>
<time>2016-10-15T08:47:23Z</time>
</trkpt>
<trkpt lat="39.9131363" lon="3.0982948">
<ele>5.74</ele>
<time>2016-10-15T08:47:27Z</time>
</trkpt>
<trkpt lat="39.9130785" lon="3.0985617">
<ele>4.23</ele>
<time>2016-10-15T08:47:31Z</time>
</trkpt>
<trkpt lat="39.9130138" lon="3.0988138">
<ele>4.65</ele>
<time>2016-10-15T08:47:35Z</time>
</trkpt>
<trkpt lat="39.9129518" lon="3.0990648">
<ele>5.26</ele>
<time>2016-10-15T08:47:39Z</time>
</trkpt>
<trkpt lat="39.9128469" lon="3.0993104">
<ele>6.48</ele>
<time>2016-10-15T08:47:43Z</time>
</trkpt>
<trkpt lat="39.9126711" lon="3.0995062">
<ele>5.81</ele>
<time>2016-10-15T08:47:47Z</time>
</trkpt>
<trkpt lat="39.9126390" lon="3.0997965">
<ele>4.53</ele>
<time>2016-10-15T08:47:51Z</time>
</trkpt>
<trkpt lat="39.9126082" lon="3.1000537">
<ele>2.99</ele>
<time>2016-10-15T08:47:54Z</time>
</trkpt>
<trkpt lat="39.9125648" lon="3.1003115">
<ele>1.56</ele>
<time>2016-10-15T08:47:57Z</time>
</trkpt>
<trkpt lat="39.9125096" lon="3.1005832">
<ele>1.32</ele>
<time>2016-10-15T08:48:00Z</time>
</trkpt>
<trkpt lat="39.9124539" lon="3.1008240">
<ele>-0.03</ele>
<time>2016-10-15T08:48:03Z</time>
</trkpt>
<trkpt lat="39.9123941" lon="3.1011040">
<ele>-1.15</ele>
<time>2016-10-15T08:48:07Z</time>
</trkpt>
<trkpt lat="39.9123297" lon="3.1013689">
<ele>-0.06</ele>
<time>2016-10-15T08:48:11Z</time>
</trkpt>
<trkpt lat="39.9122723" lon="3.1015984">
<ele>0.46</ele>
<time>2016-10-15T08:48:14Z</time>
</trkpt>
<trkpt lat="39.9122137" lon="3.1018870">
<ele>2.08</ele>
<time>2016-10-15T08:48:18Z</time>
</trkpt>
<trkpt lat="39.9122028" lon="3.1021360">
<ele>3.31</ele>
<time>2016-10-15T08:48:22Z</time>
</trkpt>
<trkpt lat="39.9122942" lon="3.1023503">
<ele>8.29</ele>
<time>2016-10-15T08:48:27Z</time>
</trkpt>
<trkpt lat="39.9124396" lon="3.1025349">
<ele>16.08</ele>
<time>2016-10-15T08:48:32Z</time>
</trkpt>
<trkpt lat="39.9126038" lon="3.1026636">
<ele>19.80</ele>
<time>2016-10-15T08:48:38Z</time>
</trkpt>
<trkpt lat="39.9127564" lon="3.1027940">
<ele>20.56</ele>
<time>2016-10-15T08:48:44Z</time>
</trkpt>
<trkpt lat="39.9129262" lon="3.1029109">
<ele>21.24</ele>
<time>2016-10-15T08:48:50Z</time>
</trkpt>
<trkpt lat="39.9130965" lon="3.1030268">
<ele>21.78</ele>
<time>2016-10-15T08:48:56Z</time>
</trkpt>
<trkpt lat="39.9132697" lon="3.1031404">
<ele>22.16</ele>
<time>2016-10-15T08:49:02Z</time>
</trkpt>
<trkpt lat="39.9134519" lon="3.1032731">
<ele>22.79</ele>
<time>2016-10-15T08:49:09Z</time>
</trkpt>
<trkpt lat="39.9136224" lon="3.1034022">
<ele>23.03</ele>
<time>2016-10-15T08:49:15Z</time>
</trkpt>
<trkpt lat="39.9137780" lon="3.1035335">
<ele>23.00</ele>
<time>2016-10-15T08:49:21Z</time>
</trkpt>
<trkpt lat="39.9139384" lon="3.1036530">
<ele>23.05</ele>
<time>2016-10-15T08:49:27Z</time>
</trkpt>
<trkpt lat="39.9141071" lon="3.1037756">
<ele>22.72</ele>
<time>2016-10-15T08:49:33Z</time>
</trkpt>
<trkpt lat="39.9142912" lon="3.1039243">
<ele>22.36</ele>
<time>2016-10-15T08:49:39Z</time>
</trkpt>
<trkpt lat="39.9144517" lon="3.1040625">
<ele>22.29</ele>
<time>2016-10-15T08:49:45Z</time>
</trkpt>
<trkpt lat="39.9146149" lon="3.1042071">
<ele>22.67</ele>
<time>2016-10-15T08:49:52Z</time>
</trkpt>
<trkpt lat="39.9147821" lon="3.1043374">
<ele>22.74</ele>
<time>2016-10-15T08:50:01Z</time>
</trkpt>
<trkpt lat="39.9148243" lon="3.1045746">
<ele>23.53</ele>
<time>2016-10-15T08:50:12Z</time>
</trkpt>
<trkpt lat="39.9146512" lon="3.1046518">
<ele>24.03</ele>
<time>2016-10-15T08:50:20Z</time>
</trkpt>
<trkpt lat="39.9144591" lon="3.1045990">
<ele>24.63</ele>
<time>2016-10-15T08:50:27Z</time>
</trkpt>
<trkpt lat="39.9142810" lon="3.1045665">
<ele>24.87</ele>
<time>2016-10-15T08:50:33Z</time>
</trkpt>
<trkpt lat="39.9140889" lon="3.1045063">
<ele>24.80</ele>
<time>2016-10-15T08:50:40Z</time>
</trkpt>
<trkpt lat="39.9139000" lon="3.1044544">
<ele>25.74</ele>
<time>2016-10-15T08:50:47Z</time>
</trkpt>
<trkpt lat="39.9136897" lon="3.1043897">
<ele>27.17</ele>
<time>2016-10-15T08:50:53Z</time>
</trkpt>
<trkpt lat="39.9134934" lon="3.1043548">
<ele>29.00</ele>
<time>2016-10-15T08:51:02Z</time>
</trkpt>
<trkpt lat="39.9132931" lon="3.1043094">
<ele>30.34</ele>
<time>2016-10-15T08:51:08Z</time>
</trkpt>
<trkpt lat="39.9131094" lon="3.1042659">
<ele>32.01</ele>
<time>2016-10-15T08:51:14Z</time>
</trkpt>
<trkpt lat="39.9129203" lon="3.1042120">
<ele>33.77</ele>
<time>2016-10-15T08:51:21Z</time>
</trkpt>
<trkpt lat="39.9127434" lon="3.1041697">
<ele>35.40</ele>
<time>2016-10-15T08:51:27Z</time>
</trkpt>
<trkpt lat="39.9125644" lon="3.1041420">
<ele>36.82</ele>
<time>2016-10-15T08:51:33Z</time>
</trkpt>
<trkpt lat="39.9123720" lon="3.1041080">
<ele>38.36</ele>
<time>2016-10-15T08:51:39Z</time>
</trkpt>
<trkpt lat="39.9121873" lon="3.1040944">
<ele>39.37</ele>
<time>2016-10-15T08:51:45Z</time>
</trkpt>
<trkpt lat="39.9120037" lon="3.1041068">
<ele>40.49</ele>
<time>2016-10-15T08:51:51Z</time>
</trkpt>
<trkpt lat="39.9118137" lon="3.1041129">
<ele>41.13</ele>
<time>2016-10-15T08:51:57Z</time>
</trkpt>
<trkpt lat="39.9116325" lon="3.1041488">
<ele>41.83</ele>
<time>2016-10-15T08:52:03Z</time>
</trkpt>
<trkpt lat="39.9115728" lon="3.1043724">
<ele>42.93</ele>
<time>2016-10-15T08:52:11Z</time>
</trkpt>
<trkpt lat="39.9117535" lon="3.1043667">
<ele>43.37</ele>
<time>2016-10-15T08:52:19Z</time>
</trkpt>
<trkpt lat="39.9119534" lon="3.1043744">
<ele>43.53</ele>
<time>2016-10-15T08:52:26Z</time>
</trkpt>
<trkpt lat="39.9121540" lon="3.1043746">
<ele>44.26</ele>
<time>2016-10-15T08:52:35Z</time>
</trkpt>
<trkpt lat="39.9123547" lon="3.1043961">
<ele>45.43</ele>
<time>2016-10-15T08:52:42Z</time>
</trkpt>
<trkpt lat="39.9125297" lon="3.1044639">
<ele>46.20</ele>
<time>2016-10-15T08:52:49Z</time>
</trkpt>
<trkpt lat="39.9127111" lon="3.1045980">
<ele>47.53</ele>
<time>2016-10-15T08:52:57Z</time>
</trkpt>
<trkpt lat="39.9128524" lon="3.1047503">
<ele>48.46</ele>
<time>2016-10-15T08:53:04Z</time>
</trkpt>
<trkpt lat="39.9130383" lon="3.1048591">
<ele>49.88</ele>
<time>2016-10-15T08:53:11Z</time>
</trkpt>
<trkpt lat="39.9132328" lon="3.1049005">
<ele>51.71</ele>
<time>2016-10-15T08:53:19Z</time>
</trkpt>
<trkpt lat="39.9134173" lon="3.1049582">
<ele>53.35</ele>
<time>2016-10-15T08:53:26Z</time>
</trkpt>
<trkpt lat="39.9136183" lon="3.1050371">
<ele>55.09</ele>
<time>2016-10-15T08:53:33Z</time>
</trkpt>
<trkpt lat="39.9138036" lon="3.1051758">
<ele>57.54</ele>
<time>2016-10-15T08:53:41Z</time>
</trkpt>
<trkpt lat="39.9139865" lon="3.1053120">
<ele>59.66</ele>
<time>2016-10-15T08:53:47Z</time>
</trkpt>
<trkpt lat="39.9141387" lon="3.1054691">
<ele>61.96</ele>
<time>2016-10-15T08:53:54Z</time>
</trkpt>
<trkpt lat="39.9142973" lon="3.1056170">
<ele>62.74</ele>
<time>2016-10-15T08:54:01Z</time>
</trkpt>
<trkpt lat="39.9144505" lon="3.1057748">
<ele>63.37</ele>
<time>2016-10-15T08:54:08Z</time>
</trkpt>
<trkpt lat="39.9145831" lon="3.1059442">
<ele>64.20</ele>
<time>2016-10-15T08:54:15Z</time>
</trkpt>
<trkpt lat="39.9147108" lon="3.1061459">
<ele>65.47</ele>
<time>2016-10-15T08:54:23Z</time>
</trkpt>
<trkpt lat="39.9148194" lon="3.1063389">
<ele>66.47</ele>
<time>2016-10-15T08:54:30Z</time>
</trkpt>
<trkpt lat="39.9149762" lon="3.1065102">
<ele>68.04</ele>
<time>2016-10-15T08:54:37Z</time>
</trkpt>
<trkpt lat="39.9151326" lon="3.1066413">
<ele>69.51</ele>
<time>2016-10-15T08:54:45Z</time>
</trkpt>
<trkpt lat="39.9152976" lon="3.1067983">
<ele>71.22</ele>
<time>2016-10-15T08:54:53Z</time>
</trkpt>
<trkpt lat="39.9154475" lon="3.1069700">
<ele>72.64</ele>
<time>2016-10-15T08:55:00Z</time>
</trkpt>
<trkpt lat="39.9155837" lon="3.1071524">
<ele>74.08</ele>
<time>2016-10-15T08:55:08Z</time>
</trkpt>
<trkpt lat="39.9157197" lon="3.1073168">
<ele>75.63</ele>
<time>2016-10-15T08:55:15Z</time>
</trkpt>
<trkpt lat="39.9158671" lon="3.1074795">
<ele>77.28</ele>
<time>2016-10-15T08:55:22Z</time>
</trkpt>
<trkpt lat="39.9160085" lon="3.1076268">
<ele>78.91</ele>
<time>2016-10-15T08:55:29Z</time>
</trkpt>
<trkpt lat="39.9161396" lon="3.1077906">
<ele>80.81</ele>
<time>2016-10-15T08:55:37Z</time>
</trkpt>
<trkpt lat="39.9163170" lon="3.1079137">
<ele>82.67</ele>
<time>2016-10-15T08:55:46Z</time>
</trkpt>
<trkpt lat="39.9164957" lon="3.1078329">
<ele>83.34</ele>
<time>2016-10-15T08:55:53Z</time>
</trkpt>
<trkpt lat="39.9166427" lon="3.1076588">
<ele>83.51</ele>
<time>2016-10-15T08:55:58Z</time>
</trkpt>
<trkpt lat="39.9167697" lon="3.1074568">
<ele>83.81</ele>
<time>2016-10-15T08:56:05Z</time>
</trkpt>
<trkpt lat="39.9169102" lon="3.1072637">
<ele>83.66</ele>
<time>2016-10-15T08:56:13Z</time>
</trkpt>
<trkpt lat="39.9170529" lon="3.1071020">
<ele>84.14</ele>
<time>2016-10-15T08:56:19Z</time>
</trkpt>
<trkpt lat="39.9172003" lon="3.1069376">
<ele>85.30</ele>
<time>2016-10-15T08:56:26Z</time>
</trkpt>
<trkpt lat="39.9172597" lon="3.1067114">
<ele>85.75</ele>
<time>2016-10-15T08:56:32Z</time>
</trkpt>
<trkpt lat="39.9172193" lon="3.1064786">
<ele>85.48</ele>
<time>2016-10-15T08:56:39Z</time>
</trkpt>
<trkpt lat="39.9171538" lon="3.1062486">
<ele>84.81</ele>
<time>2016-10-15T08:56:46Z</time>
</trkpt>
<trkpt lat="39.9171218" lon="3.1059942">
<ele>85.55</ele>
<time>2016-10-15T08:56:53Z</time>
</trkpt>
<trkpt lat="39.9171686" lon="3.1057335">
<ele>85.94</ele>
<time>2016-10-15T08:56:59Z</time>
</trkpt>
<trkpt lat="39.9172991" lon="3.1055618">
<ele>86.73</ele>
<time>2016-10-15T08:57:05Z</time>
</trkpt>
<trkpt lat="39.9174904" lon="3.1056416">
<ele>90.64</ele>
<time>2016-10-15T08:57:16Z</time>
</trkpt>
<trkpt lat="39.9176648" lon="3.1057675">
<ele>93.40</ele>
<time>2016-10-15T08:57:23Z</time>
</trkpt>
<trkpt lat="39.9178405" lon="3.1059000">
<ele>95.67</ele>
<time>2016-10-15T08:57:30Z</time>
</trkpt>
<trkpt lat="39.9180264" lon="3.1060166">
<ele>98.13</ele>
<time>2016-10-15T08:57:38Z</time>
</trkpt>
<trkpt lat="39.9181858" lon="3.1061359">
<ele>101.02</ele>
<time>2016-10-15T08:57:46Z</time>
</trkpt>
<trkpt lat="39.9183489" lon="3.1062533">
<ele>103.43</ele>
<time>2016-10-15T08:57:53Z</time>
</trkpt>
<trkpt lat="39.9185235" lon="3.1063480">
<ele>105.87</ele>
<time>2016-10-15T08:58:01Z</time>
</trkpt>
<trkpt lat="39.9187096" lon="3.1064359">
<ele>108.73</ele>
<time>2016-10-15T08:58:10Z</time>
</trkpt>
<trkpt lat="39.9188769" lon="3.1065275">
<ele>111.88</ele>
<time>2016-10-15T08:58:18Z</time>
</trkpt>
<trkpt lat="39.9190330" lon="3.1066541">
<ele>114.23</ele>
<time>2016-10-15T08:58:25Z</time>
</trkpt>
<trkpt lat="39.9192054" lon="3.1067755">
<ele>116.04</ele>
<time>2016-10-15T08:58:32Z</time>
</trkpt>
<trkpt lat="39.9193679" lon="3.1068801">
<ele>117.72</ele>
<time>2016-10-15T08:58:40Z</time>
</trkpt>
<trkpt lat="39.9195485" lon="3.1069659">
<ele>119.23</ele>
<time>2016-10-15T08:58:49Z</time>
</trkpt>
<trkpt lat="39.9197323" lon="3.1070242">
<ele>121.04</ele>
<time>2016-10-15T08:58:56Z</time>
</trkpt>
<trkpt lat="39.9199213" lon="3.1070220">
<ele>123.27</ele>
<time>2016-10-15T08:59:06Z</time>
</trkpt>
<trkpt lat="39.9201230" lon="3.1069777">
<ele>125.58</ele>
<time>2016-10-15T08:59:15Z</time>
</trkpt>
<trkpt lat="39.9203115" lon="3.1069944">
<ele>127.00</ele>
<time>2016-10-15T08:59:22Z</time>
</trkpt>
<trkpt lat="39.9204963" lon="3.1069976">
<ele>127.91</ele>
<time>2016-10-15T08:59:29Z</time>
</trkpt>
<trkpt lat="39.9206780" lon="3.1070037">
<ele>129.78</ele>
<time>2016-10-15T08:59:37Z</time>
</trkpt>
<trkpt lat="39.9208689" lon="3.1070159">
<ele>131.77</ele>
<time>2016-10-15T08:59:45Z</time>
</trkpt>
<trkpt lat="39.9210666" lon="3.1070189">
<ele>133.64</ele>
<time>2016-10-15T08:59:53Z</time>
</trkpt>
<trkpt lat="39.9212402" lon="3.1070854">
<ele>135.18</ele>
<time>2016-10-15T09:00:00Z</time>
</trkpt>
<trkpt lat="39.9214357" lon="3.1071591">
<ele>137.54</ele>
<time>2016-10-15T09:00:07Z</time>
</trkpt>
<trkpt lat="39.9216419" lon="3.1072365">
<ele>140.09</ele>
<time>2016-10-15T09:00:15Z</time>
</trkpt>
<trkpt lat="39.9218393" lon="3.1072814">
<ele>142.22</ele>
<time>2016-10-15T09:00:24Z</time>
</trkpt>
<trkpt lat="39.9220274" lon="3.1073077">
<ele>143.08</ele>
<time>2016-10-15T09:00:30Z</time>
</trkpt>
<trkpt lat="39.9222103" lon="3.1073428">
<ele>144.14</ele>
<time>2016-10-15T09:00:35Z</time>
</trkpt>
<trkpt lat="39.9223937" lon="3.1074249">
<ele>145.29</ele>
<time>2016-10-15T09:00:41Z</time>
</trkpt>
<trkpt lat="39.9225842" lon="3.1075403">
<ele>145.69</ele>
<time>2016-10-15T09:00:47Z</time>
</trkpt>
<trkpt lat="39.9227555" lon="3.1076326">
<ele>146.83</ele>
<time>2016-10-15T09:00:52Z</time>
</trkpt>
<trkpt lat="39.9229377" lon="3.1076847">
<ele>148.96</ele>
<time>2016-10-15T09:00:59Z</time>
</trkpt>
<trkpt lat="39.9231377" lon="3.1077328">
<ele>151.85</ele>
<time>2016-10-15T09:01:07Z</time>
</trkpt>
<trkpt lat="39.9233386" lon="3.1077388">
<ele>154.53</ele>
<time>2016-10-15T09:01:16Z</time>
</trkpt>
<trkpt lat="39.9235249" lon="3.1077398">
<ele>156.28</ele>
<time>2016-10-15T09:01:22Z</time>
</trkpt>
<trkpt lat="39.9237045" lon="3.1076965">
<ele>158.02</ele>
<time>2016-10-15T09:01:28Z</time>
</trkpt>
<trkpt lat="39.9238948" lon="3.1075982">
<ele>159.23</ele>
<time>2016-10-15T09:01:34Z</time>
</trkpt>
<trkpt lat="39.9240771" lon="3.1074912">
<ele>159.85</ele>
<time>2016-10-15T09:01:40Z</time>
</trkpt>
<trkpt lat="39.9242718" lon="3.1074651">
<ele>161.51</ele>
<time>2016-10-15T09:01:47Z</time>
</trkpt>
<trkpt lat="39.9244447" lon="3.1075772">
<ele>162.66</ele>
<time>2016-10-15T09:01:53Z</time>
</trkpt>
<trkpt lat="39.9245611" lon="3.1077900">
<ele>163.67</ele>
<time>2016-10-15T09:02:00Z</time>
</trkpt>
<trkpt lat="39.9246680" lon="3.1080236">
<ele>163.72</ele>
<time>2016-10-15T09:02:06Z</time>
</trkpt>
<trkpt lat="39.9247603" lon="3.1082563">
<ele>163.54</ele>
<time>2016-10-15T09:02:13Z</time>
</trkpt>
<trkpt lat="39.9248672" lon="3.1084501">
<ele>163.60</ele>
<time>2016-10-15T09:02:20Z</time>
</trkpt>
<trkpt lat="39.9250486" lon="3.1085093">
<ele>164.20</ele>
<time>2016-10-15T09:02:29Z</time>
</trkpt>
<trkpt lat="39.9252300" lon="3.1084911">
<ele>165.78</ele>
<time>2016-10-15T09:02:38Z</time>
</trkpt>
<trkpt lat="39.9254051" lon="3.1085934">
<ele>167.65</ele>
<time>2016-10-15T09:02:45Z</time>
</trkpt>
<trkpt lat="39.9255468" lon="3.1087832">
<ele>168.55</ele>
<time>2016-10-15T09:02:51Z</time>
</trkpt>
<trkpt lat="39.9256525" lon="3.1089753">
<ele>169.36</ele>
<time>2016-10-15T09:02:57Z</time>
</trkpt>
<trkpt lat="39.9257506" lon="3.1091915">
<ele>170.67</ele>
<time>2016-10-15T09:03:04Z</time>
</trkpt>
<trkpt lat="39.9259086" lon="3.1093393">
<ele>172.46</ele>
<time>2016-10-15T09:03:12Z</time>
</trkpt>
<trkpt lat="39.9261021" lon="3.1093093">
<ele>174.26</ele>
<time>2016-10-15T09:03:20Z</time>
</trkpt>
<trkpt lat="39.9262819" lon="3.1093201">
<ele>175.21</ele>
<time>2016-10-15T09:03:25Z</time>
</trkpt>
<trkpt lat="39.9264653" lon="3.1093937">
<ele>176.82</ele>
<time>2016-10-15T09:03:32Z</time>
</trkpt>
<trkpt lat="39.9266253" lon="3.1095412">
<ele>179.03</ele>
<time>2016-10-15T09:03:39Z</time>
</trkpt>
<trkpt lat="39.9267735" lon="3.1096950">
<ele>180.75</ele>
<time>2016-10-15T09:03:46Z</time>
</trkpt>
<trkpt lat="39.9269527" lon="3.1096513">
<ele>182.41</ele>
<time>2016-10-15T09:03:54Z</time>
</trkpt>
<trkpt lat="39.9271488" lon="3.1096181">
<ele>182.87</ele>
<time>2016-10-15T09:04:00Z</time>
</trkpt>
<trkpt lat="39.9273352" lon="3.1096723">
<ele>183.83</ele>
<time>2016-10-15T09:04:06Z</time>
</trkpt>
<trkpt lat="39.9275136" lon="3.1097478">
<ele>184.95</ele>
<time>2016-10-15T09:04:14Z</time>
</trkpt>
<trkpt lat="39.9276948" lon="3.1098274">
<ele>185.98</ele>
<time>2016-10-15T09:04:21Z</time>
</trkpt>
<trkpt lat="39.9278807" lon="3.1098978">
<ele>187.02</ele>
<time>2016-10-15T09:04:29Z</time>
</trkpt>
<trkpt lat="39.9280706" lon="3.1099434">
<ele>188.00</ele>
<time>2016-10-15T09:04:37Z</time>
</trkpt>
<trkpt lat="39.9282673" lon="3.1099782">
<ele>189.45</ele>
<time>2016-10-15T09:04:44Z</time>
</trkpt>
<trkpt lat="39.9284456" lon="3.1100357">
<ele>191.19</ele>
<time>2016-10-15T09:04:50Z</time>
</trkpt>
<trkpt lat="39.9285856" lon="3.1102073">
<ele>193.14</ele>
<time>2016-10-15T09:04:57Z</time>
</trkpt>
<trkpt lat="39.9287299" lon="3.1103955">
<ele>194.87</ele>
<time>2016-10-15T09:05:05Z</time>
</trkpt>
<trkpt lat="39.9288445" lon="3.1106124">
<ele>197.26</ele>
<time>2016-10-15T09:05:12Z</time>
</trkpt>
<trkpt lat="39.9289157" lon="3.1108329">
<ele>201.30</ele>
<time>2016-10-15T09:05:28Z</time>
</trkpt>
<trkpt lat="39.9289105" lon="3.1110752">
<ele>200.92</ele>
<time>2016-10-15T09:06:43Z</time>
</trkpt>
<trkpt lat="39.9287307" lon="3.1111667">
<ele>205.45</ele>
<time>2016-10-15T09:12:14Z</time>
</trkpt>
<trkpt lat="39.9287308" lon="3.1114400">
<ele>211.04</ele>
<time>2016-10-15T09:12:18Z</time>
</trkpt>
<trkpt lat="39.9287487" lon="3.1116882">
<ele>210.51</ele>
<time>2016-10-15T09:12:21Z</time>
</trkpt>
<trkpt lat="39.9287956" lon="3.1119413">
<ele>208.46</ele>
<time>2016-10-15T09:12:24Z</time>
</trkpt>
<trkpt lat="39.9288860" lon="3.1122069">
<ele>205.54</ele>
<time>2016-10-15T09:12:27Z</time>
</trkpt>
<trkpt lat="39.9289744" lon="3.1124905">
<ele>203.65</ele>
<time>2016-10-15T09:12:30Z</time>
</trkpt>
<trkpt lat="39.9290396" lon="3.1127755">
<ele>201.38</ele>
<time>2016-10-15T09:12:33Z</time>
</trkpt>
<trkpt lat="39.9291206" lon="3.1130125">
<ele>200.33</ele>
<time>2016-10-15T09:12:38Z</time>
</trkpt>
<trkpt lat="39.9291891" lon="3.1127574">
<ele>199.72</ele>
<time>2016-10-15T09:12:59Z</time>
</trkpt>
<trkpt lat="39.9291563" lon="3.1124471">
<ele>196.17</ele>
<time>2016-10-15T09:13:03Z</time>
</trkpt>
<trkpt lat="39.9291151" lon="3.1121937">
<ele>192.15</ele>
<time>2016-10-15T09:13:06Z</time>
</trkpt>
<trkpt lat="39.9291301" lon="3.1119050">
<ele>187.90</ele>
<time>2016-10-15T09:13:10Z</time>
</trkpt>
<trkpt lat="39.9293124" lon="3.1118735">
<ele>186.76</ele>
<time>2016-10-15T09:13:15Z</time>
</trkpt>
<trkpt lat="39.9293264" lon="3.1122021">
<ele>186.30</ele>
<time>2016-10-15T09:13:18Z</time>
</trkpt>
<trkpt lat="39.9293442" lon="3.1125599">
<ele>185.08</ele>
<time>2016-10-15T09:13:21Z</time>
</trkpt>
<trkpt lat="39.9293665" lon="3.1128037">
<ele>184.16</ele>
<time>2016-10-15T09:13:23Z</time>
</trkpt>
<trkpt lat="39.9293898" lon="3.1130399">
<ele>183.75</ele>
<time>2016-10-15T09:13:25Z</time>
</trkpt>
<trkpt lat="39.9294093" lon="3.1132867">
<ele>183.18</ele>
<time>2016-10-15T09:13:27Z</time>
</trkpt>
<trkpt lat="39.9293828" lon="3.1135224">
<ele>182.95</ele>
<time>2016-10-15T09:13:29Z</time>
</trkpt>
<trkpt lat="39.9294171" lon="3.1137762">
<ele>182.32</ele>
<time>2016-10-15T09:13:31Z</time>
</trkpt>
<trkpt lat="39.9294805" lon="3.1139978">
<ele>180.99</ele>
<time>2016-10-15T09:13:33Z</time>
</trkpt>
<trkpt lat="39.9295437" lon="3.1143016">
<ele>178.55</ele>
<time>2016-10-15T09:13:36Z</time>
</trkpt>
<trkpt lat="39.9296110" lon="3.1145566">
<ele>177.69</ele>
<time>2016-10-15T09:13:39Z</time>
</trkpt>
<trkpt lat="39.9297919" lon="3.1147089">
<ele>176.73</ele>
<time>2016-10-15T09:13:42Z</time>
</trkpt>
<trkpt lat="39.9299874" lon="3.1148735">
<ele>176.84</ele>
<time>2016-10-15T09:13:45Z</time>
</trkpt>
<trkpt lat="39.9301898" lon="3.1150576">
<ele>177.42</ele>
<time>2016-10-15T09:13:48Z</time>
</trkpt>
<trkpt lat="39.9303360" lon="3.1152844">
<ele>176.59</ele>
<time>2016-10-15T09:13:51Z</time>
</trkpt>
<trkpt lat="39.9304269" lon="3.1155609">
<ele>174.78</ele>
<time>2016-10-15T09:13:54Z</time>
</trkpt>
<trkpt lat="39.9304346" lon="3.1158466">
<ele>171.76</ele>
<time>2016-10-15T09:13:57Z</time>
</trkpt>
<trkpt lat="39.9304632" lon="3.1161561">
<ele>168.26</ele>
<time>2016-10-15T09:14:00Z</time>
</trkpt>
<trkpt lat="39.9305433" lon="3.1164582">
<ele>167.12</ele>
<time>2016-10-15T09:14:03Z</time>
</trkpt>
<trkpt lat="39.9306523" lon="3.1167669">
<ele>166.63</ele>
<time>2016-10-15T09:14:06Z</time>
</trkpt>
<trkpt lat="39.9306576" lon="3.1170042">
<ele>165.58</ele>
<time>2016-10-15T09:14:08Z</time>
</trkpt>
<trkpt lat="39.9306383" lon="3.1173210">
<ele>163.47</ele>
<time>2016-10-15T09:14:11Z</time>
</trkpt>
<trkpt lat="39.9305965" lon="3.1176024">
<ele>162.48</ele>
<time>2016-10-15T09:14:14Z</time>
</trkpt>
<trkpt lat="39.9305458" lon="3.1178336">
<ele>161.26</ele>
<time>2016-10-15T09:14:17Z</time>
</trkpt>
<trkpt lat="39.9304642" lon="3.1181031">
<ele>159.68</ele>
<time>2016-10-15T09:14:21Z</time>
</trkpt>
<trkpt lat="39.9303998" lon="3.1183294">
<ele>157.97</ele>
<time>2016-10-15T09:14:24Z</time>
</trkpt>
<trkpt lat="39.9303737" lon="3.1186307">
<ele>156.09</ele>
<time>2016-10-15T09:14:28Z</time>
</trkpt>
<trkpt lat="39.9303721" lon="3.1188818">
<ele>155.65</ele>
<time>2016-10-15T09:14:31Z</time>
</trkpt>
<trkpt lat="39.9303719" lon="3.1191445">
<ele>154.63</ele>
<time>2016-10-15T09:14:34Z</time>
</trkpt>
<trkpt lat="39.9303681" lon="3.1193971">
<ele>153.25</ele>
<time>2016-10-15T09:14:37Z</time>
</trkpt>
<trkpt lat="39.9303624" lon="3.1196574">
<ele>152.97</ele>
<time>2016-10-15T09:14:40Z</time>
</trkpt>
<trkpt lat="39.9304191" lon="3.1199197">
<ele>155.10</ele>
<time>2016-10-15T09:14:43Z</time>
</trkpt>
<trkpt lat="39.9304528" lon="3.1201978">
<ele>157.90</ele>
<time>2016-10-15T09:14:46Z</time>
</trkpt>
<trkpt lat="39.9305123" lon="3.1204931">
<ele>159.43</ele>
<time>2016-10-15T09:14:49Z</time>
</trkpt>
<trkpt lat="39.9305762" lon="3.1207361">
<ele>157.82</ele>
<time>2016-10-15T09:14:52Z</time>
</trkpt>
<trkpt lat="39.9305979" lon="3.1210371">
<ele>153.17</ele>
<time>2016-10-15T09:14:56Z</time>
</trkpt>
<trkpt lat="39.9305085" lon="3.1212579">
<ele>150.89</ele>
<time>2016-10-15T09:14:59Z</time>
</trkpt>
<trkpt lat="39.9305653" lon="3.1215428">
<ele>148.94</ele>
<time>2016-10-15T09:15:03Z</time>
</trkpt>
<trkpt lat="39.9307171" lon="3.1216988">
<ele>146.95</ele>
<time>2016-10-15T09:15:07Z</time>
</trkpt>
<trkpt lat="39.9309084" lon="3.1218022">
<ele>150.47</ele>
<time>2016-10-15T09:15:13Z</time>
</trkpt>
<trkpt lat="39.9309969" lon="3.1220161">
<ele>151.60</ele>
<time>2016-10-15T09:15:17Z</time>
</trkpt>
<trkpt lat="39.9308526" lon="3.1222033">
<ele>145.62</ele>
<time>2016-10-15T09:15:21Z</time>
</trkpt>
<trkpt lat="39.9306890" lon="3.1223770">
<ele>140.15</ele>
<time>2016-10-15T09:15:25Z</time>
</trkpt>
<trkpt lat="39.9305588" lon="3.1225577">
<ele>138.35</ele>
<time>2016-10-15T09:15:28Z</time>
</trkpt>
<trkpt lat="39.9304198" lon="3.1227306">
<ele>136.41</ele>
<time>2016-10-15T09:15:31Z</time>
</trkpt>
<trkpt lat="39.9303085" lon="3.1229371">
<ele>137.92</ele>
<time>2016-10-15T09:15:34Z</time>
</trkpt>
<trkpt lat="39.9303061" lon="3.1232308">
<ele>136.40</ele>
<time>2016-10-15T09:15:37Z</time>
</trkpt>
<trkpt lat="39.9303289" lon="3.1235752">
<ele>134.29</ele>
<time>2016-10-15T09:15:40Z</time>
</trkpt>
<trkpt lat="39.9303311" lon="3.1238958">
<ele>131.83</ele>
<time>2016-10-15T09:15:43Z</time>
</trkpt>
<trkpt lat="39.9302959" lon="3.1241929">
<ele>130.13</ele>
<time>2016-10-15T09:15:46Z</time>
</trkpt>
<trkpt lat="39.9302600" lon="3.1244668">
<ele>128.83</ele>
<time>2016-10-15T09:15:49Z</time>
</trkpt>
<trkpt lat="39.9302630" lon="3.1247147">
<ele>127.88</ele>
<time>2016-10-15T09:15:54Z</time>
</trkpt>
<trkpt lat="39.9303539" lon="3.1244789">
<ele>124.96</ele>
<time>2016-10-15T09:16:01Z</time>
</trkpt>
<trkpt lat="39.9303830" lon="3.1242322">
<ele>123.99</ele>
<time>2016-10-15T09:16:03Z</time>
</trkpt>
<trkpt lat="39.9304324" lon="3.1239527">
<ele>121.21</ele>
<time>2016-10-15T09:16:05Z</time>
</trkpt>
<trkpt lat="39.9304923" lon="3.1236964">
<ele>117.77</ele>
<time>2016-10-15T09:16:07Z</time>
</trkpt>
<trkpt lat="39.9305494" lon="3.1234636">
<ele>115.42</ele>
<time>2016-10-15T09:16:09Z</time>
</trkpt>
<trkpt lat="39.9306207" lon="3.1231743">
<ele>113.18</ele>
<time>2016-10-15T09:16:12Z</time>
</trkpt>
<trkpt lat="39.9308259" lon="3.1230972">
<ele>108.74</ele>
<time>2016-10-15T09:16:16Z</time>
</trkpt>
<trkpt lat="39.9310535" lon="3.1231141">
<ele>105.60</ele>
<time>2016-10-15T09:16:20Z</time>
</trkpt>
<trkpt lat="39.9312604" lon="3.1230492">
<ele>103.09</ele>
<time>2016-10-15T09:16:23Z</time>
</trkpt>
<trkpt lat="39.9314978" lon="3.1230055">
<ele>102.54</ele>
<time>2016-10-15T09:16:26Z</time>
</trkpt>
<trkpt lat="39.9316847" lon="3.1232020">
<ele>104.57</ele>
<time>2016-10-15T09:16:29Z</time>
</trkpt>
<trkpt lat="39.9317609" lon="3.1235294">
<ele>106.68</ele>
<time>2016-10-15T09:16:32Z</time>
</trkpt>
<trkpt lat="39.9318047" lon="3.1237610">
<ele>107.82</ele>
<time>2016-10-15T09:16:34Z</time>
</trkpt>
<trkpt lat="39.9318518" lon="3.1239980">
<ele>108.08</ele>
<time>2016-10-15T09:16:36Z</time>
</trkpt>
<trkpt lat="39.9318973" lon="3.1242311">
<ele>107.26</ele>
<time>2016-10-15T09:16:38Z</time>
</trkpt>
<trkpt lat="39.9319686" lon="3.1245379">
<ele>106.80</ele>
<time>2016-10-15T09:16:41Z</time>
</trkpt>
<trkpt lat="39.9320449" lon="3.1247846">
<ele>106.89</ele>
<time>2016-10-15T09:16:44Z</time>
</trkpt>
<trkpt lat="39.9321603" lon="3.1250123">
<ele>105.93</ele>
<time>2016-10-15T09:16:47Z</time>
</trkpt>
<trkpt lat="39.9323470" lon="3.1251119">
<ele>105.02</ele>
<time>2016-10-15T09:16:50Z</time>
</trkpt>
<trkpt lat="39.9325721" lon="3.1251306">
<ele>103.81</ele>
<time>2016-10-15T09:16:53Z</time>
</trkpt>
<trkpt lat="39.9328143" lon="3.1251274">
<ele>101.90</ele>
<time>2016-10-15T09:16:56Z</time>
</trkpt>
<trkpt lat="39.9330312" lon="3.1251429">
<ele>100.07</ele>
<time>2016-10-15T09:16:59Z</time>
</trkpt>
<trkpt lat="39.9332596" lon="3.1251730">
<ele>97.46</ele>
<time>2016-10-15T09:17:02Z</time>
</trkpt>
<trkpt lat="39.9334596" lon="3.1253332">
<ele>94.87</ele>
<time>2016-10-15T09:17:05Z</time>
</trkpt>
<trkpt lat="39.9334984" lon="3.1256027">
<ele>95.59</ele>
<time>2016-10-15T09:17:08Z</time>
</trkpt>
<trkpt lat="39.9334348" lon="3.1258592">
<ele>94.33</ele>
<time>2016-10-15T09:17:11Z</time>
</trkpt>
<trkpt lat="39.9333197" lon="3.1261388">
<ele>90.98</ele>
<time>2016-10-15T09:17:14Z</time>
</trkpt>
<trkpt lat="39.9332268" lon="3.1263444">
<ele>87.79</ele>
<time>2016-10-15T09:17:16Z</time>
</trkpt>
<trkpt lat="39.9331176" lon="3.1265476">
<ele>85.72</ele>
<time>2016-10-15T09:17:18Z</time>
</trkpt>
<trkpt lat="39.9330091" lon="3.1267397">
<ele>84.38</ele>
<time>2016-10-15T09:17:20Z</time>
</trkpt>
<trkpt lat="39.9328383" lon="3.1269927">
<ele>82.24</ele>
<time>2016-10-15T09:17:23Z</time>
</trkpt>
<trkpt lat="39.9326612" lon="3.1272385">
<ele>79.41</ele>
<time>2016-10-15T09:17:26Z</time>
</trkpt>
<trkpt lat="39.9325032" lon="3.1274733">
<ele>77.47</ele>
<time>2016-10-15T09:17:29Z</time>
</trkpt>
<trkpt lat="39.9323357" lon="3.1277414">
<ele>75.12</ele>
<time>2016-10-15T09:17:32Z</time>
</trkpt>
<trkpt lat="39.9322616" lon="3.1280773">
<ele>70.37</ele>
<time>2016-10-15T09:17:35Z</time>
</trkpt>
<trkpt lat="39.9322146" lon="3.1284066">
<ele>67.99</ele>
<time>2016-10-15T09:17:38Z</time>
</trkpt>
<trkpt lat="39.9321770" lon="3.1286980">
<ele>66.37</ele>
<time>2016-10-15T09:17:41Z</time>
</trkpt>
<trkpt lat="39.9322116" lon="3.1289863">
<ele>65.68</ele>
<time>2016-10-15T09:17:44Z</time>
</trkpt>
<trkpt lat="39.9323417" lon="3.1292281">
<ele>65.09</ele>
<time>2016-10-15T09:17:47Z</time>
</trkpt>
<trkpt lat="39.9324584" lon="3.1294778">
<ele>63.96</ele>
<time>2016-10-15T09:17:50Z</time>
</trkpt>
<trkpt lat="39.9325746" lon="3.1297482">
<ele>63.30</ele>
<time>2016-10-15T09:17:53Z</time>
</trkpt>
<trkpt lat="39.9326719" lon="3.1300012">
<ele>61.61</ele>
<time>2016-10-15T09:17:56Z</time>
</trkpt>
<trkpt lat="39.9327620" lon="3.1302359">
<ele>59.90</ele>
<time>2016-10-15T09:17:59Z</time>
</trkpt>
<trkpt lat="39.9329028" lon="3.1304502">
<ele>55.46</ele>
<time>2016-10-15T09:18:04Z</time>
</trkpt>
<trkpt lat="39.9330288" lon="3.1306347">
<ele>54.40</ele>
<time>2016-10-15T09:18:12Z</time>
</trkpt>
<trkpt lat="39.9328469" lon="3.1306065">
<ele>49.34</ele>
<time>2016-10-15T09:18:18Z</time>
</trkpt>
<trkpt lat="39.9326827" lon="3.1304228">
<ele>46.58</ele>
<time>2016-10-15T09:18:22Z</time>
</trkpt>
<trkpt lat="39.9325134" lon="3.1302258">
<ele>44.72</ele>
<time>2016-10-15T09:18:25Z</time>
</trkpt>
<trkpt lat="39.9323083" lon="3.1300064">
<ele>41.90</ele>
<time>2016-10-15T09:18:28Z</time>
</trkpt>
<trkpt lat="39.9321139" lon="3.1298253">
<ele>37.63</ele>
<time>2016-10-15T09:18:31Z</time>
</trkpt>
<trkpt lat="39.9319607" lon="3.1296840">
<ele>35.38</ele>
<time>2016-10-15T09:18:34Z</time>
</trkpt>
<trkpt lat="39.9317978" lon="3.1295297">
<ele>32.75</ele>
<time>2016-10-15T09:18:37Z</time>
</trkpt>
<trkpt lat="39.9315982" lon="3.1293715">
<ele>29.81</ele>
<time>2016-10-15T09:18:40Z</time>
</trkpt>
<trkpt lat="39.9314183" lon="3.1292665">
<ele>27.04</ele>
<time>2016-10-15T09:18:43Z</time>
</trkpt>
<trkpt lat="39.9312440" lon="3.1293929">
<ele>25.95</ele>
<time>2016-10-15T09:18:47Z</time>
</trkpt>
<trkpt lat="39.9310541" lon="3.1295790">
<ele>26.29</ele>
<time>2016-10-15T09:18:51Z</time>
</trkpt>
<trkpt lat="39.9308812" lon="3.1297441">
<ele>27.86</ele>
<time>2016-10-15T09:18:54Z</time>
</trkpt>
<trkpt lat="39.9307053" lon="3.1299115">
<ele>29.24</ele>
<time>2016-10-15T09:18:57Z</time>
</trkpt>
<trkpt lat="39.9304765" lon="3.1300978">
<ele>30.03</ele>
<time>2016-10-15T09:19:00Z</time>
</trkpt>
<trkpt lat="39.9302585" lon="3.1302688">
<ele>30.07</ele>
<time>2016-10-15T09:19:03Z</time>
</trkpt>
<trkpt lat="39.9300808" lon="3.1304393">
<ele>30.20</ele>
<time>2016-10-15T09:19:06Z</time>
</trkpt>
<trkpt lat="39.9299701" lon="3.1306817">
<ele>29.29</ele>
<time>2016-10-15T09:19:09Z</time>
</trkpt>
<trkpt lat="39.9298701" lon="3.1310258">
<ele>23.29</ele>
<time>2016-10-15T09:19:14Z</time>
</trkpt>
<trkpt lat="39.9297968" lon="3.1313165">
<ele>18.48</ele>
<time>2016-10-15T09:19:18Z</time>
</trkpt>
<trkpt lat="39.9297210" lon="3.1315301">
<ele>16.14</ele>
<time>2016-10-15T09:19:21Z</time>
</trkpt>
<trkpt lat="39.9296480" lon="3.1317624">
<ele>13.91</ele>
<time>2016-10-15T09:19:24Z</time>
</trkpt>
<trkpt lat="39.9295928" lon="3.1320091">
<ele>11.79</ele>
<time>2016-10-15T09:19:27Z</time>
</trkpt>
<trkpt lat="39.9295291" lon="3.1322619">
<ele>10.27</ele>
<time>2016-10-15T09:19:30Z</time>
</trkpt>
<trkpt lat="39.9294520" lon="3.1325229">
<ele>8.85</ele>
<time>2016-10-15T09:19:33Z</time>
</trkpt>
<trkpt lat="39.9293744" lon="3.1328042">
<ele>7.51</ele>
<time>2016-10-15T09:19:37Z</time>
</trkpt>
<trkpt lat="39.9293185" lon="3.1330715">
<ele>6.97</ele>
<time>2016-10-15T09:19:41Z</time>
</trkpt>
<trkpt lat="39.9292590" lon="3.1333357">
<ele>6.70</ele>
<time>2016-10-15T09:19:46Z</time>
</trkpt>
<trkpt lat="39.9291970" lon="3.1335706">
<ele>6.78</ele>
<time>2016-10-15T09:19:51Z</time>
</trkpt>
<trkpt lat="39.9292887" lon="3.1337878">
<ele>3.78</ele>
<time>2016-10-15T09:19:58Z</time>
</trkpt>
<trkpt lat="39.9294798" lon="3.1338085">
<ele>3.72</ele>
<time>2016-10-15T09:20:05Z</time>
</trkpt>
<trkpt lat="39.9297112" lon="3.1338187">
<ele>6.16</ele>
<time>2016-10-15T09:20:10Z</time>
</trkpt>
<trkpt lat="39.9299217" lon="3.1338342">
<ele>8.92</ele>
<time>2016-10-15T09:20:14Z</time>
</trkpt>
<trkpt lat="39.9301278" lon="3.1337998">
<ele>10.49</ele>
<time>2016-10-15T09:20:19Z</time>
</trkpt>
<trkpt lat="39.9303530" lon="3.1338036">
<ele>12.94</ele>
<time>2016-10-15T09:20:23Z</time>
</trkpt>
<trkpt lat="39.9305546" lon="3.1338907">
<ele>13.78</ele>
<time>2016-10-15T09:20:26Z</time>
</trkpt>
<trkpt lat="39.9307390" lon="3.1339901">
<ele>15.52</ele>
<time>2016-10-15T09:20:29Z</time>
</trkpt>
<trkpt lat="39.9309379" lon="3.1341538">
<ele>16.02</ele>
<time>2016-10-15T09:20:33Z</time>
</trkpt>
<trkpt lat="39.9310932" lon="3.1343394">
<ele>18.18</ele>
<time>2016-10-15T09:20:37Z</time>
</trkpt>
<trkpt lat="39.9312567" lon="3.1344933">
<ele>19.73</ele>
<time>2016-10-15T09:20:42Z</time>
</trkpt>
<trkpt lat="39.9314234" lon="3.1346148">
<ele>20.44</ele>
<time>2016-10-15T09:20:47Z</time>
</trkpt>
<trkpt lat="39.9316231" lon="3.1347342">
<ele>24.48</ele>
<time>2016-10-15T09:20:52Z</time>
</trkpt>
<trkpt lat="39.9318162" lon="3.1348518">
<ele>28.44</ele>
<time>2016-10-15T09:20:56Z</time>
</trkpt>
<trkpt lat="39.9320250" lon="3.1349534">
<ele>29.77</ele>
<time>2016-10-15T09:21:00Z</time>
</trkpt>
<trkpt lat="39.9321927" lon="3.1350474">
<ele>30.34</ele>
<time>2016-10-15T09:21:04Z</time>
</trkpt>
<trkpt lat="39.9323809" lon="3.1351262">
<ele>29.01</ele>
<time>2016-10-15T09:21:09Z</time>
</trkpt>
<trkpt lat="39.9325847" lon="3.1352111">
<ele>26.01</ele>
<time>2016-10-15T09:21:14Z</time>
</trkpt>
<trkpt lat="39.9327701" lon="3.1353002">
<ele>24.01</ele>
<time>2016-10-15T09:21:18Z</time>
</trkpt>
<trkpt lat="39.9329756" lon="3.1354126">
<ele>22.99</ele>
<time>2016-10-15T09:21:22Z</time>
</trkpt>
<trkpt lat="39.9331342" lon="3.1355920">
<ele>23.17</ele>
<time>2016-10-15T09:21:26Z</time>
</trkpt>
<trkpt lat="39.9332735" lon="3.1357872">
<ele>23.57</ele>
<time>2016-10-15T09:21:30Z</time>
</trkpt>
<trkpt lat="39.9333508" lon="3.1360472">
<ele>22.17</ele>
<time>2016-10-15T09:21:34Z</time>
</trkpt>
<trkpt lat="39.9333934" lon="3.1363261">
<ele>20.86</ele>
<time>2016-10-15T09:21:38Z</time>
</trkpt>
<trkpt lat="39.9334220" lon="3.1365961">
<ele>18.41</ele>
<time>2016-10-15T09:21:42Z</time>
</trkpt>
<trkpt lat="39.9334348" lon="3.1368515">
<ele>20.08</ele>
<time>2016-10-15T09:21:47Z</time>
</trkpt>
<trkpt lat="39.9334420" lon="3.1371150">
<ele>25.39</ele>
<time>2016-10-15T09:21:52Z</time>
</trkpt>
<trkpt lat="39.9334610" lon="3.1373756">
<ele>27.72</ele>
<time>2016-10-15T09:21:57Z</time>
</trkpt>
<trkpt lat="39.9335625" lon="3.1375958">
<ele>28.43</ele>
<time>2016-10-15T09:22:03Z</time>
</trkpt>
<trkpt lat="39.9336934" lon="3.1378053">
<ele>29.76</ele>
<time>2016-10-15T09:22:09Z</time>
</trkpt>
<trkpt lat="39.9338128" lon="3.1380000">
<ele>33.74</ele>
<time>2016-10-15T09:22:15Z</time>
</trkpt>
<trkpt lat="39.9339254" lon="3.1382121">
<ele>35.51</ele>
<time>2016-10-15T09:22:21Z</time>
</trkpt>
<trkpt lat="39.9340391" lon="3.1384017">
<ele>36.39</ele>
<time>2016-10-15T09:22:26Z</time>
</trkpt>
<trkpt lat="39.9341577" lon="3.1386266">
<ele>37.17</ele>
<time>2016-10-15T09:22:31Z</time>
</trkpt>
<trkpt lat="39.9342634" lon="3.1388312">
<ele>37.65</ele>
<time>2016-10-15T09:22:36Z</time>
</trkpt>
<trkpt lat="39.9343855" lon="3.1390055">
<ele>37.99</ele>
<time>2016-10-15T09:22:41Z</time>
</trkpt>
<trkpt lat="39.9345232" lon="3.1392027">
<ele>38.86</ele>
<time>2016-10-15T09:22:47Z</time>
</trkpt>
<trkpt lat="39.9346366" lon="3.1393850">
<ele>42.22</ele>
<time>2016-10-15T09:22:52Z</time>
</trkpt>
<trkpt lat="39.9347810" lon="3.1396285">
<ele>40.76</ele>
<time>2016-10-15T09:22:56Z</time>
</trkpt>
<trkpt lat="39.9348928" lon="3.1398920">
<ele>36.98</ele>
<time>2016-10-15T09:23:00Z</time>
</trkpt>
<trkpt lat="39.9349877" lon="3.1401609">
<ele>34.59</ele>
<time>2016-10-15T09:23:04Z</time>
</trkpt>
<trkpt lat="39.9350598" lon="3.1404125">
<ele>33.57</ele>
<time>2016-10-15T09:23:08Z</time>
</trkpt>
<trkpt lat="39.9351486" lon="3.1406516">
<ele>33.54</ele>
<time>2016-10-15T09:23:12Z</time>
</trkpt>
<trkpt lat="39.9352846" lon="3.1408652">
<ele>36.88</ele>
<time>2016-10-15T09:23:17Z</time>
</trkpt>
<trkpt lat="39.9354345" lon="3.1410314">
<ele>37.95</ele>
<time>2016-10-15T09:23:22Z</time>
</trkpt>
<trkpt lat="39.9355880" lon="3.1411962">
<ele>38.54</ele>
<time>2016-10-15T09:23:26Z</time>
</trkpt>
<trkpt lat="39.9357398" lon="3.1413471">
<ele>39.96</ele>
<time>2016-10-15T09:23:30Z</time>
</trkpt>
<trkpt lat="39.9358991" lon="3.1415023">
<ele>40.80</ele>
<time>2016-10-15T09:23:34Z</time>
</trkpt>
<trkpt lat="39.9360685" lon="3.1416711">
<ele>44.55</ele>
<time>2016-10-15T09:23:38Z</time>
</trkpt>
<trkpt lat="39.9362516" lon="3.1418382">
<ele>47.34</ele>
<time>2016-10-15T09:23:42Z</time>
</trkpt>
<trkpt lat="39.9364179" lon="3.1419679">
<ele>50.22</ele>
<time>2016-10-15T09:23:46Z</time>
</trkpt>
<trkpt lat="39.9365760" lon="3.1421289">
<ele>49.90</ele>
<time>2016-10-15T09:23:50Z</time>
</trkpt>
<trkpt lat="39.9367417" lon="3.1423001">
<ele>46.77</ele>
<time>2016-10-15T09:23:54Z</time>
</trkpt>
<trkpt lat="39.9369076" lon="3.1424614">
<ele>45.39</ele>
<time>2016-10-15T09:23:58Z</time>
</trkpt>
<trkpt lat="39.9370480" lon="3.1426095">
<ele>44.15</ele>
<time>2016-10-15T09:24:02Z</time>
</trkpt>
<trkpt lat="39.9372096" lon="3.1427751">
<ele>42.45</ele>
<time>2016-10-15T09:24:06Z</time>
</trkpt>
<trkpt lat="39.9373476" lon="3.1429298">
<ele>42.81</ele>
<time>2016-10-15T09:24:10Z</time>
</trkpt>
<trkpt lat="39.9375319" lon="3.1430964">
<ele>42.62</ele>
<time>2016-10-15T09:24:15Z</time>
</trkpt>
<trkpt lat="39.9376914" lon="3.1432573">
<ele>43.02</ele>
<time>2016-10-15T09:24:20Z</time>
</trkpt>
<trkpt lat="39.9378596" lon="3.1434279">
<ele>48.94</ele>
<time>2016-10-15T09:24:24Z</time>
</trkpt>
<trkpt lat="39.9380124" lon="3.1435711">
<ele>51.48</ele>
<time>2016-10-15T09:24:28Z</time>
</trkpt>
<trkpt lat="39.9381452" lon="3.1437347">
<ele>55.22</ele>
<time>2016-10-15T09:24:33Z</time>
</trkpt>
<trkpt lat="39.9383006" lon="3.1439012">
<ele>58.15</ele>
<time>2016-10-15T09:24:39Z</time>
</trkpt>
<trkpt lat="39.9384638" lon="3.1440518">
<ele>62.49</ele>
<time>2016-10-15T09:24:44Z</time>
</trkpt>
<trkpt lat="39.9386067" lon="3.1442028">
<ele>68.58</ele>
<time>2016-10-15T09:24:49Z</time>
</trkpt>
<trkpt lat="39.9387183" lon="3.1443880">
<ele>73.69</ele>
<time>2016-10-15T09:24:53Z</time>
</trkpt>
<trkpt lat="39.9388253" lon="3.1445817">
<ele>77.81</ele>
<time>2016-10-15T09:24:56Z</time>
</trkpt>
<trkpt lat="39.9389378" lon="3.1448417">
<ele>78.36</ele>
<time>2016-10-15T09:25:00Z</time>
</trkpt>
<trkpt lat="39.9390645" lon="3.1451034">
<ele>76.95</ele>
<time>2016-10-15T09:25:04Z</time>
</trkpt>
<trkpt lat="39.9391969" lon="3.1453408">
<ele>75.75</ele>
<time>2016-10-15T09:25:07Z</time>
</trkpt>
<trkpt lat="39.9393279" lon="3.1455624">
<ele>72.79</ele>
<time>2016-10-15T09:25:10Z</time>
</trkpt>
<trkpt lat="39.9394470" lon="3.1457736">
<ele>68.98</ele>
<time>2016-10-15T09:25:13Z</time>
</trkpt>
<trkpt lat="39.9395736" lon="3.1460241">
<ele>63.12</ele>
<time>2016-10-15T09:25:17Z</time>
</trkpt>
<trkpt lat="39.9397015" lon="3.1462703">
<ele>58.18</ele>
<time>2016-10-15T09:25:21Z</time>
</trkpt>
<trkpt lat="39.9398383" lon="3.1465198">
<ele>56.00</ele>
<time>2016-10-15T09:25:25Z</time>
</trkpt>
<trkpt lat="39.9399737" lon="3.1467674">
<ele>55.14</ele>
<time>2016-10-15T09:25:29Z</time>
</trkpt>
<trkpt lat="39.9401009" lon="3.1469876">
<ele>54.73</ele>
<time>2016-10-15T09:25:33Z</time>
</trkpt>
<trkpt lat="39.9402445" lon="3.1472236">
<ele>57.86</ele>
<time>2016-10-15T09:25:37Z</time>
</trkpt>
<trkpt lat="39.9403735" lon="3.1474422">
<ele>58.62</ele>
<time>2016-10-15T09:25:41Z</time>
</trkpt>
<trkpt lat="39.9404876" lon="3.1476644">
<ele>59.17</ele>
<time>2016-10-15T09:25:45Z</time>
</trkpt>
<trkpt lat="39.9406010" lon="3.1478716">
<ele>60.66</ele>
<time>2016-10-15T09:25:49Z</time>
</trkpt>
<trkpt lat="39.9407374" lon="3.1481144">
<ele>65.49</ele>
<time>2016-10-15T09:25:53Z</time>
</trkpt>
<trkpt lat="39.9408729" lon="3.1483457">
<ele>68.17</ele>
<time>2016-10-15T09:25:57Z</time>
</trkpt>
<trkpt lat="39.9409945" lon="3.1485375">
<ele>69.35</ele>
<time>2016-10-15T09:26:00Z</time>
</trkpt>
<trkpt lat="39.9411416" lon="3.1487608">
<ele>68.88</ele>
<time>2016-10-15T09:26:04Z</time>
</trkpt>
<trkpt lat="39.9412471" lon="3.1489772">
<ele>69.85</ele>
<time>2016-10-15T09:26:07Z</time>
</trkpt>
<trkpt lat="39.9413695" lon="3.1492249">
<ele>69.60</ele>
<time>2016-10-15T09:26:11Z</time>
</trkpt>
<trkpt lat="39.9414840" lon="3.1494387">
<ele>66.55</ele>
<time>2016-10-15T09:26:15Z</time>
</trkpt>
<trkpt lat="39.9416182" lon="3.1496796">
<ele>65.39</ele>
<time>2016-10-15T09:26:20Z</time>
</trkpt>
<trkpt lat="39.9417647" lon="3.1498633">
<ele>70.12</ele>
<time>2016-10-15T09:26:25Z</time>
</trkpt>
<trkpt lat="39.9418915" lon="3.1500821">
<ele>79.37</ele>
<time>2016-10-15T09:26:30Z</time>
</trkpt>
<trkpt lat="39.9420125" lon="3.1502675">
<ele>79.76</ele>
<time>2016-10-15T09:26:33Z</time>
</trkpt>
<trkpt lat="39.9421269" lon="3.1504651">
<ele>85.39</ele>
<time>2016-10-15T09:26:37Z</time>
</trkpt>
<trkpt lat="39.9422302" lon="3.1506667">
<ele>89.45</ele>
<time>2016-10-15T09:26:42Z</time>
</trkpt>
<trkpt lat="39.9423590" lon="3.1508891">
<ele>92.72</ele>
<time>2016-10-15T09:26:47Z</time>
</trkpt>
<trkpt lat="39.9424932" lon="3.1511346">
<ele>92.50</ele>
<time>2016-10-15T09:26:50Z</time>
</trkpt>
<trkpt lat="39.9426440" lon="3.1513599">
<ele>90.59</ele>
<time>2016-10-15T09:26:54Z</time>
</trkpt>
<trkpt lat="39.9427595" lon="3.1515455">
<ele>86.94</ele>
<time>2016-10-15T09:26:57Z</time>
</trkpt>
<trkpt lat="39.9428756" lon="3.1517387">
<ele>85.84</ele>
<time>2016-10-15T09:27:00Z</time>
</trkpt>
<trkpt lat="39.9430018" lon="3.1519844">
<ele>87.12</ele>
<time>2016-10-15T09:27:04Z</time>
</trkpt>
<trkpt lat="39.9431042" lon="3.1521937">
<ele>88.22</ele>
<time>2016-10-15T09:27:07Z</time>
</trkpt>
<trkpt lat="39.9432026" lon="3.1523902">
<ele>86.91</ele>
<time>2016-10-15T09:27:10Z</time>
</trkpt>
<trkpt lat="39.9433122" lon="3.1526155">
<ele>84.61</ele>
<time>2016-10-15T09:27:13Z</time>
</trkpt>
<trkpt lat="39.9434102" lon="3.1528218">
<ele>81.86</ele>
<time>2016-10-15T09:27:16Z</time>
</trkpt>
<trkpt lat="39.9435287" lon="3.1530170">
<ele>79.53</ele>
<time>2016-10-15T09:27:20Z</time>
</trkpt>
<trkpt lat="39.9436599" lon="3.1532023">
<ele>78.92</ele>
<time>2016-10-15T09:27:25Z</time>
</trkpt>
<trkpt lat="39.9438161" lon="3.1534023">
<ele>83.54</ele>
<time>2016-10-15T09:27:30Z</time>
</trkpt>
<trkpt lat="39.9439410" lon="3.1535717">
<ele>87.90</ele>
<time>2016-10-15T09:27:34Z</time>
</trkpt>
<trkpt lat="39.9440622" lon="3.1538066">
<ele>91.27</ele>
<time>2016-10-15T09:27:38Z</time>
</trkpt>
<trkpt lat="39.9441697" lon="3.1540222">
<ele>94.65</ele>
<time>2016-10-15T09:27:44Z</time>
</trkpt>
<trkpt lat="39.9442816" lon="3.1542440">
<ele>96.31</ele>
<time>2016-10-15T09:27:48Z</time>
</trkpt>
<trkpt lat="39.9444197" lon="3.1544840">
<ele>97.11</ele>
<time>2016-10-15T09:27:53Z</time>
</trkpt>
<trkpt lat="39.9445469" lon="3.1547144">
<ele>97.78</ele>
<time>2016-10-15T09:27:58Z</time>
</trkpt>
<trkpt lat="39.9446554" lon="3.1549180">
<ele>98.75</ele>
<time>2016-10-15T09:28:01Z</time>
</trkpt>
<trkpt lat="39.9447822" lon="3.1551794">
<ele>102.83</ele>
<time>2016-10-15T09:28:04Z</time>
</trkpt>
<trkpt lat="39.9448993" lon="3.1553663">
<ele>102.85</ele>
<time>2016-10-15T09:28:07Z</time>
</trkpt>
<trkpt lat="39.9450256" lon="3.1555927">
<ele>100.18</ele>
<time>2016-10-15T09:28:10Z</time>
</trkpt>
<trkpt lat="39.9451491" lon="3.1558012">
<ele>98.71</ele>
<time>2016-10-15T09:28:14Z</time>
</trkpt>
<trkpt lat="39.9452700" lon="3.1560564">
<ele>100.07</ele>
<time>2016-10-15T09:28:17Z</time>
</trkpt>
<trkpt lat="39.9453702" lon="3.1562559">
<ele>101.42</ele>
<time>2016-10-15T09:28:20Z</time>
</trkpt>
<trkpt lat="39.9455259" lon="3.1565132">
<ele>97.88</ele>
<time>2016-10-15T09:28:24Z</time>
</trkpt>
<trkpt lat="39.9456282" lon="3.1567073">
<ele>95.85</ele>
<time>2016-10-15T09:28:28Z</time>
</trkpt>
<trkpt lat="39.9458094" lon="3.1568929">
<ele>95.79</ele>
<time>2016-10-15T09:28:34Z</time>
</trkpt>
<trkpt lat="39.9459413" lon="3.1571651">
<ele>97.16</ele>
<time>2016-10-15T09:28:37Z</time>
</trkpt>
<trkpt lat="39.9460539" lon="3.1574172">
<ele>94.99</ele>
<time>2016-10-15T09:28:40Z</time>
</trkpt>
<trkpt lat="39.9461764" lon="3.1576261">
<ele>94.15</ele>
<time>2016-10-15T09:28:47Z</time>
</trkpt>
<trkpt lat="39.9462979" lon="3.1578584">
<ele>95.11</ele>
<time>2016-10-15T09:28:51Z</time>
</trkpt>
<trkpt lat="39.9464335" lon="3.1581087">
<ele>95.63</ele>
<time>2016-10-15T09:28:54Z</time>
</trkpt>
<trkpt lat="39.9465906" lon="3.1583168">
<ele>98.02</ele>
<time>2016-10-15T09:28:58Z</time>
</trkpt>
<trkpt lat="39.9467093" lon="3.1585354">
<ele>101.04</ele>
<time>2016-10-15T09:29:03Z</time>
</trkpt>
<trkpt lat="39.9468326" lon="3.1587562">
<ele>106.83</ele>
<time>2016-10-15T09:29:08Z</time>
</trkpt>
<trkpt lat="39.9469476" lon="3.1589485">
<ele>107.66</ele>
<time>2016-10-15T09:29:12Z</time>
</trkpt>
<trkpt lat="39.9470625" lon="3.1591636">
<ele>107.13</ele>
<time>2016-10-15T09:29:18Z</time>
</trkpt>
<trkpt lat="39.9472154" lon="3.1593857">
<ele>110.50</ele>
<time>2016-10-15T09:29:22Z</time>
</trkpt>
<trkpt lat="39.9473618" lon="3.1596023">
<ele>114.09</ele>
<time>2016-10-15T09:29:27Z</time>
</trkpt>
<trkpt lat="39.9474834" lon="3.1598276">
<ele>116.61</ele>
<time>2016-10-15T09:29:32Z</time>
</trkpt>
<trkpt lat="39.9475952" lon="3.1600374">
<ele>118.30</ele>
<time>2016-10-15T09:29:35Z</time>
</trkpt>
<trkpt lat="39.9476800" lon="3.1602941">
<ele>119.75</ele>
<time>2016-10-15T09:29:40Z</time>
</trkpt>
<trkpt lat="39.9477143" lon="3.1605331">
<ele>122.24</ele>
<time>2016-10-15T09:29:45Z</time>
</trkpt>
<trkpt lat="39.9477088" lon="3.1608067">
<ele>123.38</ele>
<time>2016-10-15T09:29:49Z</time>
</trkpt>
<trkpt lat="39.9477323" lon="3.1610520">
<ele>123.65</ele>
<time>2016-10-15T09:29:53Z</time>
</trkpt>
<trkpt lat="39.9476932" lon="3.1613251">
<ele>127.21</ele>
<time>2016-10-15T09:29:57Z</time>
</trkpt>
<trkpt lat="39.9476703" lon="3.1615629">
<ele>129.26</ele>
<time>2016-10-15T09:30:02Z</time>
</trkpt>
<trkpt lat="39.9476971" lon="3.1618534">
<ele>129.52</ele>
<time>2016-10-15T09:30:07Z</time>
</trkpt>
<trkpt lat="39.9476548" lon="3.1621103">
<ele>128.21</ele>
<time>2016-10-15T09:30:13Z</time>
</trkpt>
<trkpt lat="39.9477599" lon="3.1623057">
<ele>127.86</ele>
<time>2016-10-15T09:30:22Z</time>
</trkpt>
<trkpt lat="39.9479135" lon="3.1624777">
<ele>129.59</ele>
<time>2016-10-15T09:30:29Z</time>
</trkpt>
<trkpt lat="39.9480525" lon="3.1626914">
<ele>130.76</ele>
<time>2016-10-15T09:30:35Z</time>
</trkpt>
<trkpt lat="39.9482296" lon="3.1628548">
<ele>131.59</ele>
<time>2016-10-15T09:30:41Z</time>
</trkpt>
<trkpt lat="39.9483270" lon="3.1630784">
<ele>131.88</ele>
<time>2016-10-15T09:30:45Z</time>
</trkpt>
<trkpt lat="39.9483986" lon="3.1633016">
<ele>132.71</ele>
<time>2016-10-15T09:30:49Z</time>
</trkpt>
<trkpt lat="39.9484564" lon="3.1635735">
<ele>133.30</ele>
<time>2016-10-15T09:30:53Z</time>
</trkpt>
<trkpt lat="39.9485106" lon="3.1638571">
<ele>134.19</ele>
<time>2016-10-15T09:30:57Z</time>
</trkpt>
<trkpt lat="39.9485737" lon="3.1640853">
<ele>133.93</ele>
<time>2016-10-15T09:31:00Z</time>
</trkpt>
<trkpt lat="39.9486233" lon="3.1643593">
<ele>131.77</ele>
<time>2016-10-15T09:31:03Z</time>
</trkpt>
<trkpt lat="39.9486823" lon="3.1646484">
<ele>126.79</ele>
<time>2016-10-15T09:31:06Z</time>
</trkpt>
<trkpt lat="39.9487337" lon="3.1649047">
<ele>123.06</ele>
<time>2016-10-15T09:31:08Z</time>
</trkpt>
<trkpt lat="39.9487855" lon="3.1651745">
<ele>119.16</ele>
<time>2016-10-15T09:31:10Z</time>
</trkpt>
<trkpt lat="39.9488350" lon="3.1654399">
<ele>116.53</ele>
<time>2016-10-15T09:31:12Z</time>
</trkpt>
<trkpt lat="39.9488873" lon="3.1657013">
<ele>114.38</ele>
<time>2016-10-15T09:31:14Z</time>
</trkpt>
<trkpt lat="39.9489297" lon="3.1659718">
<ele>112.70</ele>
<time>2016-10-15T09:31:16Z</time>
</trkpt>
<trkpt lat="39.9489773" lon="3.1662564">
<ele>110.98</ele>
<time>2016-10-15T09:31:18Z</time>
</trkpt>
<trkpt lat="39.9490118" lon="3.1665570">
<ele>109.30</ele>
<time>2016-10-15T09:31:20Z</time>
</trkpt>
<trkpt lat="39.9490464" lon="3.1668552">
<ele>107.80</ele>
<time>2016-10-15T09:31:22Z</time>
</trkpt>
<trkpt lat="39.9490833" lon="3.1671464">
<ele>106.24</ele>
<time>2016-10-15T09:31:24Z</time>
</trkpt>
<trkpt lat="39.9491182" lon="3.1674302">
<ele>103.37</ele>
<time>2016-10-15T09:31:26Z</time>
</trkpt>
<trkpt lat="39.9491615" lon="3.1677237">
<ele>100.45</ele>
<time>2016-10-15T09:31:28Z</time>
</trkpt>
<trkpt lat="39.9492050" lon="3.1680100">
<ele>97.82</ele>
<time>2016-10-15T09:31:30Z</time>
</trkpt>
<trkpt lat="39.9492541" lon="3.1682793">
<ele>95.71</ele>
<time>2016-10-15T09:31:32Z</time>
</trkpt>
<trkpt lat="39.9492809" lon="3.1685689">
<ele>95.23</ele>
<time>2016-10-15T09:31:34Z</time>
</trkpt>
<trkpt lat="39.9492806" lon="3.1688338">
<ele>96.31</ele>
<time>2016-10-15T09:31:36Z</time>
</trkpt>
<trkpt lat="39.9492391" lon="3.1690914">
<ele>98.27</ele>
<time>2016-10-15T09:31:38Z</time>
</trkpt>
<trkpt lat="39.9491969" lon="3.1693531">
<ele>97.99</ele>
<time>2016-10-15T09:31:40Z</time>
</trkpt>
<trkpt lat="39.9491607" lon="3.1696055">
<ele>98.03</ele>
<time>2016-10-15T09:31:42Z</time>
</trkpt>
<trkpt lat="39.9491383" lon="3.1699189">
<ele>97.46</ele>
<time>2016-10-15T09:31:45Z</time>
</trkpt>
<trkpt lat="39.9491377" lon="3.1701954">
<ele>96.83</ele>
<time>2016-10-15T09:31:48Z</time>
</trkpt>
<trkpt lat="39.9491690" lon="3.1704429">
<ele>96.26</ele>
<time>2016-10-15T09:31:51Z</time>
</trkpt>
<trkpt lat="39.9492038" lon="3.1707047">
<ele>95.27</ele>
<time>2016-10-15T09:31:55Z</time>
</trkpt>
<trkpt lat="39.9491757" lon="3.1709684">
<ele>94.89</ele>
<time>2016-10-15T09:32:01Z</time>
</trkpt>
<trkpt lat="39.9490878" lon="3.1712001">
<ele>95.09</ele>
<time>2016-10-15T09:32:08Z</time>
</trkpt>
<trkpt lat="39.9489262" lon="3.1713229">
<ele>95.57</ele>
<time>2016-10-15T09:32:16Z</time>
</trkpt>
<trkpt lat="39.9487322" lon="3.1713595">
<ele>95.70</ele>
<time>2016-10-15T09:32:25Z</time>
</trkpt>
<trkpt lat="39.9485116" lon="3.1713813">
<ele>96.20</ele>
<time>2016-10-15T09:32:34Z</time>
</trkpt>
<trkpt lat="39.9483384" lon="3.1714943">
<ele>96.43</ele>
<time>2016-10-15T09:32:42Z</time>
</trkpt>
<trkpt lat="39.9482641" lon="3.1717276">
<ele>97.25</ele>
<time>2016-10-15T09:32:51Z</time>
</trkpt>
<trkpt lat="39.9483509" lon="3.1719787">
<ele>103.71</ele>
<time>2016-10-15T09:33:15Z</time>
</trkpt>
<trkpt lat="39.9485361" lon="3.1720204">
<ele>106.76</ele>
<time>2016-10-15T09:33:27Z</time>
</trkpt>
<trkpt lat="39.9487086" lon="3.1721360">
<ele>109.19</ele>
<time>2016-10-15T09:33:34Z</time>
</trkpt>
<trkpt lat="39.9488621" lon="3.1723116">
<ele>112.28</ele>
<time>2016-10-15T09:33:41Z</time>
</trkpt>
<trkpt lat="39.9489003" lon="3.1725508">
<ele>114.52</ele>
<time>2016-10-15T09:33:47Z</time>
</trkpt>
<trkpt lat="39.9488946" lon="3.1728062">
<ele>115.81</ele>
<time>2016-10-15T09:33:53Z</time>
</trkpt>
<trkpt lat="39.9488616" lon="3.1730537">
<ele>116.76</ele>
<time>2016-10-15T09:34:00Z</time>
</trkpt>
<trkpt lat="39.9488115" lon="3.1732912">
<ele>118.07</ele>
<time>2016-10-15T09:34:08Z</time>
</trkpt>
<trkpt lat="39.9487992" lon="3.1735471">
<ele>118.83</ele>
<time>2016-10-15T09:34:17Z</time>
</trkpt>
<trkpt lat="39.9488496" lon="3.1737889">
<ele>118.86</ele>
<time>2016-10-15T09:34:25Z</time>
</trkpt>
<trkpt lat="39.9489169" lon="3.1740432">
<ele>119.40</ele>
<time>2016-10-15T09:34:32Z</time>
</trkpt>
<trkpt lat="39.9490020" lon="3.1742642">
<ele>119.38</ele>
<time>2016-10-15T09:34:40Z</time>
</trkpt>
<trkpt lat="39.9490607" lon="3.1744997">
<ele>118.88</ele>
<time>2016-10-15T09:34:47Z</time>
</trkpt>
<trkpt lat="39.9491520" lon="3.1747163">
<ele>119.05</ele>
<time>2016-10-15T09:34:54Z</time>
</trkpt>
<trkpt lat="39.9492568" lon="3.1749320">
<ele>119.51</ele>
<time>2016-10-15T09:35:01Z</time>
</trkpt>
<trkpt lat="39.9493556" lon="3.1751385">
<ele>119.89</ele>
<time>2016-10-15T09:35:08Z</time>
</trkpt>
<trkpt lat="39.9494215" lon="3.1753645">
<ele>120.33</ele>
<time>2016-10-15T09:35:15Z</time>
</trkpt>
<trkpt lat="39.9494841" lon="3.1756146">
<ele>120.95</ele>
<time>2016-10-15T09:35:23Z</time>
</trkpt>
<trkpt lat="39.9495528" lon="3.1758656">
<ele>121.42</ele>
<time>2016-10-15T09:35:31Z</time>
</trkpt>
<trkpt lat="39.9496216" lon="3.1761087">
<ele>122.09</ele>
<time>2016-10-15T09:35:39Z</time>
</trkpt>
<trkpt lat="39.9496635" lon="3.1763467">
<ele>123.11</ele>
<time>2016-10-15T09:35:46Z</time>
</trkpt>
<trkpt lat="39.9496541" lon="3.1765897">
<ele>123.95</ele>
<time>2016-10-15T09:35:53Z</time>
</trkpt>
<trkpt lat="39.9496005" lon="3.1768174">
<ele>124.90</ele>
<time>2016-10-15T09:36:02Z</time>
</trkpt>
<trkpt lat="39.9495213" lon="3.1770298">
<ele>125.76</ele>
<time>2016-10-15T09:36:09Z</time>
</trkpt>
<trkpt lat="39.9494506" lon="3.1772521">
<ele>126.68</ele>
<time>2016-10-15T09:36:15Z</time>
</trkpt>
<trkpt lat="39.9493824" lon="3.1774831">
<ele>127.62</ele>
<time>2016-10-15T09:36:22Z</time>
</trkpt>
<trkpt lat="39.9493136" lon="3.1777121">
<ele>127.22</ele>
<time>2016-10-15T09:36:30Z</time>
</trkpt>
<trkpt lat="39.9493276" lon="3.1779622">
<ele>127.09</ele>
<time>2016-10-15T09:36:37Z</time>
</trkpt>
<trkpt lat="39.9494294" lon="3.1781832">
<ele>128.44</ele>
<time>2016-10-15T09:36:44Z</time>
</trkpt>
<trkpt lat="39.9500941" lon="3.1803159">
<ele>129.46</ele>
<time>2016-10-15T09:37:50Z</time>
</trkpt>
<trkpt lat="39.9501024" lon="3.1805529">
<ele>133.92</ele>
<time>2016-10-15T09:38:01Z</time>
</trkpt>
<trkpt lat="39.9501463" lon="3.1807942">
<ele>137.45</ele>
<time>2016-10-15T09:38:09Z</time>
</trkpt>
<trkpt lat="39.9501837" lon="3.1810540">
<ele>141.05</ele>
<time>2016-10-15T09:38:17Z</time>
</trkpt>
<trkpt lat="39.9502266" lon="3.1812847">
<ele>145.17</ele>
<time>2016-10-15T09:38:25Z</time>
</trkpt>
<trkpt lat="39.9502649" lon="3.1815361">
<ele>148.87</ele>
<time>2016-10-15T09:38:32Z</time>
</trkpt>
<trkpt lat="39.9503025" lon="3.1817656">
<ele>151.69</ele>
<time>2016-10-15T09:38:40Z</time>
</trkpt>
<trkpt lat="39.9503712" lon="3.1819984">
<ele>154.20</ele>
<time>2016-10-15T09:38:49Z</time>
</trkpt>
<trkpt lat="39.9504383" lon="3.1822348">
<ele>157.08</ele>
<time>2016-10-15T09:38:58Z</time>
</trkpt>
<trkpt lat="39.9504918" lon="3.1824611">
<ele>159.31</ele>
<time>2016-10-15T09:39:07Z</time>
</trkpt>
<trkpt lat="39.9505556" lon="3.1826899">
<ele>160.52</ele>
<time>2016-10-15T09:39:14Z</time>
</trkpt>
<trkpt lat="39.9506179" lon="3.1829236">
<ele>161.55</ele>
<time>2016-10-15T09:39:22Z</time>
</trkpt>
<trkpt lat="39.9507090" lon="3.1831620">
<ele>163.62</ele>
<time>2016-10-15T09:39:30Z</time>
</trkpt>
<trkpt lat="39.9508087" lon="3.1833848">
<ele>166.19</ele>
<time>2016-10-15T09:39:39Z</time>
</trkpt>
<trkpt lat="39.9508949" lon="3.1835962">
<ele>168.08</ele>
<time>2016-10-15T09:39:48Z</time>
</trkpt>
<trkpt lat="39.9510084" lon="3.1838131">
<ele>169.59</ele>
<time>2016-10-15T09:39:57Z</time>
</trkpt>
<trkpt lat="39.9511232" lon="3.1840145">
<ele>171.23</ele>
<time>2016-10-15T09:40:04Z</time>
</trkpt>
<trkpt lat="39.9512500" lon="3.1841820">
<ele>173.08</ele>
<time>2016-10-15T09:40:10Z</time>
</trkpt>
<trkpt lat="39.9513777" lon="3.1843591">
<ele>174.93</ele>
<time>2016-10-15T09:40:16Z</time>
</trkpt>
<trkpt lat="39.9515052" lon="3.1845544">
<ele>176.67</ele>
<time>2016-10-15T09:40:23Z</time>
</trkpt>
<trkpt lat="39.9516342" lon="3.1847218">
<ele>177.84</ele>
<time>2016-10-15T09:40:30Z</time>
</trkpt>
<trkpt lat="39.9517527" lon="3.1849343">
<ele>178.93</ele>
<time>2016-10-15T09:40:37Z</time>
</trkpt>
<trkpt lat="39.9518156" lon="3.1851890">
<ele>180.38</ele>
<time>2016-10-15T09:40:44Z</time>
</trkpt>
<trkpt lat="39.9518490" lon="3.1854451">
<ele>182.10</ele>
<time>2016-10-15T09:40:52Z</time>
</trkpt>
<trkpt lat="39.9519349" lon="3.1856644">
<ele>184.21</ele>
<time>2016-10-15T09:41:00Z</time>
</trkpt>
<trkpt lat="39.9520629" lon="3.1858588">
<ele>187.03</ele>
<time>2016-10-15T09:41:09Z</time>
</trkpt>
<trkpt lat="39.9522117" lon="3.1860170">
<ele>189.27</ele>
<time>2016-10-15T09:41:17Z</time>
</trkpt>
<trkpt lat="39.9523736" lon="3.1861305">
<ele>191.16</ele>
<time>2016-10-15T09:41:24Z</time>
</trkpt>
<trkpt lat="39.9525428" lon="3.1862260">
<ele>192.11</ele>
<time>2016-10-15T09:41:31Z</time>
</trkpt>
<trkpt lat="39.9526811" lon="3.1864253">
<ele>193.14</ele>
<time>2016-10-15T09:41:38Z</time>
</trkpt>
<trkpt lat="39.9527160" lon="3.1866579">
<ele>193.81</ele>
<time>2016-10-15T09:41:43Z</time>
</trkpt>
<trkpt lat="39.9527610" lon="3.1869377">
<ele>196.29</ele>
<time>2016-10-15T09:41:48Z</time>
</trkpt>
<trkpt lat="39.9528223" lon="3.1871997">
<ele>195.94</ele>
<time>2016-10-15T09:41:53Z</time>
</trkpt>
<trkpt lat="39.9529086" lon="3.1874655">
<ele>196.08</ele>
<time>2016-10-15T09:41:58Z</time>
</trkpt>
<trkpt lat="39.9530319" lon="3.1876992">
<ele>196.36</ele>
<time>2016-10-15T09:42:03Z</time>
</trkpt>
<trkpt lat="39.9530716" lon="3.1879389">
<ele>193.35</ele>
<time>2016-10-15T09:42:08Z</time>
</trkpt>
<trkpt lat="39.9530225" lon="3.1882327">
<ele>189.23</ele>
<time>2016-10-15T09:42:13Z</time>
</trkpt>
<trkpt lat="39.9529766" lon="3.1885226">
<ele>188.99</ele>
<time>2016-10-15T09:42:17Z</time>
</trkpt>
<trkpt lat="39.9530098" lon="3.1888051">
<ele>185.41</ele>
<time>2016-10-15T09:42:21Z</time>
</trkpt>
<trkpt lat="39.9531836" lon="3.1889586">
<ele>183.80</ele>
<time>2016-10-15T09:42:25Z</time>
</trkpt>
<trkpt lat="39.9533756" lon="3.1890103">
<ele>183.40</ele>
<time>2016-10-15T09:42:28Z</time>
</trkpt>
<trkpt lat="39.9535914" lon="3.1890705">
<ele>182.32</ele>
<time>2016-10-15T09:42:31Z</time>
</trkpt>
<trkpt lat="39.9538149" lon="3.1891348">
<ele>180.88</ele>
<time>2016-10-15T09:42:34Z</time>
</trkpt>
<trkpt lat="39.9539863" lon="3.1893077">
<ele>179.46</ele>
<time>2016-10-15T09:42:37Z</time>
</trkpt>
<trkpt lat="39.9540349" lon="3.1895746">
<ele>179.35</ele>
<time>2016-10-15T09:42:40Z</time>
</trkpt>
<trkpt lat="39.9539061" lon="3.1898315">
<ele>180.70</ele>
<time>2016-10-15T09:42:44Z</time>
</trkpt>
<trkpt lat="39.9537430" lon="3.1900008">
<ele>180.42</ele>
<time>2016-10-15T09:42:49Z</time>
</trkpt>
<trkpt lat="39.9535749" lon="3.1901889">
<ele>181.46</ele>
<time>2016-10-15T09:42:54Z</time>
</trkpt>
<trkpt lat="39.9534265" lon="3.1903670">
<ele>180.68</ele>
<time>2016-10-15T09:42:59Z</time>
</trkpt>
<trkpt lat="39.9532801" lon="3.1905786">
<ele>180.15</ele>
<time>2016-10-15T09:43:04Z</time>
</trkpt>
<trkpt lat="39.9531663" lon="3.1907972">
<ele>179.95</ele>
<time>2016-10-15T09:43:10Z</time>
</trkpt>
<trkpt lat="39.9530672" lon="3.1910040">
<ele>179.76</ele>
<time>2016-10-15T09:43:15Z</time>
</trkpt>
<trkpt lat="39.9529645" lon="3.1912168">
<ele>179.97</ele>
<time>2016-10-15T09:43:22Z</time>
</trkpt>
<trkpt lat="39.9528433" lon="3.1914370">
<ele>180.87</ele>
<time>2016-10-15T09:43:29Z</time>
</trkpt>
<trkpt lat="39.9527528" lon="3.1916892">
<ele>181.40</ele>
<time>2016-10-15T09:43:36Z</time>
</trkpt>
<trkpt lat="39.9527729" lon="3.1919339">
<ele>182.41</ele>
<time>2016-10-15T09:43:42Z</time>
</trkpt>
<trkpt lat="39.9528340" lon="3.1921777">
<ele>184.91</ele>
<time>2016-10-15T09:43:51Z</time>
</trkpt>
<trkpt lat="39.9527444" lon="3.1924231">
<ele>186.71</ele>
<time>2016-10-15T09:43:58Z</time>
</trkpt>
<trkpt lat="39.9525956" lon="3.1925669">
<ele>188.33</ele>
<time>2016-10-15T09:44:05Z</time>
</trkpt>
<trkpt lat="39.9524119" lon="3.1926778">
<ele>189.67</ele>
<time>2016-10-15T09:44:11Z</time>
</trkpt>
<trkpt lat="39.9522515" lon="3.1927870">
<ele>190.56</ele>
<time>2016-10-15T09:44:18Z</time>
</trkpt>
<trkpt lat="39.9520603" lon="3.1928772">
<ele>190.53</ele>
<time>2016-10-15T09:44:26Z</time>
</trkpt>
<trkpt lat="39.9518935" lon="3.1929958">
<ele>190.44</ele>
<time>2016-10-15T09:44:31Z</time>
</trkpt>
<trkpt lat="39.9517569" lon="3.1931877">
<ele>190.80</ele>
<time>2016-10-15T09:44:38Z</time>
</trkpt>
<trkpt lat="39.9515879" lon="3.1933068">
<ele>191.49</ele>
<time>2016-10-15T09:44:46Z</time>
</trkpt>
<trkpt lat="39.9514114" lon="3.1934356">
<ele>192.84</ele>
<time>2016-10-15T09:44:53Z</time>
</trkpt>
<trkpt lat="39.9512671" lon="3.1935976">
<ele>194.13</ele>
<time>2016-10-15T09:45:00Z</time>
</trkpt>
<trkpt lat="39.9511755" lon="3.1938394">
<ele>195.37</ele>
<time>2016-10-15T09:45:06Z</time>
</trkpt>
<trkpt lat="39.9512208" lon="3.1941052">
<ele>198.42</ele>
<time>2016-10-15T09:45:16Z</time>
</trkpt>
<trkpt lat="39.9513432" lon="3.1943225">
<ele>199.66</ele>
<time>2016-10-15T09:45:23Z</time>
</trkpt>
<trkpt lat="39.9513810" lon="3.1945812">
<ele>201.57</ele>
<time>2016-10-15T09:45:29Z</time>
</trkpt>
<trkpt lat="39.9512518" lon="3.1947627">
<ele>203.02</ele>
<time>2016-10-15T09:45:35Z</time>
</trkpt>
<trkpt lat="39.9511053" lon="3.1949323">
<ele>204.52</ele>
<time>2016-10-15T09:45:44Z</time>
</trkpt>
<trkpt lat="39.9509329" lon="3.1950932">
<ele>205.03</ele>
<time>2016-10-15T09:45:51Z</time>
</trkpt>
<trkpt lat="39.9508317" lon="3.1953429">
<ele>205.17</ele>
<time>2016-10-15T09:45:56Z</time>
</trkpt>
<trkpt lat="39.9507865" lon="3.1955978">
<ele>205.76</ele>
<time>2016-10-15T09:46:02Z</time>
</trkpt>
<trkpt lat="39.9507839" lon="3.1958462">
<ele>207.00</ele>
<time>2016-10-15T09:46:09Z</time>
</trkpt>
<trkpt lat="39.9507959" lon="3.1960878">
<ele>208.62</ele>
<time>2016-10-15T09:46:15Z</time>
</trkpt>
<trkpt lat="39.9508228" lon="3.1963378">
<ele>210.60</ele>
<time>2016-10-15T09:46:22Z</time>
</trkpt>
<trkpt lat="39.9508880" lon="3.1965996">
<ele>212.25</ele>
<time>2016-10-15T09:46:28Z</time>
</trkpt>
<trkpt lat="39.9509715" lon="3.1968389">
<ele>213.66</ele>
<time>2016-10-15T09:46:34Z</time>
</trkpt>
<trkpt lat="39.9510851" lon="3.1970630">
<ele>215.32</ele>
<time>2016-10-15T09:46:41Z</time>
</trkpt>
<trkpt lat="39.9512053" lon="3.1972689">
<ele>215.97</ele>
<time>2016-10-15T09:46:48Z</time>
</trkpt>
<trkpt lat="39.9513094" lon="3.1974996">
<ele>216.85</ele>
<time>2016-10-15T09:46:55Z</time>
</trkpt>
<trkpt lat="39.9513840" lon="3.1977315">
<ele>218.21</ele>
<time>2016-10-15T09:47:01Z</time>
</trkpt>
<trkpt lat="39.9514445" lon="3.1979887">
<ele>220.47</ele>
<time>2016-10-15T09:47:09Z</time>
</trkpt>
<trkpt lat="39.9515737" lon="3.1981731">
<ele>222.58</ele>
<time>2016-10-15T09:47:16Z</time>
</trkpt>
<trkpt lat="39.9517865" lon="3.1982714">
<ele>228.76</ele>
<time>2016-10-15T09:47:22Z</time>
</trkpt>
<trkpt lat="39.9519966" lon="3.1982982">
<ele>227.02</ele>
<time>2016-10-15T09:47:26Z</time>
</trkpt>
<trkpt lat="39.9521847" lon="3.1983130">
<ele>224.60</ele>
<time>2016-10-15T09:47:29Z</time>
</trkpt>
<trkpt lat="39.9523899" lon="3.1983281">
<ele>222.52</ele>
<time>2016-10-15T09:47:32Z</time>
</trkpt>
<trkpt lat="39.9525837" lon="3.1983330">
<ele>221.30</ele>
<time>2016-10-15T09:47:35Z</time>
</trkpt>
<trkpt lat="39.9528044" lon="3.1984165">
<ele>222.04</ele>
<time>2016-10-15T09:47:39Z</time>
</trkpt>
<trkpt lat="39.9529624" lon="3.1985947">
<ele>220.01</ele>
<time>2016-10-15T09:47:43Z</time>
</trkpt>
<trkpt lat="39.9530060" lon="3.1988433">
<ele>220.78</ele>
<time>2016-10-15T09:47:47Z</time>
</trkpt>
<trkpt lat="39.9529416" lon="3.1990644">
<ele>224.02</ele>
<time>2016-10-15T09:47:50Z</time>
</trkpt>
<trkpt lat="39.9528463" lon="3.1993353">
<ele>227.39</ele>
<time>2016-10-15T09:47:54Z</time>
</trkpt>
<trkpt lat="39.9527958" lon="3.1996223">
<ele>227.04</ele>
<time>2016-10-15T09:47:58Z</time>
</trkpt>
<trkpt lat="39.9527752" lon="3.1998635">
<ele>228.66</ele>
<time>2016-10-15T09:48:01Z</time>
</trkpt>
<trkpt lat="39.9528166" lon="3.2001067">
<ele>232.37</ele>
<time>2016-10-15T09:48:05Z</time>
</trkpt>
<trkpt lat="39.9528831" lon="3.2003523">
<ele>239.61</ele>
<time>2016-10-15T09:48:09Z</time>
</trkpt>
<trkpt lat="39.9529471" lon="3.2006056">
<ele>247.69</ele>
<time>2016-10-15T09:48:13Z</time>
</trkpt>
<trkpt lat="39.9530122" lon="3.2008422">
<ele>248.21</ele>
<time>2016-10-15T09:48:16Z</time>
</trkpt>
<trkpt lat="39.9531248" lon="3.2011178">
<ele>241.76</ele>
<time>2016-10-15T09:48:19Z</time>
</trkpt>
<trkpt lat="39.9532669" lon="3.2013632">
<ele>234.71</ele>
<time>2016-10-15T09:48:22Z</time>
</trkpt>
<trkpt lat="39.9533373" lon="3.2016838">
<ele>229.93</ele>
<time>2016-10-15T09:48:25Z</time>
</trkpt>
<trkpt lat="39.9533547" lon="3.2019216">
<ele>227.48</ele>
<time>2016-10-15T09:48:27Z</time>
</trkpt>
<trkpt lat="39.9533624" lon="3.2021818">
<ele>224.24</ele>
<time>2016-10-15T09:48:29Z</time>
</trkpt>
<trkpt lat="39.9533676" lon="3.2024218">
<ele>220.51</ele>
<time>2016-10-15T09:48:31Z</time>
</trkpt>
<trkpt lat="39.9533849" lon="3.2027157">
<ele>215.41</ele>
<time>2016-10-15T09:48:34Z</time>
</trkpt>
<trkpt lat="39.9535578" lon="3.2029126">
<ele>211.39</ele>
<time>2016-10-15T09:48:38Z</time>
</trkpt>
<trkpt lat="39.9537219" lon="3.2027343">
<ele>207.43</ele>
<time>2016-10-15T09:48:42Z</time>
</trkpt>
<trkpt lat="39.9537494" lon="3.2024798">
<ele>203.05</ele>
<time>2016-10-15T09:48:45Z</time>
</trkpt>
<trkpt lat="39.9537366" lon="3.2021841">
<ele>198.82</ele>
<time>2016-10-15T09:48:48Z</time>
</trkpt>
<trkpt lat="39.9538557" lon="3.2019703">
<ele>194.97</ele>
<time>2016-10-15T09:48:51Z</time>
</trkpt>
<trkpt lat="39.9540583" lon="3.2019780">
<ele>193.02</ele>
<time>2016-10-15T09:48:54Z</time>
</trkpt>
<trkpt lat="39.9542608" lon="3.2019824">
<ele>193.12</ele>
<time>2016-10-15T09:48:58Z</time>
</trkpt>
<trkpt lat="39.9544182" lon="3.2017483">
<ele>191.52</ele>
<time>2016-10-15T09:49:02Z</time>
</trkpt>
<trkpt lat="39.9545060" lon="3.2014931">
<ele>190.20</ele>
<time>2016-10-15T09:49:05Z</time>
</trkpt>
<trkpt lat="39.9546411" lon="3.2012905">
<ele>187.11</ele>
<time>2016-10-15T09:49:08Z</time>
</trkpt>
<trkpt lat="39.9548415" lon="3.2011083">
<ele>183.23</ele>
<time>2016-10-15T09:49:11Z</time>
</trkpt>
<trkpt lat="39.9550217" lon="3.2009514">
<ele>180.90</ele>
<time>2016-10-15T09:49:14Z</time>
</trkpt>
<trkpt lat="39.9552137" lon="3.2008920">
<ele>179.88</ele>
<time>2016-10-15T09:49:17Z</time>
</trkpt>
<trkpt lat="39.9553836" lon="3.2010669">
<ele>179.38</ele>
<time>2016-10-15T09:49:21Z</time>
</trkpt>
<trkpt lat="39.9553667" lon="3.2013606">
<ele>181.41</ele>
<time>2016-10-15T09:49:23Z</time>
</trkpt>
<trkpt lat="39.9553271" lon="3.2016383">
<ele>182.77</ele>
<time>2016-10-15T09:49:26Z</time>
</trkpt>
<trkpt lat="39.9553551" lon="3.2018845">
<ele>184.26</ele>
<time>2016-10-15T09:49:29Z</time>
</trkpt>
<trkpt lat="39.9553860" lon="3.2021463">
<ele>185.99</ele>
<time>2016-10-15T09:49:32Z</time>
</trkpt>
<trkpt lat="39.9554128" lon="3.2024024">
<ele>187.59</ele>
<time>2016-10-15T09:49:35Z</time>
</trkpt>
<trkpt lat="39.9554055" lon="3.2027087">
<ele>188.29</ele>
<time>2016-10-15T09:49:39Z</time>
</trkpt>
<trkpt lat="39.9552967" lon="3.2029000">
<ele>187.53</ele>
<time>2016-10-15T09:49:43Z</time>
</trkpt>
<trkpt lat="39.9551562" lon="3.2030573">
<ele>188.40</ele>
<time>2016-10-15T09:49:47Z</time>
</trkpt>
<trkpt lat="39.9549867" lon="3.2032304">
<ele>190.26</ele>
<time>2016-10-15T09:49:51Z</time>
</trkpt>
<trkpt lat="39.9548399" lon="3.2033811">
<ele>190.21</ele>
<time>2016-10-15T09:49:54Z</time>
</trkpt>
<trkpt lat="39.9546687" lon="3.2035724">
<ele>191.27</ele>
<time>2016-10-15T09:49:58Z</time>
</trkpt>
<trkpt lat="39.9545258" lon="3.2038096">
<ele>190.68</ele>
<time>2016-10-15T09:50:02Z</time>
</trkpt>
<trkpt lat="39.9544249" lon="3.2040245">
<ele>189.47</ele>
<time>2016-10-15T09:50:05Z</time>
</trkpt>
<trkpt lat="39.9543064" lon="3.2042559">
<ele>190.94</ele>
<time>2016-10-15T09:50:08Z</time>
</trkpt>
<trkpt lat="39.9541743" lon="3.2044971">
<ele>192.63</ele>
<time>2016-10-15T09:50:11Z</time>
</trkpt>
<trkpt lat="39.9540500" lon="3.2047410">
<ele>193.79</ele>
<time>2016-10-15T09:50:14Z</time>
</trkpt>
<trkpt lat="39.9539535" lon="3.2049793">
<ele>195.63</ele>
<time>2016-10-15T09:50:17Z</time>
</trkpt>
<trkpt lat="39.9538826" lon="3.2052320">
<ele>195.43</ele>
<time>2016-10-15T09:50:21Z</time>
</trkpt>
<trkpt lat="39.9538156" lon="3.2054889">
<ele>193.03</ele>
<time>2016-10-15T09:50:26Z</time>
</trkpt>
<trkpt lat="39.9537342" lon="3.2057344">
<ele>193.60</ele>
<time>2016-10-15T09:50:32Z</time>
</trkpt>
<trkpt lat="39.9536415" lon="3.2059442">
<ele>193.24</ele>
<time>2016-10-15T09:50:36Z</time>
</trkpt>
<trkpt lat="39.9535878" lon="3.2062080">
<ele>193.37</ele>
<time>2016-10-15T09:50:41Z</time>
</trkpt>
<trkpt lat="39.9535917" lon="3.2064442">
<ele>193.51</ele>
<time>2016-10-15T09:50:46Z</time>
</trkpt>
<trkpt lat="39.9536305" lon="3.2066784">
<ele>195.45</ele>
<time>2016-10-15T09:50:52Z</time>
</trkpt>
<trkpt lat="39.9536782" lon="3.2069389">
<ele>196.42</ele>
<time>2016-10-15T09:50:59Z</time>
</trkpt>
<trkpt lat="39.9537174" lon="3.2071910">
<ele>197.27</ele>
<time>2016-10-15T09:51:05Z</time>
</trkpt>
<trkpt lat="39.9538263" lon="3.2074070">
<ele>198.12</ele>
<time>2016-10-15T09:51:12Z</time>
</trkpt>
<trkpt lat="39.9539612" lon="3.2075756">
<ele>198.33</ele>
<time>2016-10-15T09:51:19Z</time>
</trkpt>
<trkpt lat="39.9541358" lon="3.2076727">
<ele>198.55</ele>
<time>2016-10-15T09:51:26Z</time>
</trkpt>
<trkpt lat="39.9543195" lon="3.2077196">
<ele>198.82</ele>
<time>2016-10-15T09:51:31Z</time>
</trkpt>
<trkpt lat="39.9544943" lon="3.2078147">
<ele>198.83</ele>
<time>2016-10-15T09:51:36Z</time>
</trkpt>
<trkpt lat="39.9546645" lon="3.2079076">
<ele>199.02</ele>
<time>2016-10-15T09:51:41Z</time>
</trkpt>
<trkpt lat="39.9548315" lon="3.2079979">
<ele>199.24</ele>
<time>2016-10-15T09:51:46Z</time>
</trkpt>
<trkpt lat="39.9550428" lon="3.2081255">
<ele>198.15</ele>
<time>2016-10-15T09:51:51Z</time>
</trkpt>
<trkpt lat="39.9552252" lon="3.2081555">
<ele>194.86</ele>
<time>2016-10-15T09:51:55Z</time>
</trkpt>
<trkpt lat="39.9554196" lon="3.2081355">
<ele>194.11</ele>
<time>2016-10-15T09:51:59Z</time>
</trkpt>
<trkpt lat="39.9555959" lon="3.2080876">
<ele>192.11</ele>
<time>2016-10-15T09:52:03Z</time>
</trkpt>
<trkpt lat="39.9557810" lon="3.2079978">
<ele>191.89</ele>
<time>2016-10-15T09:52:07Z</time>
</trkpt>
<trkpt lat="39.9559669" lon="3.2079218">
<ele>192.32</ele>
<time>2016-10-15T09:52:11Z</time>
</trkpt>
<trkpt lat="39.9561622" lon="3.2079263">
<ele>192.09</ele>
<time>2016-10-15T09:52:15Z</time>
</trkpt>
<trkpt lat="39.9563737" lon="3.2079865">
<ele>190.70</ele>
<time>2016-10-15T09:52:19Z</time>
</trkpt>
<trkpt lat="39.9565303" lon="3.2081090">
<ele>195.88</ele>
<time>2016-10-15T09:52:22Z</time>
</trkpt>
<trkpt lat="39.9567139" lon="3.2082189">
<ele>199.59</ele>
<time>2016-10-15T09:52:25Z</time>
</trkpt>
<trkpt lat="39.9569405" lon="3.2082068">
<ele>200.78</ele>
<time>2016-10-15T09:52:29Z</time>
</trkpt>
<trkpt lat="39.9570810" lon="3.2080501">
<ele>200.61</ele>
<time>2016-10-15T09:52:32Z</time>
</trkpt>
<trkpt lat="39.9571463" lon="3.2077348">
<ele>198.65</ele>
<time>2016-10-15T09:52:36Z</time>
</trkpt>
<trkpt lat="39.9572019" lon="3.2074463">
<ele>193.03</ele>
<time>2016-10-15T09:52:39Z</time>
</trkpt>
<trkpt lat="39.9573659" lon="3.2072438">
<ele>188.45</ele>
<time>2016-10-15T09:52:42Z</time>
</trkpt>
<trkpt lat="39.9575353" lon="3.2073420">
<ele>188.67</ele>
<time>2016-10-15T09:52:45Z</time>
</trkpt>
<trkpt lat="39.9576578" lon="3.2075988">
<ele>191.75</ele>
<time>2016-10-15T09:52:48Z</time>
</trkpt>
<trkpt lat="39.9577424" lon="3.2078591">
<ele>195.16</ele>
<time>2016-10-15T09:52:51Z</time>
</trkpt>
<trkpt lat="39.9578199" lon="3.2081132">
<ele>195.98</ele>
<time>2016-10-15T09:52:54Z</time>
</trkpt>
<trkpt lat="39.9578456" lon="3.2083580">
<ele>194.84</ele>
<time>2016-10-15T09:52:57Z</time>
</trkpt>
<trkpt lat="39.9578034" lon="3.2086332">
<ele>193.14</ele>
<time>2016-10-15T09:53:01Z</time>
</trkpt>
<trkpt lat="39.9577143" lon="3.2088827">
<ele>192.99</ele>
<time>2016-10-15T09:53:07Z</time>
</trkpt>
<trkpt lat="39.9576105" lon="3.2091257">
<ele>193.01</ele>
<time>2016-10-15T09:53:13Z</time>
</trkpt>
<trkpt lat="39.9574795" lon="3.2093092">
<ele>192.87</ele>
<time>2016-10-15T09:53:20Z</time>
</trkpt>
<trkpt lat="39.9573265" lon="3.2094822">
<ele>193.11</ele>
<time>2016-10-15T09:53:28Z</time>
</trkpt>
<trkpt lat="39.9571915" lon="3.2096452">
<ele>193.55</ele>
<time>2016-10-15T09:53:34Z</time>
</trkpt>
<trkpt lat="39.9570604" lon="3.2098303">
<ele>194.23</ele>
<time>2016-10-15T09:53:41Z</time>
</trkpt>
<trkpt lat="39.9569307" lon="3.2100191">
<ele>194.82</ele>
<time>2016-10-15T09:53:48Z</time>
</trkpt>
<trkpt lat="39.9568062" lon="3.2101898">
<ele>196.06</ele>
<time>2016-10-15T09:53:54Z</time>
</trkpt>
<trkpt lat="39.9566628" lon="3.2103626">
<ele>200.70</ele>
<time>2016-10-15T09:53:59Z</time>
</trkpt>
<trkpt lat="39.9565255" lon="3.2105947">
<ele>202.49</ele>
<time>2016-10-15T09:54:04Z</time>
</trkpt>
<trkpt lat="39.9563906" lon="3.2108009">
<ele>202.73</ele>
<time>2016-10-15T09:54:08Z</time>
</trkpt>
<trkpt lat="39.9562562" lon="3.2109694">
<ele>203.10</ele>
<time>2016-10-15T09:54:11Z</time>
</trkpt>
<trkpt lat="39.9560835" lon="3.2111343">
<ele>202.94</ele>
<time>2016-10-15T09:54:14Z</time>
</trkpt>
<trkpt lat="39.9558961" lon="3.2112912">
<ele>201.36</ele>
<time>2016-10-15T09:54:17Z</time>
</trkpt>
<trkpt lat="39.9557298" lon="3.2114276">
<ele>198.90</ele>
<time>2016-10-15T09:54:20Z</time>
</trkpt>
<trkpt lat="39.9555673" lon="3.2115438">
<ele>197.08</ele>
<time>2016-10-15T09:54:23Z</time>
</trkpt>
<trkpt lat="39.9554016" lon="3.2116942">
<ele>196.23</ele>
<time>2016-10-15T09:54:27Z</time>
</trkpt>
<trkpt lat="39.9554137" lon="3.2119332">
<ele>191.18</ele>
<time>2016-10-15T09:54:33Z</time>
</trkpt>
<trkpt lat="39.9556526" lon="3.2118740">
<ele>186.61</ele>
<time>2016-10-15T09:54:38Z</time>
</trkpt>
<trkpt lat="39.9558686" lon="3.2117232">
<ele>186.88</ele>
<time>2016-10-15T09:54:41Z</time>
</trkpt>
<trkpt lat="39.9560819" lon="3.2115802">
<ele>186.03</ele>
<time>2016-10-15T09:54:44Z</time>
</trkpt>
<trkpt lat="39.9563363" lon="3.2115230">
<ele>183.21</ele>
<time>2016-10-15T09:54:47Z</time>
</trkpt>
<trkpt lat="39.9565743" lon="3.2115578">
<ele>179.94</ele>
<time>2016-10-15T09:54:50Z</time>
</trkpt>
<trkpt lat="39.9567908" lon="3.2116080">
<ele>177.37</ele>
<time>2016-10-15T09:54:53Z</time>
</trkpt>
<trkpt lat="39.9570004" lon="3.2116810">
<ele>174.16</ele>
<time>2016-10-15T09:54:56Z</time>
</trkpt>
<trkpt lat="39.9571999" lon="3.2117324">
<ele>171.92</ele>
<time>2016-10-15T09:54:59Z</time>
</trkpt>
<trkpt lat="39.9574387" lon="3.2116858">
<ele>170.22</ele>
<time>2016-10-15T09:55:02Z</time>
</trkpt>
<trkpt lat="39.9576107" lon="3.2116006">
<ele>168.64</ele>
<time>2016-10-15T09:55:04Z</time>
</trkpt>
<trkpt lat="39.9578462" lon="3.2114441">
<ele>166.74</ele>
<time>2016-10-15T09:55:07Z</time>
</trkpt>
<trkpt lat="39.9580789" lon="3.2112856">
<ele>165.02</ele>
<time>2016-10-15T09:55:10Z</time>
</trkpt>
<trkpt lat="39.9583144" lon="3.2111750">
<ele>161.02</ele>
<time>2016-10-15T09:55:13Z</time>
</trkpt>
<trkpt lat="39.9585466" lon="3.2111262">
<ele>155.12</ele>
<time>2016-10-15T09:55:16Z</time>
</trkpt>
<trkpt lat="39.9587673" lon="3.2110757">
<ele>151.27</ele>
<time>2016-10-15T09:55:20Z</time>
</trkpt>
<trkpt lat="39.9589523" lon="3.2108487">
<ele>151.65</ele>
<time>2016-10-15T09:55:24Z</time>
</trkpt>
<trkpt lat="39.9591142" lon="3.2106391">
<ele>150.11</ele>
<time>2016-10-15T09:55:27Z</time>
</trkpt>
<trkpt lat="39.9592522" lon="3.2104359">
<ele>149.14</ele>
<time>2016-10-15T09:55:30Z</time>
</trkpt>
<trkpt lat="39.9593750" lon="3.2102520">
<ele>148.48</ele>
<time>2016-10-15T09:55:33Z</time>
</trkpt>
<trkpt lat="39.9594602" lon="3.2100358">
<ele>148.91</ele>
<time>2016-10-15T09:55:37Z</time>
</trkpt>
<trkpt lat="39.9596314" lon="3.2098954">
<ele>148.41</ele>
<time>2016-10-15T09:55:41Z</time>
</trkpt>
<trkpt lat="39.9598400" lon="3.2098330">
<ele>147.44</ele>
<time>2016-10-15T09:55:44Z</time>
</trkpt>
<trkpt lat="39.9600509" lon="3.2098985">
<ele>147.35</ele>
<time>2016-10-15T09:55:47Z</time>
</trkpt>
<trkpt lat="39.9602153" lon="3.2101236">
<ele>147.55</ele>
<time>2016-10-15T09:55:50Z</time>
</trkpt>
<trkpt lat="39.9602557" lon="3.2103822">
<ele>148.44</ele>
<time>2016-10-15T09:55:53Z</time>
</trkpt>
<trkpt lat="39.9602914" lon="3.2106633">
<ele>149.50</ele>
<time>2016-10-15T09:55:57Z</time>
</trkpt>
<trkpt lat="39.9604051" lon="3.2108900">
<ele>149.96</ele>
<time>2016-10-15T09:56:01Z</time>
</trkpt>
<trkpt lat="39.9605436" lon="3.2110814">
<ele>146.64</ele>
<time>2016-10-15T09:56:06Z</time>
</trkpt>
<trkpt lat="39.9605840" lon="3.2113609">
<ele>147.02</ele>
<time>2016-10-15T09:56:11Z</time>
</trkpt>
<trkpt lat="39.9605263" lon="3.2116063">
<ele>147.22</ele>
<time>2016-10-15T09:56:17Z</time>
</trkpt>
<trkpt lat="39.9604523" lon="3.2118246">
<ele>147.45</ele>
<time>2016-10-15T09:56:23Z</time>
</trkpt>
<trkpt lat="39.9603780" lon="3.2120655">
<ele>147.79</ele>
<time>2016-10-15T09:56:31Z</time>
</trkpt>
<trkpt lat="39.9605393" lon="3.2118968">
<ele>148.47</ele>
<time>2016-10-15T09:56:49Z</time>
</trkpt>
<trkpt lat="39.9606273" lon="3.2116658">
<ele>148.58</ele>
<time>2016-10-15T09:56:54Z</time>
</trkpt>
<trkpt lat="39.9607038" lon="3.2114461">
<ele>148.26</ele>
<time>2016-10-15T09:57:00Z</time>
</trkpt>
<trkpt lat="39.9608215" lon="3.2112303">
<ele>147.52</ele>
<time>2016-10-15T09:57:07Z</time>
</trkpt>
<trkpt lat="39.9609977" lon="3.2113060">
<ele>148.31</ele>
<time>2016-10-15T09:57:22Z</time>
</trkpt>
<trkpt lat="39.9609658" lon="3.2115689">
<ele>151.53</ele>
<time>2016-10-15T09:57:30Z</time>
</trkpt>
<trkpt lat="39.9608854" lon="3.2117999">
<ele>153.19</ele>
<time>2016-10-15T09:57:39Z</time>
</trkpt>
<trkpt lat="39.9607689" lon="3.2119916">
<ele>153.98</ele>
<time>2016-10-15T09:57:46Z</time>
</trkpt>
<trkpt lat="39.9607023" lon="3.2122157">
<ele>154.43</ele>
<time>2016-10-15T09:57:53Z</time>
</trkpt>
<trkpt lat="39.9607318" lon="3.2124523">
<ele>155.99</ele>
<time>2016-10-15T09:58:03Z</time>
</trkpt>
<trkpt lat="39.9608584" lon="3.2126239">
<ele>157.43</ele>
<time>2016-10-15T09:58:11Z</time>
</trkpt>
<trkpt lat="39.9609968" lon="3.2127798">
<ele>160.42</ele>
<time>2016-10-15T09:58:22Z</time>
</trkpt>
<trkpt lat="39.9611730" lon="3.2126794">
<ele>162.58</ele>
<time>2016-10-15T09:58:31Z</time>
</trkpt>
<trkpt lat="39.9612128" lon="3.2124095">
<ele>163.36</ele>
<time>2016-10-15T09:58:43Z</time>
</trkpt>
<trkpt lat="39.9611334" lon="3.2121588">
<ele>161.77</ele>
<time>2016-10-15T09:58:54Z</time>
</trkpt>
<trkpt lat="39.9611714" lon="3.2119286">
<ele>161.00</ele>
<time>2016-10-15T09:58:59Z</time>
</trkpt>
</trkseg>
<trkseg>
<trkpt lat="39.9595952" lon="3.2101081">
<ele>135.99</ele>
<time>2016-10-15T10:12:19Z</time>
</trkpt>
<trkpt lat="39.9594513" lon="3.2102718">
<ele>136.35</ele>
<time>2016-10-15T10:12:52Z</time>
</trkpt>
<trkpt lat="39.9593274" lon="3.2104467">
<ele>137.92</ele>
<time>2016-10-15T10:13:00Z</time>
</trkpt>
<trkpt lat="39.9592075" lon="3.2106589">
<ele>139.38</ele>
<time>2016-10-15T10:13:08Z</time>
</trkpt>
<trkpt lat="39.9590635" lon="3.2108396">
<ele>140.16</ele>
<time>2016-10-15T10:13:16Z</time>
</trkpt>
<trkpt lat="39.9589341" lon="3.2110114">
<ele>140.67</ele>
<time>2016-10-15T10:13:24Z</time>
</trkpt>
<trkpt lat="39.9587689" lon="3.2111181">
<ele>141.43</ele>
<time>2016-10-15T10:13:31Z</time>
</trkpt>
<trkpt lat="39.9585878" lon="3.2112078">
<ele>143.00</ele>
<time>2016-10-15T10:13:40Z</time>
</trkpt>
<trkpt lat="39.9584098" lon="3.2112564">
<ele>144.79</ele>
<time>2016-10-15T10:13:49Z</time>
</trkpt>
<trkpt lat="39.9582266" lon="3.2112829">
<ele>148.42</ele>
<time>2016-10-15T10:13:59Z</time>
</trkpt>
<trkpt lat="39.9580443" lon="3.2113666">
<ele>151.56</ele>
<time>2016-10-15T10:14:10Z</time>
</trkpt>
<trkpt lat="39.9578597" lon="3.2114588">
<ele>153.85</ele>
<time>2016-10-15T10:14:18Z</time>
</trkpt>
<trkpt lat="39.9576929" lon="3.2115602">
<ele>155.09</ele>
<time>2016-10-15T10:14:25Z</time>
</trkpt>
<trkpt lat="39.9575044" lon="3.2116346">
<ele>155.76</ele>
<time>2016-10-15T10:14:34Z</time>
</trkpt>
<trkpt lat="39.9573155" lon="3.2117158">
<ele>157.29</ele>
<time>2016-10-15T10:14:44Z</time>
</trkpt>
<trkpt lat="39.9571311" lon="3.2117015">
<ele>158.84</ele>
<time>2016-10-15T10:14:51Z</time>
</trkpt>
<trkpt lat="39.9569452" lon="3.2116813">
<ele>160.26</ele>
<time>2016-10-15T10:14:59Z</time>
</trkpt>
<trkpt lat="39.9567588" lon="3.2116488">
<ele>161.57</ele>
<time>2016-10-15T10:15:06Z</time>
</trkpt>
<trkpt lat="39.9565801" lon="3.2116013">
<ele>162.70</ele>
<time>2016-10-15T10:15:14Z</time>
</trkpt>
<trkpt lat="39.9564075" lon="3.2115271">
<ele>166.04</ele>
<time>2016-10-15T10:15:27Z</time>
</trkpt>
<trkpt lat="39.9562210" lon="3.2115530">
<ele>168.81</ele>
<time>2016-10-15T10:15:36Z</time>
</trkpt>
<trkpt lat="39.9560453" lon="3.2116279">
<ele>171.94</ele>
<time>2016-10-15T10:15:44Z</time>
</trkpt>
<trkpt lat="39.9558807" lon="3.2117341">
<ele>174.16</ele>
<time>2016-10-15T10:15:52Z</time>
</trkpt>
<trkpt lat="39.9557063" lon="3.2118513">
<ele>175.97</ele>
<time>2016-10-15T10:16:03Z</time>
</trkpt>
<trkpt lat="39.9555186" lon="3.2119244">
<ele>178.01</ele>
<time>2016-10-15T10:16:12Z</time>
</trkpt>
<trkpt lat="39.9553523" lon="3.2118205">
<ele>180.53</ele>
<time>2016-10-15T10:16:21Z</time>
</trkpt>
<trkpt lat="39.9553791" lon="3.2115862">
<ele>183.81</ele>
<time>2016-10-15T10:16:34Z</time>
</trkpt>
<trkpt lat="39.9555245" lon="3.2114192">
<ele>185.87</ele>
<time>2016-10-15T10:16:44Z</time>
</trkpt>
<trkpt lat="39.9556929" lon="3.2113164">
<ele>187.74</ele>
<time>2016-10-15T10:16:51Z</time>
</trkpt>
<trkpt lat="39.9558412" lon="3.2111793">
<ele>190.39</ele>
<time>2016-10-15T10:17:01Z</time>
</trkpt>
<trkpt lat="39.9559941" lon="3.2110313">
<ele>191.60</ele>
<time>2016-10-15T10:17:10Z</time>
</trkpt>
<trkpt lat="39.9561405" lon="3.2108922">
<ele>192.69</ele>
<time>2016-10-15T10:17:18Z</time>
</trkpt>
<trkpt lat="39.9562977" lon="3.2107438">
<ele>193.93</ele>
<time>2016-10-15T10:17:27Z</time>
</trkpt>
<trkpt lat="39.9564526" lon="3.2105602">
<ele>195.44</ele>
<time>2016-10-15T10:17:35Z</time>
</trkpt>
<trkpt lat="39.9565882" lon="3.2103587">
<ele>196.71</ele>
<time>2016-10-15T10:17:41Z</time>
</trkpt>
<trkpt lat="39.9567099" lon="3.2101632">
<ele>197.41</ele>
<time>2016-10-15T10:17:47Z</time>
</trkpt>
<trkpt lat="39.9568559" lon="3.2099426">
<ele>199.24</ele>
<time>2016-10-15T10:17:52Z</time>
</trkpt>
<trkpt lat="39.9570087" lon="3.2097333">
<ele>199.88</ele>
<time>2016-10-15T10:17:56Z</time>
</trkpt>
<trkpt lat="39.9571556" lon="3.2095301">
<ele>199.65</ele>
<time>2016-10-15T10:17:59Z</time>
</trkpt>
<trkpt lat="39.9573235" lon="3.2093203">
<ele>200.17</ele>
<time>2016-10-15T10:18:02Z</time>
</trkpt>
<trkpt lat="39.9575016" lon="3.2091333">
<ele>200.17</ele>
<time>2016-10-15T10:18:05Z</time>
</trkpt>
<trkpt lat="39.9576789" lon="3.2088991">
<ele>198.92</ele>
<time>2016-10-15T10:18:08Z</time>
</trkpt>
<trkpt lat="39.9578186" lon="3.2086062">
<ele>197.55</ele>
<time>2016-10-15T10:18:11Z</time>
</trkpt>
<trkpt lat="39.9578583" lon="3.2082646">
<ele>195.61</ele>
<time>2016-10-15T10:18:14Z</time>
</trkpt>
<trkpt lat="39.9578148" lon="3.2080200">
<ele>193.74</ele>
<time>2016-10-15T10:18:16Z</time>
</trkpt>
<trkpt lat="39.9577505" lon="3.2077606">
<ele>192.21</ele>
<time>2016-10-15T10:18:18Z</time>
</trkpt>
<trkpt lat="39.9576774" lon="3.2075284">
<ele>191.14</ele>
<time>2016-10-15T10:18:20Z</time>
</trkpt>
<trkpt lat="39.9574916" lon="3.2073380">
<ele>189.23</ele>
<time>2016-10-15T10:18:23Z</time>
</trkpt>
<trkpt lat="39.9572726" lon="3.2074175">
<ele>187.56</ele>
<time>2016-10-15T10:18:27Z</time>
</trkpt>
<trkpt lat="39.9572015" lon="3.2076731">
<ele>187.39</ele>
<time>2016-10-15T10:18:31Z</time>
</trkpt>
<trkpt lat="39.9571839" lon="3.2079315">
<ele>188.47</ele>
<time>2016-10-15T10:18:35Z</time>
</trkpt>
<trkpt lat="39.9571009" lon="3.2081900">
<ele>192.00</ele>
<time>2016-10-15T10:18:40Z</time>
</trkpt>
<trkpt lat="39.9569109" lon="3.2083145">
<ele>192.70</ele>
<time>2016-10-15T10:18:45Z</time>
</trkpt>
<trkpt lat="39.9567201" lon="3.2082795">
<ele>192.18</ele>
<time>2016-10-15T10:18:49Z</time>
</trkpt>
<trkpt lat="39.9565287" lon="3.2082002">
<ele>194.13</ele>
<time>2016-10-15T10:18:54Z</time>
</trkpt>
<trkpt lat="39.9563559" lon="3.2081328">
<ele>195.06</ele>
<time>2016-10-15T10:18:58Z</time>
</trkpt>
<trkpt lat="39.9561475" lon="3.2080854">
<ele>195.72</ele>
<time>2016-10-15T10:19:03Z</time>
</trkpt>
<trkpt lat="39.9559663" lon="3.2080937">
<ele>194.70</ele>
<time>2016-10-15T10:19:07Z</time>
</trkpt>
<trkpt lat="39.9557628" lon="3.2081567">
<ele>194.12</ele>
<time>2016-10-15T10:19:11Z</time>
</trkpt>
<trkpt lat="39.9555624" lon="3.2082287">
<ele>193.75</ele>
<time>2016-10-15T10:19:15Z</time>
</trkpt>
<trkpt lat="39.9553665" lon="3.2082872">
<ele>193.87</ele>
<time>2016-10-15T10:19:19Z</time>
</trkpt>
<trkpt lat="39.9551470" lon="3.2082888">
<ele>191.87</ele>
<time>2016-10-15T10:19:23Z</time>
</trkpt>
<trkpt lat="39.9549363" lon="3.2082060">
<ele>191.83</ele>
<time>2016-10-15T10:19:27Z</time>
</trkpt>
<trkpt lat="39.9547107" lon="3.2080754">
<ele>193.34</ele>
<time>2016-10-15T10:19:31Z</time>
</trkpt>
<trkpt lat="39.9545244" lon="3.2079766">
<ele>194.18</ele>
<time>2016-10-15T10:19:34Z</time>
</trkpt>
<trkpt lat="39.9543403" lon="3.2078775">
<ele>195.35</ele>
<time>2016-10-15T10:19:37Z</time>
</trkpt>
<trkpt lat="39.9541540" lon="3.2077676">
<ele>195.12</ele>
<time>2016-10-15T10:19:40Z</time>
</trkpt>
<trkpt lat="39.9539776" lon="3.2076247">
<ele>195.69</ele>
<time>2016-10-15T10:19:43Z</time>
</trkpt>
<trkpt lat="39.9538319" lon="3.2074620">
<ele>195.31</ele>
<time>2016-10-15T10:19:46Z</time>
</trkpt>
<trkpt lat="39.9537391" lon="3.2071737">
<ele>194.37</ele>
<time>2016-10-15T10:19:49Z</time>
</trkpt>
<trkpt lat="39.9536627" lon="3.2068418">
<ele>193.54</ele>
<time>2016-10-15T10:19:52Z</time>
</trkpt>
<trkpt lat="39.9536223" lon="3.2066014">
<ele>193.20</ele>
<time>2016-10-15T10:19:54Z</time>
</trkpt>
<trkpt lat="39.9535868" lon="3.2063573">
<ele>190.73</ele>
<time>2016-10-15T10:19:56Z</time>
</trkpt>
<trkpt lat="39.9536041" lon="3.2060508">
<ele>186.85</ele>
<time>2016-10-15T10:19:59Z</time>
</trkpt>
<trkpt lat="39.9537088" lon="3.2057721">
<ele>184.45</ele>
<time>2016-10-15T10:20:02Z</time>
</trkpt>
<trkpt lat="39.9537973" lon="3.2055660">
<ele>183.38</ele>
<time>2016-10-15T10:20:04Z</time>
</trkpt>
<trkpt lat="39.9539072" lon="3.2052418">
<ele>179.91</ele>
<time>2016-10-15T10:20:07Z</time>
</trkpt>
<trkpt lat="39.9539698" lon="3.2049941">
<ele>178.58</ele>
<time>2016-10-15T10:20:09Z</time>
</trkpt>
<trkpt lat="39.9540340" lon="3.2047431">
<ele>178.12</ele>
<time>2016-10-15T10:20:11Z</time>
</trkpt>
<trkpt lat="39.9541483" lon="3.2045087">
<ele>177.95</ele>
<time>2016-10-15T10:20:13Z</time>
</trkpt>
<trkpt lat="39.9542615" lon="3.2042776">
<ele>177.27</ele>
<time>2016-10-15T10:20:15Z</time>
</trkpt>
<trkpt lat="39.9543628" lon="3.2040810">
<ele>176.52</ele>
<time>2016-10-15T10:20:17Z</time>
</trkpt>
<trkpt lat="39.9544633" lon="3.2038853">
<ele>175.87</ele>
<time>2016-10-15T10:20:19Z</time>
</trkpt>
<trkpt lat="39.9545896" lon="3.2036241">
<ele>174.23</ele>
<time>2016-10-15T10:20:22Z</time>
</trkpt>
<trkpt lat="39.9547027" lon="3.2034110">
<ele>171.12</ele>
<time>2016-10-15T10:20:25Z</time>
</trkpt>
<trkpt lat="39.9548509" lon="3.2032701">
<ele>171.58</ele>
<time>2016-10-15T10:20:28Z</time>
</trkpt>
<trkpt lat="39.9550439" lon="3.2030852">
<ele>172.99</ele>
<time>2016-10-15T10:20:32Z</time>
</trkpt>
<trkpt lat="39.9552304" lon="3.2029150">
<ele>174.22</ele>
<time>2016-10-15T10:20:36Z</time>
</trkpt>
<trkpt lat="39.9553906" lon="3.2027370">
<ele>176.35</ele>
<time>2016-10-15T10:20:40Z</time>
</trkpt>
<trkpt lat="39.9554504" lon="3.2024596">
<ele>179.81</ele>
<time>2016-10-15T10:20:44Z</time>
</trkpt>
<trkpt lat="39.9554357" lon="3.2022141">
<ele>181.78</ele>
<time>2016-10-15T10:20:47Z</time>
</trkpt>
<trkpt lat="39.9554081" lon="3.2019610">
<ele>182.14</ele>
<time>2016-10-15T10:20:50Z</time>
</trkpt>
<trkpt lat="39.9553822" lon="3.2017047">
<ele>180.84</ele>
<time>2016-10-15T10:20:53Z</time>
</trkpt>
<trkpt lat="39.9554050" lon="3.2014705">
<ele>180.44</ele>
<time>2016-10-15T10:20:56Z</time>
</trkpt>
<trkpt lat="39.9554451" lon="3.2011958">
<ele>181.58</ele>
<time>2016-10-15T10:21:00Z</time>
</trkpt>
<trkpt lat="39.9553756" lon="3.2009729">
<ele>181.37</ele>
<time>2016-10-15T10:21:04Z</time>
</trkpt>
<trkpt lat="39.9551724" lon="3.2008856">
<ele>182.00</ele>
<time>2016-10-15T10:21:10Z</time>
</trkpt>
<trkpt lat="39.9550043" lon="3.2009934">
<ele>182.62</ele>
<time>2016-10-15T10:21:15Z</time>
</trkpt>
<trkpt lat="39.9548537" lon="3.2011439">
<ele>185.30</ele>
<time>2016-10-15T10:21:21Z</time>
</trkpt>
<trkpt lat="39.9547004" lon="3.2012860">
<ele>186.23</ele>
<time>2016-10-15T10:21:27Z</time>
</trkpt>
<trkpt lat="39.9545619" lon="3.2014536">
<ele>187.10</ele>
<time>2016-10-15T10:21:34Z</time>
</trkpt>
<trkpt lat="39.9544625" lon="3.2016840">
<ele>187.79</ele>
<time>2016-10-15T10:21:40Z</time>
</trkpt>
<trkpt lat="39.9543281" lon="3.2019031">
<ele>189.02</ele>
<time>2016-10-15T10:21:46Z</time>
</trkpt>
<trkpt lat="39.9541721" lon="3.2020238">
<ele>190.07</ele>
<time>2016-10-15T10:21:53Z</time>
</trkpt>
<trkpt lat="39.9539852" lon="3.2019563">
<ele>191.23</ele>
<time>2016-10-15T10:22:02Z</time>
</trkpt>
<trkpt lat="39.9538220" lon="3.2020939">
<ele>193.13</ele>
<time>2016-10-15T10:22:12Z</time>
</trkpt>
<trkpt lat="39.9538195" lon="3.2023574">
<ele>194.42</ele>
<time>2016-10-15T10:22:20Z</time>
</trkpt>
<trkpt lat="39.9538043" lon="3.2026066">
<ele>195.16</ele>
<time>2016-10-15T10:22:27Z</time>
</trkpt>
<trkpt lat="39.9536947" lon="3.2028189">
<ele>196.37</ele>
<time>2016-10-15T10:22:36Z</time>
</trkpt>
<trkpt lat="39.9534999" lon="3.2027638">
<ele>198.61</ele>
<time>2016-10-15T10:22:46Z</time>
</trkpt>
<trkpt lat="39.9534291" lon="3.2025377">
<ele>200.94</ele>
<time>2016-10-15T10:22:55Z</time>
</trkpt>
<trkpt lat="39.9534197" lon="3.2022801">
<ele>202.85</ele>
<time>2016-10-15T10:23:02Z</time>
</trkpt>
<trkpt lat="39.9534104" lon="3.2020427">
<ele>204.58</ele>
<time>2016-10-15T10:23:08Z</time>
</trkpt>
<trkpt lat="39.9533952" lon="3.2017915">
<ele>206.50</ele>
<time>2016-10-15T10:23:16Z</time>
</trkpt>
<trkpt lat="39.9533715" lon="3.2015507">
<ele>208.46</ele>
<time>2016-10-15T10:23:27Z</time>
</trkpt>
<trkpt lat="39.9532673" lon="3.2013345">
<ele>209.86</ele>
<time>2016-10-15T10:23:36Z</time>
</trkpt>
<trkpt lat="39.9531510" lon="3.2011550">
<ele>210.99</ele>
<time>2016-10-15T10:23:44Z</time>
</trkpt>
<trkpt lat="39.9530360" lon="3.2009539">
<ele>212.34</ele>
<time>2016-10-15T10:23:51Z</time>
</trkpt>
<trkpt lat="39.9529575" lon="3.2007397">
<ele>214.92</ele>
<time>2016-10-15T10:23:57Z</time>
</trkpt>
<trkpt lat="39.9528923" lon="3.2005009">
<ele>215.99</ele>
<time>2016-10-15T10:24:03Z</time>
</trkpt>
<trkpt lat="39.9528336" lon="3.2002733">
<ele>217.08</ele>
<time>2016-10-15T10:24:09Z</time>
</trkpt>
<trkpt lat="39.9527775" lon="3.2000400">
<ele>219.89</ele>
<time>2016-10-15T10:24:14Z</time>
</trkpt>
<trkpt lat="39.9527582" lon="3.1997687">
<ele>222.82</ele>
<time>2016-10-15T10:24:19Z</time>
</trkpt>
<trkpt lat="39.9527912" lon="3.1995100">
<ele>222.34</ele>
<time>2016-10-15T10:24:24Z</time>
</trkpt>
<trkpt lat="39.9528787" lon="3.1993018">
<ele>222.48</ele>
<time>2016-10-15T10:24:29Z</time>
</trkpt>
<trkpt lat="39.9529847" lon="3.1990785">
<ele>224.50</ele>
<time>2016-10-15T10:24:33Z</time>
</trkpt>
<trkpt lat="39.9529815" lon="3.1988400">
<ele>225.34</ele>
<time>2016-10-15T10:24:37Z</time>
</trkpt>
<trkpt lat="39.9528651" lon="3.1985852">
<ele>226.23</ele>
<time>2016-10-15T10:24:42Z</time>
</trkpt>
<trkpt lat="39.9526951" lon="3.1984536">
<ele>225.92</ele>
<time>2016-10-15T10:24:46Z</time>
</trkpt>
<trkpt lat="39.9524850" lon="3.1984102">
<ele>226.05</ele>
<time>2016-10-15T10:24:50Z</time>
</trkpt>
<trkpt lat="39.9522744" lon="3.1983781">
<ele>225.39</ele>
<time>2016-10-15T10:24:54Z</time>
</trkpt>
<trkpt lat="39.9520780" lon="3.1983472">
<ele>225.59</ele>
<time>2016-10-15T10:24:58Z</time>
</trkpt>
<trkpt lat="39.9518938" lon="3.1983021">
<ele>225.18</ele>
<time>2016-10-15T10:25:02Z</time>
</trkpt>
<trkpt lat="39.9516844" lon="3.1982555">
<ele>224.13</ele>
<time>2016-10-15T10:25:06Z</time>
</trkpt>
<trkpt lat="39.9515276" lon="3.1981112">
<ele>224.11</ele>
<time>2016-10-15T10:25:10Z</time>
</trkpt>
<trkpt lat="39.9514561" lon="3.1978741">
<ele>223.95</ele>
<time>2016-10-15T10:25:13Z</time>
</trkpt>
<trkpt lat="39.9513864" lon="3.1975985">
<ele>223.58</ele>
<time>2016-10-15T10:25:16Z</time>
</trkpt>
<trkpt lat="39.9512777" lon="3.1972826">
<ele>222.68</ele>
<time>2016-10-15T10:25:19Z</time>
</trkpt>
<trkpt lat="39.9511470" lon="3.1969991">
<ele>220.31</ele>
<time>2016-10-15T10:25:22Z</time>
</trkpt>
<trkpt lat="39.9510513" lon="3.1967979">
<ele>219.02</ele>
<time>2016-10-15T10:25:24Z</time>
</trkpt>
<trkpt lat="39.9509586" lon="3.1965671">
<ele>217.65</ele>
<time>2016-10-15T10:25:26Z</time>
</trkpt>
<trkpt lat="39.9508728" lon="3.1963133">
<ele>216.45</ele>
<time>2016-10-15T10:25:28Z</time>
</trkpt>
<trkpt lat="39.9508109" lon="3.1960588">
<ele>215.05</ele>
<time>2016-10-15T10:25:30Z</time>
</trkpt>
<trkpt lat="39.9507638" lon="3.1958040">
<ele>213.54</ele>
<time>2016-10-15T10:25:32Z</time>
</trkpt>
<trkpt lat="39.9507154" lon="3.1954742">
<ele>212.29</ele>
<time>2016-10-15T10:25:35Z</time>
</trkpt>
<trkpt lat="39.9507363" lon="3.1951936">
<ele>211.56</ele>
<time>2016-10-15T10:25:38Z</time>
</trkpt>
<trkpt lat="39.9508706" lon="3.1949588">
<ele>209.60</ele>
<time>2016-10-15T10:25:41Z</time>
</trkpt>
<trkpt lat="39.9510777" lon="3.1948336">
<ele>208.65</ele>
<time>2016-10-15T10:25:44Z</time>
</trkpt>
<trkpt lat="39.9512518" lon="3.1947503">
<ele>208.49</ele>
<time>2016-10-15T10:25:46Z</time>
</trkpt>
<trkpt lat="39.9514245" lon="3.1945339">
<ele>207.53</ele>
<time>2016-10-15T10:25:49Z</time>
</trkpt>
<trkpt lat="39.9513678" lon="3.1942592">
<ele>206.36</ele>
<time>2016-10-15T10:25:52Z</time>
</trkpt>
<trkpt lat="39.9512516" lon="3.1940361">
<ele>204.06</ele>
<time>2016-10-15T10:25:55Z</time>
</trkpt>
<trkpt lat="39.9511213" lon="3.1938151">
<ele>203.26</ele>
<time>2016-10-15T10:25:58Z</time>
</trkpt>
<trkpt lat="39.9511717" lon="3.1935510">
<ele>202.14</ele>
<time>2016-10-15T10:26:01Z</time>
</trkpt>
<trkpt lat="39.9513455" lon="3.1933452">
<ele>200.61</ele>
<time>2016-10-15T10:26:04Z</time>
</trkpt>
<trkpt lat="39.9515326" lon="3.1931884">
<ele>200.04</ele>
<time>2016-10-15T10:26:07Z</time>
</trkpt>
<trkpt lat="39.9516692" lon="3.1929511">
<ele>199.32</ele>
<time>2016-10-15T10:26:10Z</time>
</trkpt>
<trkpt lat="39.9518160" lon="3.1927822">
<ele>197.55</ele>
<time>2016-10-15T10:26:13Z</time>
</trkpt>
<trkpt lat="39.9520038" lon="3.1927011">
<ele>195.33</ele>
<time>2016-10-15T10:26:16Z</time>
</trkpt>
<trkpt lat="39.9522547" lon="3.1926296">
<ele>193.46</ele>
<time>2016-10-15T10:26:19Z</time>
</trkpt>
<trkpt lat="39.9524979" lon="3.1925829">
<ele>192.12</ele>
<time>2016-10-15T10:26:22Z</time>
</trkpt>
<trkpt lat="39.9527163" lon="3.1924973">
<ele>189.74</ele>
<time>2016-10-15T10:26:25Z</time>
</trkpt>
<trkpt lat="39.9528843" lon="3.1922971">
<ele>187.53</ele>
<time>2016-10-15T10:26:28Z</time>
</trkpt>
<trkpt lat="39.9528369" lon="3.1920622">
<ele>185.92</ele>
<time>2016-10-15T10:26:31Z</time>
</trkpt>
<trkpt lat="39.9527348" lon="3.1918226">
<ele>186.63</ele>
<time>2016-10-15T10:26:34Z</time>
</trkpt>
<trkpt lat="39.9527393" lon="3.1915461">
<ele>187.88</ele>
<time>2016-10-15T10:26:37Z</time>
</trkpt>
<trkpt lat="39.9528522" lon="3.1912722">
<ele>188.42</ele>
<time>2016-10-15T10:26:40Z</time>
</trkpt>
<trkpt lat="39.9529626" lon="3.1910684">
<ele>187.63</ele>
<time>2016-10-15T10:26:42Z</time>
</trkpt>
<trkpt lat="39.9530694" lon="3.1908775">
<ele>186.57</ele>
<time>2016-10-15T10:26:44Z</time>
</trkpt>
<trkpt lat="39.9532272" lon="3.1906095">
<ele>185.27</ele>
<time>2016-10-15T10:26:47Z</time>
</trkpt>
<trkpt lat="39.9533901" lon="3.1903477">
<ele>184.28</ele>
<time>2016-10-15T10:26:50Z</time>
</trkpt>
<trkpt lat="39.9535897" lon="3.1901241">
<ele>183.21</ele>
<time>2016-10-15T10:26:53Z</time>
</trkpt>
<trkpt lat="39.9537926" lon="3.1899316">
<ele>181.99</ele>
<time>2016-10-15T10:26:56Z</time>
</trkpt>
<trkpt lat="39.9539684" lon="3.1897682">
<ele>181.38</ele>
<time>2016-10-15T10:26:59Z</time>
</trkpt>
<trkpt lat="39.9540707" lon="3.1895372">
<ele>181.10</ele>
<time>2016-10-15T10:27:02Z</time>
</trkpt>
<trkpt lat="39.9540515" lon="3.1892891">
<ele>180.26</ele>
<time>2016-10-15T10:27:05Z</time>
</trkpt>
<trkpt lat="39.9538701" lon="3.1891072">
<ele>179.52</ele>
<time>2016-10-15T10:27:09Z</time>
</trkpt>
<trkpt lat="39.9536718" lon="3.1890452">
<ele>178.22</ele>
<time>2016-10-15T10:27:13Z</time>
</trkpt>
<trkpt lat="39.9534687" lon="3.1890103">
<ele>179.18</ele>
<time>2016-10-15T10:27:17Z</time>
</trkpt>
<trkpt lat="39.9532899" lon="3.1889593">
<ele>181.71</ele>
<time>2016-10-15T10:27:22Z</time>
</trkpt>
<trkpt lat="39.9531309" lon="3.1888363">
<ele>183.03</ele>
<time>2016-10-15T10:27:26Z</time>
</trkpt>
<trkpt lat="39.9530460" lon="3.1886031">
<ele>183.83</ele>
<time>2016-10-15T10:27:30Z</time>
</trkpt>
<trkpt lat="39.9530577" lon="3.1883110">
<ele>184.01</ele>
<time>2016-10-15T10:27:34Z</time>
</trkpt>
<trkpt lat="39.9531002" lon="3.1880789">
<ele>183.18</ele>
<time>2016-10-15T10:27:38Z</time>
</trkpt>
<trkpt lat="39.9531300" lon="3.1878412">
<ele>182.98</ele>
<time>2016-10-15T10:27:42Z</time>
</trkpt>
<trkpt lat="39.9530431" lon="3.1875856">
<ele>183.24</ele>
<time>2016-10-15T10:27:46Z</time>
</trkpt>
<trkpt lat="39.9529261" lon="3.1873350">
<ele>184.07</ele>
<time>2016-10-15T10:27:50Z</time>
</trkpt>
<trkpt lat="39.9528548" lon="3.1870489">
<ele>184.19</ele>
<time>2016-10-15T10:27:54Z</time>
</trkpt>
<trkpt lat="39.9528234" lon="3.1868052">
<ele>183.89</ele>
<time>2016-10-15T10:27:57Z</time>
</trkpt>
<trkpt lat="39.9527957" lon="3.1865130">
<ele>183.83</ele>
<time>2016-10-15T10:28:01Z</time>
</trkpt>
<trkpt lat="39.9526816" lon="3.1862982">
<ele>184.48</ele>
<time>2016-10-15T10:28:05Z</time>
</trkpt>
<trkpt lat="39.9524723" lon="3.1861505">
<ele>185.84</ele>
<time>2016-10-15T10:28:09Z</time>
</trkpt>
<trkpt lat="39.9522944" lon="3.1860152">
<ele>187.76</ele>
<time>2016-10-15T10:28:12Z</time>
</trkpt>
<trkpt lat="39.9521045" lon="3.1858249">
<ele>189.79</ele>
<time>2016-10-15T10:28:15Z</time>
</trkpt>
<trkpt lat="39.9519518" lon="3.1856297">
<ele>190.98</ele>
<time>2016-10-15T10:28:18Z</time>
</trkpt>
<trkpt lat="39.9518893" lon="3.1853086">
<ele>190.33</ele>
<time>2016-10-15T10:28:21Z</time>
</trkpt>
<trkpt lat="39.9518405" lon="3.1850233">
<ele>186.70</ele>
<time>2016-10-15T10:28:24Z</time>
</trkpt>
<trkpt lat="39.9517013" lon="3.1848064">
<ele>183.10</ele>
<time>2016-10-15T10:28:27Z</time>
</trkpt>
<trkpt lat="39.9515213" lon="3.1845717">
<ele>180.93</ele>
<time>2016-10-15T10:28:30Z</time>
</trkpt>
<trkpt lat="39.9513425" lon="3.1843223">
<ele>179.90</ele>
<time>2016-10-15T10:28:33Z</time>
</trkpt>
<trkpt lat="39.9512283" lon="3.1841263">
<ele>179.59</ele>
<time>2016-10-15T10:28:35Z</time>
</trkpt>
<trkpt lat="39.9510791" lon="3.1838391">
<ele>178.56</ele>
<time>2016-10-15T10:28:38Z</time>
</trkpt>
<trkpt lat="39.9509750" lon="3.1836284">
<ele>178.62</ele>
<time>2016-10-15T10:28:40Z</time>
</trkpt>
<trkpt lat="39.9508622" lon="3.1834113">
<ele>177.90</ele>
<time>2016-10-15T10:28:42Z</time>
</trkpt>
<trkpt lat="39.9507545" lon="3.1831875">
<ele>176.72</ele>
<time>2016-10-15T10:28:44Z</time>
</trkpt>
<trkpt lat="39.9506653" lon="3.1829325">
<ele>174.34</ele>
<time>2016-10-15T10:28:46Z</time>
</trkpt>
<trkpt lat="39.9505861" lon="3.1826650">
<ele>171.92</ele>
<time>2016-10-15T10:28:48Z</time>
</trkpt>
<trkpt lat="39.9505165" lon="3.1824206">
<ele>170.15</ele>
<time>2016-10-15T10:28:50Z</time>
</trkpt>
<trkpt lat="39.9504514" lon="3.1821770">
<ele>168.98</ele>
<time>2016-10-15T10:28:52Z</time>
</trkpt>
<trkpt lat="39.9503721" lon="3.1818350">
<ele>167.67</ele>
<time>2016-10-15T10:28:55Z</time>
</trkpt>
<trkpt lat="39.9503078" lon="3.1815752">
<ele>164.91</ele>
<time>2016-10-15T10:28:57Z</time>
</trkpt>
<trkpt lat="39.9502422" lon="3.1813219">
<ele>161.91</ele>
<time>2016-10-15T10:28:59Z</time>
</trkpt>
<trkpt lat="39.9501830" lon="3.1810734">
<ele>158.94</ele>
<time>2016-10-15T10:29:01Z</time>
</trkpt>
<trkpt lat="39.9501154" lon="3.1808080">
<ele>157.39</ele>
<time>2016-10-15T10:29:03Z</time>
</trkpt>
<trkpt lat="39.9500499" lon="3.1805340">
<ele>157.56</ele>
<time>2016-10-15T10:29:05Z</time>
</trkpt>
<trkpt lat="39.9499816" lon="3.1802649">
<ele>158.37</ele>
<time>2016-10-15T10:29:07Z</time>
</trkpt>
<trkpt lat="39.9498810" lon="3.1800463">
<ele>158.55</ele>
<time>2016-10-15T10:29:09Z</time>
</trkpt>
<trkpt lat="39.9495301" lon="3.1779851">
<ele>159.31</ele>
<time>2016-10-15T10:29:26Z</time>
</trkpt>
<trkpt lat="39.9490440" lon="3.1775637">
<ele>159.25</ele>
<time>2016-10-15T10:29:29Z</time>
</trkpt>
<trkpt lat="39.9491082" lon="3.1772545">
<ele>151.61</ele>
<time>2016-10-15T10:29:33Z</time>
</trkpt>
<trkpt lat="39.9492500" lon="3.1770422">
<ele>140.54</ele>
<time>2016-10-15T10:29:37Z</time>
</trkpt>
<trkpt lat="39.9493410" lon="3.1767881">
<ele>128.85</ele>
<time>2016-10-15T10:29:41Z</time>
</trkpt>
<trkpt lat="39.9493375" lon="3.1764587">
<ele>126.77</ele>
<time>2016-10-15T10:29:44Z</time>
</trkpt>
<trkpt lat="39.9493251" lon="3.1761355">
<ele>124.52</ele>
<time>2016-10-15T10:29:47Z</time>
</trkpt>
<trkpt lat="39.9492906" lon="3.1757973">
<ele>123.19</ele>
<time>2016-10-15T10:29:50Z</time>
</trkpt>
<trkpt lat="39.9492565" lon="3.1754826">
<ele>124.36</ele>
<time>2016-10-15T10:29:53Z</time>
</trkpt>
<trkpt lat="39.9491840" lon="3.1751925">
<ele>124.74</ele>
<time>2016-10-15T10:29:56Z</time>
</trkpt>
<trkpt lat="39.9491080" lon="3.1749773">
<ele>124.59</ele>
<time>2016-10-15T10:29:58Z</time>
</trkpt>
<trkpt lat="39.9489963" lon="3.1746465">
<ele>125.09</ele>
<time>2016-10-15T10:30:01Z</time>
</trkpt>
<trkpt lat="39.9489217" lon="3.1744068">
<ele>126.22</ele>
<time>2016-10-15T10:30:03Z</time>
</trkpt>
<trkpt lat="39.9488563" lon="3.1741576">
<ele>127.15</ele>
<time>2016-10-15T10:30:05Z</time>
</trkpt>
<trkpt lat="39.9487964" lon="3.1739102">
<ele>128.59</ele>
<time>2016-10-15T10:30:07Z</time>
</trkpt>
<trkpt lat="39.9487637" lon="3.1736125">
<ele>129.15</ele>
<time>2016-10-15T10:30:10Z</time>
</trkpt>
<trkpt lat="39.9487947" lon="3.1732807">
<ele>127.48</ele>
<time>2016-10-15T10:30:14Z</time>
</trkpt>
<trkpt lat="39.9488180" lon="3.1730434">
<ele>126.21</ele>
<time>2016-10-15T10:30:16Z</time>
</trkpt>
<trkpt lat="39.9488260" lon="3.1727875">
<ele>125.60</ele>
<time>2016-10-15T10:30:18Z</time>
</trkpt>
<trkpt lat="39.9487206" lon="3.1725069">
<ele>121.47</ele>
<time>2016-10-15T10:30:21Z</time>
</trkpt>
<trkpt lat="39.9485157" lon="3.1723025">
<ele>117.13</ele>
<time>2016-10-15T10:30:24Z</time>
</trkpt>
<trkpt lat="39.9483219" lon="3.1721579">
<ele>114.85</ele>
<time>2016-10-15T10:30:27Z</time>
</trkpt>
<trkpt lat="39.9481442" lon="3.1720074">
<ele>113.73</ele>
<time>2016-10-15T10:30:31Z</time>
</trkpt>
<trkpt lat="39.9481007" lon="3.1717095">
<ele>113.50</ele>
<time>2016-10-15T10:30:35Z</time>
</trkpt>
<trkpt lat="39.9482529" lon="3.1715563">
<ele>113.44</ele>
<time>2016-10-15T10:30:37Z</time>
</trkpt>
<trkpt lat="39.9484981" lon="3.1714697">
<ele>112.29</ele>
<time>2016-10-15T10:30:40Z</time>
</trkpt>
<trkpt lat="39.9487293" lon="3.1713595">
<ele>111.27</ele>
<time>2016-10-15T10:30:43Z</time>
</trkpt>
<trkpt lat="39.9489234" lon="3.1712971">
<ele>108.84</ele>
<time>2016-10-15T10:30:46Z</time>
</trkpt>
<trkpt lat="39.9490790" lon="3.1710712">
<ele>106.70</ele>
<time>2016-10-15T10:30:49Z</time>
</trkpt>
<trkpt lat="39.9491900" lon="3.1707657">
<ele>100.26</ele>
<time>2016-10-15T10:30:52Z</time>
</trkpt>
<trkpt lat="39.9491916" lon="3.1704258">
<ele>95.26</ele>
<time>2016-10-15T10:30:55Z</time>
</trkpt>
<trkpt lat="39.9491614" lon="3.1701902">
<ele>93.67</ele>
<time>2016-10-15T10:30:57Z</time>
</trkpt>
<trkpt lat="39.9491256" lon="3.1699327">
<ele>92.49</ele>
<time>2016-10-15T10:30:59Z</time>
</trkpt>
<trkpt lat="39.9491658" lon="3.1696555">
<ele>91.01</ele>
<time>2016-10-15T10:31:01Z</time>
</trkpt>
<trkpt lat="39.9492147" lon="3.1693687">
<ele>89.44</ele>
<time>2016-10-15T10:31:03Z</time>
</trkpt>
<trkpt lat="39.9492579" lon="3.1690970">
<ele>87.50</ele>
<time>2016-10-15T10:31:05Z</time>
</trkpt>
<trkpt lat="39.9492938" lon="3.1688590">
<ele>86.26</ele>
<time>2016-10-15T10:31:07Z</time>
</trkpt>
<trkpt lat="39.9492873" lon="3.1686117">
<ele>86.31</ele>
<time>2016-10-15T10:31:09Z</time>
</trkpt>
<trkpt lat="39.9492363" lon="3.1682825">
<ele>86.63</ele>
<time>2016-10-15T10:31:12Z</time>
</trkpt>
<trkpt lat="39.9491809" lon="3.1679824">
<ele>86.96</ele>
<time>2016-10-15T10:31:15Z</time>
</trkpt>
<trkpt lat="39.9491226" lon="3.1676877">
<ele>87.22</ele>
<time>2016-10-15T10:31:18Z</time>
</trkpt>
<trkpt lat="39.9490864" lon="3.1674484">
<ele>85.89</ele>
<time>2016-10-15T10:31:21Z</time>
</trkpt>
<trkpt lat="39.9490449" lon="3.1672147">
<ele>84.93</ele>
<time>2016-10-15T10:31:24Z</time>
</trkpt>
<trkpt lat="39.9490103" lon="3.1669183">
<ele>86.21</ele>
<time>2016-10-15T10:31:28Z</time>
</trkpt>
<trkpt lat="39.9489801" lon="3.1666217">
<ele>86.95</ele>
<time>2016-10-15T10:31:32Z</time>
</trkpt>
<trkpt lat="39.9489410" lon="3.1663481">
<ele>85.30</ele>
<time>2016-10-15T10:31:36Z</time>
</trkpt>
<trkpt lat="39.9489002" lon="3.1661015">
<ele>88.79</ele>
<time>2016-10-15T10:31:40Z</time>
</trkpt>
<trkpt lat="39.9488641" lon="3.1658547">
<ele>91.71</ele>
<time>2016-10-15T10:31:45Z</time>
</trkpt>
<trkpt lat="39.9488161" lon="3.1655799">
<ele>90.87</ele>
<time>2016-10-15T10:31:50Z</time>
</trkpt>
<trkpt lat="39.9487561" lon="3.1653389">
<ele>91.02</ele>
<time>2016-10-15T10:31:55Z</time>
</trkpt>
<trkpt lat="39.9486991" lon="3.1651018">
<ele>91.20</ele>
<time>2016-10-15T10:32:00Z</time>
</trkpt>
<trkpt lat="39.9486488" lon="3.1648688">
<ele>92.00</ele>
<time>2016-10-15T10:32:06Z</time>
</trkpt>
<trkpt lat="39.9485918" lon="3.1646344">
<ele>97.52</ele>
<time>2016-10-15T10:32:12Z</time>
</trkpt>
<trkpt lat="39.9485341" lon="3.1643938">
<ele>101.89</ele>
<time>2016-10-15T10:32:17Z</time>
</trkpt>
<trkpt lat="39.9484851" lon="3.1641217">
<ele>107.49</ele>
<time>2016-10-15T10:32:22Z</time>
</trkpt>
<trkpt lat="39.9484338" lon="3.1638941">
<ele>111.56</ele>
<time>2016-10-15T10:32:27Z</time>
</trkpt>
<trkpt lat="39.9483825" lon="3.1636285">
<ele>110.47</ele>
<time>2016-10-15T10:32:33Z</time>
</trkpt>
<trkpt lat="39.9482434" lon="3.1633907">
<ele>111.32</ele>
<time>2016-10-15T10:32:38Z</time>
</trkpt>
<trkpt lat="39.9480531" lon="3.1631753">
<ele>112.50</ele>
<time>2016-10-15T10:32:42Z</time>
</trkpt>
<trkpt lat="39.9478596" lon="3.1629370">
<ele>112.06</ele>
<time>2016-10-15T10:32:45Z</time>
</trkpt>
<trkpt lat="39.9477246" lon="3.1627772">
<ele>110.69</ele>
<time>2016-10-15T10:32:47Z</time>
</trkpt>
<trkpt lat="39.9476149" lon="3.1625783">
<ele>109.39</ele>
<time>2016-10-15T10:32:49Z</time>
</trkpt>
<trkpt lat="39.9475456" lon="3.1623231">
<ele>106.95</ele>
<time>2016-10-15T10:32:51Z</time>
</trkpt>
<trkpt lat="39.9475365" lon="3.1620264">
<ele>105.23</ele>
<time>2016-10-15T10:32:53Z</time>
</trkpt>
<trkpt lat="39.9475573" lon="3.1617474">
<ele>103.35</ele>
<time>2016-10-15T10:32:55Z</time>
</trkpt>
<trkpt lat="39.9475852" lon="3.1614710">
<ele>101.47</ele>
<time>2016-10-15T10:32:57Z</time>
</trkpt>
<trkpt lat="39.9476114" lon="3.1612183">
<ele>99.40</ele>
<time>2016-10-15T10:32:59Z</time>
</trkpt>
<trkpt lat="39.9476328" lon="3.1609527">
<ele>98.02</ele>
<time>2016-10-15T10:33:01Z</time>
</trkpt>
<trkpt lat="39.9476240" lon="3.1607063">
<ele>96.75</ele>
<time>2016-10-15T10:33:03Z</time>
</trkpt>
<trkpt lat="39.9475607" lon="3.1603608">
<ele>95.82</ele>
<time>2016-10-15T10:33:06Z</time>
</trkpt>
<trkpt lat="39.9474646" lon="3.1601613">
<ele>95.22</ele>
<time>2016-10-15T10:33:08Z</time>
</trkpt>
<trkpt lat="39.9472977" lon="3.1599232">
<ele>95.76</ele>
<time>2016-10-15T10:33:11Z</time>
</trkpt>
<trkpt lat="39.9472291" lon="3.1596777">
<ele>94.38</ele>
<time>2016-10-15T10:33:13Z</time>
</trkpt>
<trkpt lat="39.9471175" lon="3.1594678">
<ele>93.44</ele>
<time>2016-10-15T10:33:15Z</time>
</trkpt>
<trkpt lat="39.9469998" lon="3.1592762">
<ele>93.64</ele>
<time>2016-10-15T10:33:17Z</time>
</trkpt>
<trkpt lat="39.9468714" lon="3.1590643">
<ele>96.06</ele>
<time>2016-10-15T10:33:19Z</time>
</trkpt>
<trkpt lat="39.9467370" lon="3.1588454">
<ele>98.02</ele>
<time>2016-10-15T10:33:21Z</time>
</trkpt>
<trkpt lat="39.9466007" lon="3.1586166">
<ele>99.65</ele>
<time>2016-10-15T10:33:23Z</time>
</trkpt>
<trkpt lat="39.9464609" lon="3.1583863">
<ele>100.12</ele>
<time>2016-10-15T10:33:25Z</time>
</trkpt>
<trkpt lat="39.9463197" lon="3.1581541">
<ele>98.01</ele>
<time>2016-10-15T10:33:27Z</time>
</trkpt>
<trkpt lat="39.9461819" lon="3.1578859">
<ele>96.01</ele>
<time>2016-10-15T10:33:29Z</time>
</trkpt>
<trkpt lat="39.9460709" lon="3.1576623">
<ele>94.83</ele>
<time>2016-10-15T10:33:31Z</time>
</trkpt>
<trkpt lat="39.9459455" lon="3.1574231">
<ele>93.78</ele>
<time>2016-10-15T10:33:33Z</time>
</trkpt>
<trkpt lat="39.9458170" lon="3.1572020">
<ele>91.25</ele>
<time>2016-10-15T10:33:35Z</time>
</trkpt>
<trkpt lat="39.9456941" lon="3.1569675">
<ele>88.99</ele>
<time>2016-10-15T10:33:37Z</time>
</trkpt>
<trkpt lat="39.9455662" lon="3.1567531">
<ele>87.76</ele>
<time>2016-10-15T10:33:39Z</time>
</trkpt>
<trkpt lat="39.9454464" lon="3.1565452">
<ele>87.52</ele>
<time>2016-10-15T10:33:41Z</time>
</trkpt>
<trkpt lat="39.9453356" lon="3.1563307">
<ele>87.42</ele>
<time>2016-10-15T10:33:43Z</time>
</trkpt>
<trkpt lat="39.9451895" lon="3.1560429">
<ele>86.88</ele>
<time>2016-10-15T10:33:46Z</time>
</trkpt>
<trkpt lat="39.9450537" lon="3.1557683">
<ele>86.11</ele>
<time>2016-10-15T10:33:49Z</time>
</trkpt>
<trkpt lat="39.9449199" lon="3.1555288">
<ele>84.89</ele>
<time>2016-10-15T10:33:52Z</time>
</trkpt>
<trkpt lat="39.9447605" lon="3.1552721">
<ele>83.53</ele>
<time>2016-10-15T10:33:55Z</time>
</trkpt>
<trkpt lat="39.9446059" lon="3.1549974">
<ele>82.59</ele>
<time>2016-10-15T10:33:58Z</time>
</trkpt>
<trkpt lat="39.9444753" lon="3.1547501">
<ele>80.88</ele>
<time>2016-10-15T10:34:01Z</time>
</trkpt>
<trkpt lat="39.9443550" lon="3.1545014">
<ele>78.37</ele>
<time>2016-10-15T10:34:04Z</time>
</trkpt>
<trkpt lat="39.9442208" lon="3.1542366">
<ele>75.55</ele>
<time>2016-10-15T10:34:07Z</time>
</trkpt>
<trkpt lat="39.9440824" lon="3.1539981">
<ele>74.65</ele>
<time>2016-10-15T10:34:10Z</time>
</trkpt>
<trkpt lat="39.9439392" lon="3.1537750">
<ele>75.62</ele>
<time>2016-10-15T10:34:13Z</time>
</trkpt>
<trkpt lat="39.9437817" lon="3.1535131">
<ele>76.69</ele>
<time>2016-10-15T10:34:16Z</time>
</trkpt>
<trkpt lat="39.9436395" lon="3.1532556">
<ele>75.23</ele>
<time>2016-10-15T10:34:19Z</time>
</trkpt>
<trkpt lat="39.9435283" lon="3.1530646">
<ele>75.51</ele>
<time>2016-10-15T10:34:21Z</time>
</trkpt>
<trkpt lat="39.9434163" lon="3.1528537">
<ele>75.86</ele>
<time>2016-10-15T10:34:23Z</time>
</trkpt>
<trkpt lat="39.9433035" lon="3.1526470">
<ele>75.53</ele>
<time>2016-10-15T10:34:25Z</time>
</trkpt>
<trkpt lat="39.9431945" lon="3.1524530">
<ele>74.84</ele>
<time>2016-10-15T10:34:27Z</time>
</trkpt>
<trkpt lat="39.9430387" lon="3.1521671">
<ele>74.83</ele>
<time>2016-10-15T10:34:30Z</time>
</trkpt>
<trkpt lat="39.9429005" lon="3.1518939">
<ele>73.89</ele>
<time>2016-10-15T10:34:33Z</time>
</trkpt>
<trkpt lat="39.9427679" lon="3.1516410">
<ele>72.55</ele>
<time>2016-10-15T10:34:36Z</time>
</trkpt>
<trkpt lat="39.9426405" lon="3.1514261">
<ele>72.37</ele>
<time>2016-10-15T10:34:39Z</time>
</trkpt>
<trkpt lat="39.9425141" lon="3.1511907">
<ele>72.46</ele>
<time>2016-10-15T10:34:42Z</time>
</trkpt>
<trkpt lat="39.9423782" lon="3.1509523">
<ele>70.74</ele>
<time>2016-10-15T10:34:45Z</time>
</trkpt>
<trkpt lat="39.9422383" lon="3.1507322">
<ele>69.78</ele>
<time>2016-10-15T10:34:48Z</time>
</trkpt>
<trkpt lat="39.9420948" lon="3.1504915">
<ele>70.99</ele>
<time>2016-10-15T10:34:51Z</time>
</trkpt>
<trkpt lat="39.9419477" lon="3.1502418">
<ele>72.60</ele>
<time>2016-10-15T10:34:54Z</time>
</trkpt>
<trkpt lat="39.9417847" lon="3.1499743">
<ele>73.77</ele>
<time>2016-10-15T10:34:57Z</time>
</trkpt>
<trkpt lat="39.9416268" lon="3.1497213">
<ele>74.22</ele>
<time>2016-10-15T10:35:00Z</time>
</trkpt>
<trkpt lat="39.9414567" lon="3.1494320">
<ele>75.24</ele>
<time>2016-10-15T10:35:03Z</time>
</trkpt>
<trkpt lat="39.9412981" lon="3.1491647">
<ele>73.92</ele>
<time>2016-10-15T10:35:06Z</time>
</trkpt>
<trkpt lat="39.9411781" lon="3.1489501">
<ele>72.94</ele>
<time>2016-10-15T10:35:08Z</time>
</trkpt>
<trkpt lat="39.9410641" lon="3.1487417">
<ele>72.31</ele>
<time>2016-10-15T10:35:10Z</time>
</trkpt>
<trkpt lat="39.9409142" lon="3.1484784">
<ele>72.56</ele>
<time>2016-10-15T10:35:13Z</time>
</trkpt>
<trkpt lat="39.9407783" lon="3.1482443">
<ele>71.90</ele>
<time>2016-10-15T10:35:16Z</time>
</trkpt>
<trkpt lat="39.9406351" lon="3.1479723">
<ele>70.89</ele>
<time>2016-10-15T10:35:19Z</time>
</trkpt>
<trkpt lat="39.9405071" lon="3.1477178">
<ele>69.02</ele>
<time>2016-10-15T10:35:22Z</time>
</trkpt>
<trkpt lat="39.9403861" lon="3.1474728">
<ele>67.38</ele>
<time>2016-10-15T10:35:25Z</time>
</trkpt>
<trkpt lat="39.9402458" lon="3.1472142">
<ele>64.88</ele>
<time>2016-10-15T10:35:28Z</time>
</trkpt>
<trkpt lat="39.9401221" lon="3.1469772">
<ele>64.11</ele>
<time>2016-10-15T10:35:31Z</time>
</trkpt>
<trkpt lat="39.9399893" lon="3.1467368">
<ele>64.36</ele>
<time>2016-10-15T10:35:34Z</time>
</trkpt>
<trkpt lat="39.9398390" lon="3.1464756">
<ele>62.40</ele>
<time>2016-10-15T10:35:37Z</time>
</trkpt>
<trkpt lat="39.9396890" lon="3.1462239">
<ele>59.81</ele>
<time>2016-10-15T10:35:40Z</time>
</trkpt>
<trkpt lat="39.9395417" lon="3.1459607">
<ele>59.30</ele>
<time>2016-10-15T10:35:43Z</time>
</trkpt>
<trkpt lat="39.9393902" lon="3.1456912">
<ele>59.72</ele>
<time>2016-10-15T10:35:46Z</time>
</trkpt>
<trkpt lat="39.9392546" lon="3.1454524">
<ele>59.78</ele>
<time>2016-10-15T10:35:49Z</time>
</trkpt>
<trkpt lat="39.9391342" lon="3.1452376">
<ele>58.42</ele>
<time>2016-10-15T10:35:52Z</time>
</trkpt>
<trkpt lat="39.9390170" lon="3.1450262">
<ele>57.98</ele>
<time>2016-10-15T10:35:55Z</time>
</trkpt>
<trkpt lat="39.9389011" lon="3.1448052">
<ele>58.24</ele>
<time>2016-10-15T10:35:58Z</time>
</trkpt>
<trkpt lat="39.9387823" lon="3.1445960">
<ele>58.18</ele>
<time>2016-10-15T10:36:01Z</time>
</trkpt>
<trkpt lat="39.9386401" lon="3.1443481">
<ele>58.01</ele>
<time>2016-10-15T10:36:05Z</time>
</trkpt>
<trkpt lat="39.9384991" lon="3.1441166">
<ele>59.13</ele>
<time>2016-10-15T10:36:08Z</time>
</trkpt>
<trkpt lat="39.9383360" lon="3.1439007">
<ele>56.67</ele>
<time>2016-10-15T10:36:11Z</time>
</trkpt>
<trkpt lat="39.9381347" lon="3.1436861">
<ele>54.91</ele>
<time>2016-10-15T10:36:14Z</time>
</trkpt>
<trkpt lat="39.9379921" lon="3.1435303">
<ele>54.12</ele>
<time>2016-10-15T10:36:16Z</time>
</trkpt>
<trkpt lat="39.9378212" lon="3.1433688">
<ele>53.18</ele>
<time>2016-10-15T10:36:18Z</time>
</trkpt>
<trkpt lat="39.9376343" lon="3.1432034">
<ele>52.64</ele>
<time>2016-10-15T10:36:20Z</time>
</trkpt>
<trkpt lat="39.9374808" lon="3.1430586">
<ele>51.62</ele>
<time>2016-10-15T10:36:22Z</time>
</trkpt>
<trkpt lat="39.9373183" lon="3.1428898">
<ele>50.74</ele>
<time>2016-10-15T10:36:24Z</time>
</trkpt>
<trkpt lat="39.9371461" lon="3.1427107">
<ele>51.12</ele>
<time>2016-10-15T10:36:26Z</time>
</trkpt>
<trkpt lat="39.9369952" lon="3.1425524">
<ele>51.08</ele>
<time>2016-10-15T10:36:28Z</time>
</trkpt>
<trkpt lat="39.9368360" lon="3.1423974">
<ele>50.42</ele>
<time>2016-10-15T10:36:30Z</time>
</trkpt>
<trkpt lat="39.9366850" lon="3.1422436">
<ele>49.10</ele>
<time>2016-10-15T10:36:32Z</time>
</trkpt>
<trkpt lat="39.9365222" lon="3.1420822">
<ele>48.67</ele>
<time>2016-10-15T10:36:34Z</time>
</trkpt>
<trkpt lat="39.9363741" lon="3.1419438">
<ele>48.10</ele>
<time>2016-10-15T10:36:36Z</time>
</trkpt>
<trkpt lat="39.9361716" lon="3.1417453">
<ele>48.10</ele>
<time>2016-10-15T10:36:39Z</time>
</trkpt>
<trkpt lat="39.9359855" lon="3.1415502">
<ele>48.73</ele>
<time>2016-10-15T10:36:42Z</time>
</trkpt>
<trkpt lat="39.9357917" lon="3.1414314">
<ele>49.03</ele>
<time>2016-10-15T10:36:45Z</time>
</trkpt>
<trkpt lat="39.9356204" lon="3.1413095">
<ele>47.46</ele>
<time>2016-10-15T10:36:48Z</time>
</trkpt>
<trkpt lat="39.9354120" lon="3.1410887">
<ele>45.85</ele>
<time>2016-10-15T10:36:51Z</time>
</trkpt>
<trkpt lat="39.9352672" lon="3.1409299">
<ele>44.66</ele>
<time>2016-10-15T10:36:53Z</time>
</trkpt>
<trkpt lat="39.9351555" lon="3.1407087">
<ele>43.96</ele>
<time>2016-10-15T10:36:55Z</time>
</trkpt>
<trkpt lat="39.9350654" lon="3.1404957">
<ele>44.23</ele>
<time>2016-10-15T10:36:57Z</time>
</trkpt>
<trkpt lat="39.9349452" lon="3.1401829">
<ele>45.93</ele>
<time>2016-10-15T10:37:00Z</time>
</trkpt>
<trkpt lat="39.9348352" lon="3.1398820">
<ele>46.25</ele>
<time>2016-10-15T10:37:03Z</time>
</trkpt>
<trkpt lat="39.9347158" lon="3.1395983">
<ele>46.58</ele>
<time>2016-10-15T10:37:06Z</time>
</trkpt>
<trkpt lat="39.9345848" lon="3.1393486">
<ele>44.85</ele>
<time>2016-10-15T10:37:09Z</time>
</trkpt>
<trkpt lat="39.9344556" lon="3.1390914">
<ele>42.72</ele>
<time>2016-10-15T10:37:12Z</time>
</trkpt>
<trkpt lat="39.9343046" lon="3.1388187">
<ele>39.88</ele>
<time>2016-10-15T10:37:15Z</time>
</trkpt>
<trkpt lat="39.9341917" lon="3.1386326">
<ele>38.54</ele>
<time>2016-10-15T10:37:17Z</time>
</trkpt>
<trkpt lat="39.9340672" lon="3.1384268">
<ele>38.20</ele>
<time>2016-10-15T10:37:19Z</time>
</trkpt>
<trkpt lat="39.9339366" lon="3.1382134">
<ele>36.99</ele>
<time>2016-10-15T10:37:21Z</time>
</trkpt>
<trkpt lat="39.9338106" lon="3.1379957">
<ele>35.20</ele>
<time>2016-10-15T10:37:23Z</time>
</trkpt>
<trkpt lat="39.9336848" lon="3.1377815">
<ele>34.07</ele>
<time>2016-10-15T10:37:25Z</time>
</trkpt>
<trkpt lat="39.9335617" lon="3.1375719">
<ele>32.85</ele>
<time>2016-10-15T10:37:27Z</time>
</trkpt>
<trkpt lat="39.9334907" lon="3.1372758">
<ele>31.48</ele>
<time>2016-10-15T10:37:29Z</time>
</trkpt>
<trkpt lat="39.9334437" lon="3.1369685">
<ele>30.20</ele>
<time>2016-10-15T10:37:31Z</time>
</trkpt>
<trkpt lat="39.9334124" lon="3.1366621">
<ele>28.50</ele>
<time>2016-10-15T10:37:33Z</time>
</trkpt>
<trkpt lat="39.9334039" lon="3.1363940">
<ele>26.66</ele>
<time>2016-10-15T10:37:35Z</time>
</trkpt>
<trkpt lat="39.9333720" lon="3.1361440">
<ele>25.28</ele>
<time>2016-10-15T10:37:37Z</time>
</trkpt>
<trkpt lat="39.9332796" lon="3.1359007">
<ele>24.46</ele>
<time>2016-10-15T10:37:39Z</time>
</trkpt>
<trkpt lat="39.9331513" lon="3.1357024">
<ele>23.27</ele>
<time>2016-10-15T10:37:41Z</time>
</trkpt>
<trkpt lat="39.9329687" lon="3.1355746">
<ele>21.20</ele>
<time>2016-10-15T10:37:43Z</time>
</trkpt>
<trkpt lat="39.9327839" lon="3.1354395">
<ele>19.20</ele>
<time>2016-10-15T10:37:45Z</time>
</trkpt>
<trkpt lat="39.9325957" lon="3.1353240">
<ele>17.24</ele>
<time>2016-10-15T10:37:47Z</time>
</trkpt>
<trkpt lat="39.9323846" lon="3.1352145">
<ele>16.11</ele>
<time>2016-10-15T10:37:49Z</time>
</trkpt>
<trkpt lat="39.9321745" lon="3.1351067">
<ele>15.02</ele>
<time>2016-10-15T10:37:51Z</time>
</trkpt>
<trkpt lat="39.9319688" lon="3.1350195">
<ele>12.91</ele>
<time>2016-10-15T10:37:53Z</time>
</trkpt>
<trkpt lat="39.9317575" lon="3.1349379">
<ele>11.45</ele>
<time>2016-10-15T10:37:55Z</time>
</trkpt>
<trkpt lat="39.9315426" lon="3.1348509">
<ele>10.94</ele>
<time>2016-10-15T10:37:57Z</time>
</trkpt>
<trkpt lat="39.9313503" lon="3.1347406">
<ele>10.76</ele>
<time>2016-10-15T10:37:59Z</time>
</trkpt>
<trkpt lat="39.9311609" lon="3.1346284">
<ele>11.62</ele>
<time>2016-10-15T10:38:01Z</time>
</trkpt>
<trkpt lat="39.9309719" lon="3.1345121">
<ele>11.71</ele>
<time>2016-10-15T10:38:03Z</time>
</trkpt>
<trkpt lat="39.9307974" lon="3.1344015">
<ele>11.39</ele>
<time>2016-10-15T10:38:05Z</time>
</trkpt>
<trkpt lat="39.9306199" lon="3.1342967">
<ele>11.94</ele>
<time>2016-10-15T10:38:07Z</time>
</trkpt>
<trkpt lat="39.9304547" lon="3.1341930">
<ele>12.25</ele>
<time>2016-10-15T10:38:09Z</time>
</trkpt>
<trkpt lat="39.9302768" lon="3.1340967">
<ele>12.42</ele>
<time>2016-10-15T10:38:11Z</time>
</trkpt>
<trkpt lat="39.9299969" lon="3.1340462">
<ele>11.69</ele>
<time>2016-10-15T10:38:14Z</time>
</trkpt>
<trkpt lat="39.9297582" lon="3.1339992">
<ele>8.77</ele>
<time>2016-10-15T10:38:17Z</time>
</trkpt>
<trkpt lat="39.9295387" lon="3.1339438">
<ele>6.94</ele>
<time>2016-10-15T10:38:20Z</time>
</trkpt>
<trkpt lat="39.9293268" lon="3.1338714">
<ele>7.65</ele>
<time>2016-10-15T10:38:23Z</time>
</trkpt>
<trkpt lat="39.9291936" lon="3.1336462">
<ele>7.31</ele>
<time>2016-10-15T10:38:27Z</time>
</trkpt>
<trkpt lat="39.9292045" lon="3.1333670">
<ele>5.37</ele>
<time>2016-10-15T10:38:31Z</time>
</trkpt>
<trkpt lat="39.9292267" lon="3.1331087">
<ele>4.03</ele>
<time>2016-10-15T10:38:36Z</time>
</trkpt>
<trkpt lat="39.9292717" lon="3.1328698">
<ele>7.90</ele>
<time>2016-10-15T10:38:41Z</time>
</trkpt>
<trkpt lat="39.9293263" lon="3.1326421">
<ele>9.25</ele>
<time>2016-10-15T10:38:46Z</time>
</trkpt>
<trkpt lat="39.9293838" lon="3.1324004">
<ele>10.61</ele>
<time>2016-10-15T10:38:51Z</time>
</trkpt>
<trkpt lat="39.9294487" lon="3.1321542">
<ele>10.78</ele>
<time>2016-10-15T10:38:57Z</time>
</trkpt>
<trkpt lat="39.9295158" lon="3.1319245">
<ele>12.22</ele>
<time>2016-10-15T10:39:02Z</time>
</trkpt>
<trkpt lat="39.9295731" lon="3.1316522">
<ele>13.08</ele>
<time>2016-10-15T10:39:07Z</time>
</trkpt>
<trkpt lat="39.9296356" lon="3.1314025">
<ele>14.10</ele>
<time>2016-10-15T10:39:14Z</time>
</trkpt>
<trkpt lat="39.9296713" lon="3.1311666">
<ele>14.92</ele>
<time>2016-10-15T10:39:20Z</time>
</trkpt>
<trkpt lat="39.9297399" lon="3.1309392">
<ele>15.72</ele>
<time>2016-10-15T10:39:25Z</time>
</trkpt>
<trkpt lat="39.9297991" lon="3.1306882">
<ele>16.57</ele>
<time>2016-10-15T10:39:32Z</time>
</trkpt>
<trkpt lat="39.9298887" lon="3.1304759">
<ele>18.37</ele>
<time>2016-10-15T10:39:41Z</time>
</trkpt>
<trkpt lat="39.9300267" lon="3.1303134">
<ele>19.82</ele>
<time>2016-10-15T10:39:47Z</time>
</trkpt>
<trkpt lat="39.9301877" lon="3.1301794">
<ele>21.79</ele>
<time>2016-10-15T10:39:56Z</time>
</trkpt>
<trkpt lat="39.9303411" lon="3.1300216">
<ele>23.68</ele>
<time>2016-10-15T10:40:02Z</time>
</trkpt>
<trkpt lat="39.9305041" lon="3.1298735">
<ele>26.13</ele>
<time>2016-10-15T10:40:10Z</time>
</trkpt>
<trkpt lat="39.9306604" lon="3.1297240">
<ele>27.99</ele>
<time>2016-10-15T10:40:16Z</time>
</trkpt>
<trkpt lat="39.9308313" lon="3.1295784">
<ele>30.56</ele>
<time>2016-10-15T10:40:25Z</time>
</trkpt>
<trkpt lat="39.9309925" lon="3.1294511">
<ele>32.95</ele>
<time>2016-10-15T10:40:33Z</time>
</trkpt>
<trkpt lat="39.9311901" lon="3.1294015">
<ele>36.17</ele>
<time>2016-10-15T10:40:42Z</time>
</trkpt>
<trkpt lat="39.9313982" lon="3.1293845">
<ele>40.60</ele>
<time>2016-10-15T10:40:49Z</time>
</trkpt>
<trkpt lat="39.9315785" lon="3.1293979">
<ele>43.53</ele>
<time>2016-10-15T10:40:57Z</time>
</trkpt>
<trkpt lat="39.9317574" lon="3.1294783">
<ele>46.08</ele>
<time>2016-10-15T10:41:06Z</time>
</trkpt>
<trkpt lat="39.9319331" lon="3.1295839">
<ele>48.39</ele>
<time>2016-10-15T10:41:14Z</time>
</trkpt>
<trkpt lat="39.9320925" lon="3.1297082">
<ele>50.11</ele>
<time>2016-10-15T10:41:22Z</time>
</trkpt>
<trkpt lat="39.9322540" lon="3.1298764">
<ele>52.63</ele>
<time>2016-10-15T10:41:32Z</time>
</trkpt>
<trkpt lat="39.9323810" lon="3.1300556">
<ele>54.25</ele>
<time>2016-10-15T10:41:39Z</time>
</trkpt>
<trkpt lat="39.9325125" lon="3.1302290">
<ele>56.05</ele>
<time>2016-10-15T10:41:45Z</time>
</trkpt>
<trkpt lat="39.9326590" lon="3.1303787">
<ele>57.34</ele>
<time>2016-10-15T10:41:53Z</time>
</trkpt>
<trkpt lat="39.9328109" lon="3.1305095">
<ele>57.70</ele>
<time>2016-10-15T10:42:03Z</time>
</trkpt>
<trkpt lat="39.9327885" lon="3.1302566">
<ele>58.44</ele>
<time>2016-10-15T10:42:35Z</time>
</trkpt>
<trkpt lat="39.9327171" lon="3.1300336">
<ele>58.27</ele>
<time>2016-10-15T10:42:42Z</time>
</trkpt>
<trkpt lat="39.9326211" lon="3.1298037">
<ele>58.18</ele>
<time>2016-10-15T10:42:48Z</time>
</trkpt>
<trkpt lat="39.9325333" lon="3.1295620">
<ele>58.24</ele>
<time>2016-10-15T10:42:54Z</time>
</trkpt>
<trkpt lat="39.9324393" lon="3.1293562">
<ele>58.72</ele>
<time>2016-10-15T10:43:02Z</time>
</trkpt>
<trkpt lat="39.9323099" lon="3.1291632">
<ele>59.07</ele>
<time>2016-10-15T10:43:10Z</time>
</trkpt>
<trkpt lat="39.9322136" lon="3.1289508">
<ele>59.81</ele>
<time>2016-10-15T10:43:18Z</time>
</trkpt>
<trkpt lat="39.9321884" lon="3.1287118">
<ele>60.35</ele>
<time>2016-10-15T10:43:24Z</time>
</trkpt>
<trkpt lat="39.9321823" lon="3.1284665">
<ele>61.67</ele>
<time>2016-10-15T10:43:32Z</time>
</trkpt>
<trkpt lat="39.9322014" lon="3.1282202">
<ele>63.26</ele>
<time>2016-10-15T10:43:40Z</time>
</trkpt>
<trkpt lat="39.9322624" lon="3.1279909">
<ele>64.27</ele>
<time>2016-10-15T10:43:46Z</time>
</trkpt>
<trkpt lat="39.9323310" lon="3.1277662">
<ele>65.30</ele>
<time>2016-10-15T10:43:53Z</time>
</trkpt>
<trkpt lat="39.9324377" lon="3.1275466">
<ele>66.44</ele>
<time>2016-10-15T10:44:00Z</time>
</trkpt>
<trkpt lat="39.9325464" lon="3.1273422">
<ele>68.08</ele>
<time>2016-10-15T10:44:07Z</time>
</trkpt>
<trkpt lat="39.9326911" lon="3.1271635">
<ele>69.88</ele>
<time>2016-10-15T10:44:15Z</time>
</trkpt>
<trkpt lat="39.9328513" lon="3.1269995">
<ele>71.41</ele>
<time>2016-10-15T10:44:24Z</time>
</trkpt>
<trkpt lat="39.9329832" lon="3.1268207">
<ele>72.98</ele>
<time>2016-10-15T10:44:32Z</time>
</trkpt>
<trkpt lat="39.9331076" lon="3.1266227">
<ele>74.60</ele>
<time>2016-10-15T10:44:40Z</time>
</trkpt>
<trkpt lat="39.9332249" lon="3.1264392">
<ele>76.11</ele>
<time>2016-10-15T10:44:46Z</time>
</trkpt>
<trkpt lat="39.9333548" lon="3.1262360">
<ele>78.04</ele>
<time>2016-10-15T10:44:53Z</time>
</trkpt>
<trkpt lat="39.9334686" lon="3.1260161">
<ele>79.92</ele>
<time>2016-10-15T10:45:00Z</time>
</trkpt>
<trkpt lat="39.9335777" lon="3.1257780">
<ele>81.71</ele>
<time>2016-10-15T10:45:08Z</time>
</trkpt>
<trkpt lat="39.9336174" lon="3.1255410">
<ele>82.84</ele>
<time>2016-10-15T10:45:16Z</time>
</trkpt>
<trkpt lat="39.9334867" lon="3.1253709">
<ele>84.12</ele>
<time>2016-10-15T10:45:23Z</time>
</trkpt>
<trkpt lat="39.9332900" lon="3.1253160">
<ele>85.17</ele>
<time>2016-10-15T10:45:31Z</time>
</trkpt>
<trkpt lat="39.9330934" lon="3.1253006">
<ele>85.27</ele>
<time>2016-10-15T10:45:39Z</time>
</trkpt>
<trkpt lat="39.9329060" lon="3.1252874">
<ele>85.48</ele>
<time>2016-10-15T10:45:48Z</time>
</trkpt>
<trkpt lat="39.9327131" lon="3.1253001">
<ele>86.26</ele>
<time>2016-10-15T10:45:55Z</time>
</trkpt>
<trkpt lat="39.9325149" lon="3.1253165">
<ele>86.79</ele>
<time>2016-10-15T10:46:01Z</time>
</trkpt>
<trkpt lat="39.9323574" lon="3.1251970">
<ele>88.81</ele>
<time>2016-10-15T10:46:08Z</time>
</trkpt>
<trkpt lat="39.9322038" lon="3.1250476">
<ele>91.18</ele>
<time>2016-10-15T10:46:15Z</time>
</trkpt>
<trkpt lat="39.9320870" lon="3.1248544">
<ele>93.63</ele>
<time>2016-10-15T10:46:23Z</time>
</trkpt>
<trkpt lat="39.9320365" lon="3.1246112">
<ele>97.83</ele>
<time>2016-10-15T10:46:34Z</time>
</trkpt>
<trkpt lat="39.9319520" lon="3.1243823">
<ele>101.96</ele>
<time>2016-10-15T10:46:43Z</time>
</trkpt>
<trkpt lat="39.9318945" lon="3.1241354">
<ele>105.34</ele>
<time>2016-10-15T10:46:52Z</time>
</trkpt>
<trkpt lat="39.9318759" lon="3.1238712">
<ele>107.15</ele>
<time>2016-10-15T10:46:59Z</time>
</trkpt>
<trkpt lat="39.9318286" lon="3.1236305">
<ele>109.25</ele>
<time>2016-10-15T10:47:07Z</time>
</trkpt>
<trkpt lat="39.9317554" lon="3.1234043">
<ele>111.41</ele>
<time>2016-10-15T10:47:16Z</time>
</trkpt>
<trkpt lat="39.9315898" lon="3.1232968">
<ele>114.69</ele>
<time>2016-10-15T10:47:26Z</time>
</trkpt>
<trkpt lat="39.9314055" lon="3.1232439">
<ele>117.47</ele>
<time>2016-10-15T10:47:37Z</time>
</trkpt>
<trkpt lat="39.9312255" lon="3.1232744">
<ele>118.18</ele>
<time>2016-10-15T10:47:43Z</time>
</trkpt>
<trkpt lat="39.9310448" lon="3.1232549">
<ele>118.97</ele>
<time>2016-10-15T10:47:49Z</time>
</trkpt>
<trkpt lat="39.9308607" lon="3.1232498">
<ele>119.54</ele>
<time>2016-10-15T10:47:57Z</time>
</trkpt>
<trkpt lat="39.9307087" lon="3.1233774">
<ele>120.55</ele>
<time>2016-10-15T10:48:10Z</time>
</trkpt>
<trkpt lat="39.9306196" lon="3.1236094">
<ele>121.91</ele>
<time>2016-10-15T10:48:19Z</time>
</trkpt>
<trkpt lat="39.9305579" lon="3.1238303">
<ele>122.66</ele>
<time>2016-10-15T10:48:26Z</time>
</trkpt>
<trkpt lat="39.9304332" lon="3.1240351">
<ele>123.66</ele>
<time>2016-10-15T10:48:32Z</time>
</trkpt>
<trkpt lat="39.9304260" lon="3.1243109">
<ele>124.74</ele>
<time>2016-10-15T10:48:41Z</time>
</trkpt>
<trkpt lat="39.9304661" lon="3.1245433">
<ele>124.79</ele>
<time>2016-10-15T10:48:50Z</time>
</trkpt>
<trkpt lat="39.9302707" lon="3.1245494">
<ele>125.02</ele>
<time>2016-10-15T10:49:00Z</time>
</trkpt>
<trkpt lat="39.9302172" lon="3.1243118">
<ele>127.62</ele>
<time>2016-10-15T10:49:12Z</time>
</trkpt>
<trkpt lat="39.9302205" lon="3.1240516">
<ele>131.68</ele>
<time>2016-10-15T10:49:21Z</time>
</trkpt>
<trkpt lat="39.9302340" lon="3.1237992">
<ele>133.84</ele>
<time>2016-10-15T10:49:27Z</time>
</trkpt>
<trkpt lat="39.9302523" lon="3.1235366">
<ele>136.62</ele>
<time>2016-10-15T10:49:35Z</time>
</trkpt>
<trkpt lat="39.9302418" lon="3.1232967">
<ele>139.89</ele>
<time>2016-10-15T10:49:44Z</time>
</trkpt>
<trkpt lat="39.9303313" lon="3.1230660">
<ele>142.55</ele>
<time>2016-10-15T10:49:51Z</time>
</trkpt>
<trkpt lat="39.9304261" lon="3.1228000">
<ele>144.28</ele>
<time>2016-10-15T10:49:56Z</time>
</trkpt>
<trkpt lat="39.9305428" lon="3.1225884">
<ele>146.85</ele>
<time>2016-10-15T10:50:05Z</time>
</trkpt>
<trkpt lat="39.9306987" lon="3.1224239">
<ele>147.28</ele>
<time>2016-10-15T10:50:13Z</time>
</trkpt>
<trkpt lat="39.9308162" lon="3.1222153">
<ele>147.61</ele>
<time>2016-10-15T10:50:21Z</time>
</trkpt>
<trkpt lat="39.9309606" lon="3.1220377">
<ele>147.76</ele>
<time>2016-10-15T10:50:26Z</time>
</trkpt>
<trkpt lat="39.9308541" lon="3.1218285">
<ele>147.77</ele>
<time>2016-10-15T10:50:45Z</time>
</trkpt>
<trkpt lat="39.9306826" lon="3.1217578">
<ele>148.38</ele>
<time>2016-10-15T10:50:58Z</time>
</trkpt>
<trkpt lat="39.9305729" lon="3.1215458">
<ele>151.26</ele>
<time>2016-10-15T10:51:09Z</time>
</trkpt>
<trkpt lat="39.9305929" lon="3.1213106">
<ele>154.17</ele>
<time>2016-10-15T10:51:19Z</time>
</trkpt>
<trkpt lat="39.9306352" lon="3.1210490">
<ele>155.89</ele>
<time>2016-10-15T10:51:26Z</time>
</trkpt>
<trkpt lat="39.9306567" lon="3.1208079">
<ele>159.07</ele>
<time>2016-10-15T10:51:38Z</time>
</trkpt>
<trkpt lat="39.9305833" lon="3.1205701">
<ele>162.19</ele>
<time>2016-10-15T10:51:51Z</time>
</trkpt>
<trkpt lat="39.9304984" lon="3.1203570">
<ele>163.72</ele>
<time>2016-10-15T10:52:01Z</time>
</trkpt>
<trkpt lat="39.9304048" lon="3.1201460">
<ele>166.08</ele>
<time>2016-10-15T10:52:10Z</time>
</trkpt>
<trkpt lat="39.9303287" lon="3.1199217">
<ele>167.78</ele>
<time>2016-10-15T10:52:18Z</time>
</trkpt>
<trkpt lat="39.9303344" lon="3.1196691">
<ele>170.95</ele>
<time>2016-10-15T10:52:24Z</time>
</trkpt>
<trkpt lat="39.9303503" lon="3.1193991">
<ele>176.41</ele>
<time>2016-10-15T10:52:29Z</time>
</trkpt>
<trkpt lat="39.9303610" lon="3.1191104">
<ele>183.48</ele>
<time>2016-10-15T10:52:34Z</time>
</trkpt>
<trkpt lat="39.9303522" lon="3.1188190">
<ele>186.03</ele>
<time>2016-10-15T10:52:39Z</time>
</trkpt>
<trkpt lat="39.9303593" lon="3.1185353">
<ele>186.77</ele>
<time>2016-10-15T10:52:44Z</time>
</trkpt>
<trkpt lat="39.9304449" lon="3.1182605">
<ele>187.01</ele>
<time>2016-10-15T10:52:49Z</time>
</trkpt>
<trkpt lat="39.9304981" lon="3.1179700">
<ele>186.83</ele>
<time>2016-10-15T10:52:53Z</time>
</trkpt>
<trkpt lat="39.9305307" lon="3.1177297">
<ele>185.71</ele>
<time>2016-10-15T10:52:56Z</time>
</trkpt>
<trkpt lat="39.9305735" lon="3.1174201">
<ele>185.75</ele>
<time>2016-10-15T10:53:00Z</time>
</trkpt>
<trkpt lat="39.9305996" lon="3.1171615">
<ele>184.74</ele>
<time>2016-10-15T10:53:03Z</time>
</trkpt>
<trkpt lat="39.9305960" lon="3.1169007">
<ele>183.49</ele>
<time>2016-10-15T10:53:07Z</time>
</trkpt>
<trkpt lat="39.9305519" lon="3.1166594">
<ele>182.12</ele>
<time>2016-10-15T10:53:12Z</time>
</trkpt>
<trkpt lat="39.9304757" lon="3.1164435">
<ele>181.47</ele>
<time>2016-10-15T10:53:18Z</time>
</trkpt>
<trkpt lat="39.9304330" lon="3.1162000">
<ele>181.10</ele>
<time>2016-10-15T10:53:25Z</time>
</trkpt>
<trkpt lat="39.9304297" lon="3.1159408">
<ele>181.15</ele>
<time>2016-10-15T10:53:31Z</time>
</trkpt>
<trkpt lat="39.9303865" lon="3.1157067">
<ele>181.71</ele>
<time>2016-10-15T10:53:39Z</time>
</trkpt>
<trkpt lat="39.9302770" lon="3.1154988">
<ele>182.28</ele>
<time>2016-10-15T10:53:46Z</time>
</trkpt>
<trkpt lat="39.9301459" lon="3.1153150">
<ele>182.35</ele>
<time>2016-10-15T10:53:54Z</time>
</trkpt>
<trkpt lat="39.9299991" lon="3.1151585">
<ele>182.46</ele>
<time>2016-10-15T10:54:02Z</time>
</trkpt>
<trkpt lat="39.9298662" lon="3.1149927">
<ele>183.30</ele>
<time>2016-10-15T10:54:12Z</time>
</trkpt>
<trkpt lat="39.9297257" lon="3.1148435">
<ele>184.40</ele>
<time>2016-10-15T10:54:20Z</time>
</trkpt>
<trkpt lat="39.9295664" lon="3.1147018">
<ele>185.65</ele>
<time>2016-10-15T10:54:30Z</time>
</trkpt>
<trkpt lat="39.9295117" lon="3.1144675">
<ele>186.41</ele>
<time>2016-10-15T10:54:38Z</time>
</trkpt>
<trkpt lat="39.9294586" lon="3.1142322">
<ele>185.52</ele>
<time>2016-10-15T10:54:48Z</time>
</trkpt>
<trkpt lat="39.9293782" lon="3.1140134">
<ele>186.54</ele>
<time>2016-10-15T10:54:58Z</time>
</trkpt>
<trkpt lat="39.9293750" lon="3.1137413">
<ele>187.20</ele>
<time>2016-10-15T10:55:07Z</time>
</trkpt>
<trkpt lat="39.9293994" lon="3.1134986">
<ele>187.31</ele>
<time>2016-10-15T10:55:17Z</time>
</trkpt>
<trkpt lat="39.9293819" lon="3.1132547">
<ele>188.02</ele>
<time>2016-10-15T10:55:25Z</time>
</trkpt>
<trkpt lat="39.9293730" lon="3.1129958">
<ele>188.33</ele>
<time>2016-10-15T10:55:33Z</time>
</trkpt>
<trkpt lat="39.9293815" lon="3.1127548">
<ele>190.16</ele>
<time>2016-10-15T10:55:41Z</time>
</trkpt>
<trkpt lat="39.9293680" lon="3.1125104">
<ele>192.17</ele>
<time>2016-10-15T10:55:50Z</time>
</trkpt>
<trkpt lat="39.9293447" lon="3.1122606">
<ele>193.24</ele>
<time>2016-10-15T10:55:58Z</time>
</trkpt>
<trkpt lat="39.9293318" lon="3.1120078">
<ele>194.46</ele>
<time>2016-10-15T10:56:08Z</time>
</trkpt>
<trkpt lat="39.9291836" lon="3.1118513">
<ele>196.31</ele>
<time>2016-10-15T10:56:20Z</time>
</trkpt>
<trkpt lat="39.9291574" lon="3.1120878">
<ele>195.32</ele>
<time>2016-10-15T10:56:31Z</time>
</trkpt>
<trkpt lat="39.9292006" lon="3.1123197">
<ele>194.97</ele>
<time>2016-10-15T10:56:39Z</time>
</trkpt>
<trkpt lat="39.9292582" lon="3.1125565">
<ele>195.04</ele>
<time>2016-10-15T10:56:47Z</time>
</trkpt>
<trkpt lat="39.9293084" lon="3.1127927">
<ele>195.50</ele>
<time>2016-10-15T10:56:54Z</time>
</trkpt>
<trkpt lat="39.9291251" lon="3.1128244">
<ele>196.87</ele>
<time>2016-10-15T10:57:05Z</time>
</trkpt>
<trkpt lat="39.9290297" lon="3.1125936">
<ele>201.88</ele>
<time>2016-10-15T10:57:19Z</time>
</trkpt>
<trkpt lat="39.9289764" lon="3.1123469">
<ele>205.39</ele>
<time>2016-10-15T10:57:28Z</time>
</trkpt>
<trkpt lat="39.9288889" lon="3.1121332">
<ele>208.87</ele>
<time>2016-10-15T10:57:37Z</time>
</trkpt>
<trkpt lat="39.9288268" lon="3.1118902">
<ele>211.41</ele>
<time>2016-10-15T10:57:45Z</time>
</trkpt>
<trkpt lat="39.9287849" lon="3.1116510">
<ele>212.72</ele>
<time>2016-10-15T10:57:52Z</time>
</trkpt>
<trkpt lat="39.9287441" lon="3.1114087">
<ele>213.38</ele>
<time>2016-10-15T10:58:00Z</time>
</trkpt>
<trkpt lat="39.9287693" lon="3.1111546">
<ele>214.39</ele>
<time>2016-10-15T10:58:10Z</time>
</trkpt>
<trkpt lat="39.9288489" lon="3.1109377">
<ele>214.84</ele>
<time>2016-10-15T10:58:21Z</time>
</trkpt>
<trkpt lat="39.9288162" lon="3.1106708">
<ele>215.79</ele>
<time>2016-10-15T10:58:31Z</time>
</trkpt>
<trkpt lat="39.9287424" lon="3.1104262">
<ele>216.07</ele>
<time>2016-10-15T10:58:37Z</time>
</trkpt>
<trkpt lat="39.9286327" lon="3.1102331">
<ele>215.47</ele>
<time>2016-10-15T10:58:41Z</time>
</trkpt>
<trkpt lat="39.9284406" lon="3.1101254">
<ele>215.11</ele>
<time>2016-10-15T10:58:44Z</time>
</trkpt>
<trkpt lat="39.9282351" lon="3.1100850">
<ele>214.02</ele>
<time>2016-10-15T10:58:47Z</time>
</trkpt>
<trkpt lat="39.9279978" lon="3.1100387">
<ele>211.65</ele>
<time>2016-10-15T10:58:50Z</time>
</trkpt>
<trkpt lat="39.9277386" lon="3.1099361">
<ele>209.84</ele>
<time>2016-10-15T10:58:53Z</time>
</trkpt>
<trkpt lat="39.9275666" lon="3.1098646">
<ele>209.20</ele>
<time>2016-10-15T10:58:55Z</time>
</trkpt>
<trkpt lat="39.9273246" lon="3.1097494">
<ele>207.77</ele>
<time>2016-10-15T10:58:58Z</time>
</trkpt>
<trkpt lat="39.9271284" lon="3.1097691">
<ele>204.85</ele>
<time>2016-10-15T10:59:01Z</time>
</trkpt>
<trkpt lat="39.9268933" lon="3.1097705">
<ele>201.30</ele>
<time>2016-10-15T10:59:04Z</time>
</trkpt>
<trkpt lat="39.9267365" lon="3.1096532">
<ele>199.18</ele>
<time>2016-10-15T10:59:06Z</time>
</trkpt>
<trkpt lat="39.9265158" lon="3.1094745">
<ele>196.75</ele>
<time>2016-10-15T10:59:09Z</time>
</trkpt>
<trkpt lat="39.9263285" lon="3.1094256">
<ele>195.36</ele>
<time>2016-10-15T10:59:11Z</time>
</trkpt>
<trkpt lat="39.9261029" lon="3.1094289">
<ele>192.89</ele>
<time>2016-10-15T10:59:14Z</time>
</trkpt>
<trkpt lat="39.9258700" lon="3.1092947">
<ele>190.20</ele>
<time>2016-10-15T10:59:17Z</time>
</trkpt>
<trkpt lat="39.9257035" lon="3.1090256">
<ele>188.50</ele>
<time>2016-10-15T10:59:20Z</time>
</trkpt>
<trkpt lat="39.9255636" lon="3.1087410">
<ele>188.45</ele>
<time>2016-10-15T10:59:23Z</time>
</trkpt>
<trkpt lat="39.9253846" lon="3.1085936">
<ele>187.99</ele>
<time>2016-10-15T10:59:26Z</time>
</trkpt>
<trkpt lat="39.9251393" lon="3.1085402">
<ele>185.24</ele>
<time>2016-10-15T10:59:29Z</time>
</trkpt>
<trkpt lat="39.9249093" lon="3.1083965">
<ele>181.93</ele>
<time>2016-10-15T10:59:32Z</time>
</trkpt>
<trkpt lat="39.9247562" lon="3.1081108">
<ele>179.99</ele>
<time>2016-10-15T10:59:35Z</time>
</trkpt>
<trkpt lat="39.9246762" lon="3.1078991">
<ele>178.24</ele>
<time>2016-10-15T10:59:37Z</time>
</trkpt>
<trkpt lat="39.9245474" lon="3.1076673">
<ele>176.73</ele>
<time>2016-10-15T10:59:40Z</time>
</trkpt>
<trkpt lat="39.9243307" lon="3.1075847">
<ele>173.76</ele>
<time>2016-10-15T10:59:43Z</time>
</trkpt>
<trkpt lat="39.9241548" lon="3.1076403">
<ele>171.39</ele>
<time>2016-10-15T10:59:45Z</time>
</trkpt>
<trkpt lat="39.9239750" lon="3.1077246">
<ele>169.13</ele>
<time>2016-10-15T10:59:47Z</time>
</trkpt>
<trkpt lat="39.9237941" lon="3.1078122">
<ele>167.26</ele>
<time>2016-10-15T10:59:49Z</time>
</trkpt>
<trkpt lat="39.9236114" lon="3.1078799">
<ele>165.65</ele>
<time>2016-10-15T10:59:51Z</time>
</trkpt>
<trkpt lat="39.9234167" lon="3.1078721">
<ele>164.56</ele>
<time>2016-10-15T10:59:53Z</time>
</trkpt>
<trkpt lat="39.9232066" lon="3.1078451">
<ele>163.51</ele>
<time>2016-10-15T10:59:55Z</time>
</trkpt>
<trkpt lat="39.9230045" lon="3.1078044">
<ele>162.53</ele>
<time>2016-10-15T10:59:57Z</time>
</trkpt>
<trkpt lat="39.9228083" lon="3.1077485">
<ele>161.17</ele>
<time>2016-10-15T10:59:59Z</time>
</trkpt>
<trkpt lat="39.9226242" lon="3.1076587">
<ele>159.72</ele>
<time>2016-10-15T11:00:01Z</time>
</trkpt>
<trkpt lat="39.9224329" lon="3.1075599">
<ele>157.90</ele>
<time>2016-10-15T11:00:03Z</time>
</trkpt>
<trkpt lat="39.9222382" lon="3.1074708">
<ele>156.44</ele>
<time>2016-10-15T11:00:05Z</time>
</trkpt>
<trkpt lat="39.9220371" lon="3.1074064">
<ele>154.70</ele>
<time>2016-10-15T11:00:07Z</time>
</trkpt>
<trkpt lat="39.9218282" lon="3.1073519">
<ele>153.46</ele>
<time>2016-10-15T11:00:09Z</time>
</trkpt>
<trkpt lat="39.9216137" lon="3.1072998">
<ele>152.17</ele>
<time>2016-10-15T11:00:11Z</time>
</trkpt>
<trkpt lat="39.9213809" lon="3.1072308">
<ele>150.55</ele>
<time>2016-10-15T11:00:13Z</time>
</trkpt>
<trkpt lat="39.9211710" lon="3.1071614">
<ele>148.72</ele>
<time>2016-10-15T11:00:15Z</time>
</trkpt>
<trkpt lat="39.9209507" lon="3.1071040">
<ele>146.44</ele>
<time>2016-10-15T11:00:17Z</time>
</trkpt>
<trkpt lat="39.9207280" lon="3.1070716">
<ele>143.36</ele>
<time>2016-10-15T11:00:19Z</time>
</trkpt>
<trkpt lat="39.9205070" lon="3.1070586">
<ele>140.35</ele>
<time>2016-10-15T11:00:21Z</time>
</trkpt>
<trkpt lat="39.9202796" lon="3.1070556">
<ele>137.93</ele>
<time>2016-10-15T11:00:23Z</time>
</trkpt>
<trkpt lat="39.9200476" lon="3.1070615">
<ele>136.31</ele>
<time>2016-10-15T11:00:25Z</time>
</trkpt>
<trkpt lat="39.9198194" lon="3.1070568">
<ele>134.76</ele>
<time>2016-10-15T11:00:27Z</time>
</trkpt>
<trkpt lat="39.9195941" lon="3.1070010">
<ele>133.75</ele>
<time>2016-10-15T11:00:29Z</time>
</trkpt>
<trkpt lat="39.9193786" lon="3.1068983">
<ele>132.53</ele>
<time>2016-10-15T11:00:31Z</time>
</trkpt>
<trkpt lat="39.9191706" lon="3.1067771">
<ele>131.06</ele>
<time>2016-10-15T11:00:33Z</time>
</trkpt>
<trkpt lat="39.9189608" lon="3.1066405">
<ele>128.79</ele>
<time>2016-10-15T11:00:35Z</time>
</trkpt>
<trkpt lat="39.9187594" lon="3.1065191">
<ele>127.04</ele>
<time>2016-10-15T11:00:37Z</time>
</trkpt>
<trkpt lat="39.9185764" lon="3.1064212">
<ele>125.71</ele>
<time>2016-10-15T11:00:39Z</time>
</trkpt>
<trkpt lat="39.9183934" lon="3.1063059">
<ele>124.27</ele>
<time>2016-10-15T11:00:41Z</time>
</trkpt>
<trkpt lat="39.9182038" lon="3.1061716">
<ele>122.54</ele>
<time>2016-10-15T11:00:43Z</time>
</trkpt>
<trkpt lat="39.9180290" lon="3.1060413">
<ele>121.02</ele>
<time>2016-10-15T11:00:45Z</time>
</trkpt>
<trkpt lat="39.9178619" lon="3.1059242">
<ele>120.10</ele>
<time>2016-10-15T11:00:47Z</time>
</trkpt>
<trkpt lat="39.9176321" lon="3.1057969">
<ele>118.09</ele>
<time>2016-10-15T11:00:50Z</time>
</trkpt>
<trkpt lat="39.9174192" lon="3.1057275">
<ele>116.59</ele>
<time>2016-10-15T11:00:53Z</time>
</trkpt>
<trkpt lat="39.9172258" lon="3.1057655">
<ele>113.06</ele>
<time>2016-10-15T11:00:56Z</time>
</trkpt>
<trkpt lat="39.9171265" lon="3.1060219">
<ele>109.71</ele>
<time>2016-10-15T11:01:00Z</time>
</trkpt>
<trkpt lat="39.9171491" lon="3.1062703">
<ele>107.54</ele>
<time>2016-10-15T11:01:03Z</time>
</trkpt>
<trkpt lat="39.9172030" lon="3.1065508">
<ele>105.05</ele>
<time>2016-10-15T11:01:06Z</time>
</trkpt>
<trkpt lat="39.9172652" lon="3.1068322">
<ele>102.63</ele>
<time>2016-10-15T11:01:09Z</time>
</trkpt>
<trkpt lat="39.9172073" lon="3.1070942">
<ele>100.36</ele>
<time>2016-10-15T11:01:12Z</time>
</trkpt>
<trkpt lat="39.9170799" lon="3.1073059">
<ele>98.85</ele>
<time>2016-10-15T11:01:15Z</time>
</trkpt>
<trkpt lat="39.9169061" lon="3.1075407">
<ele>98.71</ele>
<time>2016-10-15T11:01:18Z</time>
</trkpt>
<trkpt lat="39.9167125" lon="3.1077694">
<ele>97.84</ele>
<time>2016-10-15T11:01:21Z</time>
</trkpt>
<trkpt lat="39.9165223" lon="3.1079500">
<ele>96.77</ele>
<time>2016-10-15T11:01:24Z</time>
</trkpt>
<trkpt lat="39.9162977" lon="3.1079211">
<ele>95.29</ele>
<time>2016-10-15T11:01:27Z</time>
</trkpt>
<trkpt lat="39.9161348" lon="3.1077366">
<ele>95.39</ele>
<time>2016-10-15T11:01:30Z</time>
</trkpt>
<trkpt lat="39.9159473" lon="3.1075067">
<ele>96.34</ele>
<time>2016-10-15T11:01:33Z</time>
</trkpt>
<trkpt lat="39.9158049" lon="3.1073455">
<ele>96.73</ele>
<time>2016-10-15T11:01:35Z</time>
</trkpt>
<trkpt lat="39.9156433" lon="3.1071725">
<ele>96.56</ele>
<time>2016-10-15T11:01:37Z</time>
</trkpt>
<trkpt lat="39.9154806" lon="3.1069912">
<ele>95.08</ele>
<time>2016-10-15T11:01:39Z</time>
</trkpt>
<trkpt lat="39.9153194" lon="3.1068119">
<ele>93.07</ele>
<time>2016-10-15T11:01:41Z</time>
</trkpt>
<trkpt lat="39.9151591" lon="3.1066349">
<ele>91.14</ele>
<time>2016-10-15T11:01:43Z</time>
</trkpt>
<trkpt lat="39.9149996" lon="3.1064541">
<ele>88.66</ele>
<time>2016-10-15T11:01:45Z</time>
</trkpt>
<trkpt lat="39.9148491" lon="3.1062730">
<ele>85.86</ele>
<time>2016-10-15T11:01:47Z</time>
</trkpt>
<trkpt lat="39.9147066" lon="3.1060860">
<ele>84.03</ele>
<time>2016-10-15T11:01:49Z</time>
</trkpt>
<trkpt lat="39.9145628" lon="3.1058993">
<ele>83.11</ele>
<time>2016-10-15T11:01:51Z</time>
</trkpt>
<trkpt lat="39.9144065" lon="3.1057229">
<ele>82.26</ele>
<time>2016-10-15T11:01:53Z</time>
</trkpt>
<trkpt lat="39.9142425" lon="3.1055603">
<ele>81.29</ele>
<time>2016-10-15T11:01:55Z</time>
</trkpt>
<trkpt lat="39.9140824" lon="3.1054171">
<ele>80.58</ele>
<time>2016-10-15T11:01:57Z</time>
</trkpt>
<trkpt lat="39.9139180" lon="3.1052762">
<ele>79.54</ele>
<time>2016-10-15T11:01:59Z</time>
</trkpt>
<trkpt lat="39.9137530" lon="3.1051522">
<ele>78.07</ele>
<time>2016-10-15T11:02:01Z</time>
</trkpt>
<trkpt lat="39.9135910" lon="3.1050464">
<ele>76.24</ele>
<time>2016-10-15T11:02:03Z</time>
</trkpt>
<trkpt lat="39.9134032" lon="3.1049619">
<ele>74.56</ele>
<time>2016-10-15T11:02:05Z</time>
</trkpt>
<trkpt lat="39.9131991" lon="3.1049030">
<ele>72.05</ele>
<time>2016-10-15T11:02:07Z</time>
</trkpt>
<trkpt lat="39.9130118" lon="3.1048388">
<ele>69.67</ele>
<time>2016-10-15T11:02:09Z</time>
</trkpt>
<trkpt lat="39.9128523" lon="3.1047088">
<ele>68.01</ele>
<time>2016-10-15T11:02:11Z</time>
</trkpt>
<trkpt lat="39.9126841" lon="3.1045752">
<ele>66.46</ele>
<time>2016-10-15T11:02:13Z</time>
</trkpt>
<trkpt lat="39.9125022" lon="3.1044701">
<ele>65.07</ele>
<time>2016-10-15T11:02:15Z</time>
</trkpt>
<trkpt lat="39.9123104" lon="3.1044011">
<ele>63.61</ele>
<time>2016-10-15T11:02:17Z</time>
</trkpt>
<trkpt lat="39.9121228" lon="3.1043740">
<ele>61.57</ele>
<time>2016-10-15T11:02:19Z</time>
</trkpt>
<trkpt lat="39.9119345" lon="3.1043757">
<ele>59.15</ele>
<time>2016-10-15T11:02:21Z</time>
</trkpt>
<trkpt lat="39.9116947" lon="3.1043865">
<ele>55.98</ele>
<time>2016-10-15T11:02:24Z</time>
</trkpt>
<trkpt lat="39.9118050" lon="3.1041681">
<ele>51.74</ele>
<time>2016-10-15T11:02:34Z</time>
</trkpt>
<trkpt lat="39.9120411" lon="3.1041513">
<ele>49.86</ele>
<time>2016-10-15T11:02:37Z</time>
</trkpt>
<trkpt lat="39.9122974" lon="3.1041464">
<ele>47.64</ele>
<time>2016-10-15T11:02:40Z</time>
</trkpt>
<trkpt lat="39.9125513" lon="3.1041605">
<ele>43.90</ele>
<time>2016-10-15T11:02:43Z</time>
</trkpt>
<trkpt lat="39.9127985" lon="3.1042173">
<ele>39.28</ele>
<time>2016-10-15T11:02:46Z</time>
</trkpt>
<trkpt lat="39.9129771" lon="3.1042649">
<ele>36.55</ele>
<time>2016-10-15T11:02:48Z</time>
</trkpt>
<trkpt lat="39.9131573" lon="3.1043135">
<ele>34.34</ele>
<time>2016-10-15T11:02:50Z</time>
</trkpt>
<trkpt lat="39.9133366" lon="3.1043594">
<ele>32.54</ele>
<time>2016-10-15T11:02:52Z</time>
</trkpt>
<trkpt lat="39.9135772" lon="3.1044162">
<ele>31.55</ele>
<time>2016-10-15T11:02:55Z</time>
</trkpt>
<trkpt lat="39.9137638" lon="3.1044600">
<ele>30.96</ele>
<time>2016-10-15T11:02:57Z</time>
</trkpt>
<trkpt lat="39.9139475" lon="3.1045090">
<ele>30.16</ele>
<time>2016-10-15T11:02:59Z</time>
</trkpt>
<trkpt lat="39.9141379" lon="3.1045566">
<ele>29.54</ele>
<time>2016-10-15T11:03:01Z</time>
</trkpt>
<trkpt lat="39.9143228" lon="3.1046043">
<ele>29.01</ele>
<time>2016-10-15T11:03:03Z</time>
</trkpt>
<trkpt lat="39.9145669" lon="3.1046731">
<ele>28.38</ele>
<time>2016-10-15T11:03:06Z</time>
</trkpt>
<trkpt lat="39.9147749" lon="3.1047075">
<ele>27.84</ele>
<time>2016-10-15T11:03:09Z</time>
</trkpt>
<trkpt lat="39.9149197" lon="3.1045660">
<ele>26.76</ele>
<time>2016-10-15T11:03:12Z</time>
</trkpt>
<trkpt lat="39.9148238" lon="3.1043149">
<ele>27.86</ele>
<time>2016-10-15T11:03:16Z</time>
</trkpt>
<trkpt lat="39.9146266" lon="3.1041500">
<ele>29.45</ele>
<time>2016-10-15T11:03:19Z</time>
</trkpt>
<trkpt lat="39.9144627" lon="3.1040304">
<ele>30.72</ele>
<time>2016-10-15T11:03:21Z</time>
</trkpt>
<trkpt lat="39.9143027" lon="3.1039190">
<ele>32.05</ele>
<time>2016-10-15T11:03:23Z</time>
</trkpt>
<trkpt lat="39.9141293" lon="3.1037920">
<ele>32.39</ele>
<time>2016-10-15T11:03:25Z</time>
</trkpt>
<trkpt lat="39.9139625" lon="3.1036675">
<ele>31.16</ele>
<time>2016-10-15T11:03:27Z</time>
</trkpt>
<trkpt lat="39.9138005" lon="3.1035555">
<ele>30.27</ele>
<time>2016-10-15T11:03:29Z</time>
</trkpt>
<trkpt lat="39.9136363" lon="3.1034370">
<ele>29.85</ele>
<time>2016-10-15T11:03:31Z</time>
</trkpt>
<trkpt lat="39.9134692" lon="3.1033187">
<ele>29.43</ele>
<time>2016-10-15T11:03:33Z</time>
</trkpt>
<trkpt lat="39.9132930" lon="3.1032029">
<ele>29.05</ele>
<time>2016-10-15T11:03:35Z</time>
</trkpt>
<trkpt lat="39.9131188" lon="3.1030870">
<ele>28.79</ele>
<time>2016-10-15T11:03:37Z</time>
</trkpt>
<trkpt lat="39.9129526" lon="3.1029744">
<ele>28.53</ele>
<time>2016-10-15T11:03:39Z</time>
</trkpt>
<trkpt lat="39.9127137" lon="3.1028108">
<ele>28.62</ele>
<time>2016-10-15T11:03:42Z</time>
</trkpt>
<trkpt lat="39.9124969" lon="3.1026269">
<ele>28.12</ele>
<time>2016-10-15T11:03:45Z</time>
</trkpt>
<trkpt lat="39.9123790" lon="3.1024334">
<ele>26.91</ele>
<time>2016-10-15T11:03:47Z</time>
</trkpt>
<trkpt lat="39.9123235" lon="3.1021895">
<ele>25.43</ele>
<time>2016-10-15T11:03:49Z</time>
</trkpt>
<trkpt lat="39.9122991" lon="3.1019406">
<ele>24.22</ele>
<time>2016-10-15T11:03:51Z</time>
</trkpt>
<trkpt lat="39.9123169" lon="3.1017053">
<ele>23.20</ele>
<time>2016-10-15T11:03:53Z</time>
</trkpt>
<trkpt lat="39.9123870" lon="3.1013792">
<ele>22.95</ele>
<time>2016-10-15T11:03:56Z</time>
</trkpt>
<trkpt lat="39.9124667" lon="3.1010823">
<ele>22.59</ele>
<time>2016-10-15T11:03:59Z</time>
</trkpt>
<trkpt lat="39.9125328" lon="3.1007796">
<ele>21.62</ele>
<time>2016-10-15T11:04:02Z</time>
</trkpt>
<trkpt lat="39.9125919" lon="3.1004975">
<ele>20.35</ele>
<time>2016-10-15T11:04:05Z</time>
</trkpt>
<trkpt lat="39.9126508" lon="3.1002474">
<ele>19.05</ele>
<time>2016-10-15T11:04:08Z</time>
</trkpt>
<trkpt lat="39.9127364" lon="3.0999734">
<ele>18.63</ele>
<time>2016-10-15T11:04:12Z</time>
</trkpt>
<trkpt lat="39.9128965" lon="3.0997614">
<ele>17.36</ele>
<time>2016-10-15T11:04:16Z</time>
</trkpt>
<trkpt lat="39.9129487" lon="3.0995227">
<ele>18.05</ele>
<time>2016-10-15T11:04:20Z</time>
</trkpt>
<trkpt lat="39.9128256" lon="3.0993494">
<ele>19.72</ele>
<time>2016-10-15T11:04:29Z</time>
</trkpt>
<trkpt lat="39.9126494" lon="3.0994737">
<ele>20.17</ele>
<time>2016-10-15T11:05:01Z</time>
</trkpt>
<trkpt lat="39.9124273" lon="3.0994781">
<ele>19.73</ele>
<time>2016-10-15T11:05:06Z</time>
</trkpt>
<trkpt lat="39.9122277" lon="3.0994460">
<ele>19.17</ele>
<time>2016-10-15T11:05:11Z</time>
</trkpt>
<trkpt lat="39.9120108" lon="3.0993605">
<ele>22.53</ele>
<time>2016-10-15T11:05:15Z</time>
</trkpt>
<trkpt lat="39.9118228" lon="3.0992901">
<ele>24.78</ele>
<time>2016-10-15T11:05:18Z</time>
</trkpt>
<trkpt lat="39.9116241" lon="3.0992030">
<ele>25.94</ele>
<time>2016-10-15T11:05:21Z</time>
</trkpt>
<trkpt lat="39.9114291" lon="3.0991108">
<ele>24.89</ele>
<time>2016-10-15T11:05:24Z</time>
</trkpt>
<trkpt lat="39.9112390" lon="3.0990348">
<ele>24.84</ele>
<time>2016-10-15T11:05:27Z</time>
</trkpt>
<trkpt lat="39.9110162" lon="3.0989357">
<ele>26.47</ele>
<time>2016-10-15T11:05:30Z</time>
</trkpt>
<trkpt lat="39.9107963" lon="3.0988337">
<ele>26.26</ele>
<time>2016-10-15T11:05:33Z</time>
</trkpt>
<trkpt lat="39.9105865" lon="3.0987215">
<ele>25.77</ele>
<time>2016-10-15T11:05:36Z</time>
</trkpt>
<trkpt lat="39.9104895" lon="3.0984740">
<ele>23.24</ele>
<time>2016-10-15T11:05:39Z</time>
</trkpt>
<trkpt lat="39.9104930" lon="3.0982133">
<ele>20.97</ele>
<time>2016-10-15T11:05:42Z</time>
</trkpt>
<trkpt lat="39.9105088" lon="3.0979605">
<ele>19.56</ele>
<time>2016-10-15T11:05:45Z</time>
</trkpt>
<trkpt lat="39.9105384" lon="3.0977040">
<ele>19.05</ele>
<time>2016-10-15T11:05:48Z</time>
</trkpt>
<trkpt lat="39.9105653" lon="3.0974344">
<ele>16.36</ele>
<time>2016-10-15T11:05:51Z</time>
</trkpt>
<trkpt lat="39.9105870" lon="3.0971268">
<ele>13.39</ele>
<time>2016-10-15T11:05:55Z</time>
</trkpt>
<trkpt lat="39.9106189" lon="3.0968625">
<ele>11.84</ele>
<time>2016-10-15T11:05:59Z</time>
</trkpt>
<trkpt lat="39.9106659" lon="3.0966081">
<ele>13.67</ele>
<time>2016-10-15T11:06:03Z</time>
</trkpt>
<trkpt lat="39.9106768" lon="3.0963692">
<ele>14.39</ele>
<time>2016-10-15T11:06:07Z</time>
</trkpt>
<trkpt lat="39.9105011" lon="3.0962320">
<ele>14.08</ele>
<time>2016-10-15T11:06:12Z</time>
</trkpt>
<trkpt lat="39.9103002" lon="3.0961701">
<ele>15.20</ele>
<time>2016-10-15T11:06:17Z</time>
</trkpt>
<trkpt lat="39.9100921" lon="3.0961141">
<ele>15.12</ele>
<time>2016-10-15T11:06:23Z</time>
</trkpt>
<trkpt lat="39.9098968" lon="3.0960537">
<ele>15.10</ele>
<time>2016-10-15T11:06:28Z</time>
</trkpt>
<trkpt lat="39.9097268" lon="3.0959538">
<ele>14.67</ele>
<time>2016-10-15T11:06:34Z</time>
</trkpt>
<trkpt lat="39.9099213" lon="3.0959555">
<ele>11.24</ele>
<time>2016-10-15T11:07:01Z</time>
</trkpt>
<trkpt lat="39.9101205" lon="3.0960283">
<ele>10.88</ele>
<time>2016-10-15T11:07:07Z</time>
</trkpt>
<trkpt lat="39.9103101" lon="3.0961050">
<ele>10.72</ele>
<time>2016-10-15T11:07:13Z</time>
</trkpt>
<trkpt lat="39.9104897" lon="3.0961566">
<ele>10.91</ele>
<time>2016-10-15T11:07:18Z</time>
</trkpt>
<trkpt lat="39.9106716" lon="3.0962183">
<ele>11.93</ele>
<time>2016-10-15T11:07:24Z</time>
</trkpt>
<trkpt lat="39.9107548" lon="3.0959961">
<ele>15.87</ele>
<time>2016-10-15T11:07:31Z</time>
</trkpt>
<trkpt lat="39.9108570" lon="3.0957361">
<ele>17.80</ele>
<time>2016-10-15T11:07:35Z</time>
</trkpt>
<trkpt lat="39.9109218" lon="3.0954570">
<ele>18.47</ele>
<time>2016-10-15T11:07:39Z</time>
</trkpt>
<trkpt lat="39.9109896" lon="3.0951742">
<ele>19.33</ele>
<time>2016-10-15T11:07:43Z</time>
</trkpt>
<trkpt lat="39.9110469" lon="3.0949457">
<ele>19.09</ele>
<time>2016-10-15T11:07:46Z</time>
</trkpt>
<trkpt lat="39.9111076" lon="3.0946929">
<ele>18.03</ele>
<time>2016-10-15T11:07:49Z</time>
</trkpt>
<trkpt lat="39.9111652" lon="3.0944443">
<ele>16.61</ele>
<time>2016-10-15T11:07:52Z</time>
</trkpt>
<trkpt lat="39.9112299" lon="3.0941899">
<ele>16.39</ele>
<time>2016-10-15T11:07:55Z</time>
</trkpt>
<trkpt lat="39.9112946" lon="3.0939366">
<ele>15.27</ele>
<time>2016-10-15T11:07:58Z</time>
</trkpt>
<trkpt lat="39.9113580" lon="3.0936864">
<ele>14.64</ele>
<time>2016-10-15T11:08:01Z</time>
</trkpt>
<trkpt lat="39.9114125" lon="3.0934324">
<ele>14.61</ele>
<time>2016-10-15T11:08:04Z</time>
</trkpt>
<trkpt lat="39.9114634" lon="3.0931727">
<ele>14.72</ele>
<time>2016-10-15T11:08:07Z</time>
</trkpt>
<trkpt lat="39.9115076" lon="3.0929230">
<ele>15.15</ele>
<time>2016-10-15T11:08:10Z</time>
</trkpt>
<trkpt lat="39.9115537" lon="3.0926651">
<ele>14.26</ele>
<time>2016-10-15T11:08:13Z</time>
</trkpt>
<trkpt lat="39.9116024" lon="3.0924058">
<ele>12.72</ele>
<time>2016-10-15T11:08:16Z</time>
</trkpt>
<trkpt lat="39.9116520" lon="3.0921582">
<ele>11.35</ele>
<time>2016-10-15T11:08:19Z</time>
</trkpt>
<trkpt lat="39.9116958" lon="3.0919041">
<ele>11.10</ele>
<time>2016-10-15T11:08:22Z</time>
</trkpt>
<trkpt lat="39.9117221" lon="3.0916570">
<ele>10.66</ele>
<time>2016-10-15T11:08:25Z</time>
</trkpt>
<trkpt lat="39.9117239" lon="3.0913753">
<ele>10.71</ele>
<time>2016-10-15T11:08:28Z</time>
</trkpt>
<trkpt lat="39.9117091" lon="3.0910953">
<ele>11.47</ele>
<time>2016-10-15T11:08:31Z</time>
</trkpt>
<trkpt lat="39.9117015" lon="3.0907936">
<ele>11.37</ele>
<time>2016-10-15T11:08:34Z</time>
</trkpt>
<trkpt lat="39.9116925" lon="3.0905333">
<ele>11.17</ele>
<time>2016-10-15T11:08:37Z</time>
</trkpt>
<trkpt lat="39.9116907" lon="3.0902936">
<ele>12.26</ele>
<time>2016-10-15T11:08:40Z</time>
</trkpt>
<trkpt lat="39.9116817" lon="3.0900338">
<ele>12.60</ele>
<time>2016-10-15T11:08:43Z</time>
</trkpt>
<trkpt lat="39.9116715" lon="3.0897626">
<ele>13.57</ele>
<time>2016-10-15T11:08:46Z</time>
</trkpt>
<trkpt lat="39.9116580" lon="3.0894920">
<ele>14.67</ele>
<time>2016-10-15T11:08:49Z</time>
</trkpt>
<trkpt lat="39.9116527" lon="3.0891913">
<ele>13.16</ele>
<time>2016-10-15T11:08:52Z</time>
</trkpt>
<trkpt lat="39.9116344" lon="3.0889172">
<ele>12.47</ele>
<time>2016-10-15T11:08:55Z</time>
</trkpt>
<trkpt lat="39.9115825" lon="3.0886477">
<ele>10.88</ele>
<time>2016-10-15T11:08:58Z</time>
</trkpt>
<trkpt lat="39.9115153" lon="3.0884200">
<ele>9.41</ele>
<time>2016-10-15T11:09:01Z</time>
</trkpt>
<trkpt lat="39.9114285" lon="3.0881594">
<ele>8.70</ele>
<time>2016-10-15T11:09:05Z</time>
</trkpt>
<trkpt lat="39.9113600" lon="3.0879423">
<ele>9.32</ele>
<time>2016-10-15T11:09:08Z</time>
</trkpt>
<trkpt lat="39.9112726" lon="3.0876955">
<ele>9.38</ele>
<time>2016-10-15T11:09:11Z</time>
</trkpt>
<trkpt lat="39.9111762" lon="3.0874754">
<ele>9.99</ele>
<time>2016-10-15T11:09:14Z</time>
</trkpt>
<trkpt lat="39.9110703" lon="3.0872652">
<ele>10.69</ele>
<time>2016-10-15T11:09:17Z</time>
</trkpt>
<trkpt lat="39.9109525" lon="3.0870644">
<ele>11.93</ele>
<time>2016-10-15T11:09:20Z</time>
</trkpt>
<trkpt lat="39.9108335" lon="3.0868692">
<ele>13.63</ele>
<time>2016-10-15T11:09:23Z</time>
</trkpt>
<trkpt lat="39.9107078" lon="3.0866532">
<ele>15.29</ele>
<time>2016-10-15T11:09:27Z</time>
</trkpt>
<trkpt lat="39.9105954" lon="3.0864673">
<ele>12.61</ele>
<time>2016-10-15T11:09:31Z</time>
</trkpt>
<trkpt lat="39.9104754" lon="3.0862818">
<ele>12.05</ele>
<time>2016-10-15T11:09:35Z</time>
</trkpt>
<trkpt lat="39.9103025" lon="3.0860624">
<ele>12.52</ele>
<time>2016-10-15T11:09:39Z</time>
</trkpt>
<trkpt lat="39.9101602" lon="3.0858592">
<ele>14.89</ele>
<time>2016-10-15T11:09:43Z</time>
</trkpt>
<trkpt lat="39.9100231" lon="3.0856476">
<ele>17.37</ele>
<time>2016-10-15T11:09:47Z</time>
</trkpt>
<trkpt lat="39.9098748" lon="3.0854401">
<ele>17.28</ele>
<time>2016-10-15T11:09:51Z</time>
</trkpt>
<trkpt lat="39.9098615" lon="3.0851608">
<ele>16.95</ele>
<time>2016-10-15T11:09:56Z</time>
</trkpt>
<trkpt lat="39.9099497" lon="3.0849211">
<ele>15.50</ele>
<time>2016-10-15T11:10:00Z</time>
</trkpt>
<trkpt lat="39.9100592" lon="3.0847155">
<ele>17.62</ele>
<time>2016-10-15T11:10:04Z</time>
</trkpt>
<trkpt lat="39.9101397" lon="3.0844932">
<ele>17.90</ele>
<time>2016-10-15T11:10:09Z</time>
</trkpt>
<trkpt lat="39.9100782" lon="3.0842394">
<ele>18.08</ele>
<time>2016-10-15T11:10:17Z</time>
</trkpt>
<trkpt lat="39.9099271" lon="3.0840794">
<ele>18.99</ele>
<time>2016-10-15T11:10:21Z</time>
</trkpt>
<trkpt lat="39.9097833" lon="3.0839220">
<ele>19.74</ele>
<time>2016-10-15T11:10:25Z</time>
</trkpt>
<trkpt lat="39.9096567" lon="3.0836979">
<ele>20.43</ele>
<time>2016-10-15T11:10:29Z</time>
</trkpt>
<trkpt lat="39.9095281" lon="3.0835214">
<ele>22.57</ele>
<time>2016-10-15T11:10:33Z</time>
</trkpt>
<trkpt lat="39.9093905" lon="3.0833468">
<ele>20.45</ele>
<time>2016-10-15T11:10:38Z</time>
</trkpt>
<trkpt lat="39.9091963" lon="3.0832166">
<ele>21.81</ele>
<time>2016-10-15T11:10:43Z</time>
</trkpt>
<trkpt lat="39.9090538" lon="3.0830723">
<ele>26.14</ele>
<time>2016-10-15T11:10:47Z</time>
</trkpt>
<trkpt lat="39.9089090" lon="3.0828859">
<ele>25.67</ele>
<time>2016-10-15T11:10:52Z</time>
</trkpt>
<trkpt lat="39.9087227" lon="3.0827626">
<ele>25.20</ele>
<time>2016-10-15T11:10:58Z</time>
</trkpt>
<trkpt lat="39.9085278" lon="3.0828566">
<ele>22.15</ele>
<time>2016-10-15T11:11:04Z</time>
</trkpt>
<trkpt lat="39.9083684" lon="3.0830369">
<ele>19.78</ele>
<time>2016-10-15T11:11:10Z</time>
</trkpt>
<trkpt lat="39.9082588" lon="3.0832306">
<ele>18.07</ele>
<time>2016-10-15T11:11:15Z</time>
</trkpt>
<trkpt lat="39.9081609" lon="3.0834328">
<ele>17.91</ele>
<time>2016-10-15T11:11:22Z</time>
</trkpt>
<trkpt lat="39.9078881" lon="3.0837387">
<ele>16.25</ele>
<time>2016-10-15T11:11:55Z</time>
</trkpt>
<trkpt lat="39.9076048" lon="3.0837904">
<ele>10.76</ele>
<time>2016-10-15T11:12:46Z</time>
</trkpt>
<trkpt lat="39.9074429" lon="3.0836656">
<ele>9.91</ele>
<time>2016-10-15T11:13:01Z</time>
</trkpt>
<trkpt lat="39.9072246" lon="3.0835185">
<ele>9.16</ele>
<time>2016-10-15T11:13:26Z</time>
</trkpt>
<trkpt lat="39.9070553" lon="3.0832965">
<ele>9.40</ele>
<time>2016-10-15T11:14:01Z</time>
</trkpt>
<trkpt lat="39.9069158" lon="3.0831403">
<ele>12.60</ele>
<time>2016-10-15T11:14:52Z</time>
</trkpt>
<trkpt lat="39.9067610" lon="3.0830061">
<ele>11.72</ele>
<time>2016-10-15T11:15:25Z</time>
</trkpt>
<trkpt lat="39.9068494" lon="3.0832200">
<ele>8.75</ele>
<time>2016-10-15T11:17:29Z</time>
</trkpt>
<trkpt lat="39.9070204" lon="3.0833357">
<ele>6.68</ele>
<time>2016-10-15T11:17:47Z</time>
</trkpt>
<trkpt lat="39.9071855" lon="3.0834453">
<ele>3.80</ele>
<time>2016-10-15T11:18:46Z</time>
</trkpt>
<trkpt lat="39.9069940" lon="3.0833716">
<ele>-1.36</ele>
<time>2016-10-15T12:14:51Z</time>
</trkpt>
<trkpt lat="39.9068250" lon="3.0832550">
<ele>-0.72</ele>
<time>2016-10-15T12:15:01Z</time>
</trkpt>
<trkpt lat="39.9066613" lon="3.0831566">
<ele>-0.08</ele>
<time>2016-10-15T12:15:09Z</time>
</trkpt>
<trkpt lat="39.9065122" lon="3.0830248">
<ele>1.15</ele>
<time>2016-10-15T12:15:19Z</time>
</trkpt>
<trkpt lat="39.9064142" lon="3.0828246">
<ele>-2.02</ele>
<time>2016-10-15T12:15:44Z</time>
</trkpt>
<trkpt lat="39.9063537" lon="3.0825993">
<ele>-2.02</ele>
<time>2016-10-15T12:15:54Z</time>
</trkpt>
<trkpt lat="39.9063182" lon="3.0823481">
<ele>-1.58</ele>
<time>2016-10-15T12:16:02Z</time>
</trkpt>
<trkpt lat="39.9062628" lon="3.0820893">
<ele>2.48</ele>
<time>2016-10-15T12:16:07Z</time>
</trkpt>
<trkpt lat="39.9062098" lon="3.0818388">
<ele>8.25</ele>
<time>2016-10-15T12:16:12Z</time>
</trkpt>
<trkpt lat="39.9061908" lon="3.0815868">
<ele>8.09</ele>
<time>2016-10-15T12:16:17Z</time>
</trkpt>
<trkpt lat="39.9061782" lon="3.0813472">
<ele>7.56</ele>
<time>2016-10-15T12:16:22Z</time>
</trkpt>
<trkpt lat="39.9061434" lon="3.0811127">
<ele>8.73</ele>
<time>2016-10-15T12:16:27Z</time>
</trkpt>
<trkpt lat="39.9060667" lon="3.0808893">
<ele>9.63</ele>
<time>2016-10-15T12:16:31Z</time>
</trkpt>
<trkpt lat="39.9059847" lon="3.0806646">
<ele>10.21</ele>
<time>2016-10-15T12:16:35Z</time>
</trkpt>
<trkpt lat="39.9059058" lon="3.0804039">
<ele>10.69</ele>
<time>2016-10-15T12:16:40Z</time>
</trkpt>
<trkpt lat="39.9058207" lon="3.0801750">
<ele>10.08</ele>
<time>2016-10-15T12:16:44Z</time>
</trkpt>
<trkpt lat="39.9057597" lon="3.0798953">
<ele>11.24</ele>
<time>2016-10-15T12:16:49Z</time>
</trkpt>
<trkpt lat="39.9056993" lon="3.0796618">
<ele>11.20</ele>
<time>2016-10-15T12:16:53Z</time>
</trkpt>
<trkpt lat="39.9056681" lon="3.0794280">
<ele>10.94</ele>
<time>2016-10-15T12:16:59Z</time>
</trkpt>
<trkpt lat="39.9056070" lon="3.0791479">
<ele>-1.30</ele>
<time>2016-10-15T12:22:09Z</time>
</trkpt>
<trkpt lat="39.9055234" lon="3.0789255">
<ele>4.12</ele>
<time>2016-10-15T12:22:13Z</time>
</trkpt>
<trkpt lat="39.9054500" lon="3.0786853">
<ele>2.89</ele>
<time>2016-10-15T12:22:18Z</time>
</trkpt>
<trkpt lat="39.9053893" lon="3.0784503">
<ele>2.77</ele>
<time>2016-10-15T12:22:22Z</time>
</trkpt>
<trkpt lat="39.9053383" lon="3.0782122">
<ele>-0.34</ele>
<time>2016-10-15T12:22:26Z</time>
</trkpt>
<trkpt lat="39.9052753" lon="3.0779706">
<ele>0.19</ele>
<time>2016-10-15T12:22:30Z</time>
</trkpt>
<trkpt lat="39.9052064" lon="3.0777063">
<ele>-1.79</ele>
<time>2016-10-15T12:22:34Z</time>
</trkpt>
<trkpt lat="39.9051080" lon="3.0774401">
<ele>-4.03</ele>
<time>2016-10-15T12:22:38Z</time>
</trkpt>
<trkpt lat="39.9050076" lon="3.0771730">
<ele>-3.38</ele>
<time>2016-10-15T12:22:42Z</time>
</trkpt>
<trkpt lat="39.9049349" lon="3.0769579">
<ele>-2.30</ele>
<time>2016-10-15T12:22:45Z</time>
</trkpt>
<trkpt lat="39.9048510" lon="3.0766687">
<ele>-0.94</ele>
<time>2016-10-15T12:22:49Z</time>
</trkpt>
<trkpt lat="39.9047828" lon="3.0763931">
<ele>-2.25</ele>
<time>2016-10-15T12:22:53Z</time>
</trkpt>
<trkpt lat="39.9047127" lon="3.0761428">
<ele>-3.96</ele>
<time>2016-10-15T12:22:57Z</time>
</trkpt>
<trkpt lat="39.9046390" lon="3.0758735">
<ele>-5.38</ele>
<time>2016-10-15T12:23:01Z</time>
</trkpt>
<trkpt lat="39.9046552" lon="3.0756288">
<ele>-5.04</ele>
<time>2016-10-15T12:23:13Z</time>
</trkpt>
<trkpt lat="39.9047310" lon="3.0753730">
<ele>-1.12</ele>
<time>2016-10-15T12:23:19Z</time>
</trkpt>
<trkpt lat="39.9046733" lon="3.0750999">
<ele>1.00</ele>
<time>2016-10-15T12:23:23Z</time>
</trkpt>
<trkpt lat="39.9045207" lon="3.0749373">
<ele>0.33</ele>
<time>2016-10-15T12:23:27Z</time>
</trkpt>
<trkpt lat="39.9043743" lon="3.0747594">
<ele>-0.52</ele>
<time>2016-10-15T12:23:30Z</time>
</trkpt>
<trkpt lat="39.9042696" lon="3.0745456">
<ele>-2.34</ele>
<time>2016-10-15T12:23:33Z</time>
</trkpt>
<trkpt lat="39.9041878" lon="3.0743200">
<ele>-3.75</ele>
<time>2016-10-15T12:23:36Z</time>
</trkpt>
<trkpt lat="39.9041084" lon="3.0740558">
<ele>-3.58</ele>
<time>2016-10-15T12:23:40Z</time>
</trkpt>
<trkpt lat="39.9040411" lon="3.0738228">
<ele>-1.41</ele>
<time>2016-10-15T12:23:43Z</time>
</trkpt>
<trkpt lat="39.9039688" lon="3.0735525">
<ele>-1.84</ele>
<time>2016-10-15T12:23:46Z</time>
</trkpt>
<trkpt lat="39.9039011" lon="3.0732997">
<ele>-5.03</ele>
<time>2016-10-15T12:23:49Z</time>
</trkpt>
<trkpt lat="39.9038361" lon="3.0730475">
<ele>-8.16</ele>
<time>2016-10-15T12:23:52Z</time>
</trkpt>
<trkpt lat="39.9037685" lon="3.0728117">
<ele>-11.16</ele>
<time>2016-10-15T12:23:55Z</time>
</trkpt>
<trkpt lat="39.9036773" lon="3.0725227">
<ele>-10.59</ele>
<time>2016-10-15T12:23:59Z</time>
</trkpt>
<trkpt lat="39.9036007" lon="3.0722900">
<ele>-10.10</ele>
<time>2016-10-15T12:24:02Z</time>
</trkpt>
<trkpt lat="39.9035358" lon="3.0720614">
<ele>-9.68</ele>
<time>2016-10-15T12:24:05Z</time>
</trkpt>
<trkpt lat="39.9034489" lon="3.0717699">
<ele>-10.79</ele>
<time>2016-10-15T12:24:09Z</time>
</trkpt>
<trkpt lat="39.9033640" lon="3.0714849">
<ele>-11.29</ele>
<time>2016-10-15T12:24:13Z</time>
</trkpt>
<trkpt lat="39.9032690" lon="3.0712062">
<ele>-11.39</ele>
<time>2016-10-15T12:24:17Z</time>
</trkpt>
<trkpt lat="39.9031801" lon="3.0709574">
<ele>-10.47</ele>
<time>2016-10-15T12:24:21Z</time>
</trkpt>
<trkpt lat="39.9031062" lon="3.0706997">
<ele>-7.59</ele>
<time>2016-10-15T12:24:25Z</time>
</trkpt>
<trkpt lat="39.9030283" lon="3.0704283">
<ele>-6.94</ele>
<time>2016-10-15T12:24:29Z</time>
</trkpt>
<trkpt lat="39.9029473" lon="3.0701515">
<ele>-7.93</ele>
<time>2016-10-15T12:24:33Z</time>
</trkpt>
<trkpt lat="39.9028893" lon="3.0698998">
<ele>-10.35</ele>
<time>2016-10-15T12:24:37Z</time>
</trkpt>
<trkpt lat="39.9028352" lon="3.0696518">
<ele>-11.45</ele>
<time>2016-10-15T12:24:41Z</time>
</trkpt>
<trkpt lat="39.9028132" lon="3.0693866">
<ele>-10.43</ele>
<time>2016-10-15T12:24:45Z</time>
</trkpt>
<trkpt lat="39.9027688" lon="3.0691301">
<ele>-7.84</ele>
<time>2016-10-15T12:24:49Z</time>
</trkpt>
<trkpt lat="39.9026246" lon="3.0689307">
<ele>-8.98</ele>
<time>2016-10-15T12:24:53Z</time>
</trkpt>
<trkpt lat="39.9025297" lon="3.0686690">
<ele>-11.24</ele>
<time>2016-10-15T12:24:57Z</time>
</trkpt>
<trkpt lat="39.9024550" lon="3.0684222">
<ele>-11.62</ele>
<time>2016-10-15T12:25:00Z</time>
</trkpt>
<trkpt lat="39.9023797" lon="3.0681850">
<ele>-10.81</ele>
<time>2016-10-15T12:25:03Z</time>
</trkpt>
<trkpt lat="39.9023088" lon="3.0679551">
<ele>-8.74</ele>
<time>2016-10-15T12:25:06Z</time>
</trkpt>
<trkpt lat="39.9022244" lon="3.0677102">
<ele>-5.61</ele>
<time>2016-10-15T12:25:10Z</time>
</trkpt>
<trkpt lat="39.9021456" lon="3.0674857">
<ele>-2.86</ele>
<time>2016-10-15T12:25:13Z</time>
</trkpt>
<trkpt lat="39.9020713" lon="3.0672420">
<ele>-2.42</ele>
<time>2016-10-15T12:25:16Z</time>
</trkpt>
<trkpt lat="39.9019996" lon="3.0669856">
<ele>-3.56</ele>
<time>2016-10-15T12:25:19Z</time>
</trkpt>
<trkpt lat="39.9019262" lon="3.0667206">
<ele>-5.44</ele>
<time>2016-10-15T12:25:22Z</time>
</trkpt>
<trkpt lat="39.9018580" lon="3.0664758">
<ele>-7.55</ele>
<time>2016-10-15T12:25:25Z</time>
</trkpt>
<trkpt lat="39.9017909" lon="3.0662356">
<ele>-8.64</ele>
<time>2016-10-15T12:25:28Z</time>
</trkpt>
<trkpt lat="39.9017223" lon="3.0660107">
<ele>-9.00</ele>
<time>2016-10-15T12:25:31Z</time>
</trkpt>
<trkpt lat="39.9016433" lon="3.0657308">
<ele>-9.30</ele>
<time>2016-10-15T12:25:35Z</time>
</trkpt>
<trkpt lat="39.9015605" lon="3.0654552">
<ele>-8.67</ele>
<time>2016-10-15T12:25:39Z</time>
</trkpt>
<trkpt lat="39.9014977" lon="3.0652312">
<ele>-7.72</ele>
<time>2016-10-15T12:25:42Z</time>
</trkpt>
<trkpt lat="39.9014209" lon="3.0649671">
<ele>-7.23</ele>
<time>2016-10-15T12:25:46Z</time>
</trkpt>
<trkpt lat="39.9013393" lon="3.0646877">
<ele>-5.92</ele>
<time>2016-10-15T12:25:50Z</time>
</trkpt>
<trkpt lat="39.9012596" lon="3.0644097">
<ele>-6.32</ele>
<time>2016-10-15T12:25:54Z</time>
</trkpt>
<trkpt lat="39.9011872" lon="3.0641766">
<ele>-5.82</ele>
<time>2016-10-15T12:25:57Z</time>
</trkpt>
<trkpt lat="39.9011174" lon="3.0639564">
<ele>-5.40</ele>
<time>2016-10-15T12:26:00Z</time>
</trkpt>
<trkpt lat="39.9010307" lon="3.0636709">
<ele>-5.51</ele>
<time>2016-10-15T12:26:04Z</time>
</trkpt>
<trkpt lat="39.9009616" lon="3.0634488">
<ele>-6.32</ele>
<time>2016-10-15T12:26:07Z</time>
</trkpt>
<trkpt lat="39.9008747" lon="3.0631653">
<ele>-6.84</ele>
<time>2016-10-15T12:26:11Z</time>
</trkpt>
<trkpt lat="39.9008075" lon="3.0629380">
<ele>-7.31</ele>
<time>2016-10-15T12:26:14Z</time>
</trkpt>
<trkpt lat="39.9007273" lon="3.0626799">
<ele>-7.59</ele>
<time>2016-10-15T12:26:18Z</time>
</trkpt>
<trkpt lat="39.9006584" lon="3.0624192">
<ele>-5.76</ele>
<time>2016-10-15T12:26:22Z</time>
</trkpt>
<trkpt lat="39.9005890" lon="3.0621943">
<ele>-4.24</ele>
<time>2016-10-15T12:26:25Z</time>
</trkpt>
<trkpt lat="39.9005167" lon="3.0619627">
<ele>-3.47</ele>
<time>2016-10-15T12:26:28Z</time>
</trkpt>
<trkpt lat="39.9004427" lon="3.0617343">
<ele>-2.58</ele>
<time>2016-10-15T12:26:31Z</time>
</trkpt>
<trkpt lat="39.9003703" lon="3.0615075">
<ele>-2.32</ele>
<time>2016-10-15T12:26:34Z</time>
</trkpt>
<trkpt lat="39.9003032" lon="3.0612873">
<ele>-2.94</ele>
<time>2016-10-15T12:26:37Z</time>
</trkpt>
<trkpt lat="39.9002253" lon="3.0609990">
<ele>-3.74</ele>
<time>2016-10-15T12:26:41Z</time>
</trkpt>
<trkpt lat="39.9001555" lon="3.0607554">
<ele>-3.65</ele>
<time>2016-10-15T12:26:44Z</time>
</trkpt>
<trkpt lat="39.9000935" lon="3.0605182">
<ele>-2.70</ele>
<time>2016-10-15T12:26:47Z</time>
</trkpt>
<trkpt lat="39.9000282" lon="3.0602853">
<ele>-1.71</ele>
<time>2016-10-15T12:26:50Z</time>
</trkpt>
<trkpt lat="39.8999448" lon="3.0600044">
<ele>-1.24</ele>
<time>2016-10-15T12:26:54Z</time>
</trkpt>
<trkpt lat="39.8998595" lon="3.0597324">
<ele>-1.06</ele>
<time>2016-10-15T12:26:58Z</time>
</trkpt>
<trkpt lat="39.8997754" lon="3.0594405">
<ele>-1.46</ele>
<time>2016-10-15T12:27:02Z</time>
</trkpt>
<trkpt lat="39.8997088" lon="3.0592106">
<ele>-1.41</ele>
<time>2016-10-15T12:27:05Z</time>
</trkpt>
<trkpt lat="39.8996418" lon="3.0589838">
<ele>-1.93</ele>
<time>2016-10-15T12:27:08Z</time>
</trkpt>
<trkpt lat="39.8995726" lon="3.0587468">
<ele>-2.37</ele>
<time>2016-10-15T12:27:11Z</time>
</trkpt>
<trkpt lat="39.8995026" lon="3.0585176">
<ele>-1.32</ele>
<time>2016-10-15T12:27:14Z</time>
</trkpt>
<trkpt lat="39.8994270" lon="3.0582448">
<ele>0.62</ele>
<time>2016-10-15T12:27:18Z</time>
</trkpt>
<trkpt lat="39.8993573" lon="3.0580249">
<ele>1.45</ele>
<time>2016-10-15T12:27:21Z</time>
</trkpt>
<trkpt lat="39.8992810" lon="3.0578021">
<ele>2.87</ele>
<time>2016-10-15T12:27:24Z</time>
</trkpt>
<trkpt lat="39.8991762" lon="3.0575334">
<ele>6.11</ele>
<time>2016-10-15T12:27:28Z</time>
</trkpt>
<trkpt lat="39.8990928" lon="3.0572484">
<ele>6.74</ele>
<time>2016-10-15T12:27:33Z</time>
</trkpt>
<trkpt lat="39.8990307" lon="3.0570262">
<ele>6.01</ele>
<time>2016-10-15T12:27:36Z</time>
</trkpt>
<trkpt lat="39.8989543" lon="3.0567598">
<ele>3.72</ele>
<time>2016-10-15T12:27:40Z</time>
</trkpt>
<trkpt lat="39.8988902" lon="3.0565387">
<ele>2.37</ele>
<time>2016-10-15T12:27:43Z</time>
</trkpt>
<trkpt lat="39.8988226" lon="3.0563161">
<ele>1.87</ele>
<time>2016-10-15T12:27:46Z</time>
</trkpt>
<trkpt lat="39.8987366" lon="3.0560559">
<ele>3.32</ele>
<time>2016-10-15T12:27:50Z</time>
</trkpt>
<trkpt lat="39.8986515" lon="3.0558039">
<ele>4.85</ele>
<time>2016-10-15T12:27:54Z</time>
</trkpt>
<trkpt lat="39.8985581" lon="3.0555294">
<ele>5.96</ele>
<time>2016-10-15T12:27:58Z</time>
</trkpt>
<trkpt lat="39.8984679" lon="3.0552468">
<ele>7.54</ele>
<time>2016-10-15T12:28:02Z</time>
</trkpt>
<trkpt lat="39.8983859" lon="3.0549757">
<ele>8.23</ele>
<time>2016-10-15T12:28:06Z</time>
</trkpt>
<trkpt lat="39.8983001" lon="3.0547040">
<ele>8.54</ele>
<time>2016-10-15T12:28:10Z</time>
</trkpt>
<trkpt lat="39.8982212" lon="3.0544265">
<ele>9.31</ele>
<time>2016-10-15T12:28:14Z</time>
</trkpt>
<trkpt lat="39.8981422" lon="3.0541465">
<ele>8.73</ele>
<time>2016-10-15T12:28:18Z</time>
</trkpt>
<trkpt lat="39.8980812" lon="3.0539195">
<ele>7.71</ele>
<time>2016-10-15T12:28:21Z</time>
</trkpt>
<trkpt lat="39.8980048" lon="3.0536408">
<ele>7.56</ele>
<time>2016-10-15T12:28:25Z</time>
</trkpt>
<trkpt lat="39.8979286" lon="3.0533698">
<ele>7.27</ele>
<time>2016-10-15T12:28:29Z</time>
</trkpt>
<trkpt lat="39.8978514" lon="3.0530893">
<ele>5.84</ele>
<time>2016-10-15T12:28:33Z</time>
</trkpt>
<trkpt lat="39.8977810" lon="3.0528607">
<ele>5.84</ele>
<time>2016-10-15T12:28:36Z</time>
</trkpt>
<trkpt lat="39.8976996" lon="3.0525890">
<ele>5.44</ele>
<time>2016-10-15T12:28:40Z</time>
</trkpt>
<trkpt lat="39.8976265" lon="3.0523545">
<ele>5.29</ele>
<time>2016-10-15T12:28:44Z</time>
</trkpt>
<trkpt lat="39.8975374" lon="3.0520855">
<ele>4.71</ele>
<time>2016-10-15T12:28:48Z</time>
</trkpt>
<trkpt lat="39.8974428" lon="3.0518040">
<ele>4.47</ele>
<time>2016-10-15T12:28:52Z</time>
</trkpt>
<trkpt lat="39.8973615" lon="3.0515396">
<ele>6.04</ele>
<time>2016-10-15T12:28:56Z</time>
</trkpt>
<trkpt lat="39.8972772" lon="3.0512678">
<ele>7.44</ele>
<time>2016-10-15T12:29:00Z</time>
</trkpt>
<trkpt lat="39.8971938" lon="3.0510006">
<ele>10.37</ele>
<time>2016-10-15T12:29:04Z</time>
</trkpt>
<trkpt lat="39.8970999" lon="3.0507318">
<ele>13.82</ele>
<time>2016-10-15T12:29:08Z</time>
</trkpt>
<trkpt lat="39.8970077" lon="3.0504585">
<ele>14.87</ele>
<time>2016-10-15T12:29:12Z</time>
</trkpt>
<trkpt lat="39.8969293" lon="3.0501769">
<ele>13.94</ele>
<time>2016-10-15T12:29:16Z</time>
</trkpt>
<trkpt lat="39.8968516" lon="3.0498996">
<ele>12.12</ele>
<time>2016-10-15T12:29:20Z</time>
</trkpt>
<trkpt lat="39.8967750" lon="3.0496234">
<ele>11.15</ele>
<time>2016-10-15T12:29:24Z</time>
</trkpt>
<trkpt lat="39.8966973" lon="3.0493526">
<ele>10.82</ele>
<time>2016-10-15T12:29:28Z</time>
</trkpt>
<trkpt lat="39.8966237" lon="3.0490887">
<ele>11.48</ele>
<time>2016-10-15T12:29:32Z</time>
</trkpt>
<trkpt lat="39.8965419" lon="3.0488053">
<ele>11.67</ele>
<time>2016-10-15T12:29:36Z</time>
</trkpt>
<trkpt lat="39.8964778" lon="3.0485851">
<ele>12.84</ele>
<time>2016-10-15T12:29:39Z</time>
</trkpt>
<trkpt lat="39.8963868" lon="3.0483038">
<ele>14.87</ele>
<time>2016-10-15T12:29:43Z</time>
</trkpt>
<trkpt lat="39.8963062" lon="3.0480210">
<ele>14.90</ele>
<time>2016-10-15T12:29:47Z</time>
</trkpt>
<trkpt lat="39.8962180" lon="3.0477458">
<ele>15.87</ele>
<time>2016-10-15T12:29:51Z</time>
</trkpt>
<trkpt lat="39.8961270" lon="3.0474765">
<ele>18.01</ele>
<time>2016-10-15T12:29:55Z</time>
</trkpt>
<trkpt lat="39.8960429" lon="3.0472210">
<ele>18.81</ele>
<time>2016-10-15T12:29:59Z</time>
</trkpt>
<trkpt lat="39.8959648" lon="3.0469576">
<ele>18.10</ele>
<time>2016-10-15T12:30:03Z</time>
</trkpt>
<trkpt lat="39.8958934" lon="3.0466897">
<ele>16.24</ele>
<time>2016-10-15T12:30:07Z</time>
</trkpt>
<trkpt lat="39.8958147" lon="3.0464209">
<ele>14.79</ele>
<time>2016-10-15T12:30:11Z</time>
</trkpt>
<trkpt lat="39.8957237" lon="3.0461435">
<ele>13.29</ele>
<time>2016-10-15T12:30:15Z</time>
</trkpt>
<trkpt lat="39.8956404" lon="3.0458761">
<ele>12.12</ele>
<time>2016-10-15T12:30:19Z</time>
</trkpt>
<trkpt lat="39.8955597" lon="3.0456085">
<ele>11.10</ele>
<time>2016-10-15T12:30:23Z</time>
</trkpt>
<trkpt lat="39.8954732" lon="3.0453241">
<ele>9.59</ele>
<time>2016-10-15T12:30:27Z</time>
</trkpt>
<trkpt lat="39.8953902" lon="3.0450423">
<ele>9.62</ele>
<time>2016-10-15T12:30:31Z</time>
</trkpt>
<trkpt lat="39.8952983" lon="3.0447776">
<ele>10.65</ele>
<time>2016-10-15T12:30:35Z</time>
</trkpt>
<trkpt lat="39.8952032" lon="3.0445089">
<ele>10.13</ele>
<time>2016-10-15T12:30:39Z</time>
</trkpt>
<trkpt lat="39.8951035" lon="3.0442437">
<ele>9.71</ele>
<time>2016-10-15T12:30:43Z</time>
</trkpt>
<trkpt lat="39.8950138" lon="3.0439770">
<ele>7.08</ele>
<time>2016-10-15T12:30:47Z</time>
</trkpt>
<trkpt lat="39.8949220" lon="3.0437103">
<ele>5.43</ele>
<time>2016-10-15T12:30:51Z</time>
</trkpt>
<trkpt lat="39.8948230" lon="3.0434460">
<ele>6.52</ele>
<time>2016-10-15T12:30:55Z</time>
</trkpt>
<trkpt lat="39.8947175" lon="3.0431742">
<ele>7.81</ele>
<time>2016-10-15T12:30:59Z</time>
</trkpt>
<trkpt lat="39.8946172" lon="3.0429006">
<ele>8.73</ele>
<time>2016-10-15T12:31:03Z</time>
</trkpt>
<trkpt lat="39.8945199" lon="3.0426302">
<ele>10.76</ele>
<time>2016-10-15T12:31:07Z</time>
</trkpt>
<trkpt lat="39.8944182" lon="3.0423581">
<ele>13.52</ele>
<time>2016-10-15T12:31:11Z</time>
</trkpt>
<trkpt lat="39.8943226" lon="3.0421060">
<ele>14.83</ele>
<time>2016-10-15T12:31:15Z</time>
</trkpt>
<trkpt lat="39.8942194" lon="3.0418543">
<ele>15.63</ele>
<time>2016-10-15T12:31:19Z</time>
</trkpt>
<trkpt lat="39.8941230" lon="3.0415951">
<ele>17.07</ele>
<time>2016-10-15T12:31:23Z</time>
</trkpt>
<trkpt lat="39.8940204" lon="3.0413373">
<ele>17.00</ele>
<time>2016-10-15T12:31:27Z</time>
</trkpt>
<trkpt lat="39.8939435" lon="3.0411149">
<ele>16.43</ele>
<time>2016-10-15T12:31:30Z</time>
</trkpt>
<trkpt lat="39.8938746" lon="3.0408939">
<ele>14.65</ele>
<time>2016-10-15T12:31:33Z</time>
</trkpt>
<trkpt lat="39.8937831" lon="3.0406326">
<ele>11.69</ele>
<time>2016-10-15T12:31:37Z</time>
</trkpt>
<trkpt lat="39.8936886" lon="3.0403534">
<ele>13.37</ele>
<time>2016-10-15T12:31:41Z</time>
</trkpt>
<trkpt lat="39.8936177" lon="3.0401332">
<ele>13.78</ele>
<time>2016-10-15T12:31:44Z</time>
</trkpt>
<trkpt lat="39.8935348" lon="3.0399113">
<ele>13.83</ele>
<time>2016-10-15T12:31:47Z</time>
</trkpt>
<trkpt lat="39.8934486" lon="3.0396690">
<ele>15.16</ele>
<time>2016-10-15T12:31:51Z</time>
</trkpt>
<trkpt lat="39.8933574" lon="3.0394241">
<ele>16.60</ele>
<time>2016-10-15T12:31:55Z</time>
</trkpt>
<trkpt lat="39.8932633" lon="3.0391676">
<ele>17.51</ele>
<time>2016-10-15T12:31:59Z</time>
</trkpt>
<trkpt lat="39.8931773" lon="3.0388907">
<ele>18.83</ele>
<time>2016-10-15T12:32:03Z</time>
</trkpt>
<trkpt lat="39.8931047" lon="3.0386646">
<ele>18.34</ele>
<time>2016-10-15T12:32:06Z</time>
</trkpt>
<trkpt lat="39.8930332" lon="3.0384273">
<ele>17.06</ele>
<time>2016-10-15T12:32:09Z</time>
</trkpt>
<trkpt lat="39.8929570" lon="3.0381415">
<ele>16.44</ele>
<time>2016-10-15T12:32:13Z</time>
</trkpt>
<trkpt lat="39.8928711" lon="3.0378685">
<ele>16.92</ele>
<time>2016-10-15T12:32:17Z</time>
</trkpt>
<trkpt lat="39.8927973" lon="3.0376210">
<ele>18.34</ele>
<time>2016-10-15T12:32:21Z</time>
</trkpt>
<trkpt lat="39.8927268" lon="3.0373723">
<ele>20.87</ele>
<time>2016-10-15T12:32:26Z</time>
</trkpt>
<trkpt lat="39.8927075" lon="3.0370846">
<ele>18.44</ele>
<time>2016-10-15T12:32:31Z</time>
</trkpt>
<trkpt lat="39.8928631" lon="3.0368833">
<ele>22.14</ele>
<time>2016-10-15T12:32:36Z</time>
</trkpt>
<trkpt lat="39.8930168" lon="3.0367294">
<ele>26.02</ele>
<time>2016-10-15T12:32:40Z</time>
</trkpt>
<trkpt lat="39.8931949" lon="3.0365934">
<ele>29.26</ele>
<time>2016-10-15T12:32:44Z</time>
</trkpt>
<trkpt lat="39.8934106" lon="3.0364327">
<ele>31.69</ele>
<time>2016-10-15T12:32:48Z</time>
</trkpt>
<trkpt lat="39.8935895" lon="3.0363242">
<ele>33.39</ele>
<time>2016-10-15T12:32:51Z</time>
</trkpt>
<trkpt lat="39.8937492" lon="3.0362111">
<ele>34.70</ele>
<time>2016-10-15T12:32:54Z</time>
</trkpt>
<trkpt lat="39.8939048" lon="3.0360914">
<ele>35.34</ele>
<time>2016-10-15T12:32:57Z</time>
</trkpt>
<trkpt lat="39.8940694" lon="3.0359577">
<ele>35.55</ele>
<time>2016-10-15T12:33:00Z</time>
</trkpt>
<trkpt lat="39.8942444" lon="3.0358097">
<ele>35.42</ele>
<time>2016-10-15T12:33:03Z</time>
</trkpt>
<trkpt lat="39.8944195" lon="3.0356437">
<ele>32.87</ele>
<time>2016-10-15T12:33:06Z</time>
</trkpt>
<trkpt lat="39.8945875" lon="3.0354791">
<ele>29.97</ele>
<time>2016-10-15T12:33:09Z</time>
</trkpt>
<trkpt lat="39.8947378" lon="3.0353308">
<ele>29.96</ele>
<time>2016-10-15T12:33:12Z</time>
</trkpt>
<trkpt lat="39.8948822" lon="3.0351844">
<ele>31.57</ele>
<time>2016-10-15T12:33:15Z</time>
</trkpt>
<trkpt lat="39.8950302" lon="3.0350299">
<ele>33.10</ele>
<time>2016-10-15T12:33:18Z</time>
</trkpt>
<trkpt lat="39.8951816" lon="3.0348910">
<ele>34.42</ele>
<time>2016-10-15T12:33:21Z</time>
</trkpt>
<trkpt lat="39.8953568" lon="3.0347573">
<ele>34.40</ele>
<time>2016-10-15T12:33:24Z</time>
</trkpt>
<trkpt lat="39.8955297" lon="3.0346322">
<ele>33.37</ele>
<time>2016-10-15T12:33:27Z</time>
</trkpt>
<trkpt lat="39.8956903" lon="3.0345187">
<ele>33.43</ele>
<time>2016-10-15T12:33:30Z</time>
</trkpt>
<trkpt lat="39.8958503" lon="3.0344014">
<ele>34.32</ele>
<time>2016-10-15T12:33:33Z</time>
</trkpt>
<trkpt lat="39.8960137" lon="3.0342669">
<ele>34.32</ele>
<time>2016-10-15T12:33:36Z</time>
</trkpt>
<trkpt lat="39.8961673" lon="3.0341361">
<ele>32.20</ele>
<time>2016-10-15T12:33:39Z</time>
</trkpt>
<trkpt lat="39.8963293" lon="3.0340160">
<ele>31.18</ele>
<time>2016-10-15T12:33:42Z</time>
</trkpt>
<trkpt lat="39.8965008" lon="3.0339263">
<ele>32.19</ele>
<time>2016-10-15T12:33:45Z</time>
</trkpt>
<trkpt lat="39.8966834" lon="3.0338803">
<ele>31.62</ele>
<time>2016-10-15T12:33:48Z</time>
</trkpt>
<trkpt lat="39.8968997" lon="3.0338700">
<ele>29.17</ele>
<time>2016-10-15T12:33:51Z</time>
</trkpt>
<trkpt lat="39.8971173" lon="3.0339381">
<ele>25.86</ele>
<time>2016-10-15T12:33:54Z</time>
</trkpt>
<trkpt lat="39.8973220" lon="3.0339993">
<ele>22.37</ele>
<time>2016-10-15T12:33:57Z</time>
</trkpt>
<trkpt lat="39.8975222" lon="3.0340747">
<ele>18.56</ele>
<time>2016-10-15T12:34:00Z</time>
</trkpt>
<trkpt lat="39.8977138" lon="3.0341491">
<ele>16.01</ele>
<time>2016-10-15T12:34:03Z</time>
</trkpt>
<trkpt lat="39.8979225" lon="3.0342450">
<ele>15.49</ele>
<time>2016-10-15T12:34:06Z</time>
</trkpt>
<trkpt lat="39.8981123" lon="3.0343365">
<ele>15.39</ele>
<time>2016-10-15T12:34:09Z</time>
</trkpt>
<trkpt lat="39.8983123" lon="3.0344303">
<ele>15.00</ele>
<time>2016-10-15T12:34:12Z</time>
</trkpt>
<trkpt lat="39.8985313" lon="3.0345341">
<ele>14.94</ele>
<time>2016-10-15T12:34:15Z</time>
</trkpt>
<trkpt lat="39.8987627" lon="3.0346234">
<ele>14.59</ele>
<time>2016-10-15T12:34:18Z</time>
</trkpt>
<trkpt lat="39.8989661" lon="3.0346889">
<ele>14.62</ele>
<time>2016-10-15T12:34:21Z</time>
</trkpt>
<trkpt lat="39.8991756" lon="3.0347022">
<ele>14.72</ele>
<time>2016-10-15T12:34:24Z</time>
</trkpt>
<trkpt lat="39.8993626" lon="3.0346966">
<ele>16.96</ele>
<time>2016-10-15T12:34:27Z</time>
</trkpt>
<trkpt lat="39.8995927" lon="3.0347618">
<ele>19.47</ele>
<time>2016-10-15T12:34:31Z</time>
</trkpt>
<trkpt lat="39.8997965" lon="3.0349062">
<ele>18.68</ele>
<time>2016-10-15T12:34:35Z</time>
</trkpt>
<trkpt lat="39.8999494" lon="3.0350482">
<ele>19.15</ele>
<time>2016-10-15T12:34:38Z</time>
</trkpt>
<trkpt lat="39.9000869" lon="3.0352036">
<ele>18.46</ele>
<time>2016-10-15T12:34:41Z</time>
</trkpt>
<trkpt lat="39.9002495" lon="3.0354089">
<ele>19.61</ele>
<time>2016-10-15T12:34:45Z</time>
</trkpt>
<trkpt lat="39.9004149" lon="3.0356287">
<ele>21.96</ele>
<time>2016-10-15T12:34:49Z</time>
</trkpt>
<trkpt lat="39.9005908" lon="3.0358418">
<ele>22.32</ele>
<time>2016-10-15T12:34:53Z</time>
</trkpt>
<trkpt lat="39.9007347" lon="3.0360258">
<ele>23.69</ele>
<time>2016-10-15T12:34:56Z</time>
</trkpt>
<trkpt lat="39.9008746" lon="3.0362092">
<ele>24.44</ele>
<time>2016-10-15T12:34:59Z</time>
</trkpt>
<trkpt lat="39.9009977" lon="3.0363831">
<ele>25.95</ele>
<time>2016-10-15T12:35:02Z</time>
</trkpt>
<trkpt lat="39.9011205" lon="3.0365693">
<ele>27.58</ele>
<time>2016-10-15T12:35:05Z</time>
</trkpt>
<trkpt lat="39.9012846" lon="3.0367238">
<ele>28.00</ele>
<time>2016-10-15T12:35:08Z</time>
</trkpt>
<trkpt lat="39.9014643" lon="3.0368509">
<ele>27.14</ele>
<time>2016-10-15T12:35:11Z</time>
</trkpt>
<trkpt lat="39.9016452" lon="3.0368871">
<ele>26.81</ele>
<time>2016-10-15T12:35:14Z</time>
</trkpt>
<trkpt lat="39.9018419" lon="3.0368424">
<ele>28.85</ele>
<time>2016-10-15T12:35:17Z</time>
</trkpt>
<trkpt lat="39.9020272" lon="3.0367916">
<ele>31.56</ele>
<time>2016-10-15T12:35:20Z</time>
</trkpt>
<trkpt lat="39.9022071" lon="3.0367280">
<ele>34.65</ele>
<time>2016-10-15T12:35:23Z</time>
</trkpt>
<trkpt lat="39.9023967" lon="3.0366939">
<ele>36.71</ele>
<time>2016-10-15T12:35:26Z</time>
</trkpt>
<trkpt lat="39.9026039" lon="3.0366852">
<ele>39.43</ele>
<time>2016-10-15T12:35:29Z</time>
</trkpt>
<trkpt lat="39.9027870" lon="3.0367163">
<ele>41.98</ele>
<time>2016-10-15T12:35:32Z</time>
</trkpt>
<trkpt lat="39.9029722" lon="3.0367805">
<ele>43.30</ele>
<time>2016-10-15T12:35:35Z</time>
</trkpt>
<trkpt lat="39.9031775" lon="3.0368470">
<ele>43.55</ele>
<time>2016-10-15T12:35:38Z</time>
</trkpt>
<trkpt lat="39.9033936" lon="3.0369005">
<ele>43.99</ele>
<time>2016-10-15T12:35:41Z</time>
</trkpt>
<trkpt lat="39.9036396" lon="3.0369643">
<ele>42.85</ele>
<time>2016-10-15T12:35:43Z</time>
</trkpt>
<trkpt lat="39.9038909" lon="3.0370780">
<ele>38.36</ele>
<time>2016-10-15T12:35:46Z</time>
</trkpt>
<trkpt lat="39.9040438" lon="3.0372176">
<ele>34.96</ele>
<time>2016-10-15T12:35:48Z</time>
</trkpt>
<trkpt lat="39.9041932" lon="3.0373569">
<ele>31.22</ele>
<time>2016-10-15T12:35:50Z</time>
</trkpt>
<trkpt lat="39.9043356" lon="3.0375023">
<ele>27.88</ele>
<time>2016-10-15T12:35:52Z</time>
</trkpt>
<trkpt lat="39.9044682" lon="3.0376651">
<ele>24.38</ele>
<time>2016-10-15T12:35:54Z</time>
</trkpt>
<trkpt lat="39.9046877" lon="3.0378345">
<ele>20.46</ele>
<time>2016-10-15T12:35:57Z</time>
</trkpt>
<trkpt lat="39.9049259" lon="3.0379505">
<ele>18.69</ele>
<time>2016-10-15T12:36:00Z</time>
</trkpt>
<trkpt lat="39.9051846" lon="3.0379729">
<ele>17.13</ele>
<time>2016-10-15T12:36:03Z</time>
</trkpt>
<trkpt lat="39.9054412" lon="3.0379231">
<ele>16.41</ele>
<time>2016-10-15T12:36:06Z</time>
</trkpt>
<trkpt lat="39.9056985" lon="3.0378226">
<ele>17.42</ele>
<time>2016-10-15T12:36:09Z</time>
</trkpt>
<trkpt lat="39.9059346" lon="3.0376994">
<ele>19.54</ele>
<time>2016-10-15T12:36:12Z</time>
</trkpt>
<trkpt lat="39.9061598" lon="3.0377191">
<ele>21.95</ele>
<time>2016-10-15T12:36:15Z</time>
</trkpt>
<trkpt lat="39.9063144" lon="3.0378435">
<ele>22.37</ele>
<time>2016-10-15T12:36:17Z</time>
</trkpt>
<trkpt lat="39.9064711" lon="3.0379720">
<ele>19.75</ele>
<time>2016-10-15T12:36:19Z</time>
</trkpt>
<trkpt lat="39.9066346" lon="3.0380773">
<ele>17.70</ele>
<time>2016-10-15T12:36:21Z</time>
</trkpt>
<trkpt lat="39.9068033" lon="3.0381651">
<ele>16.21</ele>
<time>2016-10-15T12:36:23Z</time>
</trkpt>
<trkpt lat="39.9070520" lon="3.0382747">
<ele>15.90</ele>
<time>2016-10-15T12:36:26Z</time>
</trkpt>
<trkpt lat="39.9072297" lon="3.0383288">
<ele>15.29</ele>
<time>2016-10-15T12:36:28Z</time>
</trkpt>
<trkpt lat="39.9074847" lon="3.0383939">
<ele>15.16</ele>
<time>2016-10-15T12:36:31Z</time>
</trkpt>
<trkpt lat="39.9077253" lon="3.0384641">
<ele>16.34</ele>
<time>2016-10-15T12:36:34Z</time>
</trkpt>
<trkpt lat="39.9079503" lon="3.0385621">
<ele>17.93</ele>
<time>2016-10-15T12:36:37Z</time>
</trkpt>
<trkpt lat="39.9081638" lon="3.0386740">
<ele>18.15</ele>
<time>2016-10-15T12:36:40Z</time>
</trkpt>
<trkpt lat="39.9083666" lon="3.0387844">
<ele>17.95</ele>
<time>2016-10-15T12:36:43Z</time>
</trkpt>
<trkpt lat="39.9085520" lon="3.0389056">
<ele>17.86</ele>
<time>2016-10-15T12:36:46Z</time>
</trkpt>
<trkpt lat="39.9087363" lon="3.0390463">
<ele>16.79</ele>
<time>2016-10-15T12:36:49Z</time>
</trkpt>
<trkpt lat="39.9089164" lon="3.0391949">
<ele>16.38</ele>
<time>2016-10-15T12:36:52Z</time>
</trkpt>
<trkpt lat="39.9090902" lon="3.0393531">
<ele>17.26</ele>
<time>2016-10-15T12:36:55Z</time>
</trkpt>
<trkpt lat="39.9092693" lon="3.0395015">
<ele>17.08</ele>
<time>2016-10-15T12:36:58Z</time>
</trkpt>
<trkpt lat="39.9094431" lon="3.0396478">
<ele>15.49</ele>
<time>2016-10-15T12:37:01Z</time>
</trkpt>
<trkpt lat="39.9096334" lon="3.0397467">
<ele>14.58</ele>
<time>2016-10-15T12:37:04Z</time>
</trkpt>
<trkpt lat="39.9098296" lon="3.0398068">
<ele>14.29</ele>
<time>2016-10-15T12:37:07Z</time>
</trkpt>
<trkpt lat="39.9100452" lon="3.0398752">
<ele>15.40</ele>
<time>2016-10-15T12:37:10Z</time>
</trkpt>
<trkpt lat="39.9102379" lon="3.0399589">
<ele>17.70</ele>
<time>2016-10-15T12:37:13Z</time>
</trkpt>
<trkpt lat="39.9104254" lon="3.0400676">
<ele>20.38</ele>
<time>2016-10-15T12:37:16Z</time>
</trkpt>
<trkpt lat="39.9105995" lon="3.0401692">
<ele>23.49</ele>
<time>2016-10-15T12:37:19Z</time>
</trkpt>
<trkpt lat="39.9107812" lon="3.0402904">
<ele>26.44</ele>
<time>2016-10-15T12:37:22Z</time>
</trkpt>
<trkpt lat="39.9109623" lon="3.0404285">
<ele>28.28</ele>
<time>2016-10-15T12:37:25Z</time>
</trkpt>
<trkpt lat="39.9111771" lon="3.0405665">
<ele>27.50</ele>
<time>2016-10-15T12:37:28Z</time>
</trkpt>
<trkpt lat="39.9113802" lon="3.0406723">
<ele>26.27</ele>
<time>2016-10-15T12:37:31Z</time>
</trkpt>
<trkpt lat="39.9115870" lon="3.0407511">
<ele>25.21</ele>
<time>2016-10-15T12:37:34Z</time>
</trkpt>
<trkpt lat="39.9118027" lon="3.0408343">
<ele>25.21</ele>
<time>2016-10-15T12:37:37Z</time>
</trkpt>
<trkpt lat="39.9120059" lon="3.0409661">
<ele>24.55</ele>
<time>2016-10-15T12:37:40Z</time>
</trkpt>
<trkpt lat="39.9121720" lon="3.0411708">
<ele>22.60</ele>
<time>2016-10-15T12:37:43Z</time>
</trkpt>
<trkpt lat="39.9123109" lon="3.0413905">
<ele>19.45</ele>
<time>2016-10-15T12:37:46Z</time>
</trkpt>
<trkpt lat="39.9124403" lon="3.0416209">
<ele>15.22</ele>
<time>2016-10-15T12:37:49Z</time>
</trkpt>
<trkpt lat="39.9125669" lon="3.0418487">
<ele>11.46</ele>
<time>2016-10-15T12:37:52Z</time>
</trkpt>
<trkpt lat="39.9126944" lon="3.0420687">
<ele>8.12</ele>
<time>2016-10-15T12:37:55Z</time>
</trkpt>
<trkpt lat="39.9128129" lon="3.0422624">
<ele>6.19</ele>
<time>2016-10-15T12:37:58Z</time>
</trkpt>
<trkpt lat="39.9129338" lon="3.0424652">
<ele>5.00</ele>
<time>2016-10-15T12:38:01Z</time>
</trkpt>
<trkpt lat="39.9130453" lon="3.0426666">
<ele>3.72</ele>
<time>2016-10-15T12:38:04Z</time>
</trkpt>
<trkpt lat="39.9131611" lon="3.0428726">
<ele>3.61</ele>
<time>2016-10-15T12:38:07Z</time>
</trkpt>
<trkpt lat="39.9132751" lon="3.0430853">
<ele>3.18</ele>
<time>2016-10-15T12:38:10Z</time>
</trkpt>
<trkpt lat="39.9133842" lon="3.0433001">
<ele>2.41</ele>
<time>2016-10-15T12:38:13Z</time>
</trkpt>
<trkpt lat="39.9135096" lon="3.0435597">
<ele>0.71</ele>
<time>2016-10-15T12:38:17Z</time>
</trkpt>
<trkpt lat="39.9136090" lon="3.0437606">
<ele>-0.20</ele>
<time>2016-10-15T12:38:20Z</time>
</trkpt>
<trkpt lat="39.9137192" lon="3.0439487">
<ele>-0.73</ele>
<time>2016-10-15T12:38:23Z</time>
</trkpt>
<trkpt lat="39.9138400" lon="3.0441343">
<ele>1.09</ele>
<time>2016-10-15T12:38:26Z</time>
</trkpt>
<trkpt lat="39.9139800" lon="3.0443094">
<ele>3.53</ele>
<time>2016-10-15T12:38:29Z</time>
</trkpt>
<trkpt lat="39.9141494" lon="3.0445180">
<ele>5.75</ele>
<time>2016-10-15T12:38:33Z</time>
</trkpt>
<trkpt lat="39.9143159" lon="3.0446938">
<ele>7.59</ele>
<time>2016-10-15T12:38:37Z</time>
</trkpt>
<trkpt lat="39.9144842" lon="3.0448410">
<ele>9.85</ele>
<time>2016-10-15T12:38:41Z</time>
</trkpt>
<trkpt lat="39.9146587" lon="3.0449891">
<ele>12.82</ele>
<time>2016-10-15T12:38:45Z</time>
</trkpt>
<trkpt lat="39.9148375" lon="3.0451557">
<ele>15.06</ele>
<time>2016-10-15T12:38:49Z</time>
</trkpt>
<trkpt lat="39.9150073" lon="3.0453532">
<ele>14.71</ele>
<time>2016-10-15T12:38:53Z</time>
</trkpt>
<trkpt lat="39.9151355" lon="3.0455353">
<ele>12.43</ele>
<time>2016-10-15T12:38:56Z</time>
</trkpt>
<trkpt lat="39.9152818" lon="3.0457692">
<ele>8.79</ele>
<time>2016-10-15T12:39:00Z</time>
</trkpt>
<trkpt lat="39.9154002" lon="3.0460322">
<ele>8.02</ele>
<time>2016-10-15T12:39:04Z</time>
</trkpt>
<trkpt lat="39.9154747" lon="3.0462462">
<ele>9.42</ele>
<time>2016-10-15T12:39:07Z</time>
</trkpt>
<trkpt lat="39.9155473" lon="3.0464762">
<ele>13.42</ele>
<time>2016-10-15T12:39:11Z</time>
</trkpt>
<trkpt lat="39.9156125" lon="3.0467475">
<ele>17.98</ele>
<time>2016-10-15T12:39:15Z</time>
</trkpt>
<trkpt lat="39.9156631" lon="3.0469850">
<ele>20.26</ele>
<time>2016-10-15T12:39:18Z</time>
</trkpt>
<trkpt lat="39.9157184" lon="3.0472213">
<ele>21.12</ele>
<time>2016-10-15T12:39:21Z</time>
</trkpt>
<trkpt lat="39.9158303" lon="3.0474782">
<ele>21.34</ele>
<time>2016-10-15T12:39:25Z</time>
</trkpt>
<trkpt lat="39.9159498" lon="3.0477110">
<ele>22.18</ele>
<time>2016-10-15T12:39:29Z</time>
</trkpt>
<trkpt lat="39.9160483" lon="3.0479201">
<ele>22.26</ele>
<time>2016-10-15T12:39:33Z</time>
</trkpt>
<trkpt lat="39.9161429" lon="3.0481295">
<ele>22.21</ele>
<time>2016-10-15T12:39:37Z</time>
</trkpt>
<trkpt lat="39.9162547" lon="3.0483730">
<ele>22.65</ele>
<time>2016-10-15T12:39:42Z</time>
</trkpt>
<trkpt lat="39.9163471" lon="3.0485906">
<ele>21.10</ele>
<time>2016-10-15T12:39:47Z</time>
</trkpt>
<trkpt lat="39.9164436" lon="3.0488017">
<ele>18.62</ele>
<time>2016-10-15T12:39:51Z</time>
</trkpt>
<trkpt lat="39.9165515" lon="3.0490189">
<ele>16.32</ele>
<time>2016-10-15T12:39:55Z</time>
</trkpt>
<trkpt lat="39.9166708" lon="3.0492469">
<ele>15.30</ele>
<time>2016-10-15T12:40:00Z</time>
</trkpt>
<trkpt lat="39.9167830" lon="3.0494744">
<ele>11.74</ele>
<time>2016-10-15T12:40:04Z</time>
</trkpt>
<trkpt lat="39.9169078" lon="3.0497060">
<ele>13.38</ele>
<time>2016-10-15T12:40:09Z</time>
</trkpt>
<trkpt lat="39.9170116" lon="3.0499166">
<ele>15.01</ele>
<time>2016-10-15T12:40:13Z</time>
</trkpt>
<trkpt lat="39.9170990" lon="3.0501438">
<ele>17.37</ele>
<time>2016-10-15T12:40:17Z</time>
</trkpt>
<trkpt lat="39.9171908" lon="3.0503872">
<ele>18.82</ele>
<time>2016-10-15T12:40:21Z</time>
</trkpt>
<trkpt lat="39.9173205" lon="3.0506034">
<ele>21.68</ele>
<time>2016-10-15T12:40:25Z</time>
</trkpt>
<trkpt lat="39.9174520" lon="3.0508061">
<ele>21.67</ele>
<time>2016-10-15T12:40:28Z</time>
</trkpt>
<trkpt lat="39.9175947" lon="3.0510169">
<ele>22.41</ele>
<time>2016-10-15T12:40:32Z</time>
</trkpt>
<trkpt lat="39.9177540" lon="3.0512189">
<ele>23.02</ele>
<time>2016-10-15T12:40:36Z</time>
</trkpt>
<trkpt lat="39.9179362" lon="3.0514062">
<ele>23.43</ele>
<time>2016-10-15T12:40:40Z</time>
</trkpt>
<trkpt lat="39.9181189" lon="3.0515894">
<ele>25.24</ele>
<time>2016-10-15T12:40:44Z</time>
</trkpt>
<trkpt lat="39.9183132" lon="3.0517766">
<ele>26.10</ele>
<time>2016-10-15T12:40:48Z</time>
</trkpt>
<trkpt lat="39.9184601" lon="3.0519222">
<ele>26.61</ele>
<time>2016-10-15T12:40:51Z</time>
</trkpt>
<trkpt lat="39.9186560" lon="3.0521028">
<ele>26.27</ele>
<time>2016-10-15T12:40:55Z</time>
</trkpt>
<trkpt lat="39.9188081" lon="3.0522615">
<ele>25.83</ele>
<time>2016-10-15T12:40:58Z</time>
</trkpt>
<trkpt lat="39.9189564" lon="3.0524055">
<ele>25.29</ele>
<time>2016-10-15T12:41:01Z</time>
</trkpt>
<trkpt lat="39.9190956" lon="3.0525614">
<ele>24.14</ele>
<time>2016-10-15T12:41:04Z</time>
</trkpt>
<trkpt lat="39.9192351" lon="3.0527159">
<ele>21.43</ele>
<time>2016-10-15T12:41:08Z</time>
</trkpt>
<trkpt lat="39.9194100" lon="3.0529023">
<ele>19.65</ele>
<time>2016-10-15T12:41:13Z</time>
</trkpt>
<trkpt lat="39.9195972" lon="3.0530805">
<ele>18.68</ele>
<time>2016-10-15T12:41:17Z</time>
</trkpt>
<trkpt lat="39.9197616" lon="3.0532257">
<ele>21.96</ele>
<time>2016-10-15T12:41:20Z</time>
</trkpt>
<trkpt lat="39.9199270" lon="3.0533701">
<ele>23.29</ele>
<time>2016-10-15T12:41:23Z</time>
</trkpt>
<trkpt lat="39.9200892" lon="3.0535289">
<ele>23.28</ele>
<time>2016-10-15T12:41:26Z</time>
</trkpt>
<trkpt lat="39.9202421" lon="3.0536868">
<ele>21.44</ele>
<time>2016-10-15T12:41:29Z</time>
</trkpt>
<trkpt lat="39.9204170" lon="3.0538623">
<ele>18.12</ele>
<time>2016-10-15T12:41:33Z</time>
</trkpt>
<trkpt lat="39.9205670" lon="3.0540039">
<ele>17.45</ele>
<time>2016-10-15T12:41:38Z</time>
</trkpt>
<trkpt lat="39.9207429" lon="3.0541363">
<ele>16.92</ele>
<time>2016-10-15T12:41:43Z</time>
</trkpt>
<trkpt lat="39.9208855" lon="3.0542806">
<ele>16.71</ele>
<time>2016-10-15T12:41:48Z</time>
</trkpt>
<trkpt lat="39.9206795" lon="3.0545177">
<ele>10.84</ele>
<time>2016-10-15T12:46:09Z</time>
</trkpt>
<trkpt lat="39.9206078" lon="3.0547414">
<ele>11.21</ele>
<time>2016-10-15T12:46:15Z</time>
</trkpt>
<trkpt lat="39.9205268" lon="3.0549720">
<ele>11.32</ele>
<time>2016-10-15T12:46:20Z</time>
</trkpt>
<trkpt lat="39.9204532" lon="3.0552246">
<ele>11.19</ele>
<time>2016-10-15T12:46:26Z</time>
</trkpt>
<trkpt lat="39.9204056" lon="3.0554550">
<ele>11.24</ele>
<time>2016-10-15T12:46:33Z</time>
</trkpt>
<trkpt lat="39.9202752" lon="3.0556532">
<ele>11.69</ele>
<time>2016-10-15T12:46:39Z</time>
</trkpt>
<trkpt lat="39.9201168" lon="3.0557669">
<ele>12.84</ele>
<time>2016-10-15T12:46:45Z</time>
</trkpt>
<trkpt lat="39.9199499" lon="3.0558850">
<ele>14.70</ele>
<time>2016-10-15T12:46:52Z</time>
</trkpt>
<trkpt lat="39.9197661" lon="3.0558560">
<ele>16.78</ele>
<time>2016-10-15T12:47:01Z</time>
</trkpt>
<trkpt lat="39.9196215" lon="3.0557012">
<ele>17.28</ele>
<time>2016-10-15T12:47:06Z</time>
</trkpt>
<trkpt lat="39.9195078" lon="3.0555025">
<ele>16.47</ele>
<time>2016-10-15T12:47:12Z</time>
</trkpt>
<trkpt lat="39.9193632" lon="3.0553054">
<ele>15.46</ele>
<time>2016-10-15T12:47:19Z</time>
</trkpt>
<trkpt lat="39.9192493" lon="3.0551166">
<ele>14.73</ele>
<time>2016-10-15T12:47:25Z</time>
</trkpt>
<trkpt lat="39.9191287" lon="3.0549357">
<ele>14.17</ele>
<time>2016-10-15T12:47:31Z</time>
</trkpt>
<trkpt lat="39.9190205" lon="3.0547291">
<ele>13.70</ele>
<time>2016-10-15T12:47:38Z</time>
</trkpt>
<trkpt lat="39.9189050" lon="3.0545487">
<ele>12.87</ele>
<time>2016-10-15T12:47:47Z</time>
</trkpt>
<trkpt lat="39.9187556" lon="3.0543738">
<ele>15.00</ele>
<time>2016-10-15T12:53:40Z</time>
</trkpt>
<trkpt lat="39.9186143" lon="3.0542142">
<ele>15.10</ele>
<time>2016-10-15T12:53:47Z</time>
</trkpt>
<trkpt lat="39.9184616" lon="3.0540406">
<ele>15.70</ele>
<time>2016-10-15T12:53:54Z</time>
</trkpt>
<trkpt lat="39.9183019" lon="3.0538678">
<ele>16.08</ele>
<time>2016-10-15T12:54:00Z</time>
</trkpt>
<trkpt lat="39.9181520" lon="3.0536938">
<ele>16.22</ele>
<time>2016-10-15T12:54:05Z</time>
</trkpt>
<trkpt lat="39.9180017" lon="3.0535191">
<ele>16.47</ele>
<time>2016-10-15T12:54:10Z</time>
</trkpt>
<trkpt lat="39.9178573" lon="3.0533553">
<ele>16.24</ele>
<time>2016-10-15T12:54:15Z</time>
</trkpt>
<trkpt lat="39.9177114" lon="3.0532039">
<ele>16.01</ele>
<time>2016-10-15T12:54:20Z</time>
</trkpt>
<trkpt lat="39.9176054" lon="3.0530066">
<ele>16.06</ele>
<time>2016-10-15T12:54:28Z</time>
</trkpt>
<trkpt lat="39.9177266" lon="3.0528148">
<ele>18.50</ele>
<time>2016-10-15T12:54:38Z</time>
</trkpt>
<trkpt lat="39.9178291" lon="3.0526211">
<ele>20.83</ele>
<time>2016-10-15T12:54:47Z</time>
</trkpt>
<trkpt lat="39.9179439" lon="3.0524237">
<ele>24.19</ele>
<time>2016-10-15T12:54:56Z</time>
</trkpt>
<trkpt lat="39.9180456" lon="3.0522251">
<ele>27.48</ele>
<time>2016-10-15T12:55:05Z</time>
</trkpt>
<trkpt lat="39.9181708" lon="3.0520104">
<ele>29.28</ele>
<time>2016-10-15T12:55:12Z</time>
</trkpt>
<trkpt lat="39.9182489" lon="3.0517763">
<ele>30.24</ele>
<time>2016-10-15T12:55:18Z</time>
</trkpt>
<trkpt lat="39.9181085" lon="3.0515872">
<ele>29.13</ele>
<time>2016-10-15T12:55:26Z</time>
</trkpt>
<trkpt lat="39.9179546" lon="3.0514211">
<ele>27.58</ele>
<time>2016-10-15T12:55:31Z</time>
</trkpt>
<trkpt lat="39.9177874" lon="3.0512326">
<ele>25.75</ele>
<time>2016-10-15T12:55:36Z</time>
</trkpt>
<trkpt lat="39.9176350" lon="3.0510673">
<ele>23.59</ele>
<time>2016-10-15T12:55:40Z</time>
</trkpt>
<trkpt lat="39.9174871" lon="3.0509109">
<ele>22.98</ele>
<time>2016-10-15T12:55:44Z</time>
</trkpt>
<trkpt lat="39.9173393" lon="3.0506946">
<ele>24.48</ele>
<time>2016-10-15T12:55:48Z</time>
</trkpt>
<trkpt lat="39.9172040" lon="3.0504430">
<ele>24.00</ele>
<time>2016-10-15T12:55:52Z</time>
</trkpt>
<trkpt lat="39.9171085" lon="3.0502440">
<ele>22.79</ele>
<time>2016-10-15T12:55:55Z</time>
</trkpt>
<trkpt lat="39.9170096" lon="3.0499780">
<ele>23.96</ele>
<time>2016-10-15T12:55:59Z</time>
</trkpt>
<trkpt lat="39.9169100" lon="3.0497188">
<ele>25.95</ele>
<time>2016-10-15T12:56:03Z</time>
</trkpt>
<trkpt lat="39.9168019" lon="3.0495060">
<ele>27.20</ele>
<time>2016-10-15T12:56:07Z</time>
</trkpt>
<trkpt lat="39.9166933" lon="3.0492621">
<ele>24.54</ele>
<time>2016-10-15T12:56:11Z</time>
</trkpt>
<trkpt lat="39.9165859" lon="3.0490412">
<ele>22.63</ele>
<time>2016-10-15T12:56:15Z</time>
</trkpt>
<trkpt lat="39.9164626" lon="3.0487989">
<ele>21.62</ele>
<time>2016-10-15T12:56:19Z</time>
</trkpt>
<trkpt lat="39.9163392" lon="3.0485387">
<ele>21.94</ele>
<time>2016-10-15T12:56:23Z</time>
</trkpt>
<trkpt lat="39.9162322" lon="3.0483364">
<ele>20.51</ele>
<time>2016-10-15T12:56:26Z</time>
</trkpt>
<trkpt lat="39.9161125" lon="3.0480848">
<ele>17.41</ele>
<time>2016-10-15T12:56:29Z</time>
</trkpt>
<trkpt lat="39.9159864" lon="3.0478132">
<ele>17.01</ele>
<time>2016-10-15T12:56:32Z</time>
</trkpt>
<trkpt lat="39.9158481" lon="3.0475390">
<ele>17.68</ele>
<time>2016-10-15T12:56:35Z</time>
</trkpt>
<trkpt lat="39.9157133" lon="3.0472429">
<ele>17.50</ele>
<time>2016-10-15T12:56:38Z</time>
</trkpt>
<trkpt lat="39.9156240" lon="3.0470201">
<ele>16.55</ele>
<time>2016-10-15T12:56:40Z</time>
</trkpt>
<trkpt lat="39.9155528" lon="3.0467961">
<ele>16.29</ele>
<time>2016-10-15T12:56:42Z</time>
</trkpt>
<trkpt lat="39.9154971" lon="3.0465714">
<ele>16.41</ele>
<time>2016-10-15T12:56:44Z</time>
</trkpt>
<trkpt lat="39.9154303" lon="3.0462325">
<ele>16.33</ele>
<time>2016-10-15T12:56:47Z</time>
</trkpt>
<trkpt lat="39.9153739" lon="3.0460084">
<ele>15.78</ele>
<time>2016-10-15T12:56:49Z</time>
</trkpt>
<trkpt lat="39.9152685" lon="3.0456958">
<ele>13.81</ele>
<time>2016-10-15T12:56:52Z</time>
</trkpt>
<trkpt lat="39.9151317" lon="3.0454236">
<ele>11.95</ele>
<time>2016-10-15T12:56:55Z</time>
</trkpt>
<trkpt lat="39.9149678" lon="3.0452342">
<ele>11.07</ele>
<time>2016-10-15T12:56:58Z</time>
</trkpt>
<trkpt lat="39.9148055" lon="3.0450380">
<ele>11.76</ele>
<time>2016-10-15T12:57:01Z</time>
</trkpt>
<trkpt lat="39.9146396" lon="3.0448460">
<ele>11.45</ele>
<time>2016-10-15T12:57:04Z</time>
</trkpt>
<trkpt lat="39.9144810" lon="3.0446702">
<ele>10.42</ele>
<time>2016-10-15T12:57:07Z</time>
</trkpt>
<trkpt lat="39.9143298" lon="3.0445092">
<ele>9.85</ele>
<time>2016-10-15T12:57:10Z</time>
</trkpt>
<trkpt lat="39.9141785" lon="3.0443520">
<ele>8.95</ele>
<time>2016-10-15T12:57:13Z</time>
</trkpt>
<trkpt lat="39.9140109" lon="3.0441628">
<ele>9.38</ele>
<time>2016-10-15T12:57:16Z</time>
</trkpt>
<trkpt lat="39.9138228" lon="3.0439383">
<ele>8.99</ele>
<time>2016-10-15T12:57:19Z</time>
</trkpt>
<trkpt lat="39.9136350" lon="3.0436963">
<ele>8.67</ele>
<time>2016-10-15T12:57:22Z</time>
</trkpt>
<trkpt lat="39.9135111" lon="3.0435014">
<ele>8.32</ele>
<time>2016-10-15T12:57:24Z</time>
</trkpt>
<trkpt lat="39.9134016" lon="3.0433069">
<ele>8.46</ele>
<time>2016-10-15T12:57:26Z</time>
</trkpt>
<trkpt lat="39.9132902" lon="3.0430966">
<ele>8.44</ele>
<time>2016-10-15T12:57:28Z</time>
</trkpt>
<trkpt lat="39.9131916" lon="3.0428987">
<ele>9.07</ele>
<time>2016-10-15T12:57:30Z</time>
</trkpt>
<trkpt lat="39.9130504" lon="3.0426115">
<ele>11.78</ele>
<time>2016-10-15T12:57:33Z</time>
</trkpt>
<trkpt lat="39.9128951" lon="3.0423342">
<ele>13.25</ele>
<time>2016-10-15T12:57:36Z</time>
</trkpt>
<trkpt lat="39.9127372" lon="3.0420672">
<ele>14.82</ele>
<time>2016-10-15T12:57:39Z</time>
</trkpt>
<trkpt lat="39.9125712" lon="3.0417953">
<ele>14.84</ele>
<time>2016-10-15T12:57:42Z</time>
</trkpt>
<trkpt lat="39.9124146" lon="3.0415161">
<ele>12.23</ele>
<time>2016-10-15T12:57:45Z</time>
</trkpt>
<trkpt lat="39.9122842" lon="3.0412576">
<ele>9.79</ele>
<time>2016-10-15T12:57:48Z</time>
</trkpt>
<trkpt lat="39.9121658" lon="3.0410316">
<ele>7.74</ele>
<time>2016-10-15T12:57:51Z</time>
</trkpt>
<trkpt lat="39.9120227" lon="3.0408174">
<ele>5.39</ele>
<time>2016-10-15T12:57:54Z</time>
</trkpt>
<trkpt lat="39.9118534" lon="3.0406557">
<ele>5.74</ele>
<time>2016-10-15T12:57:57Z</time>
</trkpt>
<trkpt lat="39.9116698" lon="3.0405633">
<ele>6.02</ele>
<time>2016-10-15T12:58:00Z</time>
</trkpt>
<trkpt lat="39.9114856" lon="3.0405004">
<ele>6.59</ele>
<time>2016-10-15T12:58:03Z</time>
</trkpt>
<trkpt lat="39.9113007" lon="3.0404385">
<ele>7.65</ele>
<time>2016-10-15T12:58:06Z</time>
</trkpt>
<trkpt lat="39.9111274" lon="3.0403469">
<ele>8.49</ele>
<time>2016-10-15T12:58:09Z</time>
</trkpt>
<trkpt lat="39.9109475" lon="3.0402431">
<ele>8.53</ele>
<time>2016-10-15T12:58:12Z</time>
</trkpt>
<trkpt lat="39.9107665" lon="3.0401294">
<ele>8.48</ele>
<time>2016-10-15T12:58:15Z</time>
</trkpt>
<trkpt lat="39.9105740" lon="3.0400560">
<ele>7.95</ele>
<time>2016-10-15T12:58:18Z</time>
</trkpt>
<trkpt lat="39.9103867" lon="3.0399810">
<ele>8.79</ele>
<time>2016-10-15T12:58:21Z</time>
</trkpt>
<trkpt lat="39.9102061" lon="3.0398777">
<ele>8.53</ele>
<time>2016-10-15T12:58:24Z</time>
</trkpt>
<trkpt lat="39.9100168" lon="3.0397713">
<ele>8.31</ele>
<time>2016-10-15T12:58:27Z</time>
</trkpt>
<trkpt lat="39.9098149" lon="3.0396863">
<ele>8.05</ele>
<time>2016-10-15T12:58:30Z</time>
</trkpt>
<trkpt lat="39.9096043" lon="3.0396134">
<ele>7.67</ele>
<time>2016-10-15T12:58:33Z</time>
</trkpt>
<trkpt lat="39.9094061" lon="3.0395250">
<ele>7.30</ele>
<time>2016-10-15T12:58:36Z</time>
</trkpt>
<trkpt lat="39.9092083" lon="3.0393984">
<ele>8.27</ele>
<time>2016-10-15T12:58:39Z</time>
</trkpt>
<trkpt lat="39.9090228" lon="3.0392528">
<ele>7.59</ele>
<time>2016-10-15T12:58:42Z</time>
</trkpt>
<trkpt lat="39.9088429" lon="3.0390860">
<ele>6.42</ele>
<time>2016-10-15T12:58:45Z</time>
</trkpt>
<trkpt lat="39.9086733" lon="3.0389276">
<ele>6.52</ele>
<time>2016-10-15T12:58:48Z</time>
</trkpt>
<trkpt lat="39.9084993" lon="3.0387963">
<ele>7.08</ele>
<time>2016-10-15T12:58:51Z</time>
</trkpt>
<trkpt lat="39.9083279" lon="3.0386824">
<ele>7.28</ele>
<time>2016-10-15T12:58:54Z</time>
</trkpt>
<trkpt lat="39.9081596" lon="3.0385822">
<ele>7.83</ele>
<time>2016-10-15T12:58:57Z</time>
</trkpt>
<trkpt lat="39.9079797" lon="3.0384912">
<ele>9.22</ele>
<time>2016-10-15T12:59:00Z</time>
</trkpt>
<trkpt lat="39.9077981" lon="3.0384036">
<ele>9.90</ele>
<time>2016-10-15T12:59:03Z</time>
</trkpt>
<trkpt lat="39.9076239" lon="3.0383245">
<ele>11.04</ele>
<time>2016-10-15T12:59:06Z</time>
</trkpt>
<trkpt lat="39.9074367" lon="3.0382403">
<ele>11.64</ele>
<time>2016-10-15T12:59:09Z</time>
</trkpt>
<trkpt lat="39.9072413" lon="3.0381675">
<ele>11.25</ele>
<time>2016-10-15T12:59:12Z</time>
</trkpt>
<trkpt lat="39.9070595" lon="3.0381098">
<ele>10.99</ele>
<time>2016-10-15T12:59:15Z</time>
</trkpt>
<trkpt lat="39.9068753" lon="3.0380483">
<ele>11.40</ele>
<time>2016-10-15T12:59:18Z</time>
</trkpt>
<trkpt lat="39.9066793" lon="3.0379715">
<ele>11.93</ele>
<time>2016-10-15T12:59:21Z</time>
</trkpt>
<trkpt lat="39.9065059" lon="3.0378647">
<ele>12.19</ele>
<time>2016-10-15T12:59:24Z</time>
</trkpt>
<trkpt lat="39.9063503" lon="3.0377066">
<ele>12.95</ele>
<time>2016-10-15T12:59:27Z</time>
</trkpt>
<trkpt lat="39.9062050" lon="3.0375665">
<ele>12.03</ele>
<time>2016-10-15T12:59:30Z</time>
</trkpt>
<trkpt lat="39.9059931" lon="3.0375499">
<ele>12.02</ele>
<time>2016-10-15T12:59:34Z</time>
</trkpt>
<trkpt lat="39.9057715" lon="3.0376444">
<ele>14.39</ele>
<time>2016-10-15T12:59:38Z</time>
</trkpt>
<trkpt lat="39.9055856" lon="3.0377312">
<ele>16.23</ele>
<time>2016-10-15T12:59:41Z</time>
</trkpt>
<trkpt lat="39.9053674" lon="3.0378206">
<ele>18.13</ele>
<time>2016-10-15T12:59:45Z</time>
</trkpt>
<trkpt lat="39.9051498" lon="3.0378877">
<ele>19.80</ele>
<time>2016-10-15T12:59:49Z</time>
</trkpt>
<trkpt lat="39.9049243" lon="3.0378904">
<ele>22.76</ele>
<time>2016-10-15T12:59:53Z</time>
</trkpt>
<trkpt lat="39.9047235" lon="3.0378371">
<ele>23.34</ele>
<time>2016-10-15T12:59:57Z</time>
</trkpt>
<trkpt lat="39.9045447" lon="3.0377161">
<ele>23.99</ele>
<time>2016-10-15T13:00:01Z</time>
</trkpt>
<trkpt lat="39.9043879" lon="3.0375847">
<ele>24.12</ele>
<time>2016-10-15T13:00:05Z</time>
</trkpt>
<trkpt lat="39.9042229" lon="3.0374212">
<ele>26.25</ele>
<time>2016-10-15T13:00:09Z</time>
</trkpt>
<trkpt lat="39.9040377" lon="3.0372584">
<ele>24.71</ele>
<time>2016-10-15T13:00:13Z</time>
</trkpt>
<trkpt lat="39.9038532" lon="3.0371360">
<ele>25.10</ele>
<time>2016-10-15T13:00:17Z</time>
</trkpt>
<trkpt lat="39.9036506" lon="3.0370044">
<ele>24.25</ele>
<time>2016-10-15T13:00:21Z</time>
</trkpt>
<trkpt lat="39.9034385" lon="3.0368928">
<ele>23.42</ele>
<time>2016-10-15T13:00:26Z</time>
</trkpt>
<trkpt lat="39.9032542" lon="3.0368616">
<ele>24.39</ele>
<time>2016-10-15T13:00:30Z</time>
</trkpt>
<trkpt lat="39.9030744" lon="3.0368297">
<ele>27.54</ele>
<time>2016-10-15T13:00:34Z</time>
</trkpt>
<trkpt lat="39.9028524" lon="3.0368071">
<ele>31.35</ele>
<time>2016-10-15T13:00:39Z</time>
</trkpt>
<trkpt lat="39.9026468" lon="3.0367664">
<ele>34.32</ele>
<time>2016-10-15T13:00:43Z</time>
</trkpt>
<trkpt lat="39.9024525" lon="3.0367504">
<ele>37.76</ele>
<time>2016-10-15T13:00:47Z</time>
</trkpt>
<trkpt lat="39.9022510" lon="3.0367909">
<ele>36.89</ele>
<time>2016-10-15T13:00:51Z</time>
</trkpt>
<trkpt lat="39.9020554" lon="3.0368648">
<ele>34.25</ele>
<time>2016-10-15T13:00:55Z</time>
</trkpt>
<trkpt lat="39.9018344" lon="3.0369344">
<ele>30.87</ele>
<time>2016-10-15T13:00:59Z</time>
</trkpt>
<trkpt lat="39.9016013" lon="3.0369655">
<ele>31.42</ele>
<time>2016-10-15T13:01:03Z</time>
</trkpt>
<trkpt lat="39.9013538" lon="3.0368657">
<ele>33.55</ele>
<time>2016-10-15T13:01:06Z</time>
</trkpt>
<trkpt lat="39.9011827" lon="3.0367076">
<ele>34.52</ele>
<time>2016-10-15T13:01:08Z</time>
</trkpt>
<trkpt lat="39.9010391" lon="3.0365391">
<ele>33.12</ele>
<time>2016-10-15T13:01:10Z</time>
</trkpt>
<trkpt lat="39.9008688" lon="3.0362994">
<ele>28.70</ele>
<time>2016-10-15T13:01:13Z</time>
</trkpt>
<trkpt lat="39.9007149" lon="3.0360351">
<ele>25.50</ele>
<time>2016-10-15T13:01:16Z</time>
</trkpt>
<trkpt lat="39.9005567" lon="3.0358237">
<ele>24.32</ele>
<time>2016-10-15T13:01:19Z</time>
</trkpt>
<trkpt lat="39.9003901" lon="3.0356283">
<ele>22.87</ele>
<time>2016-10-15T13:01:22Z</time>
</trkpt>
<trkpt lat="39.9002289" lon="3.0354377">
<ele>19.86</ele>
<time>2016-10-15T13:01:25Z</time>
</trkpt>
<trkpt lat="39.9000664" lon="3.0352610">
<ele>17.32</ele>
<time>2016-10-15T13:01:28Z</time>
</trkpt>
<trkpt lat="39.8999122" lon="3.0350955">
<ele>16.09</ele>
<time>2016-10-15T13:01:31Z</time>
</trkpt>
<trkpt lat="39.8997670" lon="3.0349563">
<ele>17.56</ele>
<time>2016-10-15T13:01:34Z</time>
</trkpt>
<trkpt lat="39.8995589" lon="3.0347809">
<ele>21.04</ele>
<time>2016-10-15T13:01:38Z</time>
</trkpt>
<trkpt lat="39.8993752" lon="3.0347055">
<ele>23.63</ele>
<time>2016-10-15T13:01:41Z</time>
</trkpt>
<trkpt lat="39.8991611" lon="3.0346732">
<ele>26.53</ele>
<time>2016-10-15T13:01:44Z</time>
</trkpt>
<trkpt lat="39.8988945" lon="3.0346363">
<ele>30.66</ele>
<time>2016-10-15T13:01:47Z</time>
</trkpt>
<trkpt lat="39.8986406" lon="3.0345546">
<ele>32.14</ele>
<time>2016-10-15T13:01:50Z</time>
</trkpt>
<trkpt lat="39.8984043" lon="3.0344464">
<ele>31.10</ele>
<time>2016-10-15T13:01:53Z</time>
</trkpt>
<trkpt lat="39.8981786" lon="3.0343387">
<ele>28.40</ele>
<time>2016-10-15T13:01:56Z</time>
</trkpt>
<trkpt lat="39.8979599" lon="3.0342267">
<ele>26.74</ele>
<time>2016-10-15T13:01:59Z</time>
</trkpt>
<trkpt lat="39.8977587" lon="3.0341397">
<ele>25.40</ele>
<time>2016-10-15T13:02:02Z</time>
</trkpt>
<trkpt lat="39.8975296" lon="3.0340498">
<ele>23.82</ele>
<time>2016-10-15T13:02:05Z</time>
</trkpt>
<trkpt lat="39.8973249" lon="3.0339442">
<ele>22.21</ele>
<time>2016-10-15T13:02:08Z</time>
</trkpt>
<trkpt lat="39.8971346" lon="3.0338398">
<ele>19.70</ele>
<time>2016-10-15T13:02:11Z</time>
</trkpt>
<trkpt lat="39.8969113" lon="3.0337584">
<ele>18.09</ele>
<time>2016-10-15T13:02:14Z</time>
</trkpt>
<trkpt lat="39.8967093" lon="3.0337594">
<ele>17.41</ele>
<time>2016-10-15T13:02:17Z</time>
</trkpt>
<trkpt lat="39.8965234" lon="3.0337879">
<ele>18.32</ele>
<time>2016-10-15T13:02:20Z</time>
</trkpt>
<trkpt lat="39.8963228" lon="3.0338733">
<ele>21.05</ele>
<time>2016-10-15T13:02:24Z</time>
</trkpt>
<trkpt lat="39.8961660" lon="3.0340004">
<ele>24.17</ele>
<time>2016-10-15T13:02:28Z</time>
</trkpt>
<trkpt lat="39.8959934" lon="3.0341588">
<ele>25.07</ele>
<time>2016-10-15T13:02:33Z</time>
</trkpt>
<trkpt lat="39.8958229" lon="3.0343227">
<ele>27.59</ele>
<time>2016-10-15T13:02:37Z</time>
</trkpt>
<trkpt lat="39.8956287" lon="3.0344909">
<ele>30.97</ele>
<time>2016-10-15T13:02:41Z</time>
</trkpt>
<trkpt lat="39.8954501" lon="3.0346324">
<ele>31.69</ele>
<time>2016-10-15T13:02:44Z</time>
</trkpt>
<trkpt lat="39.8952574" lon="3.0347875">
<ele>31.02</ele>
<time>2016-10-15T13:02:47Z</time>
</trkpt>
<trkpt lat="39.8950579" lon="3.0349484">
<ele>29.22</ele>
<time>2016-10-15T13:02:51Z</time>
</trkpt>
<trkpt lat="39.8949045" lon="3.0350761">
<ele>28.74</ele>
<time>2016-10-15T13:02:54Z</time>
</trkpt>
<trkpt lat="39.8947473" lon="3.0352282">
<ele>27.73</ele>
<time>2016-10-15T13:02:57Z</time>
</trkpt>
<trkpt lat="39.8945978" lon="3.0353732">
<ele>27.54</ele>
<time>2016-10-15T13:03:00Z</time>
</trkpt>
<trkpt lat="39.8944253" lon="3.0355439">
<ele>28.90</ele>
<time>2016-10-15T13:03:04Z</time>
</trkpt>
<trkpt lat="39.8942416" lon="3.0357400">
<ele>30.42</ele>
<time>2016-10-15T13:03:08Z</time>
</trkpt>
<trkpt lat="39.8940595" lon="3.0359141">
<ele>31.70</ele>
<time>2016-10-15T13:03:12Z</time>
</trkpt>
<trkpt lat="39.8939053" lon="3.0360515">
<ele>32.05</ele>
<time>2016-10-15T13:03:15Z</time>
</trkpt>
<trkpt lat="39.8937385" lon="3.0361919">
<ele>31.15</ele>
<time>2016-10-15T13:03:18Z</time>
</trkpt>
<trkpt lat="39.8935743" lon="3.0363255">
<ele>30.14</ele>
<time>2016-10-15T13:03:21Z</time>
</trkpt>
<trkpt lat="39.8933864" lon="3.0364652">
<ele>30.88</ele>
<time>2016-10-15T13:03:25Z</time>
</trkpt>
<trkpt lat="39.8931893" lon="3.0366137">
<ele>32.06</ele>
<time>2016-10-15T13:03:29Z</time>
</trkpt>
<trkpt lat="39.8929960" lon="3.0367800">
<ele>32.15</ele>
<time>2016-10-15T13:03:33Z</time>
</trkpt>
<trkpt lat="39.8928349" lon="3.0369405">
<ele>30.29</ele>
<time>2016-10-15T13:03:37Z</time>
</trkpt>
<trkpt lat="39.8926779" lon="3.0370664">
<ele>30.17</ele>
<time>2016-10-15T13:03:43Z</time>
</trkpt>
<trkpt lat="39.8926335" lon="3.0373367">
<ele>30.76</ele>
<time>2016-10-15T13:03:54Z</time>
</trkpt>
<trkpt lat="39.8927218" lon="3.0375440">
<ele>30.94</ele>
<time>2016-10-15T13:04:00Z</time>
</trkpt>
<trkpt lat="39.8928162" lon="3.0377494">
<ele>31.00</ele>
<time>2016-10-15T13:04:06Z</time>
</trkpt>
<trkpt lat="39.8929063" lon="3.0379921">
<ele>30.57</ele>
<time>2016-10-15T13:04:11Z</time>
</trkpt>
<trkpt lat="39.8929682" lon="3.0382264">
<ele>30.48</ele>
<time>2016-10-15T13:04:15Z</time>
</trkpt>
<trkpt lat="39.8930483" lon="3.0384991">
<ele>28.57</ele>
<time>2016-10-15T13:04:19Z</time>
</trkpt>
<trkpt lat="39.8931422" lon="3.0387802">
<ele>25.85</ele>
<time>2016-10-15T13:04:23Z</time>
</trkpt>
<trkpt lat="39.8931655" lon="3.0390587">
<ele>23.95</ele>
<time>2016-10-15T13:04:27Z</time>
</trkpt>
<trkpt lat="39.8930105" lon="3.0392027">
<ele>23.28</ele>
<time>2016-10-15T13:04:31Z</time>
</trkpt>
<trkpt lat="39.8928537" lon="3.0393540">
<ele>25.43</ele>
<time>2016-10-15T13:04:34Z</time>
</trkpt>
<trkpt lat="39.8926733" lon="3.0395390">
<ele>26.84</ele>
<time>2016-10-15T13:04:37Z</time>
</trkpt>
<trkpt lat="39.8925059" lon="3.0397174">
<ele>26.75</ele>
<time>2016-10-15T13:04:42Z</time>
</trkpt>
<trkpt lat="39.8923640" lon="3.0399252">
<ele>26.67</ele>
<time>2016-10-15T13:04:59Z</time>
</trkpt>
<trkpt lat="39.8922497" lon="3.0401193">
<ele>26.53</ele>
<time>2016-10-15T13:05:04Z</time>
</trkpt>
<trkpt lat="39.8921483" lon="3.0403219">
<ele>26.09</ele>
<time>2016-10-15T13:05:09Z</time>
</trkpt>
<trkpt lat="39.8920647" lon="3.0405499">
<ele>25.65</ele>
<time>2016-10-15T13:05:16Z</time>
</trkpt>
<trkpt lat="39.8920331" lon="3.0407960">
<ele>22.79</ele>
<time>2016-10-15T13:07:24Z</time>
</trkpt>
<trkpt lat="39.8920181" lon="3.0410378">
<ele>23.03</ele>
<time>2016-10-15T13:07:31Z</time>
</trkpt>
<trkpt lat="39.8919988" lon="3.0413184">
<ele>23.79</ele>
<time>2016-10-15T13:07:37Z</time>
</trkpt>
<trkpt lat="39.8919756" lon="3.0415726">
<ele>24.35</ele>
<time>2016-10-15T13:07:41Z</time>
</trkpt>
<trkpt lat="39.8919721" lon="3.0418435">
<ele>25.10</ele>
<time>2016-10-15T13:07:45Z</time>
</trkpt>
<trkpt lat="39.8919814" lon="3.0421469">
<ele>23.92</ele>
<time>2016-10-15T13:07:49Z</time>
</trkpt>
<trkpt lat="39.8920172" lon="3.0424298">
<ele>22.73</ele>
<time>2016-10-15T13:07:53Z</time>
</trkpt>
<trkpt lat="39.8919138" lon="3.0426956">
<ele>22.01</ele>
<time>2016-10-15T13:07:57Z</time>
</trkpt>
<trkpt lat="39.8917742" lon="3.0428457">
<ele>21.37</ele>
<time>2016-10-15T13:08:00Z</time>
</trkpt>
<trkpt lat="39.8915821" lon="3.0429755">
<ele>22.01</ele>
<time>2016-10-15T13:08:04Z</time>
</trkpt>
<trkpt lat="39.8913734" lon="3.0431061">
<ele>22.74</ele>
<time>2016-10-15T13:08:08Z</time>
</trkpt>
<trkpt lat="39.8911489" lon="3.0432443">
<ele>23.25</ele>
<time>2016-10-15T13:08:12Z</time>
</trkpt>
<trkpt lat="39.8909655" lon="3.0433466">
<ele>23.11</ele>
<time>2016-10-15T13:08:15Z</time>
</trkpt>
<trkpt lat="39.8907836" lon="3.0434559">
<ele>22.98</ele>
<time>2016-10-15T13:08:18Z</time>
</trkpt>
<trkpt lat="39.8905827" lon="3.0435766">
<ele>22.87</ele>
<time>2016-10-15T13:08:22Z</time>
</trkpt>
<trkpt lat="39.8903866" lon="3.0436901">
<ele>22.53</ele>
<time>2016-10-15T13:08:26Z</time>
</trkpt>
<trkpt lat="39.8902470" lon="3.0438702">
<ele>22.49</ele>
<time>2016-10-15T13:08:31Z</time>
</trkpt>
<trkpt lat="39.8902906" lon="3.0440987">
<ele>22.34</ele>
<time>2016-10-15T13:08:35Z</time>
</trkpt>
<trkpt lat="39.8903763" lon="3.0443402">
<ele>22.79</ele>
<time>2016-10-15T13:08:39Z</time>
</trkpt>
<trkpt lat="39.8904775" lon="3.0445544">
<ele>24.80</ele>
<time>2016-10-15T13:08:41Z</time>
</trkpt>
<trkpt lat="39.8905761" lon="3.0447677">
<ele>27.58</ele>
<time>2016-10-15T13:08:44Z</time>
</trkpt>
<trkpt lat="39.8906821" lon="3.0450122">
<ele>30.42</ele>
<time>2016-10-15T13:08:47Z</time>
</trkpt>
<trkpt lat="39.8907997" lon="3.0452671">
<ele>32.06</ele>
<time>2016-10-15T13:08:51Z</time>
</trkpt>
<trkpt lat="39.8909266" lon="3.0455212">
<ele>33.42</ele>
<time>2016-10-15T13:08:55Z</time>
</trkpt>
<trkpt lat="39.8910379" lon="3.0457652">
<ele>34.27</ele>
<time>2016-10-15T13:08:58Z</time>
</trkpt>
<trkpt lat="39.8911540" lon="3.0459985">
<ele>34.11</ele>
<time>2016-10-15T13:09:01Z</time>
</trkpt>
<trkpt lat="39.8912559" lon="3.0462273">
<ele>33.86</ele>
<time>2016-10-15T13:09:04Z</time>
</trkpt>
<trkpt lat="39.8913252" lon="3.0465274">
<ele>34.74</ele>
<time>2016-10-15T13:09:08Z</time>
</trkpt>
<trkpt lat="39.8912157" lon="3.0467875">
<ele>35.36</ele>
<time>2016-10-15T13:09:11Z</time>
</trkpt>
<trkpt lat="39.8910950" lon="3.0470172">
<ele>30.17</ele>
<time>2016-10-15T13:09:14Z</time>
</trkpt>
<trkpt lat="39.8909538" lon="3.0472152">
<ele>25.45</ele>
<time>2016-10-15T13:09:17Z</time>
</trkpt>
<trkpt lat="39.8908077" lon="3.0474004">
<ele>22.67</ele>
<time>2016-10-15T13:09:20Z</time>
</trkpt>
<trkpt lat="39.8906707" lon="3.0475758">
<ele>22.13</ele>
<time>2016-10-15T13:09:23Z</time>
</trkpt>
<trkpt lat="39.8905288" lon="3.0477391">
<ele>22.05</ele>
<time>2016-10-15T13:09:26Z</time>
</trkpt>
<trkpt lat="39.8903525" lon="3.0479327">
<ele>21.56</ele>
<time>2016-10-15T13:09:30Z</time>
</trkpt>
<trkpt lat="39.8902062" lon="3.0481034">
<ele>21.66</ele>
<time>2016-10-15T13:09:33Z</time>
</trkpt>
<trkpt lat="39.8900729" lon="3.0482693">
<ele>21.68</ele>
<time>2016-10-15T13:09:36Z</time>
</trkpt>
<trkpt lat="39.8899206" lon="3.0484778">
<ele>21.07</ele>
<time>2016-10-15T13:09:40Z</time>
</trkpt>
<trkpt lat="39.8898600" lon="3.0487711">
<ele>18.56</ele>
<time>2016-10-15T13:09:44Z</time>
</trkpt>
<trkpt lat="39.8898646" lon="3.0490078">
<ele>17.64</ele>
<time>2016-10-15T13:09:48Z</time>
</trkpt>
<trkpt lat="39.8897386" lon="3.0491957">
<ele>17.01</ele>
<time>2016-10-15T13:11:39Z</time>
</trkpt>
<trkpt lat="39.8895593" lon="3.0492306">
<ele>16.86</ele>
<time>2016-10-15T13:11:44Z</time>
</trkpt>
<trkpt lat="39.8893404" lon="3.0492234">
<ele>18.18</ele>
<time>2016-10-15T13:11:49Z</time>
</trkpt>
<trkpt lat="39.8891433" lon="3.0492070">
<ele>21.00</ele>
<time>2016-10-15T13:11:53Z</time>
</trkpt>
<trkpt lat="39.8889424" lon="3.0491955">
<ele>22.63</ele>
<time>2016-10-15T13:11:57Z</time>
</trkpt>
<trkpt lat="39.8887346" lon="3.0491723">
<ele>23.89</ele>
<time>2016-10-15T13:12:01Z</time>
</trkpt>
<trkpt lat="39.8885832" lon="3.0489560">
<ele>24.80</ele>
<time>2016-10-15T13:12:05Z</time>
</trkpt>
<trkpt lat="39.8884735" lon="3.0486943">
<ele>24.76</ele>
<time>2016-10-15T13:12:09Z</time>
</trkpt>
<trkpt lat="39.8883946" lon="3.0484639">
<ele>24.21</ele>
<time>2016-10-15T13:12:12Z</time>
</trkpt>
<trkpt lat="39.8883105" lon="3.0482274">
<ele>23.34</ele>
<time>2016-10-15T13:12:15Z</time>
</trkpt>
<trkpt lat="39.8882334" lon="3.0480056">
<ele>21.22</ele>
<time>2016-10-15T13:12:18Z</time>
</trkpt>
<trkpt lat="39.8881640" lon="3.0477645">
<ele>19.51</ele>
<time>2016-10-15T13:12:21Z</time>
</trkpt>
<trkpt lat="39.8880937" lon="3.0475429">
<ele>18.67</ele>
<time>2016-10-15T13:12:24Z</time>
</trkpt>
<trkpt lat="39.8880101" lon="3.0472506">
<ele>16.43</ele>
<time>2016-10-15T13:12:28Z</time>
</trkpt>
<trkpt lat="39.8879360" lon="3.0470294">
<ele>14.92</ele>
<time>2016-10-15T13:12:31Z</time>
</trkpt>
<trkpt lat="39.8878338" lon="3.0467583">
<ele>14.24</ele>
<time>2016-10-15T13:12:35Z</time>
</trkpt>
<trkpt lat="39.8877559" lon="3.0465315">
<ele>13.05</ele>
<time>2016-10-15T13:12:38Z</time>
</trkpt>
<trkpt lat="39.8876884" lon="3.0463139">
<ele>13.29</ele>
<time>2016-10-15T13:12:41Z</time>
</trkpt>
<trkpt lat="39.8876028" lon="3.0460601">
<ele>14.60</ele>
<time>2016-10-15T13:12:45Z</time>
</trkpt>
<trkpt lat="39.8875098" lon="3.0457832">
<ele>15.75</ele>
<time>2016-10-15T13:12:49Z</time>
</trkpt>
<trkpt lat="39.8874260" lon="3.0455170">
<ele>16.17</ele>
<time>2016-10-15T13:12:53Z</time>
</trkpt>
<trkpt lat="39.8872228" lon="3.0455207">
<ele>17.46</ele>
<time>2016-10-15T13:12:57Z</time>
</trkpt>
<trkpt lat="39.8870482" lon="3.0456322">
<ele>20.31</ele>
<time>2016-10-15T13:13:00Z</time>
</trkpt>
<trkpt lat="39.8868537" lon="3.0457507">
<ele>22.34</ele>
<time>2016-10-15T13:13:03Z</time>
</trkpt>
<trkpt lat="39.8866787" lon="3.0458284">
<ele>22.54</ele>
<time>2016-10-15T13:13:06Z</time>
</trkpt>
<trkpt lat="39.8865222" lon="3.0456248">
<ele>21.26</ele>
<time>2016-10-15T13:13:12Z</time>
</trkpt>
<trkpt lat="39.8863305" lon="3.0455756">
<ele>19.46</ele>
<time>2016-10-15T13:13:15Z</time>
</trkpt>
<trkpt lat="39.8860966" lon="3.0455340">
<ele>17.86</ele>
<time>2016-10-15T13:13:19Z</time>
</trkpt>
<trkpt lat="39.8858557" lon="3.0454885">
<ele>16.08</ele>
<time>2016-10-15T13:13:23Z</time>
</trkpt>
<trkpt lat="39.8856690" lon="3.0454658">
<ele>15.02</ele>
<time>2016-10-15T13:13:26Z</time>
</trkpt>
<trkpt lat="39.8854360" lon="3.0454376">
<ele>15.12</ele>
<time>2016-10-15T13:13:30Z</time>
</trkpt>
<trkpt lat="39.8852175" lon="3.0454202">
<ele>16.61</ele>
<time>2016-10-15T13:13:34Z</time>
</trkpt>
<trkpt lat="39.8849875" lon="3.0454122">
<ele>19.13</ele>
<time>2016-10-15T13:13:38Z</time>
</trkpt>
<trkpt lat="39.8847505" lon="3.0454222">
<ele>23.18</ele>
<time>2016-10-15T13:13:42Z</time>
</trkpt>
<trkpt lat="39.8845077" lon="3.0454265">
<ele>24.86</ele>
<time>2016-10-15T13:13:46Z</time>
</trkpt>
<trkpt lat="39.8843105" lon="3.0454345">
<ele>25.50</ele>
<time>2016-10-15T13:13:49Z</time>
</trkpt>
<trkpt lat="39.8841298" lon="3.0454248">
<ele>24.65</ele>
<time>2016-10-15T13:13:52Z</time>
</trkpt>
<trkpt lat="39.8839264" lon="3.0454035">
<ele>22.78</ele>
<time>2016-10-15T13:13:57Z</time>
</trkpt>
<trkpt lat="39.8837351" lon="3.0454643">
<ele>23.30</ele>
<time>2016-10-15T13:14:05Z</time>
</trkpt>
<trkpt lat="39.8835159" lon="3.0454623">
<ele>26.39</ele>
<time>2016-10-15T13:14:09Z</time>
</trkpt>
<trkpt lat="39.8833289" lon="3.0454667">
<ele>27.60</ele>
<time>2016-10-15T13:14:12Z</time>
</trkpt>
<trkpt lat="39.8831015" lon="3.0454656">
<ele>30.34</ele>
<time>2016-10-15T13:14:16Z</time>
</trkpt>
<trkpt lat="39.8829021" lon="3.0454493">
<ele>29.24</ele>
<time>2016-10-15T13:14:20Z</time>
</trkpt>
<trkpt lat="39.8826605" lon="3.0454432">
<ele>28.15</ele>
<time>2016-10-15T13:14:24Z</time>
</trkpt>
<trkpt lat="39.8824614" lon="3.0454382">
<ele>26.51</ele>
<time>2016-10-15T13:14:27Z</time>
</trkpt>
<trkpt lat="39.8822625" lon="3.0454366">
<ele>25.48</ele>
<time>2016-10-15T13:14:30Z</time>
</trkpt>
<trkpt lat="39.8820514" lon="3.0454452">
<ele>24.20</ele>
<time>2016-10-15T13:14:33Z</time>
</trkpt>
<trkpt lat="39.8818389" lon="3.0454453">
<ele>23.19</ele>
<time>2016-10-15T13:14:36Z</time>
</trkpt>
<trkpt lat="39.8816442" lon="3.0454398">
<ele>22.05</ele>
<time>2016-10-15T13:14:39Z</time>
</trkpt>
<trkpt lat="39.8814590" lon="3.0454511">
<ele>22.64</ele>
<time>2016-10-15T13:14:42Z</time>
</trkpt>
<trkpt lat="39.8812298" lon="3.0454473">
<ele>22.51</ele>
<time>2016-10-15T13:14:46Z</time>
</trkpt>
<trkpt lat="39.8810229" lon="3.0453970">
<ele>21.62</ele>
<time>2016-10-15T13:14:49Z</time>
</trkpt>
<trkpt lat="39.8808078" lon="3.0453118">
<ele>18.89</ele>
<time>2016-10-15T13:14:53Z</time>
</trkpt>
<trkpt lat="39.8806196" lon="3.0455066">
<ele>18.86</ele>
<time>2016-10-15T13:14:57Z</time>
</trkpt>
<trkpt lat="39.8805190" lon="3.0457294">
<ele>17.31</ele>
<time>2016-10-15T13:15:00Z</time>
</trkpt>
<trkpt lat="39.8804406" lon="3.0459449">
<ele>15.82</ele>
<time>2016-10-15T13:15:03Z</time>
</trkpt>
<trkpt lat="39.8803541" lon="3.0461561">
<ele>15.26</ele>
<time>2016-10-15T13:15:09Z</time>
</trkpt>
<trkpt lat="39.8802276" lon="3.0459457">
<ele>15.69</ele>
<time>2016-10-15T13:18:52Z</time>
</trkpt>
<trkpt lat="39.8801197" lon="3.0457482">
<ele>16.10</ele>
<time>2016-10-15T13:18:57Z</time>
</trkpt>
<trkpt lat="39.8799951" lon="3.0455117">
<ele>15.42</ele>
<time>2016-10-15T13:19:02Z</time>
</trkpt>
<trkpt lat="39.8799011" lon="3.0452736">
<ele>14.77</ele>
<time>2016-10-15T13:19:06Z</time>
</trkpt>
<trkpt lat="39.8798110" lon="3.0450281">
<ele>13.70</ele>
<time>2016-10-15T13:19:10Z</time>
</trkpt>
<trkpt lat="39.8797254" lon="3.0447737">
<ele>12.60</ele>
<time>2016-10-15T13:19:14Z</time>
</trkpt>
<trkpt lat="39.8795601" lon="3.0446301">
<ele>13.71</ele>
<time>2016-10-15T13:19:19Z</time>
</trkpt>
<trkpt lat="39.8794703" lon="3.0444257">
<ele>14.59</ele>
<time>2016-10-15T13:19:24Z</time>
</trkpt>
<trkpt lat="39.8795084" lon="3.0441649">
<ele>15.83</ele>
<time>2016-10-15T13:19:28Z</time>
</trkpt>
<trkpt lat="39.8795520" lon="3.0438728">
<ele>16.80</ele>
<time>2016-10-15T13:19:32Z</time>
</trkpt>
<trkpt lat="39.8795895" lon="3.0436037">
<ele>18.22</ele>
<time>2016-10-15T13:19:36Z</time>
</trkpt>
<trkpt lat="39.8796302" lon="3.0433210">
<ele>18.36</ele>
<time>2016-10-15T13:19:40Z</time>
</trkpt>
<trkpt lat="39.8796879" lon="3.0430313">
<ele>19.18</ele>
<time>2016-10-15T13:19:44Z</time>
</trkpt>
<trkpt lat="39.8797402" lon="3.0427674">
<ele>21.31</ele>
<time>2016-10-15T13:19:48Z</time>
</trkpt>
<trkpt lat="39.8797966" lon="3.0424758">
<ele>20.80</ele>
<time>2016-10-15T13:19:52Z</time>
</trkpt>
<trkpt lat="39.8798308" lon="3.0422346">
<ele>20.09</ele>
<time>2016-10-15T13:19:55Z</time>
</trkpt>
<trkpt lat="39.8798677" lon="3.0420034">
<ele>20.02</ele>
<time>2016-10-15T13:19:58Z</time>
</trkpt>
<trkpt lat="39.8798992" lon="3.0417484">
<ele>20.68</ele>
<time>2016-10-15T13:20:02Z</time>
</trkpt>
<trkpt lat="39.8797662" lon="3.0415579">
<ele>19.32</ele>
<time>2016-10-15T13:20:08Z</time>
</trkpt>
<trkpt lat="39.8795659" lon="3.0414656">
<ele>19.43</ele>
<time>2016-10-15T13:20:12Z</time>
</trkpt>
<trkpt lat="39.8793545" lon="3.0414453">
<ele>20.08</ele>
<time>2016-10-15T13:20:16Z</time>
</trkpt>
<trkpt lat="39.8791311" lon="3.0414965">
<ele>19.28</ele>
<time>2016-10-15T13:20:20Z</time>
</trkpt>
<trkpt lat="39.8789267" lon="3.0414360">
<ele>19.45</ele>
<time>2016-10-15T13:20:24Z</time>
</trkpt>
<trkpt lat="39.8787864" lon="3.0412416">
<ele>20.21</ele>
<time>2016-10-15T13:20:28Z</time>
</trkpt>
<trkpt lat="39.8786310" lon="3.0410423">
<ele>21.82</ele>
<time>2016-10-15T13:20:32Z</time>
</trkpt>
<trkpt lat="39.8784780" lon="3.0408185">
<ele>24.16</ele>
<time>2016-10-15T13:20:36Z</time>
</trkpt>
<trkpt lat="39.8783558" lon="3.0406314">
<ele>24.28</ele>
<time>2016-10-15T13:20:39Z</time>
</trkpt>
<trkpt lat="39.8783065" lon="3.0403260">
<ele>27.15</ele>
<time>2016-10-15T13:20:43Z</time>
</trkpt>
<trkpt lat="39.8782760" lon="3.0400788">
<ele>28.23</ele>
<time>2016-10-15T13:20:46Z</time>
</trkpt>
<trkpt lat="39.8782485" lon="3.0398196">
<ele>29.29</ele>
<time>2016-10-15T13:20:49Z</time>
</trkpt>
<trkpt lat="39.8782254" lon="3.0395756">
<ele>30.57</ele>
<time>2016-10-15T13:20:52Z</time>
</trkpt>
<trkpt lat="39.8781751" lon="3.0392598">
<ele>29.62</ele>
<time>2016-10-15T13:20:56Z</time>
</trkpt>
<trkpt lat="39.8781257" lon="3.0390276">
<ele>28.46</ele>
<time>2016-10-15T13:20:59Z</time>
</trkpt>
<trkpt lat="39.8780950" lon="3.0387824">
<ele>26.88</ele>
<time>2016-10-15T13:21:03Z</time>
</trkpt>
<trkpt lat="39.8781782" lon="3.0385538">
<ele>25.45</ele>
<time>2016-10-15T13:21:07Z</time>
</trkpt>
<trkpt lat="39.8782269" lon="3.0382727">
<ele>25.84</ele>
<time>2016-10-15T13:21:12Z</time>
</trkpt>
<trkpt lat="39.8782087" lon="3.0380077">
<ele>26.72</ele>
<time>2016-10-15T13:21:16Z</time>
</trkpt>
<trkpt lat="39.8782308" lon="3.0377104">
<ele>27.36</ele>
<time>2016-10-15T13:21:20Z</time>
</trkpt>
<trkpt lat="39.8782943" lon="3.0374561">
<ele>28.90</ele>
<time>2016-10-15T13:21:25Z</time>
</trkpt>
<trkpt lat="39.8783178" lon="3.0372104">
<ele>31.25</ele>
<time>2016-10-15T13:21:29Z</time>
</trkpt>
<trkpt lat="39.8783492" lon="3.0369630">
<ele>34.35</ele>
<time>2016-10-15T13:21:33Z</time>
</trkpt>
<trkpt lat="39.8782832" lon="3.0367388">
<ele>35.83</ele>
<time>2016-10-15T13:21:38Z</time>
</trkpt>
<trkpt lat="39.8781184" lon="3.0365637">
<ele>36.26</ele>
<time>2016-10-15T13:21:44Z</time>
</trkpt>
<trkpt lat="39.8779401" lon="3.0364024">
<ele>37.19</ele>
<time>2016-10-15T13:21:48Z</time>
</trkpt>
<trkpt lat="39.8777451" lon="3.0362413">
<ele>37.80</ele>
<time>2016-10-15T13:21:52Z</time>
</trkpt>
<trkpt lat="39.8775860" lon="3.0360938">
<ele>37.49</ele>
<time>2016-10-15T13:21:55Z</time>
</trkpt>
<trkpt lat="39.8773995" lon="3.0359496">
<ele>35.47</ele>
<time>2016-10-15T13:21:58Z</time>
</trkpt>
<trkpt lat="39.8772095" lon="3.0358154">
<ele>32.12</ele>
<time>2016-10-15T13:22:01Z</time>
</trkpt>
<trkpt lat="39.8770045" lon="3.0357032">
<ele>30.32</ele>
<time>2016-10-15T13:22:04Z</time>
</trkpt>
<trkpt lat="39.8767984" lon="3.0356412">
<ele>28.36</ele>
<time>2016-10-15T13:22:07Z</time>
</trkpt>
<trkpt lat="39.8766055" lon="3.0355947">
<ele>27.00</ele>
<time>2016-10-15T13:22:11Z</time>
</trkpt>
<trkpt lat="39.8764740" lon="3.0354273">
<ele>26.27</ele>
<time>2016-10-15T13:22:22Z</time>
</trkpt>
<trkpt lat="39.8764341" lon="3.0351890">
<ele>26.67</ele>
<time>2016-10-15T13:22:26Z</time>
</trkpt>
<trkpt lat="39.8763991" lon="3.0349067">
<ele>27.04</ele>
<time>2016-10-15T13:22:31Z</time>
</trkpt>
<trkpt lat="39.8763706" lon="3.0346675">
<ele>27.62</ele>
<time>2016-10-15T13:22:35Z</time>
</trkpt>
<trkpt lat="39.8761696" lon="3.0346299">
<ele>26.88</ele>
<time>2016-10-15T13:22:46Z</time>
</trkpt>
<trkpt lat="39.8760277" lon="3.0347804">
<ele>26.04</ele>
<time>2016-10-15T13:22:50Z</time>
</trkpt>
<trkpt lat="39.8758316" lon="3.0349128">
<ele>27.03</ele>
<time>2016-10-15T13:22:54Z</time>
</trkpt>
<trkpt lat="39.8756413" lon="3.0349723">
<ele>26.80</ele>
<time>2016-10-15T13:22:57Z</time>
</trkpt>
<trkpt lat="39.8754541" lon="3.0349625">
<ele>24.83</ele>
<time>2016-10-15T13:23:00Z</time>
</trkpt>
<trkpt lat="39.8752660" lon="3.0349738">
<ele>23.30</ele>
<time>2016-10-15T13:23:03Z</time>
</trkpt>
<trkpt lat="39.8750785" lon="3.0349858">
<ele>23.62</ele>
<time>2016-10-15T13:23:06Z</time>
</trkpt>
<trkpt lat="39.8748832" lon="3.0349869">
<ele>23.12</ele>
<time>2016-10-15T13:23:09Z</time>
</trkpt>
<trkpt lat="39.8746865" lon="3.0349801">
<ele>23.20</ele>
<time>2016-10-15T13:23:12Z</time>
</trkpt>
<trkpt lat="39.8744808" lon="3.0349518">
<ele>23.11</ele>
<time>2016-10-15T13:23:15Z</time>
</trkpt>
<trkpt lat="39.8742958" lon="3.0349274">
<ele>23.24</ele>
<time>2016-10-15T13:23:18Z</time>
</trkpt>
<trkpt lat="39.8741099" lon="3.0348943">
<ele>23.28</ele>
<time>2016-10-15T13:23:21Z</time>
</trkpt>
<trkpt lat="39.8739128" lon="3.0348529">
<ele>22.44</ele>
<time>2016-10-15T13:23:24Z</time>
</trkpt>
<trkpt lat="39.8737178" lon="3.0348283">
<ele>21.95</ele>
<time>2016-10-15T13:23:27Z</time>
</trkpt>
<trkpt lat="39.8735347" lon="3.0348228">
<ele>22.77</ele>
<time>2016-10-15T13:23:30Z</time>
</trkpt>
<trkpt lat="39.8732880" lon="3.0348103">
<ele>22.44</ele>
<time>2016-10-15T13:23:34Z</time>
</trkpt>
<trkpt lat="39.8730916" lon="3.0348000">
<ele>20.24</ele>
<time>2016-10-15T13:23:37Z</time>
</trkpt>
<trkpt lat="39.8728925" lon="3.0347840">
<ele>17.56</ele>
<time>2016-10-15T13:23:40Z</time>
</trkpt>
<trkpt lat="39.8727126" lon="3.0346974">
<ele>16.36</ele>
<time>2016-10-15T13:23:44Z</time>
</trkpt>
<trkpt lat="39.8727500" lon="3.0344548">
<ele>19.64</ele>
<time>2016-10-15T13:23:49Z</time>
</trkpt>
<trkpt lat="39.8726070" lon="3.0342472">
<ele>24.22</ele>
<time>2016-10-15T13:23:54Z</time>
</trkpt>
<trkpt lat="39.8724302" lon="3.0340951">
<ele>25.35</ele>
<time>2016-10-15T13:23:58Z</time>
</trkpt>
<trkpt lat="39.8723204" lon="3.0339030">
<ele>24.52</ele>
<time>2016-10-15T13:24:01Z</time>
</trkpt>
<trkpt lat="39.8722030" lon="3.0337064">
<ele>24.11</ele>
<time>2016-10-15T13:24:04Z</time>
</trkpt>
<trkpt lat="39.8720806" lon="3.0335262">
<ele>23.70</ele>
<time>2016-10-15T13:24:07Z</time>
</trkpt>
<trkpt lat="39.8719080" lon="3.0333153">
<ele>21.95</ele>
<time>2016-10-15T13:24:11Z</time>
</trkpt>
<trkpt lat="39.8717299" lon="3.0331161">
<ele>21.44</ele>
<time>2016-10-15T13:24:15Z</time>
</trkpt>
<trkpt lat="39.8715682" lon="3.0329282">
<ele>19.31</ele>
<time>2016-10-15T13:24:19Z</time>
</trkpt>
<trkpt lat="39.8714410" lon="3.0327458">
<ele>18.91</ele>
<time>2016-10-15T13:24:23Z</time>
</trkpt>
<trkpt lat="39.8712929" lon="3.0328835">
<ele>25.06</ele>
<time>2016-10-15T13:25:47Z</time>
</trkpt>
<trkpt lat="39.8712168" lon="3.0330991">
<ele>27.35</ele>
<time>2016-10-15T13:25:50Z</time>
</trkpt>
<trkpt lat="39.8711214" lon="3.0333321">
<ele>27.89</ele>
<time>2016-10-15T13:25:54Z</time>
</trkpt>
<trkpt lat="39.8710388" lon="3.0335456">
<ele>28.39</ele>
<time>2016-10-15T13:25:57Z</time>
</trkpt>
<trkpt lat="39.8709508" lon="3.0337960">
<ele>27.59</ele>
<time>2016-10-15T13:26:00Z</time>
</trkpt>
<trkpt lat="39.8708589" lon="3.0340477">
<ele>27.59</ele>
<time>2016-10-15T13:26:03Z</time>
</trkpt>
<trkpt lat="39.8707739" lon="3.0342922">
<ele>27.95</ele>
<time>2016-10-15T13:26:06Z</time>
</trkpt>
<trkpt lat="39.8706841" lon="3.0345324">
<ele>28.36</ele>
<time>2016-10-15T13:26:09Z</time>
</trkpt>
<trkpt lat="39.8705908" lon="3.0347867">
<ele>27.82</ele>
<time>2016-10-15T13:26:12Z</time>
</trkpt>
<trkpt lat="39.8704913" lon="3.0350459">
<ele>27.23</ele>
<time>2016-10-15T13:26:15Z</time>
</trkpt>
<trkpt lat="39.8703926" lon="3.0353011">
<ele>27.27</ele>
<time>2016-10-15T13:26:18Z</time>
</trkpt>
<trkpt lat="39.8702941" lon="3.0355556">
<ele>28.78</ele>
<time>2016-10-15T13:26:21Z</time>
</trkpt>
<trkpt lat="39.8702041" lon="3.0358142">
<ele>29.55</ele>
<time>2016-10-15T13:26:24Z</time>
</trkpt>
<trkpt lat="39.8701322" lon="3.0360623">
<ele>28.87</ele>
<time>2016-10-15T13:26:27Z</time>
</trkpt>
<trkpt lat="39.8700685" lon="3.0363151">
<ele>28.44</ele>
<time>2016-10-15T13:26:30Z</time>
</trkpt>
<trkpt lat="39.8700062" lon="3.0365945">
<ele>28.45</ele>
<time>2016-10-15T13:26:33Z</time>
</trkpt>
<trkpt lat="39.8699408" lon="3.0368623">
<ele>29.77</ele>
<time>2016-10-15T13:26:36Z</time>
</trkpt>
<trkpt lat="39.8698769" lon="3.0371395">
<ele>31.27</ele>
<time>2016-10-15T13:26:39Z</time>
</trkpt>
<trkpt lat="39.8698238" lon="3.0374234">
<ele>31.02</ele>
<time>2016-10-15T13:26:42Z</time>
</trkpt>
<trkpt lat="39.8697584" lon="3.0377458">
<ele>29.94</ele>
<time>2016-10-15T13:26:45Z</time>
</trkpt>
<trkpt lat="39.8696808" lon="3.0380458">
<ele>29.70</ele>
<time>2016-10-15T13:26:48Z</time>
</trkpt>
<trkpt lat="39.8695674" lon="3.0383014">
<ele>31.08</ele>
<time>2016-10-15T13:26:51Z</time>
</trkpt>
<trkpt lat="39.8694099" lon="3.0385117">
<ele>31.58</ele>
<time>2016-10-15T13:26:54Z</time>
</trkpt>
<trkpt lat="39.8692295" lon="3.0387132">
<ele>30.35</ele>
<time>2016-10-15T13:26:57Z</time>
</trkpt>
<trkpt lat="39.8690691" lon="3.0389375">
<ele>29.10</ele>
<time>2016-10-15T13:27:00Z</time>
</trkpt>
<trkpt lat="39.8689294" lon="3.0391451">
<ele>27.87</ele>
<time>2016-10-15T13:27:03Z</time>
</trkpt>
<trkpt lat="39.8688029" lon="3.0393408">
<ele>26.77</ele>
<time>2016-10-15T13:27:06Z</time>
</trkpt>
<trkpt lat="39.8686546" lon="3.0395544">
<ele>25.87</ele>
<time>2016-10-15T13:27:10Z</time>
</trkpt>
<trkpt lat="39.8685399" lon="3.0397424">
<ele>27.71</ele>
<time>2016-10-15T13:27:14Z</time>
</trkpt>
<trkpt lat="39.8683816" lon="3.0398784">
<ele>28.11</ele>
<time>2016-10-15T13:27:20Z</time>
</trkpt>
<trkpt lat="39.8681910" lon="3.0399192">
<ele>28.57</ele>
<time>2016-10-15T13:27:26Z</time>
</trkpt>
<trkpt lat="39.8680106" lon="3.0399628">
<ele>30.97</ele>
<time>2016-10-15T13:27:31Z</time>
</trkpt>
<trkpt lat="39.8678137" lon="3.0400162">
<ele>32.25</ele>
<time>2016-10-15T13:27:36Z</time>
</trkpt>
<trkpt lat="39.8676247" lon="3.0401286">
<ele>32.97</ele>
<time>2016-10-15T13:27:41Z</time>
</trkpt>
<trkpt lat="39.8674625" lon="3.0402939">
<ele>34.22</ele>
<time>2016-10-15T13:27:46Z</time>
</trkpt>
<trkpt lat="39.8672831" lon="3.0404793">
<ele>33.65</ele>
<time>2016-10-15T13:27:51Z</time>
</trkpt>
<trkpt lat="39.8671406" lon="3.0406290">
<ele>33.80</ele>
<time>2016-10-15T13:27:55Z</time>
</trkpt>
<trkpt lat="39.8669712" lon="3.0408032">
<ele>34.87</ele>
<time>2016-10-15T13:28:00Z</time>
</trkpt>
<trkpt lat="39.8667936" lon="3.0409797">
<ele>36.25</ele>
<time>2016-10-15T13:28:05Z</time>
</trkpt>
<trkpt lat="39.8666301" lon="3.0411409">
<ele>37.23</ele>
<time>2016-10-15T13:28:10Z</time>
</trkpt>
<trkpt lat="39.8664608" lon="3.0413156">
<ele>38.25</ele>
<time>2016-10-15T13:28:15Z</time>
</trkpt>
<trkpt lat="39.8663017" lon="3.0415031">
<ele>40.37</ele>
<time>2016-10-15T13:28:20Z</time>
</trkpt>
<trkpt lat="39.8661385" lon="3.0416751">
<ele>41.32</ele>
<time>2016-10-15T13:28:24Z</time>
</trkpt>
<trkpt lat="39.8659651" lon="3.0418618">
<ele>42.15</ele>
<time>2016-10-15T13:28:28Z</time>
</trkpt>
<trkpt lat="39.8657813" lon="3.0420541">
<ele>43.82</ele>
<time>2016-10-15T13:28:32Z</time>
</trkpt>
<trkpt lat="39.8656105" lon="3.0422375">
<ele>44.19</ele>
<time>2016-10-15T13:28:36Z</time>
</trkpt>
<trkpt lat="39.8653939" lon="3.0423466">
<ele>42.98</ele>
<time>2016-10-15T13:28:40Z</time>
</trkpt>
<trkpt lat="39.8652053" lon="3.0422886">
<ele>41.37</ele>
<time>2016-10-15T13:28:44Z</time>
</trkpt>
<trkpt lat="39.8650257" lon="3.0421915">
<ele>40.82</ele>
<time>2016-10-15T13:28:48Z</time>
</trkpt>
<trkpt lat="39.8648538" lon="3.0420909">
<ele>38.40</ele>
<time>2016-10-15T13:28:52Z</time>
</trkpt>
<trkpt lat="39.8646853" lon="3.0420033">
<ele>37.86</ele>
<time>2016-10-15T13:28:56Z</time>
</trkpt>
<trkpt lat="39.8645168" lon="3.0418642">
<ele>40.11</ele>
<time>2016-10-15T13:29:01Z</time>
</trkpt>
<trkpt lat="39.8643533" lon="3.0417286">
<ele>41.33</ele>
<time>2016-10-15T13:29:06Z</time>
</trkpt>
<trkpt lat="39.8641821" lon="3.0415808">
<ele>41.29</ele>
<time>2016-10-15T13:29:11Z</time>
</trkpt>
<trkpt lat="39.8639945" lon="3.0414556">
<ele>41.64</ele>
<time>2016-10-15T13:29:17Z</time>
</trkpt>
<trkpt lat="39.8638066" lon="3.0413298">
<ele>43.36</ele>
<time>2016-10-15T13:29:23Z</time>
</trkpt>
<trkpt lat="39.8636237" lon="3.0411762">
<ele>45.07</ele>
<time>2016-10-15T13:29:28Z</time>
</trkpt>
<trkpt lat="39.8634491" lon="3.0410429">
<ele>44.11</ele>
<time>2016-10-15T13:29:33Z</time>
</trkpt>
<trkpt lat="39.8632724" lon="3.0408926">
<ele>46.60</ele>
<time>2016-10-15T13:29:38Z</time>
</trkpt>
<trkpt lat="39.8631099" lon="3.0407454">
<ele>48.09</ele>
<time>2016-10-15T13:29:44Z</time>
</trkpt>
<trkpt lat="39.8629497" lon="3.0405906">
<ele>48.39</ele>
<time>2016-10-15T13:29:50Z</time>
</trkpt>
<trkpt lat="39.8627968" lon="3.0404515">
<ele>48.54</ele>
<time>2016-10-15T13:29:55Z</time>
</trkpt>
<trkpt lat="39.8626360" lon="3.0403268">
<ele>49.28</ele>
<time>2016-10-15T13:30:01Z</time>
</trkpt>
<trkpt lat="39.8624466" lon="3.0401965">
<ele>49.39</ele>
<time>2016-10-15T13:30:07Z</time>
</trkpt>
<trkpt lat="39.8622977" lon="3.0400631">
<ele>49.45</ele>
<time>2016-10-15T13:30:12Z</time>
</trkpt>
<trkpt lat="39.8621159" lon="3.0399637">
<ele>49.82</ele>
<time>2016-10-15T13:30:20Z</time>
</trkpt>
<trkpt lat="39.8619452" lon="3.0400699">
<ele>55.06</ele>
<time>2016-10-15T13:30:26Z</time>
</trkpt>
<trkpt lat="39.8617729" lon="3.0402072">
<ele>58.61</ele>
<time>2016-10-15T13:30:30Z</time>
</trkpt>
<trkpt lat="39.8616158" lon="3.0403365">
<ele>59.81</ele>
<time>2016-10-15T13:30:33Z</time>
</trkpt>
<trkpt lat="39.8614294" lon="3.0404963">
<ele>59.41</ele>
<time>2016-10-15T13:30:36Z</time>
</trkpt>
<trkpt lat="39.8611919" lon="3.0406885">
<ele>57.60</ele>
<time>2016-10-15T13:30:39Z</time>
</trkpt>
<trkpt lat="39.8610102" lon="3.0408346">
<ele>55.71</ele>
<time>2016-10-15T13:30:41Z</time>
</trkpt>
<trkpt lat="39.8608292" lon="3.0409770">
<ele>53.30</ele>
<time>2016-10-15T13:30:43Z</time>
</trkpt>
<trkpt lat="39.8606505" lon="3.0411132">
<ele>51.45</ele>
<time>2016-10-15T13:30:45Z</time>
</trkpt>
<trkpt lat="39.8604949" lon="3.0412337">
<ele>49.42</ele>
<time>2016-10-15T13:30:47Z</time>
</trkpt>
<trkpt lat="39.8602761" lon="3.0413118">
<ele>46.66</ele>
<time>2016-10-15T13:30:50Z</time>
</trkpt>
<trkpt lat="39.8601022" lon="3.0412030">
<ele>44.34</ele>
<time>2016-10-15T13:30:53Z</time>
</trkpt>
<trkpt lat="39.8599086" lon="3.0410450">
<ele>43.86</ele>
<time>2016-10-15T13:30:57Z</time>
</trkpt>
<trkpt lat="39.8597611" lon="3.0409031">
<ele>43.71</ele>
<time>2016-10-15T13:31:00Z</time>
</trkpt>
<trkpt lat="39.8595685" lon="3.0407132">
<ele>42.30</ele>
<time>2016-10-15T13:31:04Z</time>
</trkpt>
<trkpt lat="39.8594049" lon="3.0405429">
<ele>41.99</ele>
<time>2016-10-15T13:31:07Z</time>
</trkpt>
<trkpt lat="39.8592566" lon="3.0403844">
<ele>41.88</ele>
<time>2016-10-15T13:31:10Z</time>
</trkpt>
<trkpt lat="39.8591129" lon="3.0402396">
<ele>41.64</ele>
<time>2016-10-15T13:31:13Z</time>
</trkpt>
<trkpt lat="39.8589592" lon="3.0400932">
<ele>40.59</ele>
<time>2016-10-15T13:31:16Z</time>
</trkpt>
<trkpt lat="39.8587986" lon="3.0399147">
<ele>38.70</ele>
<time>2016-10-15T13:31:19Z</time>
</trkpt>
<trkpt lat="39.8586472" lon="3.0397236">
<ele>36.29</ele>
<time>2016-10-15T13:31:22Z</time>
</trkpt>
<trkpt lat="39.8584875" lon="3.0395460">
<ele>34.24</ele>
<time>2016-10-15T13:31:25Z</time>
</trkpt>
<trkpt lat="39.8583206" lon="3.0393634">
<ele>33.45</ele>
<time>2016-10-15T13:31:28Z</time>
</trkpt>
<trkpt lat="39.8581648" lon="3.0391904">
<ele>32.86</ele>
<time>2016-10-15T13:31:31Z</time>
</trkpt>
<trkpt lat="39.8579780" lon="3.0390165">
<ele>32.82</ele>
<time>2016-10-15T13:31:35Z</time>
</trkpt>
<trkpt lat="39.8577989" lon="3.0389513">
<ele>33.08</ele>
<time>2016-10-15T13:31:39Z</time>
</trkpt>
<trkpt lat="39.8576081" lon="3.0387727">
<ele>34.94</ele>
<time>2016-10-15T13:31:43Z</time>
</trkpt>
<trkpt lat="39.8574241" lon="3.0385922">
<ele>36.31</ele>
<time>2016-10-15T13:31:47Z</time>
</trkpt>
<trkpt lat="39.8572420" lon="3.0384242">
<ele>37.21</ele>
<time>2016-10-15T13:31:51Z</time>
</trkpt>
<trkpt lat="39.8570798" lon="3.0382559">
<ele>37.50</ele>
<time>2016-10-15T13:31:55Z</time>
</trkpt>
<trkpt lat="39.8569259" lon="3.0381154">
<ele>37.94</ele>
<time>2016-10-15T13:31:59Z</time>
</trkpt>
<trkpt lat="39.8567682" lon="3.0379598">
<ele>38.89</ele>
<time>2016-10-15T13:32:03Z</time>
</trkpt>
<trkpt lat="39.8566255" lon="3.0378094">
<ele>39.99</ele>
<time>2016-10-15T13:32:07Z</time>
</trkpt>
<trkpt lat="39.8564567" lon="3.0376355">
<ele>40.56</ele>
<time>2016-10-15T13:32:11Z</time>
</trkpt>
<trkpt lat="39.8563040" lon="3.0375055">
<ele>40.33</ele>
<time>2016-10-15T13:32:14Z</time>
</trkpt>
<trkpt lat="39.8561318" lon="3.0373797">
<ele>39.70</ele>
<time>2016-10-15T13:32:17Z</time>
</trkpt>
<trkpt lat="39.8559366" lon="3.0372738">
<ele>39.49</ele>
<time>2016-10-15T13:32:20Z</time>
</trkpt>
<trkpt lat="39.8557323" lon="3.0371294">
<ele>38.67</ele>
<time>2016-10-15T13:32:23Z</time>
</trkpt>
<trkpt lat="39.8556003" lon="3.0369453">
<ele>36.88</ele>
<time>2016-10-15T13:32:26Z</time>
</trkpt>
<trkpt lat="39.8554495" lon="3.0367295">
<ele>35.57</ele>
<time>2016-10-15T13:32:30Z</time>
</trkpt>
<trkpt lat="39.8554605" lon="3.0364747">
<ele>34.99</ele>
<time>2016-10-15T13:32:34Z</time>
</trkpt>
<trkpt lat="39.8555546" lon="3.0362225">
<ele>35.57</ele>
<time>2016-10-15T13:32:38Z</time>
</trkpt>
<trkpt lat="39.8556596" lon="3.0360086">
<ele>36.49</ele>
<time>2016-10-15T13:32:42Z</time>
</trkpt>
<trkpt lat="39.8557805" lon="3.0357759">
<ele>37.38</ele>
<time>2016-10-15T13:32:46Z</time>
</trkpt>
<trkpt lat="39.8558920" lon="3.0355214">
<ele>36.26</ele>
<time>2016-10-15T13:32:50Z</time>
</trkpt>
<trkpt lat="39.8559859" lon="3.0352533">
<ele>36.00</ele>
<time>2016-10-15T13:32:54Z</time>
</trkpt>
<trkpt lat="39.8560591" lon="3.0349883">
<ele>35.19</ele>
<time>2016-10-15T13:32:58Z</time>
</trkpt>
<trkpt lat="39.8561021" lon="3.0347478">
<ele>36.13</ele>
<time>2016-10-15T13:33:03Z</time>
</trkpt>
<trkpt lat="39.8561588" lon="3.0344873">
<ele>38.12</ele>
<time>2016-10-15T13:33:08Z</time>
</trkpt>
<trkpt lat="39.8562431" lon="3.0342757">
<ele>41.81</ele>
<time>2016-10-15T13:33:12Z</time>
</trkpt>
<trkpt lat="39.8563478" lon="3.0340573">
<ele>42.51</ele>
<time>2016-10-15T13:33:16Z</time>
</trkpt>
<trkpt lat="39.8564859" lon="3.0338177">
<ele>42.02</ele>
<time>2016-10-15T13:33:21Z</time>
</trkpt>
<trkpt lat="39.8566036" lon="3.0336324">
<ele>41.26</ele>
<time>2016-10-15T13:33:25Z</time>
</trkpt>
<trkpt lat="39.8567367" lon="3.0334535">
<ele>42.95</ele>
<time>2016-10-15T13:33:29Z</time>
</trkpt>
<trkpt lat="39.8568941" lon="3.0332695">
<ele>43.37</ele>
<time>2016-10-15T13:33:34Z</time>
</trkpt>
<trkpt lat="39.8570403" lon="3.0330729">
<ele>42.92</ele>
<time>2016-10-15T13:33:39Z</time>
</trkpt>
<trkpt lat="39.8571374" lon="3.0328679">
<ele>42.89</ele>
<time>2016-10-15T13:33:44Z</time>
</trkpt>
<trkpt lat="39.8571843" lon="3.0326130">
<ele>43.12</ele>
<time>2016-10-15T13:33:50Z</time>
</trkpt>
<trkpt lat="39.8571754" lon="3.0323415">
<ele>44.46</ele>
<time>2016-10-15T13:33:56Z</time>
</trkpt>
<trkpt lat="39.8571773" lon="3.0320995">
<ele>46.32</ele>
<time>2016-10-15T13:34:01Z</time>
</trkpt>
<trkpt lat="39.8571882" lon="3.0318398">
<ele>46.26</ele>
<time>2016-10-15T13:34:06Z</time>
</trkpt>
<trkpt lat="39.8571938" lon="3.0316009">
<ele>46.22</ele>
<time>2016-10-15T13:34:12Z</time>
</trkpt>
<trkpt lat="39.8572013" lon="3.0313563">
<ele>46.95</ele>
<time>2016-10-15T13:34:23Z</time>
</trkpt>
<trkpt lat="39.8572155" lon="3.0311179">
<ele>47.81</ele>
<time>2016-10-15T13:34:29Z</time>
</trkpt>
<trkpt lat="39.8572301" lon="3.0308731">
<ele>48.95</ele>
<time>2016-10-15T13:34:36Z</time>
</trkpt>
<trkpt lat="39.8572419" lon="3.0306203">
<ele>49.54</ele>
<time>2016-10-15T13:34:42Z</time>
</trkpt>
<trkpt lat="39.8571833" lon="3.0303770">
<ele>50.60</ele>
<time>2016-10-15T13:34:50Z</time>
</trkpt>
<trkpt lat="39.8571167" lon="3.0301382">
<ele>51.94</ele>
<time>2016-10-15T13:34:58Z</time>
</trkpt>
<trkpt lat="39.8570350" lon="3.0299233">
<ele>52.92</ele>
<time>2016-10-15T13:35:05Z</time>
</trkpt>
<trkpt lat="39.8568257" lon="3.0299961">
<ele>55.97</ele>
<time>2016-10-15T13:35:21Z</time>
</trkpt>
<trkpt lat="39.8566580" lon="3.0302173">
<ele>54.80</ele>
<time>2016-10-15T13:35:25Z</time>
</trkpt>
<trkpt lat="39.8565157" lon="3.0304292">
<ele>52.41</ele>
<time>2016-10-15T13:35:28Z</time>
</trkpt>
<trkpt lat="39.8563578" lon="3.0306603">
<ele>49.78</ele>
<time>2016-10-15T13:35:31Z</time>
</trkpt>
<trkpt lat="39.8561885" lon="3.0309030">
<ele>47.78</ele>
<time>2016-10-15T13:35:34Z</time>
</trkpt>
<trkpt lat="39.8560056" lon="3.0311492">
<ele>46.50</ele>
<time>2016-10-15T13:35:37Z</time>
</trkpt>
<trkpt lat="39.8558055" lon="3.0314021">
<ele>46.52</ele>
<time>2016-10-15T13:35:40Z</time>
</trkpt>
<trkpt lat="39.8556573" lon="3.0315684">
<ele>46.49</ele>
<time>2016-10-15T13:35:42Z</time>
</trkpt>
<trkpt lat="39.8555101" lon="3.0317255">
<ele>46.17</ele>
<time>2016-10-15T13:35:44Z</time>
</trkpt>
<trkpt lat="39.8553583" lon="3.0318860">
<ele>45.73</ele>
<time>2016-10-15T13:35:46Z</time>
</trkpt>
<trkpt lat="39.8551977" lon="3.0320519">
<ele>44.95</ele>
<time>2016-10-15T13:35:48Z</time>
</trkpt>
<trkpt lat="39.8550413" lon="3.0322148">
<ele>44.06</ele>
<time>2016-10-15T13:35:50Z</time>
</trkpt>
<trkpt lat="39.8548850" lon="3.0323699">
<ele>43.01</ele>
<time>2016-10-15T13:35:52Z</time>
</trkpt>
<trkpt lat="39.8547371" lon="3.0325160">
<ele>42.21</ele>
<time>2016-10-15T13:35:54Z</time>
</trkpt>
<trkpt lat="39.8545887" lon="3.0326626">
<ele>41.58</ele>
<time>2016-10-15T13:35:56Z</time>
</trkpt>
<trkpt lat="39.8543844" lon="3.0328651">
<ele>41.03</ele>
<time>2016-10-15T13:35:59Z</time>
</trkpt>
<trkpt lat="39.8541902" lon="3.0330633">
<ele>40.68</ele>
<time>2016-10-15T13:36:02Z</time>
</trkpt>
<trkpt lat="39.8540167" lon="3.0332463">
<ele>41.27</ele>
<time>2016-10-15T13:36:05Z</time>
</trkpt>
<trkpt lat="39.8538504" lon="3.0334204">
<ele>42.08</ele>
<time>2016-10-15T13:36:08Z</time>
</trkpt>
<trkpt lat="39.8536936" lon="3.0335808">
<ele>42.93</ele>
<time>2016-10-15T13:36:11Z</time>
</trkpt>
<trkpt lat="39.8535498" lon="3.0337354">
<ele>43.68</ele>
<time>2016-10-15T13:36:14Z</time>
</trkpt>
<trkpt lat="39.8533701" lon="3.0339344">
<ele>44.37</ele>
<time>2016-10-15T13:36:18Z</time>
</trkpt>
<trkpt lat="39.8532191" lon="3.0340756">
<ele>44.36</ele>
<time>2016-10-15T13:36:21Z</time>
</trkpt>
<trkpt lat="39.8530596" lon="3.0341994">
<ele>44.84</ele>
<time>2016-10-15T13:36:24Z</time>
</trkpt>
<trkpt lat="39.8528416" lon="3.0343248">
<ele>45.36</ele>
<time>2016-10-15T13:36:28Z</time>
</trkpt>
<trkpt lat="39.8526178" lon="3.0344209">
<ele>44.13</ele>
<time>2016-10-15T13:36:32Z</time>
</trkpt>
<trkpt lat="39.8524074" lon="3.0344573">
<ele>45.39</ele>
<time>2016-10-15T13:36:36Z</time>
</trkpt>
<trkpt lat="39.8522264" lon="3.0344436">
<ele>46.56</ele>
<time>2016-10-15T13:36:39Z</time>
</trkpt>
<trkpt lat="39.8519914" lon="3.0343942">
<ele>49.74</ele>
<time>2016-10-15T13:36:43Z</time>
</trkpt>
<trkpt lat="39.8517921" lon="3.0343301">
<ele>51.87</ele>
<time>2016-10-15T13:36:46Z</time>
</trkpt>
<trkpt lat="39.8515985" lon="3.0342535">
<ele>52.97</ele>
<time>2016-10-15T13:36:49Z</time>
</trkpt>
<trkpt lat="39.8513871" lon="3.0341526">
<ele>53.55</ele>
<time>2016-10-15T13:36:52Z</time>
</trkpt>
<trkpt lat="39.8511770" lon="3.0340401">
<ele>53.16</ele>
<time>2016-10-15T13:36:55Z</time>
</trkpt>
<trkpt lat="39.8509570" lon="3.0339155">
<ele>52.45</ele>
<time>2016-10-15T13:36:58Z</time>
</trkpt>
<trkpt lat="39.8507489" lon="3.0338048">
<ele>52.49</ele>
<time>2016-10-15T13:37:01Z</time>
</trkpt>
<trkpt lat="39.8505358" lon="3.0337057">
<ele>53.29</ele>
<time>2016-10-15T13:37:04Z</time>
</trkpt>
<trkpt lat="39.8503303" lon="3.0336303">
<ele>53.64</ele>
<time>2016-10-15T13:37:07Z</time>
</trkpt>
<trkpt lat="39.8501144" lon="3.0335652">
<ele>53.89</ele>
<time>2016-10-15T13:37:10Z</time>
</trkpt>
<trkpt lat="39.8499015" lon="3.0335182">
<ele>53.58</ele>
<time>2016-10-15T13:37:13Z</time>
</trkpt>
<trkpt lat="39.8497129" lon="3.0334845">
<ele>53.20</ele>
<time>2016-10-15T13:37:16Z</time>
</trkpt>
<trkpt lat="39.8494921" lon="3.0334548">
<ele>54.35</ele>
<time>2016-10-15T13:37:20Z</time>
</trkpt>
<trkpt lat="39.8492981" lon="3.0334390">
<ele>54.86</ele>
<time>2016-10-15T13:37:23Z</time>
</trkpt>
<trkpt lat="39.8491068" lon="3.0334406">
<ele>55.81</ele>
<time>2016-10-15T13:37:26Z</time>
</trkpt>
<trkpt lat="39.8489203" lon="3.0334349">
<ele>55.86</ele>
<time>2016-10-15T13:37:29Z</time>
</trkpt>
<trkpt lat="39.8487035" lon="3.0334151">
<ele>55.35</ele>
<time>2016-10-15T13:37:33Z</time>
</trkpt>
<trkpt lat="39.8484693" lon="3.0333878">
<ele>54.50</ele>
<time>2016-10-15T13:37:37Z</time>
</trkpt>
<trkpt lat="39.8482364" lon="3.0333617">
<ele>55.69</ele>
<time>2016-10-15T13:37:41Z</time>
</trkpt>
<trkpt lat="39.8480078" lon="3.0333376">
<ele>56.34</ele>
<time>2016-10-15T13:37:45Z</time>
</trkpt>
<trkpt lat="39.8477807" lon="3.0332922">
<ele>56.63</ele>
<time>2016-10-15T13:37:49Z</time>
</trkpt>
<trkpt lat="39.8476021" lon="3.0332588">
<ele>56.78</ele>
<time>2016-10-15T13:37:52Z</time>
</trkpt>
<trkpt lat="39.8473780" lon="3.0332057">
<ele>57.38</ele>
<time>2016-10-15T13:37:56Z</time>
</trkpt>
<trkpt lat="39.8471602" lon="3.0331420">
<ele>57.42</ele>
<time>2016-10-15T13:38:00Z</time>
</trkpt>
<trkpt lat="39.8469474" lon="3.0330631">
<ele>58.22</ele>
<time>2016-10-15T13:38:04Z</time>
</trkpt>
<trkpt lat="39.8467538" lon="3.0329720">
<ele>58.94</ele>
<time>2016-10-15T13:38:08Z</time>
</trkpt>
<trkpt lat="39.8465666" lon="3.0328633">
<ele>58.76</ele>
<time>2016-10-15T13:38:12Z</time>
</trkpt>
<trkpt lat="39.8463959" lon="3.0327474">
<ele>59.52</ele>
<time>2016-10-15T13:38:16Z</time>
</trkpt>
<trkpt lat="39.8462180" lon="3.0326128">
<ele>60.76</ele>
<time>2016-10-15T13:38:20Z</time>
</trkpt>
<trkpt lat="39.8460350" lon="3.0324663">
<ele>62.16</ele>
<time>2016-10-15T13:38:24Z</time>
</trkpt>
<trkpt lat="39.8458569" lon="3.0323171">
<ele>63.39</ele>
<time>2016-10-15T13:38:28Z</time>
</trkpt>
<trkpt lat="39.8456789" lon="3.0321530">
<ele>64.54</ele>
<time>2016-10-15T13:38:32Z</time>
</trkpt>
<trkpt lat="39.8455076" lon="3.0319841">
<ele>65.41</ele>
<time>2016-10-15T13:38:36Z</time>
</trkpt>
<trkpt lat="39.8453511" lon="3.0318395">
<ele>66.21</ele>
<time>2016-10-15T13:38:40Z</time>
</trkpt>
<trkpt lat="39.8451930" lon="3.0317074">
<ele>68.38</ele>
<time>2016-10-15T13:38:44Z</time>
</trkpt>
<trkpt lat="39.8450207" lon="3.0315564">
<ele>70.16</ele>
<time>2016-10-15T13:38:49Z</time>
</trkpt>
<trkpt lat="39.8448399" lon="3.0314075">
<ele>70.10</ele>
<time>2016-10-15T13:38:54Z</time>
</trkpt>
<trkpt lat="39.8446498" lon="3.0312873">
<ele>72.03</ele>
<time>2016-10-15T13:38:59Z</time>
</trkpt>
<trkpt lat="39.8444928" lon="3.0311569">
<ele>73.43</ele>
<time>2016-10-15T13:39:03Z</time>
</trkpt>
<trkpt lat="39.8443239" lon="3.0310370">
<ele>75.40</ele>
<time>2016-10-15T13:39:07Z</time>
</trkpt>
<trkpt lat="39.8441477" lon="3.0309184">
<ele>76.57</ele>
<time>2016-10-15T13:39:11Z</time>
</trkpt>
<trkpt lat="39.8439644" lon="3.0308121">
<ele>76.79</ele>
<time>2016-10-15T13:39:15Z</time>
</trkpt>
<trkpt lat="39.8437820" lon="3.0307295">
<ele>79.03</ele>
<time>2016-10-15T13:39:19Z</time>
</trkpt>
<trkpt lat="39.8435784" lon="3.0306445">
<ele>80.40</ele>
<time>2016-10-15T13:39:23Z</time>
</trkpt>
<trkpt lat="39.8433869" lon="3.0305755">
<ele>81.06</ele>
<time>2016-10-15T13:39:27Z</time>
</trkpt>
<trkpt lat="39.8431742" lon="3.0305010">
<ele>81.95</ele>
<time>2016-10-15T13:39:31Z</time>
</trkpt>
<trkpt lat="39.8429770" lon="3.0304278">
<ele>80.63</ele>
<time>2016-10-15T13:39:35Z</time>
</trkpt>
<trkpt lat="39.8427676" lon="3.0303294">
<ele>78.63</ele>
<time>2016-10-15T13:39:39Z</time>
</trkpt>
<trkpt lat="39.8425542" lon="3.0302220">
<ele>77.24</ele>
<time>2016-10-15T13:39:43Z</time>
</trkpt>
<trkpt lat="39.8423369" lon="3.0301118">
<ele>75.48</ele>
<time>2016-10-15T13:39:47Z</time>
</trkpt>
<trkpt lat="39.8421580" lon="3.0300405">
<ele>73.18</ele>
<time>2016-10-15T13:39:50Z</time>
</trkpt>
<trkpt lat="39.8419452" lon="3.0299384">
<ele>70.15</ele>
<time>2016-10-15T13:39:54Z</time>
</trkpt>
<trkpt lat="39.8417241" lon="3.0298317">
<ele>68.98</ele>
<time>2016-10-15T13:39:58Z</time>
</trkpt>
<trkpt lat="39.8414839" lon="3.0297289">
<ele>68.68</ele>
<time>2016-10-15T13:40:02Z</time>
</trkpt>
<trkpt lat="39.8412971" lon="3.0295837">
<ele>69.12</ele>
<time>2016-10-15T13:40:05Z</time>
</trkpt>
<trkpt lat="39.8411402" lon="3.0293449">
<ele>69.12</ele>
<time>2016-10-15T13:40:08Z</time>
</trkpt>
<trkpt lat="39.8410468" lon="3.0291101">
<ele>67.78</ele>
<time>2016-10-15T13:40:11Z</time>
</trkpt>
<trkpt lat="39.8409450" lon="3.0288328">
<ele>67.19</ele>
<time>2016-10-15T13:40:14Z</time>
</trkpt>
<trkpt lat="39.8408101" lon="3.0285605">
<ele>67.32</ele>
<time>2016-10-15T13:40:17Z</time>
</trkpt>
<trkpt lat="39.8406269" lon="3.0284176">
<ele>67.66</ele>
<time>2016-10-15T13:40:20Z</time>
</trkpt>
<trkpt lat="39.8404348" lon="3.0282643">
<ele>67.45</ele>
<time>2016-10-15T13:40:23Z</time>
</trkpt>
<trkpt lat="39.8403032" lon="3.0280746">
<ele>67.41</ele>
<time>2016-10-15T13:40:26Z</time>
</trkpt>
<trkpt lat="39.8401728" lon="3.0278524">
<ele>68.42</ele>
<time>2016-10-15T13:40:29Z</time>
</trkpt>
<trkpt lat="39.8400641" lon="3.0276066">
<ele>68.47</ele>
<time>2016-10-15T13:40:33Z</time>
</trkpt>
<trkpt lat="39.8400754" lon="3.0273009">
<ele>69.48</ele>
<time>2016-10-15T13:40:37Z</time>
</trkpt>
<trkpt lat="39.8400280" lon="3.0270492">
<ele>70.89</ele>
<time>2016-10-15T13:40:40Z</time>
</trkpt>
<trkpt lat="39.8398087" lon="3.0270279">
<ele>71.97</ele>
<time>2016-10-15T13:40:45Z</time>
</trkpt>
<trkpt lat="39.8395903" lon="3.0270034">
<ele>70.04</ele>
<time>2016-10-15T13:40:49Z</time>
</trkpt>
<trkpt lat="39.8393695" lon="3.0270152">
<ele>69.86</ele>
<time>2016-10-15T13:40:52Z</time>
</trkpt>
<trkpt lat="39.8391442" lon="3.0270470">
<ele>69.45</ele>
<time>2016-10-15T13:40:55Z</time>
</trkpt>
<trkpt lat="39.8389223" lon="3.0270106">
<ele>68.58</ele>
<time>2016-10-15T13:40:58Z</time>
</trkpt>
<trkpt lat="39.8386939" lon="3.0269086">
<ele>68.35</ele>
<time>2016-10-15T13:41:01Z</time>
</trkpt>
<trkpt lat="39.8384683" lon="3.0268140">
<ele>67.36</ele>
<time>2016-10-15T13:41:04Z</time>
</trkpt>
<trkpt lat="39.8382477" lon="3.0266984">
<ele>66.11</ele>
<time>2016-10-15T13:41:07Z</time>
</trkpt>
<trkpt lat="39.8381254" lon="3.0265162">
<ele>65.04</ele>
<time>2016-10-15T13:41:09Z</time>
</trkpt>
<trkpt lat="39.8379705" lon="3.0262333">
<ele>62.89</ele>
<time>2016-10-15T13:41:12Z</time>
</trkpt>
<trkpt lat="39.8378293" lon="3.0259618">
<ele>61.23</ele>
<time>2016-10-15T13:41:14Z</time>
</trkpt>
<trkpt lat="39.8376919" lon="3.0257241">
<ele>61.31</ele>
<time>2016-10-15T13:41:17Z</time>
</trkpt>
<trkpt lat="39.8375099" lon="3.0255565">
<ele>62.88</ele>
<time>2016-10-15T13:41:20Z</time>
</trkpt>
<trkpt lat="39.8373082" lon="3.0254523">
<ele>64.59</ele>
<time>2016-10-15T13:41:23Z</time>
</trkpt>
<trkpt lat="39.8371302" lon="3.0253285">
<ele>66.02</ele>
<time>2016-10-15T13:41:26Z</time>
</trkpt>
<trkpt lat="39.8369712" lon="3.0251520">
<ele>66.05</ele>
<time>2016-10-15T13:41:29Z</time>
</trkpt>
<trkpt lat="39.8368975" lon="3.0249207">
<ele>66.33</ele>
<time>2016-10-15T13:41:32Z</time>
</trkpt>
<trkpt lat="39.8367781" lon="3.0247106">
<ele>67.37</ele>
<time>2016-10-15T13:41:35Z</time>
</trkpt>
<trkpt lat="39.8366431" lon="3.0245188">
<ele>68.12</ele>
<time>2016-10-15T13:41:38Z</time>
</trkpt>
<trkpt lat="39.8365073" lon="3.0243172">
<ele>67.53</ele>
<time>2016-10-15T13:41:41Z</time>
</trkpt>
<trkpt lat="39.8363872" lon="3.0241118">
<ele>65.76</ele>
<time>2016-10-15T13:41:44Z</time>
</trkpt>
<trkpt lat="39.8362726" lon="3.0239224">
<ele>64.26</ele>
<time>2016-10-15T13:41:47Z</time>
</trkpt>
<trkpt lat="39.8361331" lon="3.0236912">
<ele>64.65</ele>
<time>2016-10-15T13:41:51Z</time>
</trkpt>
<trkpt lat="39.8360169" lon="3.0234871">
<ele>64.49</ele>
<time>2016-10-15T13:41:54Z</time>
</trkpt>
<trkpt lat="39.8358692" lon="3.0232670">
<ele>64.82</ele>
<time>2016-10-15T13:41:58Z</time>
</trkpt>
<trkpt lat="39.8357039" lon="3.0230442">
<ele>65.68</ele>
<time>2016-10-15T13:42:02Z</time>
</trkpt>
<trkpt lat="39.8355879" lon="3.0227933">
<ele>66.50</ele>
<time>2016-10-15T13:42:06Z</time>
</trkpt>
<trkpt lat="39.8355040" lon="3.0225676">
<ele>67.09</ele>
<time>2016-10-15T13:42:09Z</time>
</trkpt>
<trkpt lat="39.8354281" lon="3.0223272">
<ele>67.04</ele>
<time>2016-10-15T13:42:12Z</time>
</trkpt>
<trkpt lat="39.8353525" lon="3.0220360">
<ele>66.87</ele>
<time>2016-10-15T13:42:16Z</time>
</trkpt>
<trkpt lat="39.8352767" lon="3.0217328">
<ele>67.31</ele>
<time>2016-10-15T13:42:20Z</time>
</trkpt>
<trkpt lat="39.8352100" lon="3.0215081">
<ele>66.99</ele>
<time>2016-10-15T13:42:23Z</time>
</trkpt>
<trkpt lat="39.8351176" lon="3.0212225">
<ele>66.95</ele>
<time>2016-10-15T13:42:27Z</time>
</trkpt>
<trkpt lat="39.8350339" lon="3.0209323">
<ele>67.17</ele>
<time>2016-10-15T13:42:31Z</time>
</trkpt>
<trkpt lat="39.8349467" lon="3.0206474">
<ele>66.90</ele>
<time>2016-10-15T13:42:35Z</time>
</trkpt>
<trkpt lat="39.8348725" lon="3.0203913">
<ele>66.84</ele>
<time>2016-10-15T13:42:39Z</time>
</trkpt>
<trkpt lat="39.8348198" lon="3.0201673">
<ele>67.00</ele>
<time>2016-10-15T13:42:42Z</time>
</trkpt>
<trkpt lat="39.8347686" lon="3.0198855">
<ele>67.23</ele>
<time>2016-10-15T13:42:46Z</time>
</trkpt>
<trkpt lat="39.8347826" lon="3.0196292">
<ele>67.29</ele>
<time>2016-10-15T13:42:50Z</time>
</trkpt>
<trkpt lat="39.8348015" lon="3.0193582">
<ele>67.55</ele>
<time>2016-10-15T13:42:54Z</time>
</trkpt>
<trkpt lat="39.8347812" lon="3.0190806">
<ele>69.07</ele>
<time>2016-10-15T13:42:58Z</time>
</trkpt>
<trkpt lat="39.8346947" lon="3.0188378">
<ele>70.89</ele>
<time>2016-10-15T13:43:02Z</time>
</trkpt>
<trkpt lat="39.8345878" lon="3.0186077">
<ele>72.27</ele>
<time>2016-10-15T13:43:06Z</time>
</trkpt>
<trkpt lat="39.8344869" lon="3.0183639">
<ele>72.14</ele>
<time>2016-10-15T13:43:10Z</time>
</trkpt>
<trkpt lat="39.8344160" lon="3.0181146">
<ele>72.10</ele>
<time>2016-10-15T13:43:14Z</time>
</trkpt>
<trkpt lat="39.8343532" lon="3.0178684">
<ele>72.78</ele>
<time>2016-10-15T13:43:18Z</time>
</trkpt>
<trkpt lat="39.8342915" lon="3.0176112">
<ele>73.64</ele>
<time>2016-10-15T13:43:22Z</time>
</trkpt>
<trkpt lat="39.8342351" lon="3.0173238">
<ele>74.25</ele>
<time>2016-10-15T13:43:26Z</time>
</trkpt>
<trkpt lat="39.8341804" lon="3.0170926">
<ele>75.70</ele>
<time>2016-10-15T13:43:30Z</time>
</trkpt>
<trkpt lat="39.8341089" lon="3.0167986">
<ele>76.42</ele>
<time>2016-10-15T13:43:34Z</time>
</trkpt>
<trkpt lat="39.8340350" lon="3.0165598">
<ele>75.52</ele>
<time>2016-10-15T13:43:37Z</time>
</trkpt>
<trkpt lat="39.8339339" lon="3.0163183">
<ele>75.38</ele>
<time>2016-10-15T13:43:40Z</time>
</trkpt>
<trkpt lat="39.8338325" lon="3.0160896">
<ele>74.75</ele>
<time>2016-10-15T13:43:43Z</time>
</trkpt>
<trkpt lat="39.8337421" lon="3.0158801">
<ele>75.00</ele>
<time>2016-10-15T13:43:46Z</time>
</trkpt>
<trkpt lat="39.8336424" lon="3.0156159">
<ele>75.32</ele>
<time>2016-10-15T13:43:50Z</time>
</trkpt>
<trkpt lat="39.8335468" lon="3.0153875">
<ele>78.31</ele>
<time>2016-10-15T13:43:54Z</time>
</trkpt>
<trkpt lat="39.8334306" lon="3.0151984">
<ele>80.99</ele>
<time>2016-10-15T13:43:59Z</time>
</trkpt>
<trkpt lat="39.8332756" lon="3.0150580">
<ele>83.55</ele>
<time>2016-10-15T13:44:04Z</time>
</trkpt>
<trkpt lat="39.8331246" lon="3.0149165">
<ele>83.50</ele>
<time>2016-10-15T13:44:09Z</time>
</trkpt>
<trkpt lat="39.8329838" lon="3.0147601">
<ele>83.76</ele>
<time>2016-10-15T13:44:14Z</time>
</trkpt>
<trkpt lat="39.8328447" lon="3.0145773">
<ele>84.08</ele>
<time>2016-10-15T13:44:22Z</time>
</trkpt>
<trkpt lat="39.8326850" lon="3.0144223">
<ele>84.37</ele>
<time>2016-10-15T13:44:29Z</time>
</trkpt>
<trkpt lat="39.8325495" lon="3.0142530">
<ele>84.57</ele>
<time>2016-10-15T13:44:35Z</time>
</trkpt>
<trkpt lat="39.8324387" lon="3.0139993">
<ele>85.79</ele>
<time>2016-10-15T13:44:41Z</time>
</trkpt>
<trkpt lat="39.8323581" lon="3.0137514">
<ele>87.24</ele>
<time>2016-10-15T13:44:46Z</time>
</trkpt>
<trkpt lat="39.8322722" lon="3.0134820">
<ele>87.49</ele>
<time>2016-10-15T13:44:51Z</time>
</trkpt>
<trkpt lat="39.8321851" lon="3.0132317">
<ele>87.75</ele>
<time>2016-10-15T13:44:56Z</time>
</trkpt>
<trkpt lat="39.8321023" lon="3.0129732">
<ele>89.20</ele>
<time>2016-10-15T13:45:01Z</time>
</trkpt>
<trkpt lat="39.8320250" lon="3.0127279">
<ele>89.48</ele>
<time>2016-10-15T13:45:06Z</time>
</trkpt>
<trkpt lat="39.8319306" lon="3.0125045">
<ele>89.54</ele>
<time>2016-10-15T13:45:10Z</time>
</trkpt>
<trkpt lat="39.8317942" lon="3.0122950">
<ele>89.46</ele>
<time>2016-10-15T13:45:14Z</time>
</trkpt>
<trkpt lat="39.8316391" lon="3.0121196">
<ele>89.53</ele>
<time>2016-10-15T13:45:18Z</time>
</trkpt>
<trkpt lat="39.8314468" lon="3.0119808">
<ele>90.28</ele>
<time>2016-10-15T13:45:22Z</time>
</trkpt>
<trkpt lat="39.8312326" lon="3.0118260">
<ele>91.86</ele>
<time>2016-10-15T13:45:26Z</time>
</trkpt>
<trkpt lat="39.8310762" lon="3.0116277">
<ele>91.42</ele>
<time>2016-10-15T13:45:29Z</time>
</trkpt>
<trkpt lat="39.8308907" lon="3.0114041">
<ele>90.69</ele>
<time>2016-10-15T13:45:32Z</time>
</trkpt>
<trkpt lat="39.8307130" lon="3.0111997">
<ele>90.00</ele>
<time>2016-10-15T13:45:35Z</time>
</trkpt>
<trkpt lat="39.8305475" lon="3.0109583">
<ele>89.25</ele>
<time>2016-10-15T13:45:38Z</time>
</trkpt>
<trkpt lat="39.8303932" lon="3.0106791">
<ele>88.08</ele>
<time>2016-10-15T13:45:41Z</time>
</trkpt>
<trkpt lat="39.8302886" lon="3.0104862">
<ele>86.88</ele>
<time>2016-10-15T13:45:43Z</time>
</trkpt>
<trkpt lat="39.8301668" lon="3.0102444">
<ele>86.20</ele>
<time>2016-10-15T13:45:46Z</time>
</trkpt>
<trkpt lat="39.8300372" lon="3.0099834">
<ele>85.95</ele>
<time>2016-10-15T13:45:50Z</time>
</trkpt>
<trkpt lat="39.8299285" lon="3.0097865">
<ele>85.66</ele>
<time>2016-10-15T13:45:53Z</time>
</trkpt>
<trkpt lat="39.8298192" lon="3.0095776">
<ele>85.69</ele>
<time>2016-10-15T13:45:56Z</time>
</trkpt>
<trkpt lat="39.8297192" lon="3.0093711">
<ele>86.31</ele>
<time>2016-10-15T13:45:59Z</time>
</trkpt>
<trkpt lat="39.8296104" lon="3.0091552">
<ele>86.61</ele>
<time>2016-10-15T13:46:02Z</time>
</trkpt>
<trkpt lat="39.8295125" lon="3.0089564">
<ele>86.76</ele>
<time>2016-10-15T13:46:05Z</time>
</trkpt>
<trkpt lat="39.8294228" lon="3.0087400">
<ele>88.33</ele>
<time>2016-10-15T13:46:09Z</time>
</trkpt>
<trkpt lat="39.8293451" lon="3.0085055">
<ele>89.26</ele>
<time>2016-10-15T13:46:14Z</time>
</trkpt>
<trkpt lat="39.8292812" lon="3.0082624">
<ele>89.67</ele>
<time>2016-10-15T13:46:19Z</time>
</trkpt>
<trkpt lat="39.8291816" lon="3.0080203">
<ele>90.02</ele>
<time>2016-10-15T13:46:24Z</time>
</trkpt>
<trkpt lat="39.8290817" lon="3.0077895">
<ele>89.93</ele>
<time>2016-10-15T13:46:28Z</time>
</trkpt>
<trkpt lat="39.8289350" lon="3.0075758">
<ele>90.76</ele>
<time>2016-10-15T13:46:32Z</time>
</trkpt>
<trkpt lat="39.8287657" lon="3.0074101">
<ele>92.37</ele>
<time>2016-10-15T13:46:36Z</time>
</trkpt>
<trkpt lat="39.8286154" lon="3.0072353">
<ele>95.32</ele>
<time>2016-10-15T13:46:40Z</time>
</trkpt>
<trkpt lat="39.8284672" lon="3.0070912">
<ele>96.72</ele>
<time>2016-10-15T13:46:44Z</time>
</trkpt>
<trkpt lat="39.8282829" lon="3.0069233">
<ele>98.36</ele>
<time>2016-10-15T13:46:49Z</time>
</trkpt>
<trkpt lat="39.8281256" lon="3.0067956">
<ele>100.41</ele>
<time>2016-10-15T13:46:53Z</time>
</trkpt>
<trkpt lat="39.8279304" lon="3.0066364">
<ele>103.50</ele>
<time>2016-10-15T13:46:58Z</time>
</trkpt>
<trkpt lat="39.8277460" lon="3.0064792">
<ele>103.03</ele>
<time>2016-10-15T13:47:02Z</time>
</trkpt>
<trkpt lat="39.8275599" lon="3.0063376">
<ele>101.44</ele>
<time>2016-10-15T13:47:06Z</time>
</trkpt>
<trkpt lat="39.8273556" lon="3.0061902">
<ele>98.76</ele>
<time>2016-10-15T13:47:10Z</time>
</trkpt>
<trkpt lat="39.8272123" lon="3.0059572">
<ele>97.85</ele>
<time>2016-10-15T13:47:14Z</time>
</trkpt>
<trkpt lat="39.8271009" lon="3.0057251">
<ele>98.28</ele>
<time>2016-10-15T13:47:18Z</time>
</trkpt>
<trkpt lat="39.8269851" lon="3.0054837">
<ele>97.97</ele>
<time>2016-10-15T13:47:22Z</time>
</trkpt>
<trkpt lat="39.8268667" lon="3.0052630">
<ele>97.66</ele>
<time>2016-10-15T13:47:26Z</time>
</trkpt>
<trkpt lat="39.8267241" lon="3.0050672">
<ele>100.50</ele>
<time>2016-10-15T13:47:31Z</time>
</trkpt>
<trkpt lat="39.8266255" lon="3.0048693">
<ele>101.26</ele>
<time>2016-10-15T13:47:34Z</time>
</trkpt>
<trkpt lat="39.8264900" lon="3.0046354">
<ele>101.75</ele>
<time>2016-10-15T13:47:38Z</time>
</trkpt>
<trkpt lat="39.8263581" lon="3.0044279">
<ele>102.08</ele>
<time>2016-10-15T13:47:41Z</time>
</trkpt>
<trkpt lat="39.8262168" lon="3.0042180">
<ele>101.78</ele>
<time>2016-10-15T13:47:44Z</time>
</trkpt>
<trkpt lat="39.8260852" lon="3.0040124">
<ele>100.43</ele>
<time>2016-10-15T13:47:47Z</time>
</trkpt>
<trkpt lat="39.8259373" lon="3.0038201">
<ele>98.81</ele>
<time>2016-10-15T13:47:50Z</time>
</trkpt>
<trkpt lat="39.8257923" lon="3.0036282">
<ele>98.09</ele>
<time>2016-10-15T13:47:53Z</time>
</trkpt>
<trkpt lat="39.8256475" lon="3.0034504">
<ele>97.58</ele>
<time>2016-10-15T13:47:56Z</time>
</trkpt>
<trkpt lat="39.8254915" lon="3.0032750">
<ele>97.44</ele>
<time>2016-10-15T13:47:59Z</time>
</trkpt>
<trkpt lat="39.8253512" lon="3.0031108">
<ele>99.06</ele>
<time>2016-10-15T13:48:02Z</time>
</trkpt>
<trkpt lat="39.8252065" lon="3.0029354">
<ele>100.59</ele>
<time>2016-10-15T13:48:05Z</time>
</trkpt>
<trkpt lat="39.8250629" lon="3.0027375">
<ele>101.17</ele>
<time>2016-10-15T13:48:08Z</time>
</trkpt>
<trkpt lat="39.8249315" lon="3.0025332">
<ele>100.34</ele>
<time>2016-10-15T13:48:11Z</time>
</trkpt>
<trkpt lat="39.8248145" lon="3.0023391">
<ele>99.69</ele>
<time>2016-10-15T13:48:14Z</time>
</trkpt>
<trkpt lat="39.8246661" lon="3.0021167">
<ele>99.42</ele>
<time>2016-10-15T13:48:18Z</time>
</trkpt>
<trkpt lat="39.8245412" lon="3.0019446">
<ele>100.34</ele>
<time>2016-10-15T13:48:21Z</time>
</trkpt>
<trkpt lat="39.8244021" lon="3.0017133">
<ele>101.53</ele>
<time>2016-10-15T13:48:25Z</time>
</trkpt>
<trkpt lat="39.8242721" lon="3.0014754">
<ele>102.06</ele>
<time>2016-10-15T13:48:29Z</time>
</trkpt>
<trkpt lat="39.8240953" lon="3.0013000">
<ele>102.38</ele>
<time>2016-10-15T13:48:33Z</time>
</trkpt>
<trkpt lat="39.8239355" lon="3.0011765">
<ele>102.41</ele>
<time>2016-10-15T13:48:36Z</time>
</trkpt>
<trkpt lat="39.8237316" lon="3.0010507">
<ele>101.56</ele>
<time>2016-10-15T13:48:40Z</time>
</trkpt>
<trkpt lat="39.8235240" lon="3.0009468">
<ele>100.98</ele>
<time>2016-10-15T13:48:44Z</time>
</trkpt>
<trkpt lat="39.8233197" lon="3.0008142">
<ele>101.20</ele>
<time>2016-10-15T13:48:48Z</time>
</trkpt>
<trkpt lat="39.8231335" lon="3.0006753">
<ele>102.03</ele>
<time>2016-10-15T13:48:52Z</time>
</trkpt>
<trkpt lat="39.8229927" lon="3.0005125">
<ele>102.44</ele>
<time>2016-10-15T13:48:55Z</time>
</trkpt>
<trkpt lat="39.8228675" lon="3.0003123">
<ele>102.03</ele>
<time>2016-10-15T13:48:58Z</time>
</trkpt>
<trkpt lat="39.8227329" lon="3.0000930">
<ele>101.22</ele>
<time>2016-10-15T13:49:01Z</time>
</trkpt>
<trkpt lat="39.8225780" lon="2.9998878">
<ele>100.71</ele>
<time>2016-10-15T13:49:04Z</time>
</trkpt>
<trkpt lat="39.8224020" lon="2.9996838">
<ele>99.52</ele>
<time>2016-10-15T13:49:07Z</time>
</trkpt>
<trkpt lat="39.8222243" lon="2.9995097">
<ele>98.63</ele>
<time>2016-10-15T13:49:10Z</time>
</trkpt>
<trkpt lat="39.8220440" lon="2.9993266">
<ele>98.06</ele>
<time>2016-10-15T13:49:13Z</time>
</trkpt>
<trkpt lat="39.8218646" lon="2.9991291">
<ele>97.76</ele>
<time>2016-10-15T13:49:16Z</time>
</trkpt>
<trkpt lat="39.8216766" lon="2.9988972">
<ele>96.66</ele>
<time>2016-10-15T13:49:19Z</time>
</trkpt>
<trkpt lat="39.8215458" lon="2.9987315">
<ele>95.42</ele>
<time>2016-10-15T13:49:21Z</time>
</trkpt>
<trkpt lat="39.8213506" lon="2.9984893">
<ele>92.99</ele>
<time>2016-10-15T13:49:24Z</time>
</trkpt>
<trkpt lat="39.8211594" lon="2.9982578">
<ele>91.56</ele>
<time>2016-10-15T13:49:28Z</time>
</trkpt>
<trkpt lat="39.8209824" lon="2.9980057">
<ele>91.77</ele>
<time>2016-10-15T13:49:31Z</time>
</trkpt>
<trkpt lat="39.8208213" lon="2.9977680">
<ele>92.13</ele>
<time>2016-10-15T13:49:34Z</time>
</trkpt>
<trkpt lat="39.8206525" lon="2.9975563">
<ele>92.60</ele>
<time>2016-10-15T13:49:37Z</time>
</trkpt>
<trkpt lat="39.8204871" lon="2.9973567">
<ele>92.10</ele>
<time>2016-10-15T13:49:40Z</time>
</trkpt>
<trkpt lat="39.8203196" lon="2.9971495">
<ele>92.38</ele>
<time>2016-10-15T13:49:43Z</time>
</trkpt>
<trkpt lat="39.8201564" lon="2.9969304">
<ele>91.97</ele>
<time>2016-10-15T13:49:46Z</time>
</trkpt>
<trkpt lat="39.8199947" lon="2.9967095">
<ele>91.07</ele>
<time>2016-10-15T13:49:49Z</time>
</trkpt>
<trkpt lat="39.8198316" lon="2.9964902">
<ele>90.71</ele>
<time>2016-10-15T13:49:52Z</time>
</trkpt>
<trkpt lat="39.8196648" lon="2.9962665">
<ele>90.09</ele>
<time>2016-10-15T13:49:55Z</time>
</trkpt>
<trkpt lat="39.8195110" lon="2.9960655">
<ele>87.38</ele>
<time>2016-10-15T13:49:58Z</time>
</trkpt>
<trkpt lat="39.8193596" lon="2.9958669">
<ele>84.69</ele>
<time>2016-10-15T13:50:01Z</time>
</trkpt>
<trkpt lat="39.8191963" lon="2.9956506">
<ele>84.82</ele>
<time>2016-10-15T13:50:04Z</time>
</trkpt>
<trkpt lat="39.8190535" lon="2.9954403">
<ele>84.91</ele>
<time>2016-10-15T13:50:07Z</time>
</trkpt>
<trkpt lat="39.8189124" lon="2.9952182">
<ele>85.39</ele>
<time>2016-10-15T13:50:10Z</time>
</trkpt>
<trkpt lat="39.8188125" lon="2.9949711">
<ele>86.12</ele>
<time>2016-10-15T13:50:13Z</time>
</trkpt>
<trkpt lat="39.8187502" lon="2.9946968">
<ele>87.04</ele>
<time>2016-10-15T13:50:16Z</time>
</trkpt>
<trkpt lat="39.8186884" lon="2.9944220">
<ele>87.72</ele>
<time>2016-10-15T13:50:19Z</time>
</trkpt>
<trkpt lat="39.8186224" lon="2.9941383">
<ele>87.82</ele>
<time>2016-10-15T13:50:22Z</time>
</trkpt>
<trkpt lat="39.8185502" lon="2.9938709">
<ele>87.86</ele>
<time>2016-10-15T13:50:25Z</time>
</trkpt>
<trkpt lat="39.8184626" lon="2.9936069">
<ele>88.86</ele>
<time>2016-10-15T13:50:28Z</time>
</trkpt>
<trkpt lat="39.8183790" lon="2.9933766">
<ele>90.18</ele>
<time>2016-10-15T13:50:31Z</time>
</trkpt>
<trkpt lat="39.8182942" lon="2.9931489">
<ele>90.36</ele>
<time>2016-10-15T13:50:34Z</time>
</trkpt>
<trkpt lat="39.8181936" lon="2.9928655">
<ele>89.05</ele>
<time>2016-10-15T13:50:38Z</time>
</trkpt>
<trkpt lat="39.8180916" lon="2.9925903">
<ele>88.84</ele>
<time>2016-10-15T13:50:42Z</time>
</trkpt>
<trkpt lat="39.8179736" lon="2.9923233">
<ele>89.53</ele>
<time>2016-10-15T13:50:46Z</time>
</trkpt>
<trkpt lat="39.8178723" lon="2.9921221">
<ele>90.42</ele>
<time>2016-10-15T13:50:49Z</time>
</trkpt>
<trkpt lat="39.8177457" lon="2.9919317">
<ele>91.05</ele>
<time>2016-10-15T13:50:52Z</time>
</trkpt>
<trkpt lat="39.8176146" lon="2.9917500">
<ele>91.81</ele>
<time>2016-10-15T13:50:55Z</time>
</trkpt>
<trkpt lat="39.8174721" lon="2.9915372">
<ele>92.14</ele>
<time>2016-10-15T13:50:59Z</time>
</trkpt>
<trkpt lat="39.8173524" lon="2.9913330">
<ele>91.78</ele>
<time>2016-10-15T13:51:02Z</time>
</trkpt>
<trkpt lat="39.8172224" lon="2.9911616">
<ele>91.41</ele>
<time>2016-10-15T13:51:05Z</time>
</trkpt>
<trkpt lat="39.8170634" lon="2.9909635">
<ele>91.04</ele>
<time>2016-10-15T13:51:08Z</time>
</trkpt>
<trkpt lat="39.8169039" lon="2.9907301">
<ele>90.02</ele>
<time>2016-10-15T13:51:11Z</time>
</trkpt>
<trkpt lat="39.8167434" lon="2.9904970">
<ele>88.91</ele>
<time>2016-10-15T13:51:14Z</time>
</trkpt>
<trkpt lat="39.8165676" lon="2.9902536">
<ele>89.00</ele>
<time>2016-10-15T13:51:17Z</time>
</trkpt>
<trkpt lat="39.8164311" lon="2.9900716">
<ele>89.03</ele>
<time>2016-10-15T13:51:19Z</time>
</trkpt>
<trkpt lat="39.8162587" lon="2.9898335">
<ele>88.06</ele>
<time>2016-10-15T13:51:22Z</time>
</trkpt>
<trkpt lat="39.8161082" lon="2.9895714">
<ele>86.46</ele>
<time>2016-10-15T13:51:25Z</time>
</trkpt>
<trkpt lat="39.8160080" lon="2.9893033">
<ele>84.48</ele>
<time>2016-10-15T13:51:28Z</time>
</trkpt>
<trkpt lat="39.8159515" lon="2.9890792">
<ele>83.84</ele>
<time>2016-10-15T13:51:31Z</time>
</trkpt>
<trkpt lat="39.8159081" lon="2.9888489">
<ele>85.36</ele>
<time>2016-10-15T13:51:34Z</time>
</trkpt>
<trkpt lat="39.8158508" lon="2.9886235">
<ele>86.16</ele>
<time>2016-10-15T13:51:37Z</time>
</trkpt>
<trkpt lat="39.8157423" lon="2.9883733">
<ele>87.02</ele>
<time>2016-10-15T13:51:40Z</time>
</trkpt>
<trkpt lat="39.8155983" lon="2.9881173">
<ele>85.89</ele>
<time>2016-10-15T13:51:43Z</time>
</trkpt>
<trkpt lat="39.8154547" lon="2.9878703">
<ele>84.10</ele>
<time>2016-10-15T13:51:46Z</time>
</trkpt>
<trkpt lat="39.8153081" lon="2.9876269">
<ele>82.24</ele>
<time>2016-10-15T13:51:49Z</time>
</trkpt>
<trkpt lat="39.8151793" lon="2.9873884">
<ele>81.97</ele>
<time>2016-10-15T13:51:52Z</time>
</trkpt>
<trkpt lat="39.8150627" lon="2.9871357">
<ele>82.23</ele>
<time>2016-10-15T13:51:55Z</time>
</trkpt>
<trkpt lat="39.8149507" lon="2.9868994">
<ele>82.61</ele>
<time>2016-10-15T13:51:58Z</time>
</trkpt>
<trkpt lat="39.8148209" lon="2.9866652">
<ele>82.68</ele>
<time>2016-10-15T13:52:01Z</time>
</trkpt>
<trkpt lat="39.8146807" lon="2.9864418">
<ele>82.92</ele>
<time>2016-10-15T13:52:04Z</time>
</trkpt>
<trkpt lat="39.8145126" lon="2.9862020">
<ele>82.94</ele>
<time>2016-10-15T13:52:07Z</time>
</trkpt>
<trkpt lat="39.8143325" lon="2.9859591">
<ele>82.89</ele>
<time>2016-10-15T13:52:10Z</time>
</trkpt>
<trkpt lat="39.8141461" lon="2.9857207">
<ele>82.10</ele>
<time>2016-10-15T13:52:13Z</time>
</trkpt>
<trkpt lat="39.8139585" lon="2.9854755">
<ele>81.31</ele>
<time>2016-10-15T13:52:16Z</time>
</trkpt>
<trkpt lat="39.8137782" lon="2.9852416">
<ele>80.66</ele>
<time>2016-10-15T13:52:19Z</time>
</trkpt>
<trkpt lat="39.8135715" lon="2.9850303">
<ele>80.59</ele>
<time>2016-10-15T13:52:22Z</time>
</trkpt>
<trkpt lat="39.8133657" lon="2.9848918">
<ele>80.59</ele>
<time>2016-10-15T13:52:25Z</time>
</trkpt>
<trkpt lat="39.8131849" lon="2.9846885">
<ele>80.50</ele>
<time>2016-10-15T13:52:28Z</time>
</trkpt>
<trkpt lat="39.8130286" lon="2.9844127">
<ele>79.93</ele>
<time>2016-10-15T13:52:31Z</time>
</trkpt>
<trkpt lat="39.8128929" lon="2.9841352">
<ele>79.10</ele>
<time>2016-10-15T13:52:34Z</time>
</trkpt>
<trkpt lat="39.8127621" lon="2.9838452">
<ele>77.82</ele>
<time>2016-10-15T13:52:37Z</time>
</trkpt>
<trkpt lat="39.8126396" lon="2.9835631">
<ele>76.50</ele>
<time>2016-10-15T13:52:40Z</time>
</trkpt>
<trkpt lat="39.8125284" lon="2.9832758">
<ele>74.40</ele>
<time>2016-10-15T13:52:43Z</time>
</trkpt>
<trkpt lat="39.8123740" lon="2.9830088">
<ele>72.97</ele>
<time>2016-10-15T13:52:46Z</time>
</trkpt>
<trkpt lat="39.8121474" lon="2.9828572">
<ele>72.56</ele>
<time>2016-10-15T13:52:49Z</time>
</trkpt>
<trkpt lat="39.8119358" lon="2.9827044">
<ele>72.15</ele>
<time>2016-10-15T13:52:52Z</time>
</trkpt>
<trkpt lat="39.8117626" lon="2.9825200">
<ele>73.89</ele>
<time>2016-10-15T13:52:55Z</time>
</trkpt>
<trkpt lat="39.8116122" lon="2.9823401">
<ele>74.40</ele>
<time>2016-10-15T13:52:58Z</time>
</trkpt>
<trkpt lat="39.8114637" lon="2.9821260">
<ele>75.28</ele>
<time>2016-10-15T13:53:01Z</time>
</trkpt>
<trkpt lat="39.8113817" lon="2.9819078">
<ele>75.09</ele>
<time>2016-10-15T13:53:04Z</time>
</trkpt>
<trkpt lat="39.8113002" lon="2.9816789">
<ele>76.04</ele>
<time>2016-10-15T13:53:07Z</time>
</trkpt>
<trkpt lat="39.8112059" lon="2.9814725">
<ele>77.47</ele>
<time>2016-10-15T13:53:10Z</time>
</trkpt>
<trkpt lat="39.8110960" lon="2.9812867">
<ele>78.09</ele>
<time>2016-10-15T13:53:13Z</time>
</trkpt>
<trkpt lat="39.8109380" lon="2.9810884">
<ele>78.79</ele>
<time>2016-10-15T13:53:16Z</time>
</trkpt>
<trkpt lat="39.8107757" lon="2.9808797">
<ele>78.09</ele>
<time>2016-10-15T13:53:19Z</time>
</trkpt>
<trkpt lat="39.8106183" lon="2.9806977">
<ele>77.02</ele>
<time>2016-10-15T13:53:22Z</time>
</trkpt>
<trkpt lat="39.8104697" lon="2.9805359">
<ele>76.35</ele>
<time>2016-10-15T13:53:25Z</time>
</trkpt>
<trkpt lat="39.8103132" lon="2.9803473">
<ele>76.12</ele>
<time>2016-10-15T13:53:28Z</time>
</trkpt>
<trkpt lat="39.8101856" lon="2.9801054">
<ele>76.01</ele>
<time>2016-10-15T13:53:31Z</time>
</trkpt>
<trkpt lat="39.8100851" lon="2.9798833">
<ele>75.18</ele>
<time>2016-10-15T13:53:34Z</time>
</trkpt>
<trkpt lat="39.8099757" lon="2.9796713">
<ele>74.96</ele>
<time>2016-10-15T13:53:37Z</time>
</trkpt>
<trkpt lat="39.8098580" lon="2.9794583">
<ele>75.81</ele>
<time>2016-10-15T13:53:40Z</time>
</trkpt>
<trkpt lat="39.8097384" lon="2.9792151">
<ele>77.17</ele>
<time>2016-10-15T13:53:43Z</time>
</trkpt>
<trkpt lat="39.8096810" lon="2.9788820">
<ele>75.43</ele>
<time>2016-10-15T13:53:46Z</time>
</trkpt>
<trkpt lat="39.8096801" lon="2.9785585">
<ele>73.88</ele>
<time>2016-10-15T13:53:49Z</time>
</trkpt>
<trkpt lat="39.8096863" lon="2.9782435">
<ele>72.68</ele>
<time>2016-10-15T13:53:52Z</time>
</trkpt>
<trkpt lat="39.8096901" lon="2.9779651">
<ele>71.27</ele>
<time>2016-10-15T13:53:55Z</time>
</trkpt>
<trkpt lat="39.8096978" lon="2.9777180">
<ele>70.16</ele>
<time>2016-10-15T13:53:58Z</time>
</trkpt>
<trkpt lat="39.8097061" lon="2.9773975">
<ele>69.40</ele>
<time>2016-10-15T13:54:02Z</time>
</trkpt>
<trkpt lat="39.8096966" lon="2.9771152">
<ele>70.16</ele>
<time>2016-10-15T13:54:05Z</time>
</trkpt>
<trkpt lat="39.8096709" lon="2.9768552">
<ele>71.69</ele>
<time>2016-10-15T13:54:08Z</time>
</trkpt>
<trkpt lat="39.8096241" lon="2.9765862">
<ele>71.80</ele>
<time>2016-10-15T13:54:11Z</time>
</trkpt>
<trkpt lat="39.8095507" lon="2.9763473">
<ele>71.66</ele>
<time>2016-10-15T13:54:14Z</time>
</trkpt>
<trkpt lat="39.8094473" lon="2.9761331">
<ele>71.18</ele>
<time>2016-10-15T13:54:17Z</time>
</trkpt>
<trkpt lat="39.8093247" lon="2.9759376">
<ele>70.77</ele>
<time>2016-10-15T13:54:20Z</time>
</trkpt>
<trkpt lat="39.8091947" lon="2.9757577">
<ele>71.70</ele>
<time>2016-10-15T13:54:23Z</time>
</trkpt>
<trkpt lat="39.8090158" lon="2.9755387">
<ele>72.13</ele>
<time>2016-10-15T13:54:27Z</time>
</trkpt>
<trkpt lat="39.8088556" lon="2.9753782">
<ele>72.01</ele>
<time>2016-10-15T13:54:30Z</time>
</trkpt>
<trkpt lat="39.8086931" lon="2.9752542">
<ele>71.28</ele>
<time>2016-10-15T13:54:33Z</time>
</trkpt>
<trkpt lat="39.8085235" lon="2.9751267">
<ele>70.99</ele>
<time>2016-10-15T13:54:36Z</time>
</trkpt>
<trkpt lat="39.8083712" lon="2.9749810">
<ele>70.55</ele>
<time>2016-10-15T13:54:39Z</time>
</trkpt>
<trkpt lat="39.8082351" lon="2.9747983">
<ele>69.61</ele>
<time>2016-10-15T13:54:42Z</time>
</trkpt>
<trkpt lat="39.8081052" lon="2.9746249">
<ele>70.25</ele>
<time>2016-10-15T13:54:45Z</time>
</trkpt>
<trkpt lat="39.8079639" lon="2.9744506">
<ele>70.68</ele>
<time>2016-10-15T13:54:48Z</time>
</trkpt>
<trkpt lat="39.8078068" lon="2.9742707">
<ele>70.87</ele>
<time>2016-10-15T13:54:51Z</time>
</trkpt>
<trkpt lat="39.8076339" lon="2.9740987">
<ele>70.02</ele>
<time>2016-10-15T13:54:54Z</time>
</trkpt>
<trkpt lat="39.8074661" lon="2.9739230">
<ele>69.02</ele>
<time>2016-10-15T13:54:57Z</time>
</trkpt>
<trkpt lat="39.8073161" lon="2.9737307">
<ele>68.55</ele>
<time>2016-10-15T13:55:00Z</time>
</trkpt>
<trkpt lat="39.8071724" lon="2.9735152">
<ele>67.45</ele>
<time>2016-10-15T13:55:03Z</time>
</trkpt>
<trkpt lat="39.8070483" lon="2.9732869">
<ele>65.99</ele>
<time>2016-10-15T13:55:06Z</time>
</trkpt>
<trkpt lat="39.8069382" lon="2.9730559">
<ele>66.08</ele>
<time>2016-10-15T13:55:09Z</time>
</trkpt>
<trkpt lat="39.8068293" lon="2.9728171">
<ele>65.24</ele>
<time>2016-10-15T13:55:12Z</time>
</trkpt>
<trkpt lat="39.8067103" lon="2.9725886">
<ele>65.85</ele>
<time>2016-10-15T13:55:15Z</time>
</trkpt>
<trkpt lat="39.8065868" lon="2.9723826">
<ele>63.60</ele>
<time>2016-10-15T13:55:18Z</time>
</trkpt>
<trkpt lat="39.8064347" lon="2.9721870">
<ele>62.35</ele>
<time>2016-10-15T13:55:21Z</time>
</trkpt>
<trkpt lat="39.8062761" lon="2.9720139">
<ele>61.99</ele>
<time>2016-10-15T13:55:24Z</time>
</trkpt>
<trkpt lat="39.8061137" lon="2.9718362">
<ele>61.61</ele>
<time>2016-10-15T13:55:27Z</time>
</trkpt>
<trkpt lat="39.8059510" lon="2.9716705">
<ele>61.91</ele>
<time>2016-10-15T13:55:30Z</time>
</trkpt>
<trkpt lat="39.8057838" lon="2.9714925">
<ele>63.07</ele>
<time>2016-10-15T13:55:33Z</time>
</trkpt>
<trkpt lat="39.8056214" lon="2.9713307">
<ele>63.79</ele>
<time>2016-10-15T13:55:36Z</time>
</trkpt>
<trkpt lat="39.8054528" lon="2.9711667">
<ele>64.05</ele>
<time>2016-10-15T13:55:39Z</time>
</trkpt>
<trkpt lat="39.8053109" lon="2.9710213">
<ele>63.54</ele>
<time>2016-10-15T13:55:42Z</time>
</trkpt>
<trkpt lat="39.8051435" lon="2.9708530">
<ele>62.64</ele>
<time>2016-10-15T13:55:45Z</time>
</trkpt>
<trkpt lat="39.8049794" lon="2.9706885">
<ele>62.92</ele>
<time>2016-10-15T13:55:48Z</time>
</trkpt>
<trkpt lat="39.8048163" lon="2.9705249">
<ele>64.67</ele>
<time>2016-10-15T13:55:51Z</time>
</trkpt>
<trkpt lat="39.8046578" lon="2.9703533">
<ele>64.08</ele>
<time>2016-10-15T13:55:54Z</time>
</trkpt>
<trkpt lat="39.8044986" lon="2.9701962">
<ele>64.01</ele>
<time>2016-10-15T13:55:57Z</time>
</trkpt>
<trkpt lat="39.8043119" lon="2.9700737">
<ele>63.60</ele>
<time>2016-10-15T13:56:00Z</time>
</trkpt>
<trkpt lat="39.8041126" lon="2.9700668">
<ele>63.28</ele>
<time>2016-10-15T13:56:03Z</time>
</trkpt>
<trkpt lat="39.8039160" lon="2.9701065">
<ele>62.31</ele>
<time>2016-10-15T13:56:06Z</time>
</trkpt>
<trkpt lat="39.8037217" lon="2.9701334">
<ele>61.73</ele>
<time>2016-10-15T13:56:09Z</time>
</trkpt>
<trkpt lat="39.8035450" lon="2.9700773">
<ele>63.32</ele>
<time>2016-10-15T13:56:12Z</time>
</trkpt>
<trkpt lat="39.8033190" lon="2.9700012">
<ele>63.98</ele>
<time>2016-10-15T13:56:16Z</time>
</trkpt>
<trkpt lat="39.8031303" lon="2.9699364">
<ele>63.85</ele>
<time>2016-10-15T13:56:19Z</time>
</trkpt>
<trkpt lat="39.8029505" lon="2.9698485">
<ele>64.75</ele>
<time>2016-10-15T13:56:22Z</time>
</trkpt>
<trkpt lat="39.8027496" lon="2.9696963">
<ele>65.67</ele>
<time>2016-10-15T13:56:26Z</time>
</trkpt>
<trkpt lat="39.8025816" lon="2.9695591">
<ele>65.94</ele>
<time>2016-10-15T13:56:30Z</time>
</trkpt>
<trkpt lat="39.8023890" lon="2.9694668">
<ele>66.82</ele>
<time>2016-10-15T13:56:34Z</time>
</trkpt>
<trkpt lat="39.8021922" lon="2.9694136">
<ele>66.96</ele>
<time>2016-10-15T13:56:38Z</time>
</trkpt>
<trkpt lat="39.8019898" lon="2.9693442">
<ele>68.79</ele>
<time>2016-10-15T13:56:42Z</time>
</trkpt>
<trkpt lat="39.8018035" lon="2.9692970">
<ele>69.46</ele>
<time>2016-10-15T13:56:45Z</time>
</trkpt>
<trkpt lat="39.8016118" lon="2.9692440">
<ele>69.80</ele>
<time>2016-10-15T13:56:48Z</time>
</trkpt>
<trkpt lat="39.8014202" lon="2.9691844">
<ele>68.63</ele>
<time>2016-10-15T13:56:51Z</time>
</trkpt>
<trkpt lat="39.8012355" lon="2.9691438">
<ele>69.45</ele>
<time>2016-10-15T13:56:54Z</time>
</trkpt>
<trkpt lat="39.8010135" lon="2.9690793">
<ele>68.56</ele>
<time>2016-10-15T13:56:58Z</time>
</trkpt>
<trkpt lat="39.8007942" lon="2.9689982">
<ele>65.73</ele>
<time>2016-10-15T13:57:02Z</time>
</trkpt>
<trkpt lat="39.8006208" lon="2.9689172">
<ele>64.81</ele>
<time>2016-10-15T13:57:05Z</time>
</trkpt>
<trkpt lat="39.8003925" lon="2.9688122">
<ele>64.68</ele>
<time>2016-10-15T13:57:09Z</time>
</trkpt>
<trkpt lat="39.8002209" lon="2.9687220">
<ele>64.38</ele>
<time>2016-10-15T13:57:12Z</time>
</trkpt>
<trkpt lat="39.8000359" lon="2.9686387">
<ele>65.42</ele>
<time>2016-10-15T13:57:15Z</time>
</trkpt>
<trkpt lat="39.7998344" lon="2.9685206">
<ele>67.56</ele>
<time>2016-10-15T13:57:18Z</time>
</trkpt>
<trkpt lat="39.7996160" lon="2.9683691">
<ele>66.85</ele>
<time>2016-10-15T13:57:21Z</time>
</trkpt>
<trkpt lat="39.7994638" lon="2.9682357">
<ele>64.94</ele>
<time>2016-10-15T13:57:23Z</time>
</trkpt>
<trkpt lat="39.7992962" lon="2.9680891">
<ele>62.64</ele>
<time>2016-10-15T13:57:25Z</time>
</trkpt>
<trkpt lat="39.7991392" lon="2.9679556">
<ele>61.40</ele>
<time>2016-10-15T13:57:27Z</time>
</trkpt>
<trkpt lat="39.7989816" lon="2.9678168">
<ele>60.74</ele>
<time>2016-10-15T13:57:29Z</time>
</trkpt>
<trkpt lat="39.7988174" lon="2.9676762">
<ele>60.70</ele>
<time>2016-10-15T13:57:31Z</time>
</trkpt>
<trkpt lat="39.7986546" lon="2.9675287">
<ele>61.41</ele>
<time>2016-10-15T13:57:33Z</time>
</trkpt>
<trkpt lat="39.7984446" lon="2.9673237">
<ele>62.77</ele>
<time>2016-10-15T13:57:36Z</time>
</trkpt>
<trkpt lat="39.7982468" lon="2.9671419">
<ele>61.53</ele>
<time>2016-10-15T13:57:39Z</time>
</trkpt>
<trkpt lat="39.7980466" lon="2.9669569">
<ele>59.51</ele>
<time>2016-10-15T13:57:42Z</time>
</trkpt>
<trkpt lat="39.7978928" lon="2.9668220">
<ele>59.24</ele>
<time>2016-10-15T13:57:44Z</time>
</trkpt>
<trkpt lat="39.7977360" lon="2.9667029">
<ele>58.90</ele>
<time>2016-10-15T13:57:46Z</time>
</trkpt>
<trkpt lat="39.7975807" lon="2.9665743">
<ele>58.66</ele>
<time>2016-10-15T13:57:47Z</time>
</trkpt>
<trkpt lat="39.7973528" lon="2.9663921">
<ele>57.37</ele>
<time>2016-10-15T13:57:50Z</time>
</trkpt>
<trkpt lat="39.7971936" lon="2.9662762">
<ele>57.37</ele>
<time>2016-10-15T13:57:52Z</time>
</trkpt>
<trkpt lat="39.7970323" lon="2.9661630">
<ele>57.27</ele>
<time>2016-10-15T13:57:54Z</time>
</trkpt>
<trkpt lat="39.7967927" lon="2.9660149">
<ele>56.84</ele>
<time>2016-10-15T13:57:57Z</time>
</trkpt>
<trkpt lat="39.7966251" lon="2.9659297">
<ele>56.34</ele>
<time>2016-10-15T13:57:59Z</time>
</trkpt>
<trkpt lat="39.7963836" lon="2.9658874">
<ele>55.84</ele>
<time>2016-10-15T13:58:02Z</time>
</trkpt>
<trkpt lat="39.7961577" lon="2.9658843">
<ele>54.94</ele>
<time>2016-10-15T13:58:05Z</time>
</trkpt>
<trkpt lat="39.7959092" lon="2.9658927">
<ele>54.53</ele>
<time>2016-10-15T13:58:08Z</time>
</trkpt>
<trkpt lat="39.7956632" lon="2.9659105">
<ele>54.34</ele>
<time>2016-10-15T13:58:11Z</time>
</trkpt>
<trkpt lat="39.7954251" lon="2.9659417">
<ele>53.11</ele>
<time>2016-10-15T13:58:14Z</time>
</trkpt>
<trkpt lat="39.7952063" lon="2.9659543">
<ele>52.28</ele>
<time>2016-10-15T13:58:17Z</time>
</trkpt>
<trkpt lat="39.7949760" lon="2.9659586">
<ele>51.52</ele>
<time>2016-10-15T13:58:20Z</time>
</trkpt>
<trkpt lat="39.7947364" lon="2.9659318">
<ele>51.89</ele>
<time>2016-10-15T13:58:23Z</time>
</trkpt>
<trkpt lat="39.7945112" lon="2.9658634">
<ele>53.02</ele>
<time>2016-10-15T13:58:26Z</time>
</trkpt>
<trkpt lat="39.7943055" lon="2.9657755">
<ele>53.24</ele>
<time>2016-10-15T13:58:29Z</time>
</trkpt>
<trkpt lat="39.7941072" lon="2.9656728">
<ele>53.00</ele>
<time>2016-10-15T13:58:32Z</time>
</trkpt>
<trkpt lat="39.7939453" lon="2.9655470">
<ele>52.99</ele>
<time>2016-10-15T13:58:35Z</time>
</trkpt>
<trkpt lat="39.7937838" lon="2.9653728">
<ele>53.54</ele>
<time>2016-10-15T13:58:38Z</time>
</trkpt>
<trkpt lat="39.7936345" lon="2.9652212">
<ele>53.99</ele>
<time>2016-10-15T13:58:41Z</time>
</trkpt>
<trkpt lat="39.7934661" lon="2.9650768">
<ele>54.95</ele>
<time>2016-10-15T13:58:44Z</time>
</trkpt>
<trkpt lat="39.7932919" lon="2.9649087">
<ele>55.70</ele>
<time>2016-10-15T13:58:47Z</time>
</trkpt>
<trkpt lat="39.7931302" lon="2.9647319">
<ele>55.50</ele>
<time>2016-10-15T13:58:50Z</time>
</trkpt>
<trkpt lat="39.7929745" lon="2.9645509">
<ele>54.98</ele>
<time>2016-10-15T13:58:53Z</time>
</trkpt>
<trkpt lat="39.7928416" lon="2.9643810">
<ele>54.66</ele>
<time>2016-10-15T13:58:56Z</time>
</trkpt>
<trkpt lat="39.7926726" lon="2.9642557">
<ele>54.96</ele>
<time>2016-10-15T13:59:00Z</time>
</trkpt>
<trkpt lat="39.7924729" lon="2.9643448">
<ele>54.41</ele>
<time>2016-10-15T13:59:04Z</time>
</trkpt>
<trkpt lat="39.7923051" lon="2.9644864">
<ele>53.02</ele>
<time>2016-10-15T13:59:07Z</time>
</trkpt>
<trkpt lat="39.7921321" lon="2.9646416">
<ele>51.73</ele>
<time>2016-10-15T13:59:10Z</time>
</trkpt>
<trkpt lat="39.7919464" lon="2.9647972">
<ele>50.87</ele>
<time>2016-10-15T13:59:13Z</time>
</trkpt>
<trkpt lat="39.7917543" lon="2.9649708">
<ele>50.06</ele>
<time>2016-10-15T13:59:16Z</time>
</trkpt>
<trkpt lat="39.7915604" lon="2.9651548">
<ele>49.02</ele>
<time>2016-10-15T13:59:19Z</time>
</trkpt>
<trkpt lat="39.7913800" lon="2.9653529">
<ele>47.19</ele>
<time>2016-10-15T13:59:22Z</time>
</trkpt>
<trkpt lat="39.7912163" lon="2.9655391">
<ele>45.80</ele>
<time>2016-10-15T13:59:25Z</time>
</trkpt>
<trkpt lat="39.7910513" lon="2.9657187">
<ele>44.83</ele>
<time>2016-10-15T13:59:28Z</time>
</trkpt>
<trkpt lat="39.7908803" lon="2.9659085">
<ele>44.60</ele>
<time>2016-10-15T13:59:31Z</time>
</trkpt>
<trkpt lat="39.7907233" lon="2.9660782">
<ele>45.16</ele>
<time>2016-10-15T13:59:34Z</time>
</trkpt>
<trkpt lat="39.7905641" lon="2.9662569">
<ele>45.79</ele>
<time>2016-10-15T13:59:37Z</time>
</trkpt>
<trkpt lat="39.7904116" lon="2.9664475">
<ele>46.48</ele>
<time>2016-10-15T13:59:40Z</time>
</trkpt>
<trkpt lat="39.7902707" lon="2.9666339">
<ele>47.18</ele>
<time>2016-10-15T13:59:43Z</time>
</trkpt>
<trkpt lat="39.7901172" lon="2.9668280">
<ele>47.11</ele>
<time>2016-10-15T13:59:46Z</time>
</trkpt>
<trkpt lat="39.7899731" lon="2.9669982">
<ele>47.15</ele>
<time>2016-10-15T13:59:49Z</time>
</trkpt>
<trkpt lat="39.7898305" lon="2.9671623">
<ele>47.01</ele>
<time>2016-10-15T13:59:52Z</time>
</trkpt>
<trkpt lat="39.7896756" lon="2.9673333">
<ele>47.36</ele>
<time>2016-10-15T13:59:55Z</time>
</trkpt>
<trkpt lat="39.7895085" lon="2.9675188">
<ele>46.87</ele>
<time>2016-10-15T13:59:58Z</time>
</trkpt>
<trkpt lat="39.7893468" lon="2.9676946">
<ele>46.21</ele>
<time>2016-10-15T14:00:01Z</time>
</trkpt>
<trkpt lat="39.7891919" lon="2.9678720">
<ele>46.89</ele>
<time>2016-10-15T14:00:04Z</time>
</trkpt>
<trkpt lat="39.7890347" lon="2.9680733">
<ele>45.56</ele>
<time>2016-10-15T14:00:07Z</time>
</trkpt>
<trkpt lat="39.7888703" lon="2.9682735">
<ele>45.29</ele>
<time>2016-10-15T14:00:11Z</time>
</trkpt>
<trkpt lat="39.7886951" lon="2.9684692">
<ele>46.61</ele>
<time>2016-10-15T14:00:15Z</time>
</trkpt>
<trkpt lat="39.7885394" lon="2.9686517">
<ele>47.06</ele>
<time>2016-10-15T14:00:18Z</time>
</trkpt>
<trkpt lat="39.7884025" lon="2.9688241">
<ele>47.38</ele>
<time>2016-10-15T14:00:21Z</time>
</trkpt>
<trkpt lat="39.7882645" lon="2.9690184">
<ele>48.55</ele>
<time>2016-10-15T14:00:24Z</time>
</trkpt>
<trkpt lat="39.7881432" lon="2.9691945">
<ele>50.08</ele>
<time>2016-10-15T14:00:27Z</time>
</trkpt>
<trkpt lat="39.7879970" lon="2.9694122">
<ele>49.25</ele>
<time>2016-10-15T14:00:30Z</time>
</trkpt>
<trkpt lat="39.7879046" lon="2.9697007">
<ele>48.43</ele>
<time>2016-10-15T14:00:33Z</time>
</trkpt>
<trkpt lat="39.7878687" lon="2.9699693">
<ele>45.92</ele>
<time>2016-10-15T14:00:36Z</time>
</trkpt>
<trkpt lat="39.7878068" lon="2.9702754">
<ele>44.11</ele>
<time>2016-10-15T14:00:39Z</time>
</trkpt>
<trkpt lat="39.7877221" lon="2.9705800">
<ele>42.28</ele>
<time>2016-10-15T14:00:42Z</time>
</trkpt>
<trkpt lat="39.7876372" lon="2.9708652">
<ele>42.18</ele>
<time>2016-10-15T14:00:45Z</time>
</trkpt>
<trkpt lat="39.7875409" lon="2.9711378">
<ele>42.76</ele>
<time>2016-10-15T14:00:48Z</time>
</trkpt>
<trkpt lat="39.7874250" lon="2.9714126">
<ele>42.86</ele>
<time>2016-10-15T14:00:51Z</time>
</trkpt>
<trkpt lat="39.7873004" lon="2.9716385">
<ele>41.38</ele>
<time>2016-10-15T14:00:54Z</time>
</trkpt>
<trkpt lat="39.7871599" lon="2.9718588">
<ele>39.86</ele>
<time>2016-10-15T14:00:57Z</time>
</trkpt>
<trkpt lat="39.7870147" lon="2.9720836">
<ele>38.61</ele>
<time>2016-10-15T14:01:00Z</time>
</trkpt>
<trkpt lat="39.7868722" lon="2.9723162">
<ele>37.32</ele>
<time>2016-10-15T14:01:03Z</time>
</trkpt>
<trkpt lat="39.7867369" lon="2.9725516">
<ele>35.26</ele>
<time>2016-10-15T14:01:06Z</time>
</trkpt>
<trkpt lat="39.7866110" lon="2.9727668">
<ele>33.87</ele>
<time>2016-10-15T14:01:09Z</time>
</trkpt>
<trkpt lat="39.7864882" lon="2.9729774">
<ele>33.44</ele>
<time>2016-10-15T14:01:12Z</time>
</trkpt>
<trkpt lat="39.7863665" lon="2.9731985">
<ele>32.58</ele>
<time>2016-10-15T14:01:15Z</time>
</trkpt>
<trkpt lat="39.7862353" lon="2.9734355">
<ele>31.54</ele>
<time>2016-10-15T14:01:18Z</time>
</trkpt>
<trkpt lat="39.7860970" lon="2.9736703">
<ele>29.75</ele>
<time>2016-10-15T14:01:21Z</time>
</trkpt>
<trkpt lat="39.7859620" lon="2.9739000">
<ele>28.19</ele>
<time>2016-10-15T14:01:24Z</time>
</trkpt>
<trkpt lat="39.7858256" lon="2.9741459">
<ele>29.59</ele>
<time>2016-10-15T14:01:27Z</time>
</trkpt>
<trkpt lat="39.7856857" lon="2.9743925">
<ele>31.04</ele>
<time>2016-10-15T14:01:30Z</time>
</trkpt>
<trkpt lat="39.7855437" lon="2.9746582">
<ele>31.58</ele>
<time>2016-10-15T14:01:33Z</time>
</trkpt>
<trkpt lat="39.7854361" lon="2.9748606">
<ele>31.39</ele>
<time>2016-10-15T14:01:35Z</time>
</trkpt>
<trkpt lat="39.7852887" lon="2.9751418">
<ele>30.12</ele>
<time>2016-10-15T14:01:38Z</time>
</trkpt>
<trkpt lat="39.7851636" lon="2.9754011">
<ele>30.45</ele>
<time>2016-10-15T14:01:41Z</time>
</trkpt>
<trkpt lat="39.7850712" lon="2.9756436">
<ele>33.01</ele>
<time>2016-10-15T14:01:44Z</time>
</trkpt>
<trkpt lat="39.7849936" lon="2.9759028">
<ele>34.96</ele>
<time>2016-10-15T14:01:47Z</time>
</trkpt>
<trkpt lat="39.7849372" lon="2.9761509">
<ele>36.32</ele>
<time>2016-10-15T14:01:50Z</time>
</trkpt>
<trkpt lat="39.7848834" lon="2.9763914">
<ele>36.89</ele>
<time>2016-10-15T14:01:53Z</time>
</trkpt>
<trkpt lat="39.7848232" lon="2.9766227">
<ele>37.28</ele>
<time>2016-10-15T14:01:56Z</time>
</trkpt>
<trkpt lat="39.7847441" lon="2.9768423">
<ele>37.12</ele>
<time>2016-10-15T14:01:59Z</time>
</trkpt>
<trkpt lat="39.7846466" lon="2.9770603">
<ele>36.96</ele>
<time>2016-10-15T14:02:02Z</time>
</trkpt>
<trkpt lat="39.7845279" lon="2.9772759">
<ele>36.68</ele>
<time>2016-10-15T14:02:05Z</time>
</trkpt>
<trkpt lat="39.7844020" lon="2.9774781">
<ele>35.42</ele>
<time>2016-10-15T14:02:08Z</time>
</trkpt>
<trkpt lat="39.7842608" lon="2.9776825">
<ele>34.68</ele>
<time>2016-10-15T14:02:11Z</time>
</trkpt>
<trkpt lat="39.7841163" lon="2.9778902">
<ele>34.82</ele>
<time>2016-10-15T14:02:14Z</time>
</trkpt>
<trkpt lat="39.7839645" lon="2.9781123">
<ele>35.09</ele>
<time>2016-10-15T14:02:17Z</time>
</trkpt>
<trkpt lat="39.7837915" lon="2.9783523">
<ele>34.30</ele>
<time>2016-10-15T14:02:20Z</time>
</trkpt>
<trkpt lat="39.7836281" lon="2.9785813">
<ele>33.60</ele>
<time>2016-10-15T14:02:23Z</time>
</trkpt>
<trkpt lat="39.7834833" lon="2.9788026">
<ele>33.01</ele>
<time>2016-10-15T14:02:26Z</time>
</trkpt>
<trkpt lat="39.7833557" lon="2.9790109">
<ele>33.35</ele>
<time>2016-10-15T14:02:29Z</time>
</trkpt>
<trkpt lat="39.7832384" lon="2.9792049">
<ele>34.89</ele>
<time>2016-10-15T14:02:32Z</time>
</trkpt>
<trkpt lat="39.7831057" lon="2.9794081">
<ele>35.21</ele>
<time>2016-10-15T14:02:35Z</time>
</trkpt>
<trkpt lat="39.7829569" lon="2.9796508">
<ele>36.21</ele>
<time>2016-10-15T14:02:39Z</time>
</trkpt>
<trkpt lat="39.7828349" lon="2.9798424">
<ele>36.56</ele>
<time>2016-10-15T14:02:42Z</time>
</trkpt>
<trkpt lat="39.7826848" lon="2.9800790">
<ele>37.95</ele>
<time>2016-10-15T14:02:46Z</time>
</trkpt>
<trkpt lat="39.7825738" lon="2.9802634">
<ele>38.09</ele>
<time>2016-10-15T14:02:49Z</time>
</trkpt>
<trkpt lat="39.7824561" lon="2.9804514">
<ele>36.63</ele>
<time>2016-10-15T14:02:52Z</time>
</trkpt>
<trkpt lat="39.7823510" lon="2.9806433">
<ele>36.13</ele>
<time>2016-10-15T14:02:57Z</time>
</trkpt>
<trkpt lat="39.7822947" lon="2.9808785">
<ele>41.47</ele>
<time>2016-10-15T14:10:09Z</time>
</trkpt>
<trkpt lat="39.7822473" lon="2.9811166">
<ele>43.83</ele>
<time>2016-10-15T14:10:13Z</time>
</trkpt>
<trkpt lat="39.7821903" lon="2.9813797">
<ele>44.11</ele>
<time>2016-10-15T14:10:17Z</time>
</trkpt>
<trkpt lat="39.7821358" lon="2.9816548">
<ele>44.39</ele>
<time>2016-10-15T14:10:21Z</time>
</trkpt>
<trkpt lat="39.7820755" lon="2.9819427">
<ele>44.03</ele>
<time>2016-10-15T14:10:25Z</time>
</trkpt>
<trkpt lat="39.7820073" lon="2.9822329">
<ele>43.61</ele>
<time>2016-10-15T14:10:29Z</time>
</trkpt>
<trkpt lat="39.7819520" lon="2.9824581">
<ele>43.89</ele>
<time>2016-10-15T14:10:32Z</time>
</trkpt>
<trkpt lat="39.7818962" lon="2.9826917">
<ele>43.54</ele>
<time>2016-10-15T14:10:35Z</time>
</trkpt>
<trkpt lat="39.7818405" lon="2.9829372">
<ele>41.51</ele>
<time>2016-10-15T14:10:38Z</time>
</trkpt>
<trkpt lat="39.7817870" lon="2.9831861">
<ele>40.56</ele>
<time>2016-10-15T14:10:41Z</time>
</trkpt>
<trkpt lat="39.7817293" lon="2.9834202">
<ele>40.05</ele>
<time>2016-10-15T14:10:44Z</time>
</trkpt>
<trkpt lat="39.7816627" lon="2.9836697">
<ele>39.43</ele>
<time>2016-10-15T14:10:47Z</time>
</trkpt>
<trkpt lat="39.7816053" lon="2.9839119">
<ele>38.38</ele>
<time>2016-10-15T14:10:50Z</time>
</trkpt>
<trkpt lat="39.7815428" lon="2.9841553">
<ele>37.39</ele>
<time>2016-10-15T14:10:53Z</time>
</trkpt>
<trkpt lat="39.7814785" lon="2.9844060">
<ele>36.53</ele>
<time>2016-10-15T14:10:56Z</time>
</trkpt>
<trkpt lat="39.7814242" lon="2.9846405">
<ele>36.11</ele>
<time>2016-10-15T14:10:59Z</time>
</trkpt>
<trkpt lat="39.7813641" lon="2.9848956">
<ele>36.18</ele>
<time>2016-10-15T14:11:02Z</time>
</trkpt>
<trkpt lat="39.7813104" lon="2.9851474">
<ele>37.05</ele>
<time>2016-10-15T14:11:05Z</time>
</trkpt>
<trkpt lat="39.7812571" lon="2.9854021">
<ele>37.63</ele>
<time>2016-10-15T14:11:08Z</time>
</trkpt>
<trkpt lat="39.7812066" lon="2.9856578">
<ele>37.85</ele>
<time>2016-10-15T14:11:11Z</time>
</trkpt>
<trkpt lat="39.7811513" lon="2.9859192">
<ele>38.15</ele>
<time>2016-10-15T14:11:14Z</time>
</trkpt>
<trkpt lat="39.7810957" lon="2.9861915">
<ele>38.12</ele>
<time>2016-10-15T14:11:17Z</time>
</trkpt>
<trkpt lat="39.7810408" lon="2.9864615">
<ele>38.28</ele>
<time>2016-10-15T14:11:20Z</time>
</trkpt>
<trkpt lat="39.7809830" lon="2.9867187">
<ele>38.18</ele>
<time>2016-10-15T14:11:23Z</time>
</trkpt>
<trkpt lat="39.7809178" lon="2.9869923">
<ele>38.21</ele>
<time>2016-10-15T14:11:26Z</time>
</trkpt>
<trkpt lat="39.7808591" lon="2.9872483">
<ele>37.91</ele>
<time>2016-10-15T14:11:29Z</time>
</trkpt>
<trkpt lat="39.7808036" lon="2.9874968">
<ele>38.09</ele>
<time>2016-10-15T14:11:32Z</time>
</trkpt>
<trkpt lat="39.7807472" lon="2.9877463">
<ele>37.80</ele>
<time>2016-10-15T14:11:35Z</time>
</trkpt>
<trkpt lat="39.7806853" lon="2.9879930">
<ele>37.56</ele>
<time>2016-10-15T14:11:38Z</time>
</trkpt>
<trkpt lat="39.7806290" lon="2.9882342">
<ele>38.18</ele>
<time>2016-10-15T14:11:41Z</time>
</trkpt>
<trkpt lat="39.7806200" lon="2.9885058">
<ele>38.01</ele>
<time>2016-10-15T14:11:44Z</time>
</trkpt>
<trkpt lat="39.7807235" lon="2.9886986">
<ele>36.08</ele>
<time>2016-10-15T14:11:47Z</time>
</trkpt>
<trkpt lat="39.7808952" lon="2.9888676">
<ele>35.06</ele>
<time>2016-10-15T14:11:50Z</time>
</trkpt>
<trkpt lat="39.7810687" lon="2.9890071">
<ele>35.67</ele>
<time>2016-10-15T14:11:53Z</time>
</trkpt>
<trkpt lat="39.7812524" lon="2.9891514">
<ele>35.58</ele>
<time>2016-10-15T14:11:56Z</time>
</trkpt>
<trkpt lat="39.7814230" lon="2.9892727">
<ele>34.57</ele>
<time>2016-10-15T14:11:59Z</time>
</trkpt>
<trkpt lat="39.7816028" lon="2.9894089">
<ele>33.11</ele>
<time>2016-10-15T14:12:02Z</time>
</trkpt>
<trkpt lat="39.7817877" lon="2.9895471">
<ele>31.92</ele>
<time>2016-10-15T14:12:05Z</time>
</trkpt>
<trkpt lat="39.7819766" lon="2.9896850">
<ele>31.08</ele>
<time>2016-10-15T14:12:08Z</time>
</trkpt>
<trkpt lat="39.7821633" lon="2.9898476">
<ele>30.02</ele>
<time>2016-10-15T14:12:11Z</time>
</trkpt>
<trkpt lat="39.7822313" lon="2.9901454">
<ele>30.31</ele>
<time>2016-10-15T14:12:14Z</time>
</trkpt>
<trkpt lat="39.7822425" lon="2.9904390">
<ele>30.35</ele>
<time>2016-10-15T14:12:17Z</time>
</trkpt>
<trkpt lat="39.7822440" lon="2.9907300">
<ele>30.59</ele>
<time>2016-10-15T14:12:20Z</time>
</trkpt>
<trkpt lat="39.7822430" lon="2.9910141">
<ele>31.03</ele>
<time>2016-10-15T14:12:23Z</time>
</trkpt>
<trkpt lat="39.7822667" lon="2.9912933">
<ele>31.64</ele>
<time>2016-10-15T14:12:26Z</time>
</trkpt>
<trkpt lat="39.7823251" lon="2.9915517">
<ele>31.97</ele>
<time>2016-10-15T14:12:29Z</time>
</trkpt>
<trkpt lat="39.7823548" lon="2.9918047">
<ele>31.72</ele>
<time>2016-10-15T14:12:32Z</time>
</trkpt>
<trkpt lat="39.7822692" lon="2.9920818">
<ele>31.07</ele>
<time>2016-10-15T14:12:35Z</time>
</trkpt>
<trkpt lat="39.7821481" lon="2.9923479">
<ele>30.54</ele>
<time>2016-10-15T14:12:38Z</time>
</trkpt>
<trkpt lat="39.7820331" lon="2.9925891">
<ele>29.76</ele>
<time>2016-10-15T14:12:41Z</time>
</trkpt>
<trkpt lat="39.7819122" lon="2.9928242">
<ele>28.74</ele>
<time>2016-10-15T14:12:44Z</time>
</trkpt>
<trkpt lat="39.7817849" lon="2.9930521">
<ele>27.41</ele>
<time>2016-10-15T14:12:47Z</time>
</trkpt>
<trkpt lat="39.7816563" lon="2.9933007">
<ele>25.45</ele>
<time>2016-10-15T14:12:50Z</time>
</trkpt>
<trkpt lat="39.7815266" lon="2.9935387">
<ele>24.60</ele>
<time>2016-10-15T14:12:53Z</time>
</trkpt>
<trkpt lat="39.7813840" lon="2.9937886">
<ele>24.41</ele>
<time>2016-10-15T14:12:56Z</time>
</trkpt>
<trkpt lat="39.7812492" lon="2.9940180">
<ele>23.96</ele>
<time>2016-10-15T14:12:59Z</time>
</trkpt>
<trkpt lat="39.7811282" lon="2.9942377">
<ele>24.30</ele>
<time>2016-10-15T14:13:02Z</time>
</trkpt>
<trkpt lat="39.7810067" lon="2.9944730">
<ele>24.57</ele>
<time>2016-10-15T14:13:05Z</time>
</trkpt>
<trkpt lat="39.7808787" lon="2.9947295">
<ele>25.98</ele>
<time>2016-10-15T14:13:09Z</time>
</trkpt>
<trkpt lat="39.7807847" lon="2.9949305">
<ele>28.45</ele>
<time>2016-10-15T14:13:13Z</time>
</trkpt>
<trkpt lat="39.7807408" lon="2.9951913">
<ele>30.96</ele>
<time>2016-10-15T14:13:18Z</time>
</trkpt>
<trkpt lat="39.7805874" lon="2.9953285">
<ele>33.35</ele>
<time>2016-10-15T14:13:23Z</time>
</trkpt>
<trkpt lat="39.7803808" lon="2.9953294">
<ele>36.35</ele>
<time>2016-10-15T14:13:27Z</time>
</trkpt>
<trkpt lat="39.7801965" lon="2.9954116">
<ele>37.81</ele>
<time>2016-10-15T14:13:31Z</time>
</trkpt>
<trkpt lat="39.7800449" lon="2.9956263">
<ele>37.38</ele>
<time>2016-10-15T14:13:36Z</time>
</trkpt>
<trkpt lat="39.7800022" lon="2.9958840">
<ele>37.45</ele>
<time>2016-10-15T14:13:40Z</time>
</trkpt>
<trkpt lat="39.7800644" lon="2.9961410">
<ele>37.88</ele>
<time>2016-10-15T14:13:44Z</time>
</trkpt>
<trkpt lat="39.7800079" lon="2.9963774">
<ele>38.04</ele>
<time>2016-10-15T14:13:48Z</time>
</trkpt>
<trkpt lat="39.7799222" lon="2.9965868">
<ele>37.20</ele>
<time>2016-10-15T14:13:51Z</time>
</trkpt>
<trkpt lat="39.7798804" lon="2.9968292">
<ele>36.96</ele>
<time>2016-10-15T14:13:54Z</time>
</trkpt>
<trkpt lat="39.7797857" lon="2.9971352">
<ele>35.42</ele>
<time>2016-10-15T14:13:57Z</time>
</trkpt>
<trkpt lat="39.7796897" lon="2.9973644">
<ele>33.98</ele>
<time>2016-10-15T14:13:59Z</time>
</trkpt>
<trkpt lat="39.7795867" lon="2.9975864">
<ele>33.42</ele>
<time>2016-10-15T14:14:01Z</time>
</trkpt>
<trkpt lat="39.7794820" lon="2.9978071">
<ele>32.91</ele>
<time>2016-10-15T14:14:03Z</time>
</trkpt>
<trkpt lat="39.7793813" lon="2.9980113">
<ele>32.83</ele>
<time>2016-10-15T14:14:05Z</time>
</trkpt>
<trkpt lat="39.7792772" lon="2.9982207">
<ele>32.43</ele>
<time>2016-10-15T14:14:07Z</time>
</trkpt>
<trkpt lat="39.7791374" lon="2.9985060">
<ele>30.78</ele>
<time>2016-10-15T14:14:10Z</time>
</trkpt>
<trkpt lat="39.7790040" lon="2.9987815">
<ele>29.10</ele>
<time>2016-10-15T14:14:13Z</time>
</trkpt>
<trkpt lat="39.7788688" lon="2.9990430">
<ele>27.69</ele>
<time>2016-10-15T14:14:16Z</time>
</trkpt>
<trkpt lat="39.7787333" lon="2.9992929">
<ele>26.87</ele>
<time>2016-10-15T14:14:19Z</time>
</trkpt>
<trkpt lat="39.7786020" lon="2.9995437">
<ele>26.76</ele>
<time>2016-10-15T14:14:22Z</time>
</trkpt>
<trkpt lat="39.7784781" lon="2.9997853">
<ele>25.52</ele>
<time>2016-10-15T14:14:25Z</time>
</trkpt>
<trkpt lat="39.7783554" lon="3.0000280">
<ele>24.73</ele>
<time>2016-10-15T14:14:28Z</time>
</trkpt>
<trkpt lat="39.7782292" lon="3.0002726">
<ele>24.26</ele>
<time>2016-10-15T14:14:31Z</time>
</trkpt>
<trkpt lat="39.7781198" lon="3.0005038">
<ele>23.85</ele>
<time>2016-10-15T14:14:33Z</time>
</trkpt>
<trkpt lat="39.7780066" lon="3.0007487">
<ele>23.89</ele>
<time>2016-10-15T14:14:36Z</time>
</trkpt>
<trkpt lat="39.7778863" lon="3.0010043">
<ele>23.62</ele>
<time>2016-10-15T14:14:39Z</time>
</trkpt>
<trkpt lat="39.7777634" lon="3.0012496">
<ele>23.87</ele>
<time>2016-10-15T14:14:42Z</time>
</trkpt>
<trkpt lat="39.7776418" lon="3.0014889">
<ele>23.66</ele>
<time>2016-10-15T14:14:45Z</time>
</trkpt>
<trkpt lat="39.7775275" lon="3.0017220">
<ele>23.21</ele>
<time>2016-10-15T14:14:48Z</time>
</trkpt>
<trkpt lat="39.7774005" lon="3.0019681">
<ele>22.98</ele>
<time>2016-10-15T14:14:51Z</time>
</trkpt>
<trkpt lat="39.7772773" lon="3.0022065">
<ele>23.34</ele>
<time>2016-10-15T14:14:54Z</time>
</trkpt>
<trkpt lat="39.7771552" lon="3.0024385">
<ele>23.85</ele>
<time>2016-10-15T14:14:57Z</time>
</trkpt>
<trkpt lat="39.7770315" lon="3.0026778">
<ele>23.52</ele>
<time>2016-10-15T14:15:00Z</time>
</trkpt>
<trkpt lat="39.7769086" lon="3.0029299">
<ele>23.41</ele>
<time>2016-10-15T14:15:03Z</time>
</trkpt>
<trkpt lat="39.7767951" lon="3.0031681">
<ele>22.98</ele>
<time>2016-10-15T14:15:06Z</time>
</trkpt>
<trkpt lat="39.7766841" lon="3.0033997">
<ele>23.43</ele>
<time>2016-10-15T14:15:09Z</time>
</trkpt>
<trkpt lat="39.7765689" lon="3.0036437">
<ele>22.41</ele>
<time>2016-10-15T14:15:12Z</time>
</trkpt>
<trkpt lat="39.7764648" lon="3.0038649">
<ele>21.89</ele>
<time>2016-10-15T14:15:15Z</time>
</trkpt>
<trkpt lat="39.7763567" lon="3.0040785">
<ele>22.83</ele>
<time>2016-10-15T14:15:18Z</time>
</trkpt>
<trkpt lat="39.7762567" lon="3.0042816">
<ele>24.31</ele>
<time>2016-10-15T14:15:21Z</time>
</trkpt>
<trkpt lat="39.7761538" lon="3.0045006">
<ele>26.58</ele>
<time>2016-10-15T14:15:24Z</time>
</trkpt>
<trkpt lat="39.7760434" lon="3.0047428">
<ele>27.93</ele>
<time>2016-10-15T14:15:27Z</time>
</trkpt>
<trkpt lat="39.7759264" lon="3.0049937">
<ele>29.12</ele>
<time>2016-10-15T14:15:30Z</time>
</trkpt>
<trkpt lat="39.7758122" lon="3.0052334">
<ele>29.66</ele>
<time>2016-10-15T14:15:33Z</time>
</trkpt>
<trkpt lat="39.7756973" lon="3.0054786">
<ele>30.23</ele>
<time>2016-10-15T14:15:36Z</time>
</trkpt>
<trkpt lat="39.7755818" lon="3.0057235">
<ele>31.57</ele>
<time>2016-10-15T14:15:39Z</time>
</trkpt>
<trkpt lat="39.7754552" lon="3.0059780">
<ele>32.04</ele>
<time>2016-10-15T14:15:42Z</time>
</trkpt>
<trkpt lat="39.7753333" lon="3.0062269">
<ele>31.50</ele>
<time>2016-10-15T14:15:45Z</time>
</trkpt>
<trkpt lat="39.7752107" lon="3.0064759">
<ele>30.36</ele>
<time>2016-10-15T14:15:48Z</time>
</trkpt>
<trkpt lat="39.7750819" lon="3.0067320">
<ele>29.31</ele>
<time>2016-10-15T14:15:51Z</time>
</trkpt>
<trkpt lat="39.7749535" lon="3.0069870">
<ele>27.58</ele>
<time>2016-10-15T14:15:54Z</time>
</trkpt>
<trkpt lat="39.7748424" lon="3.0072265">
<ele>26.43</ele>
<time>2016-10-15T14:15:57Z</time>
</trkpt>
<trkpt lat="39.7747257" lon="3.0074626">
<ele>26.74</ele>
<time>2016-10-15T14:16:00Z</time>
</trkpt>
<trkpt lat="39.7746139" lon="3.0077084">
<ele>27.27</ele>
<time>2016-10-15T14:16:03Z</time>
</trkpt>
<trkpt lat="39.7745198" lon="3.0079639">
<ele>27.48</ele>
<time>2016-10-15T14:16:06Z</time>
</trkpt>
<trkpt lat="39.7744270" lon="3.0082248">
<ele>27.20</ele>
<time>2016-10-15T14:16:09Z</time>
</trkpt>
<trkpt lat="39.7743323" lon="3.0084777">
<ele>27.22</ele>
<time>2016-10-15T14:16:12Z</time>
</trkpt>
<trkpt lat="39.7742478" lon="3.0087223">
<ele>28.08</ele>
<time>2016-10-15T14:16:15Z</time>
</trkpt>
<trkpt lat="39.7741578" lon="3.0089756">
<ele>28.76</ele>
<time>2016-10-15T14:16:18Z</time>
</trkpt>
<trkpt lat="39.7740542" lon="3.0092450">
<ele>28.49</ele>
<time>2016-10-15T14:16:21Z</time>
</trkpt>
<trkpt lat="39.7739599" lon="3.0094971">
<ele>28.45</ele>
<time>2016-10-15T14:16:24Z</time>
</trkpt>
<trkpt lat="39.7738626" lon="3.0097569">
<ele>28.98</ele>
<time>2016-10-15T14:16:27Z</time>
</trkpt>
<trkpt lat="39.7737703" lon="3.0100181">
<ele>28.96</ele>
<time>2016-10-15T14:16:30Z</time>
</trkpt>
<trkpt lat="39.7736769" lon="3.0102832">
<ele>28.86</ele>
<time>2016-10-15T14:16:33Z</time>
</trkpt>
<trkpt lat="39.7735841" lon="3.0105475">
<ele>28.72</ele>
<time>2016-10-15T14:16:36Z</time>
</trkpt>
<trkpt lat="39.7734897" lon="3.0108096">
<ele>28.62</ele>
<time>2016-10-15T14:16:39Z</time>
</trkpt>
<trkpt lat="39.7733924" lon="3.0110681">
<ele>28.52</ele>
<time>2016-10-15T14:16:42Z</time>
</trkpt>
<trkpt lat="39.7732927" lon="3.0113247">
<ele>28.26</ele>
<time>2016-10-15T14:16:45Z</time>
</trkpt>
<trkpt lat="39.7732066" lon="3.0115784">
<ele>28.21</ele>
<time>2016-10-15T14:16:48Z</time>
</trkpt>
<trkpt lat="39.7731163" lon="3.0118375">
<ele>28.30</ele>
<time>2016-10-15T14:16:51Z</time>
</trkpt>
<trkpt lat="39.7730273" lon="3.0120873">
<ele>28.67</ele>
<time>2016-10-15T14:16:54Z</time>
</trkpt>
<trkpt lat="39.7729359" lon="3.0123315">
<ele>29.52</ele>
<time>2016-10-15T14:16:57Z</time>
</trkpt>
<trkpt lat="39.7728358" lon="3.0125958">
<ele>29.69</ele>
<time>2016-10-15T14:17:00Z</time>
</trkpt>
<trkpt lat="39.7727452" lon="3.0128460">
<ele>29.19</ele>
<time>2016-10-15T14:17:03Z</time>
</trkpt>
<trkpt lat="39.7726545" lon="3.0131005">
<ele>27.14</ele>
<time>2016-10-15T14:17:06Z</time>
</trkpt>
<trkpt lat="39.7725825" lon="3.0133213">
<ele>24.67</ele>
<time>2016-10-15T14:17:09Z</time>
</trkpt>
<trkpt lat="39.7724428" lon="3.0135527">
<ele>23.65</ele>
<time>2016-10-15T14:17:13Z</time>
</trkpt>
<trkpt lat="39.7723078" lon="3.0137113">
<ele>23.31</ele>
<time>2016-10-15T14:17:16Z</time>
</trkpt>
<trkpt lat="39.7722816" lon="3.0139445">
<ele>22.67</ele>
<time>2016-10-15T14:17:19Z</time>
</trkpt>
<trkpt lat="39.7724753" lon="3.0141047">
<ele>22.11</ele>
<time>2016-10-15T14:17:23Z</time>
</trkpt>
<trkpt lat="39.7726302" lon="3.0143013">
<ele>23.82</ele>
<time>2016-10-15T14:17:26Z</time>
</trkpt>
<trkpt lat="39.7727452" lon="3.0145290">
<ele>24.93</ele>
<time>2016-10-15T14:17:29Z</time>
</trkpt>
<trkpt lat="39.7728710" lon="3.0147752">
<ele>25.30</ele>
<time>2016-10-15T14:17:32Z</time>
</trkpt>
<trkpt lat="39.7729799" lon="3.0150130">
<ele>26.38</ele>
<time>2016-10-15T14:17:35Z</time>
</trkpt>
<trkpt lat="39.7731002" lon="3.0152626">
<ele>27.18</ele>
<time>2016-10-15T14:17:38Z</time>
</trkpt>
<trkpt lat="39.7732356" lon="3.0155374">
<ele>28.07</ele>
<time>2016-10-15T14:17:41Z</time>
</trkpt>
<trkpt lat="39.7733747" lon="3.0158048">
<ele>27.88</ele>
<time>2016-10-15T14:17:44Z</time>
</trkpt>
<trkpt lat="39.7735073" lon="3.0160581">
<ele>26.78</ele>
<time>2016-10-15T14:17:47Z</time>
</trkpt>
<trkpt lat="39.7736305" lon="3.0163043">
<ele>26.43</ele>
<time>2016-10-15T14:17:50Z</time>
</trkpt>
<trkpt lat="39.7737381" lon="3.0165193">
<ele>26.08</ele>
<time>2016-10-15T14:17:53Z</time>
</trkpt>
<trkpt lat="39.7737750" lon="3.0167750">
<ele>25.72</ele>
<time>2016-10-15T14:17:58Z</time>
</trkpt>
<trkpt lat="39.7738709" lon="3.0170049">
<ele>23.95</ele>
<time>2016-10-15T14:18:02Z</time>
</trkpt>
<trkpt lat="39.7740212" lon="3.0171435">
<ele>22.91</ele>
<time>2016-10-15T14:18:05Z</time>
</trkpt>
<trkpt lat="39.7741401" lon="3.0173728">
<ele>22.72</ele>
<time>2016-10-15T14:18:08Z</time>
</trkpt>
<trkpt lat="39.7742468" lon="3.0176097">
<ele>22.46</ele>
<time>2016-10-15T14:18:11Z</time>
</trkpt>
<trkpt lat="39.7743654" lon="3.0178556">
<ele>22.99</ele>
<time>2016-10-15T14:18:14Z</time>
</trkpt>
<trkpt lat="39.7744683" lon="3.0180877">
<ele>23.38</ele>
<time>2016-10-15T14:18:17Z</time>
</trkpt>
<trkpt lat="39.7745689" lon="3.0183152">
<ele>24.74</ele>
<time>2016-10-15T14:18:20Z</time>
</trkpt>
<trkpt lat="39.7746776" lon="3.0185624">
<ele>24.58</ele>
<time>2016-10-15T14:18:23Z</time>
</trkpt>
<trkpt lat="39.7747978" lon="3.0188080">
<ele>25.28</ele>
<time>2016-10-15T14:18:26Z</time>
</trkpt>
<trkpt lat="39.7749179" lon="3.0190700">
<ele>24.53</ele>
<time>2016-10-15T14:18:29Z</time>
</trkpt>
<trkpt lat="39.7750347" lon="3.0193240">
<ele>23.19</ele>
<time>2016-10-15T14:18:32Z</time>
</trkpt>
<trkpt lat="39.7751588" lon="3.0195841">
<ele>21.69</ele>
<time>2016-10-15T14:18:35Z</time>
</trkpt>
<trkpt lat="39.7752761" lon="3.0198283">
<ele>21.65</ele>
<time>2016-10-15T14:18:38Z</time>
</trkpt>
<trkpt lat="39.7753829" lon="3.0200579">
<ele>21.89</ele>
<time>2016-10-15T14:18:41Z</time>
</trkpt>
<trkpt lat="39.7754950" lon="3.0202998">
<ele>22.16</ele>
<time>2016-10-15T14:18:44Z</time>
</trkpt>
<trkpt lat="39.7756033" lon="3.0205319">
<ele>22.55</ele>
<time>2016-10-15T14:18:47Z</time>
</trkpt>
<trkpt lat="39.7757148" lon="3.0207660">
<ele>22.92</ele>
<time>2016-10-15T14:18:50Z</time>
</trkpt>
<trkpt lat="39.7758344" lon="3.0210348">
<ele>22.55</ele>
<time>2016-10-15T14:18:53Z</time>
</trkpt>
<trkpt lat="39.7759117" lon="3.0213072">
<ele>23.15</ele>
<time>2016-10-15T14:18:56Z</time>
</trkpt>
<trkpt lat="39.7759436" lon="3.0215920">
<ele>23.92</ele>
<time>2016-10-15T14:18:59Z</time>
</trkpt>
<trkpt lat="39.7759573" lon="3.0218698">
<ele>24.87</ele>
<time>2016-10-15T14:19:02Z</time>
</trkpt>
<trkpt lat="39.7759662" lon="3.0221639">
<ele>25.24</ele>
<time>2016-10-15T14:19:05Z</time>
</trkpt>
<trkpt lat="39.7759728" lon="3.0224488">
<ele>25.13</ele>
<time>2016-10-15T14:19:08Z</time>
</trkpt>
<trkpt lat="39.7759825" lon="3.0227315">
<ele>24.92</ele>
<time>2016-10-15T14:19:11Z</time>
</trkpt>
<trkpt lat="39.7759948" lon="3.0230101">
<ele>24.94</ele>
<time>2016-10-15T14:19:14Z</time>
</trkpt>
<trkpt lat="39.7760080" lon="3.0232969">
<ele>24.53</ele>
<time>2016-10-15T14:19:17Z</time>
</trkpt>
<trkpt lat="39.7760290" lon="3.0235829">
<ele>23.18</ele>
<time>2016-10-15T14:19:20Z</time>
</trkpt>
<trkpt lat="39.7760437" lon="3.0238446">
<ele>21.52</ele>
<time>2016-10-15T14:19:23Z</time>
</trkpt>
<trkpt lat="39.7759965" lon="3.0241415">
<ele>20.18</ele>
<time>2016-10-15T14:19:27Z</time>
</trkpt>
<trkpt lat="39.7759522" lon="3.0243879">
<ele>19.68</ele>
<time>2016-10-15T14:19:30Z</time>
</trkpt>
<trkpt lat="39.7760584" lon="3.0246513">
<ele>18.95</ele>
<time>2016-10-15T14:19:33Z</time>
</trkpt>
<trkpt lat="39.7761353" lon="3.0249546">
<ele>19.40</ele>
<time>2016-10-15T14:19:36Z</time>
</trkpt>
<trkpt lat="39.7761577" lon="3.0252294">
<ele>19.87</ele>
<time>2016-10-15T14:19:39Z</time>
</trkpt>
<trkpt lat="39.7761729" lon="3.0254934">
<ele>19.76</ele>
<time>2016-10-15T14:19:42Z</time>
</trkpt>
<trkpt lat="39.7761927" lon="3.0257638">
<ele>20.25</ele>
<time>2016-10-15T14:19:45Z</time>
</trkpt>
<trkpt lat="39.7762087" lon="3.0260460">
<ele>19.90</ele>
<time>2016-10-15T14:19:48Z</time>
</trkpt>
<trkpt lat="39.7762162" lon="3.0263325">
<ele>19.55</ele>
<time>2016-10-15T14:19:51Z</time>
</trkpt>
<trkpt lat="39.7761844" lon="3.0265975">
<ele>18.85</ele>
<time>2016-10-15T14:19:54Z</time>
</trkpt>
<trkpt lat="39.7760890" lon="3.0268484">
<ele>18.34</ele>
<time>2016-10-15T14:19:57Z</time>
</trkpt>
<trkpt lat="39.7759725" lon="3.0270752">
<ele>17.92</ele>
<time>2016-10-15T14:20:00Z</time>
</trkpt>
<trkpt lat="39.7758253" lon="3.0272659">
<ele>18.06</ele>
<time>2016-10-15T14:20:03Z</time>
</trkpt>
<trkpt lat="39.7756558" lon="3.0274335">
<ele>17.50</ele>
<time>2016-10-15T14:20:06Z</time>
</trkpt>
<trkpt lat="39.7754886" lon="3.0275680">
<ele>17.72</ele>
<time>2016-10-15T14:20:09Z</time>
</trkpt>
<trkpt lat="39.7753261" lon="3.0276963">
<ele>18.66</ele>
<time>2016-10-15T14:20:12Z</time>
</trkpt>
<trkpt lat="39.7751740" lon="3.0278336">
<ele>19.78</ele>
<time>2016-10-15T14:20:15Z</time>
</trkpt>
<trkpt lat="39.7749809" lon="3.0278847">
<ele>20.86</ele>
<time>2016-10-15T14:20:18Z</time>
</trkpt>
<trkpt lat="39.7747981" lon="3.0279798">
<ele>21.47</ele>
<time>2016-10-15T14:20:21Z</time>
</trkpt>
<trkpt lat="39.7746743" lon="3.0281914">
<ele>20.85</ele>
<time>2016-10-15T14:20:24Z</time>
</trkpt>
<trkpt lat="39.7745195" lon="3.0283937">
<ele>20.17</ele>
<time>2016-10-15T14:20:27Z</time>
</trkpt>
<trkpt lat="39.7743317" lon="3.0285643">
<ele>19.27</ele>
<time>2016-10-15T14:20:30Z</time>
</trkpt>
<trkpt lat="39.7741511" lon="3.0287139">
<ele>19.55</ele>
<time>2016-10-15T14:20:33Z</time>
</trkpt>
<trkpt lat="39.7739645" lon="3.0288723">
<ele>19.45</ele>
<time>2016-10-15T14:20:36Z</time>
</trkpt>
<trkpt lat="39.7737901" lon="3.0290288">
<ele>19.60</ele>
<time>2016-10-15T14:20:39Z</time>
</trkpt>
<trkpt lat="39.7736288" lon="3.0291808">
<ele>20.29</ele>
<time>2016-10-15T14:20:42Z</time>
</trkpt>
<trkpt lat="39.7734419" lon="3.0293492">
<ele>20.40</ele>
<time>2016-10-15T14:20:45Z</time>
</trkpt>
<trkpt lat="39.7732618" lon="3.0295112">
<ele>20.01</ele>
<time>2016-10-15T14:20:48Z</time>
</trkpt>
<trkpt lat="39.7730896" lon="3.0296601">
<ele>19.62</ele>
<time>2016-10-15T14:20:51Z</time>
</trkpt>
<trkpt lat="39.7729043" lon="3.0298211">
<ele>19.85</ele>
<time>2016-10-15T14:20:54Z</time>
</trkpt>
<trkpt lat="39.7727378" lon="3.0299644">
<ele>20.48</ele>
<time>2016-10-15T14:20:57Z</time>
</trkpt>
<trkpt lat="39.7725806" lon="3.0300967">
<ele>20.82</ele>
<time>2016-10-15T14:21:00Z</time>
</trkpt>
<trkpt lat="39.7724136" lon="3.0302339">
<ele>20.69</ele>
<time>2016-10-15T14:21:03Z</time>
</trkpt>
<trkpt lat="39.7722011" lon="3.0303472">
<ele>20.18</ele>
<time>2016-10-15T14:21:07Z</time>
</trkpt>
<trkpt lat="39.7720009" lon="3.0302924">
<ele>20.00</ele>
<time>2016-10-15T14:21:11Z</time>
</trkpt>
<trkpt lat="39.7717988" lon="3.0302778">
<ele>18.10</ele>
<time>2016-10-15T14:21:16Z</time>
</trkpt>
<trkpt lat="39.7717783" lon="3.0305585">
<ele>18.48</ele>
<time>2016-10-15T14:21:22Z</time>
</trkpt>
<trkpt lat="39.7718095" lon="3.0308213">
<ele>22.10</ele>
<time>2016-10-15T14:21:27Z</time>
</trkpt>
<trkpt lat="39.7718578" lon="3.0310913">
<ele>22.83</ele>
<time>2016-10-15T14:21:32Z</time>
</trkpt>
<trkpt lat="39.7719044" lon="3.0313566">
<ele>24.03</ele>
<time>2016-10-15T14:21:36Z</time>
</trkpt>
<trkpt lat="39.7719382" lon="3.0316662">
<ele>26.67</ele>
<time>2016-10-15T14:21:40Z</time>
</trkpt>
<trkpt lat="39.7719522" lon="3.0319049">
<ele>26.61</ele>
<time>2016-10-15T14:21:43Z</time>
</trkpt>
<trkpt lat="39.7719741" lon="3.0321836">
<ele>25.09</ele>
<time>2016-10-15T14:21:46Z</time>
</trkpt>
<trkpt lat="39.7719945" lon="3.0324692">
<ele>22.67</ele>
<time>2016-10-15T14:21:49Z</time>
</trkpt>
<trkpt lat="39.7720159" lon="3.0327317">
<ele>20.94</ele>
<time>2016-10-15T14:21:52Z</time>
</trkpt>
<trkpt lat="39.7720344" lon="3.0329902">
<ele>19.62</ele>
<time>2016-10-15T14:21:55Z</time>
</trkpt>
<trkpt lat="39.7720646" lon="3.0332777">
<ele>17.42</ele>
<time>2016-10-15T14:21:58Z</time>
</trkpt>
<trkpt lat="39.7720906" lon="3.0335253">
<ele>17.03</ele>
<time>2016-10-15T14:22:01Z</time>
</trkpt>
<trkpt lat="39.7719571" lon="3.0337633">
<ele>18.87</ele>
<time>2016-10-15T14:22:05Z</time>
</trkpt>
<trkpt lat="39.7717969" lon="3.0338892">
<ele>19.97</ele>
<time>2016-10-15T14:22:08Z</time>
</trkpt>
<trkpt lat="39.7716539" lon="3.0340371">
<ele>19.43</ele>
<time>2016-10-15T14:22:11Z</time>
</trkpt>
<trkpt lat="39.7716908" lon="3.0343258">
<ele>20.31</ele>
<time>2016-10-15T14:22:15Z</time>
</trkpt>
<trkpt lat="39.7717906" lon="3.0345785">
<ele>20.52</ele>
<time>2016-10-15T14:22:18Z</time>
</trkpt>
<trkpt lat="39.7718979" lon="3.0348397">
<ele>20.66</ele>
<time>2016-10-15T14:22:21Z</time>
</trkpt>
<trkpt lat="39.7720061" lon="3.0351000">
<ele>20.30</ele>
<time>2016-10-15T14:22:24Z</time>
</trkpt>
<trkpt lat="39.7721210" lon="3.0353660">
<ele>18.50</ele>
<time>2016-10-15T14:22:27Z</time>
</trkpt>
<trkpt lat="39.7722354" lon="3.0356230">
<ele>17.31</ele>
<time>2016-10-15T14:22:30Z</time>
</trkpt>
<trkpt lat="39.7723422" lon="3.0358725">
<ele>16.33</ele>
<time>2016-10-15T14:22:33Z</time>
</trkpt>
<trkpt lat="39.7724425" lon="3.0361181">
<ele>15.78</ele>
<time>2016-10-15T14:22:36Z</time>
</trkpt>
<trkpt lat="39.7725493" lon="3.0363752">
<ele>15.73</ele>
<time>2016-10-15T14:22:39Z</time>
</trkpt>
<trkpt lat="39.7726611" lon="3.0366357">
<ele>14.85</ele>
<time>2016-10-15T14:22:42Z</time>
</trkpt>
<trkpt lat="39.7727594" lon="3.0369076">
<ele>14.78</ele>
<time>2016-10-15T14:22:45Z</time>
</trkpt>
<trkpt lat="39.7728380" lon="3.0371976">
<ele>14.69</ele>
<time>2016-10-15T14:22:48Z</time>
</trkpt>
<trkpt lat="39.7729062" lon="3.0374791">
<ele>15.06</ele>
<time>2016-10-15T14:22:52Z</time>
</trkpt>
<trkpt lat="39.7729654" lon="3.0377546">
<ele>15.92</ele>
<time>2016-10-15T14:22:55Z</time>
</trkpt>
<trkpt lat="39.7730327" lon="3.0380196">
<ele>15.19</ele>
<time>2016-10-15T14:22:58Z</time>
</trkpt>
<trkpt lat="39.7730626" lon="3.0382990">
<ele>14.62</ele>
<time>2016-10-15T14:23:01Z</time>
</trkpt>
<trkpt lat="39.7729335" lon="3.0385488">
<ele>13.61</ele>
<time>2016-10-15T14:23:04Z</time>
</trkpt>
<trkpt lat="39.7727460" lon="3.0387211">
<ele>12.32</ele>
<time>2016-10-15T14:23:07Z</time>
</trkpt>
<trkpt lat="39.7725528" lon="3.0388758">
<ele>12.00</ele>
<time>2016-10-15T14:23:10Z</time>
</trkpt>
<trkpt lat="39.7723633" lon="3.0390175">
<ele>12.44</ele>
<time>2016-10-15T14:23:13Z</time>
</trkpt>
<trkpt lat="39.7721655" lon="3.0391652">
<ele>12.74</ele>
<time>2016-10-15T14:23:16Z</time>
</trkpt>
<trkpt lat="39.7719765" lon="3.0393031">
<ele>13.04</ele>
<time>2016-10-15T14:23:19Z</time>
</trkpt>
<trkpt lat="39.7717931" lon="3.0394232">
<ele>12.97</ele>
<time>2016-10-15T14:23:22Z</time>
</trkpt>
<trkpt lat="39.7716139" lon="3.0395491">
<ele>12.38</ele>
<time>2016-10-15T14:23:25Z</time>
</trkpt>
<trkpt lat="39.7714373" lon="3.0396824">
<ele>12.10</ele>
<time>2016-10-15T14:23:28Z</time>
</trkpt>
<trkpt lat="39.7712748" lon="3.0398028">
<ele>11.80</ele>
<time>2016-10-15T14:23:31Z</time>
</trkpt>
<trkpt lat="39.7710938" lon="3.0399350">
<ele>11.65</ele>
<time>2016-10-15T14:23:34Z</time>
</trkpt>
<trkpt lat="39.7709847" lon="3.0401727">
<ele>11.25</ele>
<time>2016-10-15T14:23:38Z</time>
</trkpt>
<trkpt lat="39.7710408" lon="3.0404262">
<ele>10.16</ele>
<time>2016-10-15T14:23:41Z</time>
</trkpt>
<trkpt lat="39.7711682" lon="3.0406644">
<ele>9.16</ele>
<time>2016-10-15T14:23:44Z</time>
</trkpt>
<trkpt lat="39.7713107" lon="3.0408904">
<ele>9.21</ele>
<time>2016-10-15T14:23:47Z</time>
</trkpt>
<trkpt lat="39.7714538" lon="3.0411266">
<ele>9.78</ele>
<time>2016-10-15T14:23:50Z</time>
</trkpt>
<trkpt lat="39.7716054" lon="3.0413925">
<ele>11.22</ele>
<time>2016-10-15T14:23:53Z</time>
</trkpt>
<trkpt lat="39.7717476" lon="3.0416472">
<ele>12.00</ele>
<time>2016-10-15T14:23:56Z</time>
</trkpt>
<trkpt lat="39.7718865" lon="3.0418768">
<ele>13.81</ele>
<time>2016-10-15T14:23:59Z</time>
</trkpt>
<trkpt lat="39.7720234" lon="3.0421134">
<ele>14.55</ele>
<time>2016-10-15T14:24:02Z</time>
</trkpt>
<trkpt lat="39.7721610" lon="3.0423697">
<ele>14.57</ele>
<time>2016-10-15T14:24:05Z</time>
</trkpt>
<trkpt lat="39.7723017" lon="3.0426235">
<ele>14.34</ele>
<time>2016-10-15T14:24:08Z</time>
</trkpt>
<trkpt lat="39.7724415" lon="3.0428998">
<ele>12.85</ele>
<time>2016-10-15T14:24:11Z</time>
</trkpt>
<trkpt lat="39.7725791" lon="3.0431613">
<ele>11.20</ele>
<time>2016-10-15T14:24:14Z</time>
</trkpt>
<trkpt lat="39.7727238" lon="3.0434197">
<ele>10.05</ele>
<time>2016-10-15T14:24:17Z</time>
</trkpt>
<trkpt lat="39.7728741" lon="3.0436845">
<ele>9.77</ele>
<time>2016-10-15T14:24:20Z</time>
</trkpt>
<trkpt lat="39.7730184" lon="3.0439495">
<ele>9.64</ele>
<time>2016-10-15T14:24:23Z</time>
</trkpt>
<trkpt lat="39.7731592" lon="3.0441995">
<ele>9.84</ele>
<time>2016-10-15T14:24:26Z</time>
</trkpt>
<trkpt lat="39.7733006" lon="3.0444490">
<ele>9.90</ele>
<time>2016-10-15T14:24:29Z</time>
</trkpt>
<trkpt lat="39.7734436" lon="3.0447181">
<ele>10.02</ele>
<time>2016-10-15T14:24:32Z</time>
</trkpt>
<trkpt lat="39.7735912" lon="3.0449879">
<ele>9.28</ele>
<time>2016-10-15T14:24:35Z</time>
</trkpt>
<trkpt lat="39.7737273" lon="3.0452243">
<ele>9.53</ele>
<time>2016-10-15T14:24:38Z</time>
</trkpt>
<trkpt lat="39.7738662" lon="3.0454622">
<ele>10.75</ele>
<time>2016-10-15T14:24:41Z</time>
</trkpt>
<trkpt lat="39.7740041" lon="3.0457029">
<ele>11.26</ele>
<time>2016-10-15T14:24:44Z</time>
</trkpt>
<trkpt lat="39.7741431" lon="3.0459553">
<ele>11.32</ele>
<time>2016-10-15T14:24:47Z</time>
</trkpt>
<trkpt lat="39.7742791" lon="3.0462095">
<ele>10.80</ele>
<time>2016-10-15T14:24:50Z</time>
</trkpt>
<trkpt lat="39.7744235" lon="3.0464751">
<ele>10.66</ele>
<time>2016-10-15T14:24:53Z</time>
</trkpt>
<trkpt lat="39.7745741" lon="3.0467522">
<ele>10.11</ele>
<time>2016-10-15T14:24:56Z</time>
</trkpt>
<trkpt lat="39.7747299" lon="3.0470353">
<ele>9.64</ele>
<time>2016-10-15T14:24:59Z</time>
</trkpt>
<trkpt lat="39.7748799" lon="3.0473115">
<ele>9.15</ele>
<time>2016-10-15T14:25:02Z</time>
</trkpt>
<trkpt lat="39.7750347" lon="3.0475802">
<ele>8.88</ele>
<time>2016-10-15T14:25:05Z</time>
</trkpt>
<trkpt lat="39.7751846" lon="3.0478613">
<ele>8.89</ele>
<time>2016-10-15T14:25:08Z</time>
</trkpt>
<trkpt lat="39.7753305" lon="3.0481344">
<ele>9.64</ele>
<time>2016-10-15T14:25:11Z</time>
</trkpt>
<trkpt lat="39.7754752" lon="3.0483897">
<ele>11.08</ele>
<time>2016-10-15T14:25:14Z</time>
</trkpt>
<trkpt lat="39.7756221" lon="3.0486297">
<ele>11.90</ele>
<time>2016-10-15T14:25:17Z</time>
</trkpt>
<trkpt lat="39.7757706" lon="3.0488892">
<ele>11.82</ele>
<time>2016-10-15T14:25:20Z</time>
</trkpt>
<trkpt lat="39.7759227" lon="3.0491589">
<ele>11.57</ele>
<time>2016-10-15T14:25:23Z</time>
</trkpt>
<trkpt lat="39.7760777" lon="3.0494392">
<ele>11.12</ele>
<time>2016-10-15T14:25:26Z</time>
</trkpt>
<trkpt lat="39.7762451" lon="3.0497033">
<ele>11.03</ele>
<time>2016-10-15T14:25:29Z</time>
</trkpt>
<trkpt lat="39.7764013" lon="3.0498346">
<ele>9.92</ele>
<time>2016-10-15T14:25:31Z</time>
</trkpt>
<trkpt lat="39.7765599" lon="3.0499646">
<ele>8.63</ele>
<time>2016-10-15T14:25:33Z</time>
</trkpt>
<trkpt lat="39.7767662" lon="3.0501814">
<ele>7.43</ele>
<time>2016-10-15T14:25:36Z</time>
</trkpt>
<trkpt lat="39.7769412" lon="3.0504314">
<ele>6.56</ele>
<time>2016-10-15T14:25:39Z</time>
</trkpt>
<trkpt lat="39.7771002" lon="3.0506746">
<ele>6.22</ele>
<time>2016-10-15T14:25:42Z</time>
</trkpt>
<trkpt lat="39.7772667" lon="3.0509218">
<ele>6.58</ele>
<time>2016-10-15T14:25:45Z</time>
</trkpt>
<trkpt lat="39.7774396" lon="3.0511728">
<ele>7.29</ele>
<time>2016-10-15T14:25:48Z</time>
</trkpt>
<trkpt lat="39.7776070" lon="3.0514269">
<ele>7.76</ele>
<time>2016-10-15T14:25:51Z</time>
</trkpt>
<trkpt lat="39.7777737" lon="3.0516703">
<ele>7.98</ele>
<time>2016-10-15T14:25:54Z</time>
</trkpt>
<trkpt lat="39.7779460" lon="3.0519065">
<ele>8.51</ele>
<time>2016-10-15T14:25:57Z</time>
</trkpt>
<trkpt lat="39.7781192" lon="3.0521575">
<ele>8.43</ele>
<time>2016-10-15T14:26:00Z</time>
</trkpt>
<trkpt lat="39.7782926" lon="3.0524075">
<ele>8.89</ele>
<time>2016-10-15T14:26:03Z</time>
</trkpt>
<trkpt lat="39.7784591" lon="3.0526297">
<ele>9.74</ele>
<time>2016-10-15T14:26:06Z</time>
</trkpt>
<trkpt lat="39.7786219" lon="3.0528493">
<ele>11.13</ele>
<time>2016-10-15T14:26:09Z</time>
</trkpt>
<trkpt lat="39.7787160" lon="3.0531472">
<ele>11.60</ele>
<time>2016-10-15T14:26:12Z</time>
</trkpt>
<trkpt lat="39.7786851" lon="3.0534722">
<ele>11.05</ele>
<time>2016-10-15T14:26:15Z</time>
</trkpt>
<trkpt lat="39.7786217" lon="3.0537989">
<ele>9.89</ele>
<time>2016-10-15T14:26:18Z</time>
</trkpt>
<trkpt lat="39.7785230" lon="3.0540994">
<ele>8.44</ele>
<time>2016-10-15T14:26:21Z</time>
</trkpt>
<trkpt lat="39.7783968" lon="3.0543798">
<ele>6.30</ele>
<time>2016-10-15T14:26:24Z</time>
</trkpt>
<trkpt lat="39.7782684" lon="3.0546447">
<ele>4.98</ele>
<time>2016-10-15T14:26:27Z</time>
</trkpt>
<trkpt lat="39.7781168" lon="3.0549115">
<ele>3.57</ele>
<time>2016-10-15T14:26:30Z</time>
</trkpt>
<trkpt lat="39.7779543" lon="3.0551567">
<ele>2.06</ele>
<time>2016-10-15T14:26:33Z</time>
</trkpt>
<trkpt lat="39.7778013" lon="3.0554024">
<ele>1.18</ele>
<time>2016-10-15T14:26:36Z</time>
</trkpt>
<trkpt lat="39.7776643" lon="3.0556729">
<ele>0.06</ele>
<time>2016-10-15T14:26:39Z</time>
</trkpt>
<trkpt lat="39.7775479" lon="3.0559377">
<ele>-1.27</ele>
<time>2016-10-15T14:26:42Z</time>
</trkpt>
<trkpt lat="39.7774482" lon="3.0562071">
<ele>-1.90</ele>
<time>2016-10-15T14:26:45Z</time>
</trkpt>
<trkpt lat="39.7773607" lon="3.0564806">
<ele>-0.61</ele>
<time>2016-10-15T14:26:48Z</time>
</trkpt>
<trkpt lat="39.7772759" lon="3.0567594">
<ele>-0.03</ele>
<time>2016-10-15T14:26:51Z</time>
</trkpt>
<trkpt lat="39.7771919" lon="3.0570400">
<ele>0.59</ele>
<time>2016-10-15T14:26:54Z</time>
</trkpt>
<trkpt lat="39.7771098" lon="3.0573003">
<ele>1.63</ele>
<time>2016-10-15T14:26:57Z</time>
</trkpt>
<trkpt lat="39.7770202" lon="3.0575730">
<ele>1.47</ele>
<time>2016-10-15T14:27:00Z</time>
</trkpt>
<trkpt lat="39.7769395" lon="3.0578418">
<ele>1.39</ele>
<time>2016-10-15T14:27:03Z</time>
</trkpt>
<trkpt lat="39.7768504" lon="3.0581112">
<ele>0.78</ele>
<time>2016-10-15T14:27:06Z</time>
</trkpt>
<trkpt lat="39.7767678" lon="3.0583760">
<ele>-0.44</ele>
<time>2016-10-15T14:27:09Z</time>
</trkpt>
<trkpt lat="39.7766916" lon="3.0586483">
<ele>-0.04</ele>
<time>2016-10-15T14:27:12Z</time>
</trkpt>
<trkpt lat="39.7766202" lon="3.0589135">
<ele>0.81</ele>
<time>2016-10-15T14:27:15Z</time>
</trkpt>
<trkpt lat="39.7765452" lon="3.0591849">
<ele>0.39</ele>
<time>2016-10-15T14:27:18Z</time>
</trkpt>
<trkpt lat="39.7764682" lon="3.0594475">
<ele>-0.22</ele>
<time>2016-10-15T14:27:21Z</time>
</trkpt>
<trkpt lat="39.7763867" lon="3.0597162">
<ele>0.22</ele>
<time>2016-10-15T14:27:24Z</time>
</trkpt>
<trkpt lat="39.7763117" lon="3.0599878">
<ele>0.53</ele>
<time>2016-10-15T14:27:27Z</time>
</trkpt>
<trkpt lat="39.7762447" lon="3.0602561">
<ele>1.33</ele>
<time>2016-10-15T14:27:30Z</time>
</trkpt>
<trkpt lat="39.7761773" lon="3.0605220">
<ele>2.16</ele>
<time>2016-10-15T14:27:33Z</time>
</trkpt>
<trkpt lat="39.7761066" lon="3.0607872">
<ele>2.63</ele>
<time>2016-10-15T14:27:36Z</time>
</trkpt>
<trkpt lat="39.7760349" lon="3.0610552">
<ele>2.33</ele>
<time>2016-10-15T14:27:39Z</time>
</trkpt>
<trkpt lat="39.7759676" lon="3.0613230">
<ele>1.77</ele>
<time>2016-10-15T14:27:42Z</time>
</trkpt>
<trkpt lat="39.7759069" lon="3.0615933">
<ele>1.88</ele>
<time>2016-10-15T14:27:45Z</time>
</trkpt>
<trkpt lat="39.7758501" lon="3.0618590">
<ele>1.17</ele>
<time>2016-10-15T14:27:48Z</time>
</trkpt>
<trkpt lat="39.7757955" lon="3.0621099">
<ele>1.08</ele>
<time>2016-10-15T14:27:51Z</time>
</trkpt>
<trkpt lat="39.7757303" lon="3.0623828">
<ele>1.77</ele>
<time>2016-10-15T14:27:54Z</time>
</trkpt>
<trkpt lat="39.7756519" lon="3.0626692">
<ele>2.79</ele>
<time>2016-10-15T14:27:57Z</time>
</trkpt>
<trkpt lat="39.7755694" lon="3.0629539">
<ele>2.70</ele>
<time>2016-10-15T14:28:00Z</time>
</trkpt>
<trkpt lat="39.7754852" lon="3.0632214">
<ele>2.28</ele>
<time>2016-10-15T14:28:03Z</time>
</trkpt>
<trkpt lat="39.7754043" lon="3.0634657">
<ele>2.92</ele>
<time>2016-10-15T14:28:06Z</time>
</trkpt>
<trkpt lat="39.7753099" lon="3.0637098">
<ele>3.78</ele>
<time>2016-10-15T14:28:09Z</time>
</trkpt>
<trkpt lat="39.7752122" lon="3.0639288">
<ele>3.33</ele>
<time>2016-10-15T14:28:12Z</time>
</trkpt>
<trkpt lat="39.7751133" lon="3.0641288">
<ele>2.71</ele>
<time>2016-10-15T14:28:15Z</time>
</trkpt>
<trkpt lat="39.7750087" lon="3.0643276">
<ele>2.07</ele>
<time>2016-10-15T14:28:18Z</time>
</trkpt>
<trkpt lat="39.7748901" lon="3.0645352">
<ele>2.52</ele>
<time>2016-10-15T14:28:21Z</time>
</trkpt>
<trkpt lat="39.7747680" lon="3.0647545">
<ele>4.18</ele>
<time>2016-10-15T14:28:24Z</time>
</trkpt>
<trkpt lat="39.7746304" lon="3.0650147">
<ele>3.98</ele>
<time>2016-10-15T14:28:27Z</time>
</trkpt>
<trkpt lat="39.7744885" lon="3.0652795">
<ele>3.51</ele>
<time>2016-10-15T14:28:30Z</time>
</trkpt>
<trkpt lat="39.7743590" lon="3.0655161">
<ele>3.57</ele>
<time>2016-10-15T14:28:33Z</time>
</trkpt>
<trkpt lat="39.7742259" lon="3.0657437">
<ele>4.39</ele>
<time>2016-10-15T14:28:36Z</time>
</trkpt>
<trkpt lat="39.7740722" lon="3.0659734">
<ele>4.32</ele>
<time>2016-10-15T14:28:39Z</time>
</trkpt>
<trkpt lat="39.7739008" lon="3.0661906">
<ele>3.17</ele>
<time>2016-10-15T14:28:42Z</time>
</trkpt>
<trkpt lat="39.7737360" lon="3.0663845">
<ele>1.19</ele>
<time>2016-10-15T14:28:45Z</time>
</trkpt>
<trkpt lat="39.7735754" lon="3.0665742">
<ele>-0.56</ele>
<time>2016-10-15T14:28:48Z</time>
</trkpt>
<trkpt lat="39.7734107" lon="3.0667650">
<ele>-1.55</ele>
<time>2016-10-15T14:28:51Z</time>
</trkpt>
<trkpt lat="39.7732618" lon="3.0669485">
<ele>-1.69</ele>
<time>2016-10-15T14:28:54Z</time>
</trkpt>
<trkpt lat="39.7731135" lon="3.0671286">
<ele>-1.10</ele>
<time>2016-10-15T14:28:57Z</time>
</trkpt>
<trkpt lat="39.7729700" lon="3.0673099">
<ele>-0.07</ele>
<time>2016-10-15T14:29:00Z</time>
</trkpt>
<trkpt lat="39.7728452" lon="3.0675094">
<ele>1.12</ele>
<time>2016-10-15T14:29:03Z</time>
</trkpt>
<trkpt lat="39.7727311" lon="3.0677425">
<ele>1.78</ele>
<time>2016-10-15T14:29:06Z</time>
</trkpt>
<trkpt lat="39.7726212" lon="3.0679754">
<ele>2.32</ele>
<time>2016-10-15T14:29:09Z</time>
</trkpt>
<trkpt lat="39.7725117" lon="3.0681975">
<ele>2.77</ele>
<time>2016-10-15T14:29:12Z</time>
</trkpt>
<trkpt lat="39.7723968" lon="3.0684306">
<ele>2.34</ele>
<time>2016-10-15T14:29:15Z</time>
</trkpt>
<trkpt lat="39.7722827" lon="3.0686536">
<ele>1.79</ele>
<time>2016-10-15T14:29:18Z</time>
</trkpt>
<trkpt lat="39.7721605" lon="3.0688890">
<ele>1.35</ele>
<time>2016-10-15T14:29:21Z</time>
</trkpt>
<trkpt lat="39.7720584" lon="3.0691248">
<ele>1.27</ele>
<time>2016-10-15T14:29:24Z</time>
</trkpt>
<trkpt lat="39.7719665" lon="3.0693883">
<ele>0.96</ele>
<time>2016-10-15T14:29:27Z</time>
</trkpt>
<trkpt lat="39.7718706" lon="3.0696519">
<ele>1.19</ele>
<time>2016-10-15T14:29:30Z</time>
</trkpt>
<trkpt lat="39.7717708" lon="3.0699082">
<ele>2.01</ele>
<time>2016-10-15T14:29:33Z</time>
</trkpt>
<trkpt lat="39.7716663" lon="3.0701696">
<ele>1.76</ele>
<time>2016-10-15T14:29:36Z</time>
</trkpt>
<trkpt lat="39.7715604" lon="3.0704272">
<ele>1.59</ele>
<time>2016-10-15T14:29:39Z</time>
</trkpt>
<trkpt lat="39.7714493" lon="3.0706880">
<ele>1.47</ele>
<time>2016-10-15T14:29:42Z</time>
</trkpt>
<trkpt lat="39.7713423" lon="3.0709389">
<ele>-0.21</ele>
<time>2016-10-15T14:29:45Z</time>
</trkpt>
<trkpt lat="39.7712342" lon="3.0711935">
<ele>-1.15</ele>
<time>2016-10-15T14:29:48Z</time>
</trkpt>
<trkpt lat="39.7711293" lon="3.0714364">
<ele>-0.92</ele>
<time>2016-10-15T14:29:51Z</time>
</trkpt>
<trkpt lat="39.7710253" lon="3.0716750">
<ele>-0.65</ele>
<time>2016-10-15T14:29:54Z</time>
</trkpt>
<trkpt lat="39.7709235" lon="3.0719118">
<ele>-0.08</ele>
<time>2016-10-15T14:29:57Z</time>
</trkpt>
<trkpt lat="39.7708259" lon="3.0721451">
<ele>-0.44</ele>
<time>2016-10-15T14:30:00Z</time>
</trkpt>
<trkpt lat="39.7707175" lon="3.0723780">
<ele>-0.75</ele>
<time>2016-10-15T14:30:03Z</time>
</trkpt>
<trkpt lat="39.7706038" lon="3.0726084">
<ele>-1.45</ele>
<time>2016-10-15T14:30:06Z</time>
</trkpt>
<trkpt lat="39.7704847" lon="3.0728438">
<ele>-1.39</ele>
<time>2016-10-15T14:30:09Z</time>
</trkpt>
<trkpt lat="39.7703686" lon="3.0730826">
<ele>-1.80</ele>
<time>2016-10-15T14:30:12Z</time>
</trkpt>
<trkpt lat="39.7702556" lon="3.0733141">
<ele>-2.95</ele>
<time>2016-10-15T14:30:15Z</time>
</trkpt>
<trkpt lat="39.7701366" lon="3.0735490">
<ele>-3.77</ele>
<time>2016-10-15T14:30:18Z</time>
</trkpt>
<trkpt lat="39.7700247" lon="3.0737756">
<ele>-4.81</ele>
<time>2016-10-15T14:30:21Z</time>
</trkpt>
<trkpt lat="39.7699130" lon="3.0740090">
<ele>-5.54</ele>
<time>2016-10-15T14:30:24Z</time>
</trkpt>
<trkpt lat="39.7698066" lon="3.0742304">
<ele>-6.44</ele>
<time>2016-10-15T14:30:27Z</time>
</trkpt>
<trkpt lat="39.7696981" lon="3.0744615">
<ele>-6.08</ele>
<time>2016-10-15T14:30:30Z</time>
</trkpt>
<trkpt lat="39.7695873" lon="3.0746854">
<ele>-4.41</ele>
<time>2016-10-15T14:30:33Z</time>
</trkpt>
<trkpt lat="39.7694657" lon="3.0749214">
<ele>-2.61</ele>
<time>2016-10-15T14:30:36Z</time>
</trkpt>
<trkpt lat="39.7693425" lon="3.0751597">
<ele>-1.59</ele>
<time>2016-10-15T14:30:39Z</time>
</trkpt>
<trkpt lat="39.7692216" lon="3.0754070">
<ele>-0.93</ele>
<time>2016-10-15T14:30:42Z</time>
</trkpt>
<trkpt lat="39.7691225" lon="3.0756568">
<ele>-0.93</ele>
<time>2016-10-15T14:30:45Z</time>
</trkpt>
<trkpt lat="39.7690334" lon="3.0759521">
<ele>-0.81</ele>
<time>2016-10-15T14:30:48Z</time>
</trkpt>
<trkpt lat="39.7689681" lon="3.0762399">
<ele>-1.84</ele>
<time>2016-10-15T14:30:51Z</time>
</trkpt>
<trkpt lat="39.7689084" lon="3.0764945">
<ele>-1.69</ele>
<time>2016-10-15T14:30:54Z</time>
</trkpt>
<trkpt lat="39.7688250" lon="3.0767435">
<ele>-0.98</ele>
<time>2016-10-15T14:30:57Z</time>
</trkpt>
<trkpt lat="39.7687278" lon="3.0769956">
<ele>-0.38</ele>
<time>2016-10-15T14:31:00Z</time>
</trkpt>
<trkpt lat="39.7686257" lon="3.0772595">
<ele>0.81</ele>
<time>2016-10-15T14:31:03Z</time>
</trkpt>
<trkpt lat="39.7685367" lon="3.0775250">
<ele>2.11</ele>
<time>2016-10-15T14:31:05Z</time>
</trkpt>
<trkpt lat="39.7684373" lon="3.0778151">
<ele>2.72</ele>
<time>2016-10-15T14:31:08Z</time>
</trkpt>
<trkpt lat="39.7683319" lon="3.0780777">
<ele>2.36</ele>
<time>2016-10-15T14:31:11Z</time>
</trkpt>
<trkpt lat="39.7682220" lon="3.0783179">
<ele>2.12</ele>
<time>2016-10-15T14:31:14Z</time>
</trkpt>
<trkpt lat="39.7680979" lon="3.0785692">
<ele>1.78</ele>
<time>2016-10-15T14:31:17Z</time>
</trkpt>
<trkpt lat="39.7679637" lon="3.0788287">
<ele>1.19</ele>
<time>2016-10-15T14:31:20Z</time>
</trkpt>
<trkpt lat="39.7678241" lon="3.0790877">
<ele>-1.16</ele>
<time>2016-10-15T14:31:23Z</time>
</trkpt>
<trkpt lat="39.7676949" lon="3.0793318">
<ele>-3.19</ele>
<time>2016-10-15T14:31:26Z</time>
</trkpt>
<trkpt lat="39.7675683" lon="3.0795685">
<ele>-3.93</ele>
<time>2016-10-15T14:31:29Z</time>
</trkpt>
<trkpt lat="39.7674413" lon="3.0797957">
<ele>-4.07</ele>
<time>2016-10-15T14:31:32Z</time>
</trkpt>
<trkpt lat="39.7673049" lon="3.0800463">
<ele>-3.64</ele>
<time>2016-10-15T14:31:35Z</time>
</trkpt>
<trkpt lat="39.7671701" lon="3.0802933">
<ele>-3.17</ele>
<time>2016-10-15T14:31:38Z</time>
</trkpt>
<trkpt lat="39.7670400" lon="3.0805360">
<ele>-3.41</ele>
<time>2016-10-15T14:31:41Z</time>
</trkpt>
<trkpt lat="39.7669180" lon="3.0807594">
<ele>-3.11</ele>
<time>2016-10-15T14:31:44Z</time>
</trkpt>
<trkpt lat="39.7667930" lon="3.0809765">
<ele>-1.14</ele>
<time>2016-10-15T14:31:47Z</time>
</trkpt>
<trkpt lat="39.7666544" lon="3.0812201">
<ele>-0.07</ele>
<time>2016-10-15T14:31:50Z</time>
</trkpt>
<trkpt lat="39.7665191" lon="3.0814681">
<ele>-0.65</ele>
<time>2016-10-15T14:31:53Z</time>
</trkpt>
<trkpt lat="39.7664046" lon="3.0816919">
<ele>-1.65</ele>
<time>2016-10-15T14:31:56Z</time>
</trkpt>
<trkpt lat="39.7663042" lon="3.0819009">
<ele>-1.20</ele>
<time>2016-10-15T14:31:59Z</time>
</trkpt>
<trkpt lat="39.7661779" lon="3.0821331">
<ele>-0.18</ele>
<time>2016-10-15T14:32:03Z</time>
</trkpt>
<trkpt lat="39.7660190" lon="3.0822563">
<ele>1.67</ele>
<time>2016-10-15T14:32:07Z</time>
</trkpt>
<trkpt lat="39.7657993" lon="3.0822480">
<ele>3.63</ele>
<time>2016-10-15T14:32:12Z</time>
</trkpt>
<trkpt lat="39.7656434" lon="3.0824372">
<ele>4.74</ele>
<time>2016-10-15T14:32:26Z</time>
</trkpt>
<trkpt lat="39.7655877" lon="3.0827206">
<ele>4.58</ele>
<time>2016-10-15T14:32:30Z</time>
</trkpt>
<trkpt lat="39.7655280" lon="3.0830156">
<ele>2.06</ele>
<time>2016-10-15T14:32:34Z</time>
</trkpt>
<trkpt lat="39.7654768" lon="3.0832423">
<ele>0.76</ele>
<time>2016-10-15T14:32:37Z</time>
</trkpt>
<trkpt lat="39.7654078" lon="3.0834884">
<ele>1.38</ele>
<time>2016-10-15T14:32:40Z</time>
</trkpt>
<trkpt lat="39.7653227" lon="3.0837368">
<ele>1.90</ele>
<time>2016-10-15T14:32:43Z</time>
</trkpt>
<trkpt lat="39.7652369" lon="3.0839564">
<ele>2.83</ele>
<time>2016-10-15T14:32:46Z</time>
</trkpt>
<trkpt lat="39.7651379" lon="3.0841849">
<ele>3.73</ele>
<time>2016-10-15T14:32:49Z</time>
</trkpt>
<trkpt lat="39.7650222" lon="3.0844096">
<ele>4.01</ele>
<time>2016-10-15T14:32:52Z</time>
</trkpt>
<trkpt lat="39.7648924" lon="3.0846397">
<ele>3.60</ele>
<time>2016-10-15T14:32:55Z</time>
</trkpt>
<trkpt lat="39.7647592" lon="3.0848805">
<ele>2.50</ele>
<time>2016-10-15T14:32:58Z</time>
</trkpt>
<trkpt lat="39.7646279" lon="3.0851255">
<ele>0.92</ele>
<time>2016-10-15T14:33:01Z</time>
</trkpt>
<trkpt lat="39.7645115" lon="3.0853556">
<ele>1.08</ele>
<time>2016-10-15T14:33:04Z</time>
</trkpt>
<trkpt lat="39.7643959" lon="3.0856036">
<ele>1.79</ele>
<time>2016-10-15T14:33:07Z</time>
</trkpt>
<trkpt lat="39.7642856" lon="3.0858638">
<ele>1.90</ele>
<time>2016-10-15T14:33:10Z</time>
</trkpt>
<trkpt lat="39.7641964" lon="3.0861138">
<ele>2.32</ele>
<time>2016-10-15T14:33:13Z</time>
</trkpt>
<trkpt lat="39.7641257" lon="3.0863481">
<ele>2.76</ele>
<time>2016-10-15T14:33:16Z</time>
</trkpt>
<trkpt lat="39.7640641" lon="3.0865887">
<ele>3.49</ele>
<time>2016-10-15T14:33:19Z</time>
</trkpt>
<trkpt lat="39.7640135" lon="3.0868346">
<ele>4.72</ele>
<time>2016-10-15T14:33:22Z</time>
</trkpt>
<trkpt lat="39.7639677" lon="3.0871001">
<ele>5.41</ele>
<time>2016-10-15T14:33:25Z</time>
</trkpt>
<trkpt lat="39.7639329" lon="3.0873625">
<ele>5.20</ele>
<time>2016-10-15T14:33:28Z</time>
</trkpt>
<trkpt lat="39.7639030" lon="3.0876370">
<ele>4.43</ele>
<time>2016-10-15T14:33:31Z</time>
</trkpt>
<trkpt lat="39.7638861" lon="3.0879074">
<ele>3.84</ele>
<time>2016-10-15T14:33:34Z</time>
</trkpt>
<trkpt lat="39.7638847" lon="3.0881892">
<ele>3.83</ele>
<time>2016-10-15T14:33:37Z</time>
</trkpt>
<trkpt lat="39.7638930" lon="3.0884764">
<ele>3.76</ele>
<time>2016-10-15T14:33:40Z</time>
</trkpt>
<trkpt lat="39.7639147" lon="3.0887621">
<ele>3.31</ele>
<time>2016-10-15T14:33:43Z</time>
</trkpt>
<trkpt lat="39.7639454" lon="3.0890420">
<ele>3.34</ele>
<time>2016-10-15T14:33:46Z</time>
</trkpt>
<trkpt lat="39.7639846" lon="3.0893259">
<ele>3.39</ele>
<time>2016-10-15T14:33:49Z</time>
</trkpt>
<trkpt lat="39.7640361" lon="3.0896192">
<ele>3.55</ele>
<time>2016-10-15T14:33:52Z</time>
</trkpt>
<trkpt lat="39.7640983" lon="3.0899042">
<ele>4.06</ele>
<time>2016-10-15T14:33:55Z</time>
</trkpt>
<trkpt lat="39.7641536" lon="3.0901770">
<ele>5.27</ele>
<time>2016-10-15T14:33:58Z</time>
</trkpt>
<trkpt lat="39.7642066" lon="3.0904540">
<ele>5.32</ele>
<time>2016-10-15T14:34:01Z</time>
</trkpt>
<trkpt lat="39.7642607" lon="3.0907334">
<ele>4.81</ele>
<time>2016-10-15T14:34:04Z</time>
</trkpt>
<trkpt lat="39.7643136" lon="3.0910249">
<ele>4.13</ele>
<time>2016-10-15T14:34:07Z</time>
</trkpt>
<trkpt lat="39.7643593" lon="3.0913176">
<ele>4.04</ele>
<time>2016-10-15T14:34:10Z</time>
</trkpt>
<trkpt lat="39.7644014" lon="3.0916161">
<ele>3.93</ele>
<time>2016-10-15T14:34:13Z</time>
</trkpt>
<trkpt lat="39.7644420" lon="3.0919064">
<ele>4.00</ele>
<time>2016-10-15T14:34:16Z</time>
</trkpt>
<trkpt lat="39.7644839" lon="3.0922038">
<ele>4.09</ele>
<time>2016-10-15T14:34:19Z</time>
</trkpt>
<trkpt lat="39.7645222" lon="3.0924974">
<ele>4.65</ele>
<time>2016-10-15T14:34:22Z</time>
</trkpt>
<trkpt lat="39.7645652" lon="3.0927859">
<ele>4.88</ele>
<time>2016-10-15T14:34:25Z</time>
</trkpt>
<trkpt lat="39.7646138" lon="3.0930860">
<ele>4.61</ele>
<time>2016-10-15T14:34:28Z</time>
</trkpt>
<trkpt lat="39.7646571" lon="3.0933839">
<ele>4.48</ele>
<time>2016-10-15T14:34:31Z</time>
</trkpt>
<trkpt lat="39.7646940" lon="3.0936694">
<ele>4.02</ele>
<time>2016-10-15T14:34:34Z</time>
</trkpt>
<trkpt lat="39.7647354" lon="3.0939619">
<ele>4.34</ele>
<time>2016-10-15T14:34:37Z</time>
</trkpt>
<trkpt lat="39.7647805" lon="3.0942775">
<ele>4.64</ele>
<time>2016-10-15T14:34:40Z</time>
</trkpt>
<trkpt lat="39.7648252" lon="3.0945839">
<ele>4.23</ele>
<time>2016-10-15T14:34:43Z</time>
</trkpt>
<trkpt lat="39.7648651" lon="3.0948821">
<ele>4.40</ele>
<time>2016-10-15T14:34:46Z</time>
</trkpt>
<trkpt lat="39.7649098" lon="3.0951814">
<ele>5.53</ele>
<time>2016-10-15T14:34:49Z</time>
</trkpt>
<trkpt lat="39.7649591" lon="3.0954913">
<ele>7.13</ele>
<time>2016-10-15T14:34:52Z</time>
</trkpt>
<trkpt lat="39.7650281" lon="3.0957954">
<ele>7.73</ele>
<time>2016-10-15T14:34:55Z</time>
</trkpt>
<trkpt lat="39.7651240" lon="3.0960818">
<ele>8.01</ele>
<time>2016-10-15T14:34:58Z</time>
</trkpt>
<trkpt lat="39.7652201" lon="3.0963356">
<ele>8.53</ele>
<time>2016-10-15T14:35:01Z</time>
</trkpt>
<trkpt lat="39.7653307" lon="3.0966107">
<ele>9.26</ele>
<time>2016-10-15T14:35:04Z</time>
</trkpt>
<trkpt lat="39.7654349" lon="3.0968944">
<ele>9.80</ele>
<time>2016-10-15T14:35:07Z</time>
</trkpt>
<trkpt lat="39.7655238" lon="3.0971830">
<ele>9.43</ele>
<time>2016-10-15T14:35:10Z</time>
</trkpt>
<trkpt lat="39.7655734" lon="3.0974898">
<ele>9.13</ele>
<time>2016-10-15T14:35:13Z</time>
</trkpt>
<trkpt lat="39.7655958" lon="3.0978090">
<ele>8.47</ele>
<time>2016-10-15T14:35:16Z</time>
</trkpt>
<trkpt lat="39.7656082" lon="3.0981309">
<ele>7.82</ele>
<time>2016-10-15T14:35:19Z</time>
</trkpt>
<trkpt lat="39.7656290" lon="3.0984246">
<ele>7.52</ele>
<time>2016-10-15T14:35:22Z</time>
</trkpt>
<trkpt lat="39.7656368" lon="3.0987266">
<ele>7.25</ele>
<time>2016-10-15T14:35:25Z</time>
</trkpt>
<trkpt lat="39.7656258" lon="3.0990484">
<ele>6.92</ele>
<time>2016-10-15T14:35:28Z</time>
</trkpt>
<trkpt lat="39.7656037" lon="3.0993812">
<ele>7.07</ele>
<time>2016-10-15T14:35:31Z</time>
</trkpt>
<trkpt lat="39.7655758" lon="3.0996665">
<ele>6.04</ele>
<time>2016-10-15T14:35:34Z</time>
</trkpt>
<trkpt lat="39.7655268" lon="3.0999662">
<ele>6.65</ele>
<time>2016-10-15T14:35:37Z</time>
</trkpt>
<trkpt lat="39.7654608" lon="3.1002641">
<ele>7.77</ele>
<time>2016-10-15T14:35:40Z</time>
</trkpt>
<trkpt lat="39.7653719" lon="3.1005531">
<ele>8.45</ele>
<time>2016-10-15T14:35:43Z</time>
</trkpt>
<trkpt lat="39.7652738" lon="3.1008346">
<ele>8.66</ele>
<time>2016-10-15T14:35:46Z</time>
</trkpt>
<trkpt lat="39.7651819" lon="3.1011180">
<ele>7.81</ele>
<time>2016-10-15T14:35:49Z</time>
</trkpt>
<trkpt lat="39.7651029" lon="3.1014070">
<ele>6.38</ele>
<time>2016-10-15T14:35:52Z</time>
</trkpt>
<trkpt lat="39.7650273" lon="3.1017116">
<ele>6.18</ele>
<time>2016-10-15T14:35:55Z</time>
</trkpt>
<trkpt lat="39.7649567" lon="3.1019925">
<ele>6.61</ele>
<time>2016-10-15T14:35:58Z</time>
</trkpt>
<trkpt lat="39.7648869" lon="3.1022659">
<ele>7.44</ele>
<time>2016-10-15T14:36:01Z</time>
</trkpt>
<trkpt lat="39.7648225" lon="3.1025498">
<ele>8.15</ele>
<time>2016-10-15T14:36:04Z</time>
</trkpt>
<trkpt lat="39.7647546" lon="3.1028334">
<ele>8.67</ele>
<time>2016-10-15T14:36:07Z</time>
</trkpt>
<trkpt lat="39.7646803" lon="3.1031274">
<ele>8.02</ele>
<time>2016-10-15T14:36:10Z</time>
</trkpt>
<trkpt lat="39.7646070" lon="3.1034240">
<ele>6.79</ele>
<time>2016-10-15T14:36:13Z</time>
</trkpt>
<trkpt lat="39.7645383" lon="3.1037045">
<ele>6.63</ele>
<time>2016-10-15T14:36:16Z</time>
</trkpt>
<trkpt lat="39.7644666" lon="3.1039925">
<ele>6.56</ele>
<time>2016-10-15T14:36:19Z</time>
</trkpt>
<trkpt lat="39.7643863" lon="3.1042839">
<ele>6.34</ele>
<time>2016-10-15T14:36:22Z</time>
</trkpt>
<trkpt lat="39.7642729" lon="3.1045472">
<ele>5.59</ele>
<time>2016-10-15T14:36:25Z</time>
</trkpt>
<trkpt lat="39.7641433" lon="3.1047823">
<ele>4.77</ele>
<time>2016-10-15T14:36:28Z</time>
</trkpt>
<trkpt lat="39.7640087" lon="3.1050132">
<ele>4.04</ele>
<time>2016-10-15T14:36:31Z</time>
</trkpt>
<trkpt lat="39.7638726" lon="3.1052485">
<ele>2.90</ele>
<time>2016-10-15T14:36:34Z</time>
</trkpt>
<trkpt lat="39.7637355" lon="3.1054826">
<ele>2.38</ele>
<time>2016-10-15T14:36:37Z</time>
</trkpt>
<trkpt lat="39.7636020" lon="3.1057182">
<ele>1.74</ele>
<time>2016-10-15T14:36:40Z</time>
</trkpt>
<trkpt lat="39.7634763" lon="3.1059509">
<ele>2.66</ele>
<time>2016-10-15T14:36:43Z</time>
</trkpt>
<trkpt lat="39.7633432" lon="3.1061966">
<ele>3.00</ele>
<time>2016-10-15T14:36:46Z</time>
</trkpt>
<trkpt lat="39.7632074" lon="3.1064465">
<ele>2.25</ele>
<time>2016-10-15T14:36:49Z</time>
</trkpt>
<trkpt lat="39.7630810" lon="3.1066813">
<ele>3.03</ele>
<time>2016-10-15T14:36:52Z</time>
</trkpt>
<trkpt lat="39.7629485" lon="3.1069345">
<ele>4.30</ele>
<time>2016-10-15T14:36:55Z</time>
</trkpt>
<trkpt lat="39.7628186" lon="3.1071711">
<ele>4.91</ele>
<time>2016-10-15T14:36:58Z</time>
</trkpt>
<trkpt lat="39.7626876" lon="3.1074059">
<ele>5.49</ele>
<time>2016-10-15T14:37:01Z</time>
</trkpt>
<trkpt lat="39.7625579" lon="3.1076452">
<ele>5.90</ele>
<time>2016-10-15T14:37:04Z</time>
</trkpt>
<trkpt lat="39.7624300" lon="3.1078972">
<ele>5.50</ele>
<time>2016-10-15T14:37:07Z</time>
</trkpt>
<trkpt lat="39.7623035" lon="3.1081459">
<ele>5.77</ele>
<time>2016-10-15T14:37:10Z</time>
</trkpt>
<trkpt lat="39.7621698" lon="3.1083985">
<ele>5.84</ele>
<time>2016-10-15T14:37:13Z</time>
</trkpt>
<trkpt lat="39.7620356" lon="3.1086471">
<ele>5.56</ele>
<time>2016-10-15T14:37:16Z</time>
</trkpt>
<trkpt lat="39.7618993" lon="3.1088958">
<ele>4.06</ele>
<time>2016-10-15T14:37:19Z</time>
</trkpt>
<trkpt lat="39.7617645" lon="3.1091407">
<ele>3.02</ele>
<time>2016-10-15T14:37:22Z</time>
</trkpt>
<trkpt lat="39.7616392" lon="3.1093677">
<ele>2.46</ele>
<time>2016-10-15T14:37:25Z</time>
</trkpt>
<trkpt lat="39.7615003" lon="3.1096075">
<ele>1.33</ele>
<time>2016-10-15T14:37:28Z</time>
</trkpt>
<trkpt lat="39.7613688" lon="3.1098463">
<ele>0.25</ele>
<time>2016-10-15T14:37:31Z</time>
</trkpt>
<trkpt lat="39.7612465" lon="3.1100738">
<ele>0.29</ele>
<time>2016-10-15T14:37:34Z</time>
</trkpt>
<trkpt lat="39.7611304" lon="3.1103079">
<ele>0.65</ele>
<time>2016-10-15T14:37:37Z</time>
</trkpt>
<trkpt lat="39.7610042" lon="3.1105467">
<ele>0.76</ele>
<time>2016-10-15T14:37:40Z</time>
</trkpt>
<trkpt lat="39.7608831" lon="3.1107730">
<ele>0.67</ele>
<time>2016-10-15T14:37:43Z</time>
</trkpt>
<trkpt lat="39.7607604" lon="3.1110000">
<ele>1.82</ele>
<time>2016-10-15T14:37:46Z</time>
</trkpt>
<trkpt lat="39.7606388" lon="3.1112351">
<ele>2.45</ele>
<time>2016-10-15T14:37:49Z</time>
</trkpt>
<trkpt lat="39.7605163" lon="3.1114684">
<ele>3.11</ele>
<time>2016-10-15T14:37:52Z</time>
</trkpt>
<trkpt lat="39.7603828" lon="3.1117226">
<ele>2.68</ele>
<time>2016-10-15T14:37:55Z</time>
</trkpt>
<trkpt lat="39.7602603" lon="3.1119681">
<ele>1.41</ele>
<time>2016-10-15T14:37:58Z</time>
</trkpt>
<trkpt lat="39.7601430" lon="3.1122151">
<ele>0.59</ele>
<time>2016-10-15T14:38:01Z</time>
</trkpt>
<trkpt lat="39.7600849" lon="3.1124608">
<ele>1.45</ele>
<time>2016-10-15T14:38:04Z</time>
</trkpt>
<trkpt lat="39.7600562" lon="3.1127519">
<ele>2.67</ele>
<time>2016-10-15T14:38:07Z</time>
</trkpt>
<trkpt lat="39.7600500" lon="3.1130450">
<ele>2.91</ele>
<time>2016-10-15T14:38:10Z</time>
</trkpt>
<trkpt lat="39.7600507" lon="3.1133250">
<ele>3.43</ele>
<time>2016-10-15T14:38:13Z</time>
</trkpt>
<trkpt lat="39.7600525" lon="3.1136212">
<ele>3.62</ele>
<time>2016-10-15T14:38:16Z</time>
</trkpt>
<trkpt lat="39.7600533" lon="3.1139213">
<ele>3.18</ele>
<time>2016-10-15T14:38:19Z</time>
</trkpt>
<trkpt lat="39.7600549" lon="3.1142022">
<ele>3.25</ele>
<time>2016-10-15T14:38:22Z</time>
</trkpt>
<trkpt lat="39.7600567" lon="3.1144714">
<ele>4.34</ele>
<time>2016-10-15T14:38:25Z</time>
</trkpt>
<trkpt lat="39.7600589" lon="3.1147320">
<ele>5.45</ele>
<time>2016-10-15T14:38:28Z</time>
</trkpt>
<trkpt lat="39.7600656" lon="3.1150329">
<ele>7.39</ele>
<time>2016-10-15T14:38:32Z</time>
</trkpt>
<trkpt lat="39.7600673" lon="3.1153357">
<ele>9.44</ele>
<time>2016-10-15T14:38:36Z</time>
</trkpt>
<trkpt lat="39.7600662" lon="3.1155807">
<ele>9.38</ele>
<time>2016-10-15T14:38:39Z</time>
</trkpt>
<trkpt lat="39.7600576" lon="3.1158280">
<ele>9.21</ele>
<time>2016-10-15T14:38:42Z</time>
</trkpt>
<trkpt lat="39.7600487" lon="3.1160741">
<ele>8.97</ele>
<time>2016-10-15T14:38:45Z</time>
</trkpt>
<trkpt lat="39.7600384" lon="3.1163093">
<ele>8.77</ele>
<time>2016-10-15T14:38:48Z</time>
</trkpt>
<trkpt lat="39.7600348" lon="3.1166048">
<ele>9.51</ele>
<time>2016-10-15T14:38:52Z</time>
</trkpt>
<trkpt lat="39.7600256" lon="3.1168949">
<ele>10.11</ele>
<time>2016-10-15T14:38:56Z</time>
</trkpt>
<trkpt lat="39.7600177" lon="3.1171939">
<ele>10.47</ele>
<time>2016-10-15T14:39:00Z</time>
</trkpt>
<trkpt lat="39.7600145" lon="3.1174946">
<ele>9.68</ele>
<time>2016-10-15T14:39:04Z</time>
</trkpt>
<trkpt lat="39.7600068" lon="3.1177973">
<ele>9.38</ele>
<time>2016-10-15T14:39:08Z</time>
</trkpt>
<trkpt lat="39.7599971" lon="3.1180347">
<ele>9.60</ele>
<time>2016-10-15T14:39:11Z</time>
</trkpt>
<trkpt lat="39.7599955" lon="3.1183386">
<ele>10.47</ele>
<time>2016-10-15T14:39:15Z</time>
</trkpt>
<trkpt lat="39.7600012" lon="3.1186466">
<ele>11.35</ele>
<time>2016-10-15T14:39:19Z</time>
</trkpt>
<trkpt lat="39.7600019" lon="3.1189579">
<ele>14.36</ele>
<time>2016-10-15T14:39:24Z</time>
</trkpt>
<trkpt lat="39.7599970" lon="3.1192380">
<ele>14.77</ele>
<time>2016-10-15T14:39:28Z</time>
</trkpt>
<trkpt lat="39.7599892" lon="3.1195111">
<ele>14.87</ele>
<time>2016-10-15T14:39:32Z</time>
</trkpt>
<trkpt lat="39.7599792" lon="3.1198015">
<ele>14.92</ele>
<time>2016-10-15T14:39:36Z</time>
</trkpt>
<trkpt lat="39.7599821" lon="3.1200775">
<ele>16.76</ele>
<time>2016-10-15T14:39:40Z</time>
</trkpt>
<trkpt lat="39.7600024" lon="3.1203234">
<ele>17.28</ele>
<time>2016-10-15T14:39:44Z</time>
</trkpt>
<trkpt lat="39.7600557" lon="3.1205633">
<ele>16.31</ele>
<time>2016-10-15T14:39:48Z</time>
</trkpt>
<trkpt lat="39.7601658" lon="3.1207978">
<ele>15.48</ele>
<time>2016-10-15T14:39:52Z</time>
</trkpt>
<trkpt lat="39.7602962" lon="3.1209972">
<ele>16.48</ele>
<time>2016-10-15T14:39:56Z</time>
</trkpt>
<trkpt lat="39.7604269" lon="3.1211981">
<ele>17.75</ele>
<time>2016-10-15T14:40:00Z</time>
</trkpt>
<trkpt lat="39.7605188" lon="3.1214352">
<ele>17.48</ele>
<time>2016-10-15T14:40:04Z</time>
</trkpt>
<trkpt lat="39.7605747" lon="3.1217058">
<ele>16.90</ele>
<time>2016-10-15T14:40:08Z</time>
</trkpt>
<trkpt lat="39.7606112" lon="3.1219946">
<ele>18.66</ele>
<time>2016-10-15T14:40:12Z</time>
</trkpt>
<trkpt lat="39.7606525" lon="3.1222539">
<ele>19.98</ele>
<time>2016-10-15T14:40:15Z</time>
</trkpt>
<trkpt lat="39.7607242" lon="3.1225168">
<ele>21.86</ele>
<time>2016-10-15T14:40:18Z</time>
</trkpt>
<trkpt lat="39.7608198" lon="3.1227974">
<ele>22.54</ele>
<time>2016-10-15T14:40:21Z</time>
</trkpt>
<trkpt lat="39.7609198" lon="3.1230969">
<ele>23.22</ele>
<time>2016-10-15T14:40:24Z</time>
</trkpt>
<trkpt lat="39.7610307" lon="3.1234161">
<ele>22.84</ele>
<time>2016-10-15T14:40:27Z</time>
</trkpt>
<trkpt lat="39.7611134" lon="3.1236482">
<ele>22.18</ele>
<time>2016-10-15T14:40:29Z</time>
</trkpt>
<trkpt lat="39.7611859" lon="3.1238751">
<ele>21.03</ele>
<time>2016-10-15T14:40:31Z</time>
</trkpt>
<trkpt lat="39.7612547" lon="3.1240944">
<ele>19.30</ele>
<time>2016-10-15T14:40:33Z</time>
</trkpt>
<trkpt lat="39.7613284" lon="3.1243198">
<ele>17.61</ele>
<time>2016-10-15T14:40:35Z</time>
</trkpt>
<trkpt lat="39.7613910" lon="3.1245493">
<ele>16.61</ele>
<time>2016-10-15T14:40:37Z</time>
</trkpt>
<trkpt lat="39.7614579" lon="3.1247672">
<ele>15.87</ele>
<time>2016-10-15T14:40:39Z</time>
</trkpt>
<trkpt lat="39.7615554" lon="3.1250733">
<ele>16.10</ele>
<time>2016-10-15T14:40:42Z</time>
</trkpt>
<trkpt lat="39.7616474" lon="3.1253678">
<ele>17.05</ele>
<time>2016-10-15T14:40:45Z</time>
</trkpt>
<trkpt lat="39.7617063" lon="3.1256626">
<ele>16.43</ele>
<time>2016-10-15T14:40:48Z</time>
</trkpt>
<trkpt lat="39.7617373" lon="3.1259759">
<ele>16.25</ele>
<time>2016-10-15T14:40:51Z</time>
</trkpt>
<trkpt lat="39.7617563" lon="3.1262169">
<ele>16.44</ele>
<time>2016-10-15T14:40:53Z</time>
</trkpt>
<trkpt lat="39.7617846" lon="3.1264508">
<ele>15.69</ele>
<time>2016-10-15T14:40:55Z</time>
</trkpt>
<trkpt lat="39.7618858" lon="3.1267722">
<ele>13.95</ele>
<time>2016-10-15T14:40:58Z</time>
</trkpt>
<trkpt lat="39.7619915" lon="3.1269815">
<ele>13.06</ele>
<time>2016-10-15T14:41:00Z</time>
</trkpt>
<trkpt lat="39.7621167" lon="3.1271641">
<ele>12.44</ele>
<time>2016-10-15T14:41:02Z</time>
</trkpt>
<trkpt lat="39.7622542" lon="3.1273479">
<ele>11.98</ele>
<time>2016-10-15T14:41:04Z</time>
</trkpt>
<trkpt lat="39.7624498" lon="3.1275778">
<ele>11.09</ele>
<time>2016-10-15T14:41:07Z</time>
</trkpt>
<trkpt lat="39.7625896" lon="3.1277320">
<ele>11.18</ele>
<time>2016-10-15T14:41:09Z</time>
</trkpt>
<trkpt lat="39.7627372" lon="3.1278895">
<ele>10.48</ele>
<time>2016-10-15T14:41:11Z</time>
</trkpt>
<trkpt lat="39.7628863" lon="3.1280424">
<ele>10.20</ele>
<time>2016-10-15T14:41:13Z</time>
</trkpt>
<trkpt lat="39.7630036" lon="3.1282258">
<ele>10.05</ele>
<time>2016-10-15T14:41:15Z</time>
</trkpt>
<trkpt lat="39.7631099" lon="3.1284302">
<ele>9.60</ele>
<time>2016-10-15T14:41:17Z</time>
</trkpt>
<trkpt lat="39.7632072" lon="3.1286330">
<ele>9.41</ele>
<time>2016-10-15T14:41:19Z</time>
</trkpt>
<trkpt lat="39.7632993" lon="3.1288372">
<ele>10.27</ele>
<time>2016-10-15T14:41:21Z</time>
</trkpt>
<trkpt lat="39.7633876" lon="3.1290416">
<ele>10.55</ele>
<time>2016-10-15T14:41:23Z</time>
</trkpt>
<trkpt lat="39.7635228" lon="3.1293303">
<ele>10.10</ele>
<time>2016-10-15T14:41:26Z</time>
</trkpt>
<trkpt lat="39.7636491" lon="3.1296015">
<ele>9.72</ele>
<time>2016-10-15T14:41:29Z</time>
</trkpt>
<trkpt lat="39.7637785" lon="3.1298703">
<ele>9.51</ele>
<time>2016-10-15T14:41:32Z</time>
</trkpt>
<trkpt lat="39.7639098" lon="3.1301360">
<ele>9.47</ele>
<time>2016-10-15T14:41:35Z</time>
</trkpt>
<trkpt lat="39.7640537" lon="3.1303797">
<ele>9.94</ele>
<time>2016-10-15T14:41:38Z</time>
</trkpt>
<trkpt lat="39.7642161" lon="3.1306048">
<ele>10.36</ele>
<time>2016-10-15T14:41:41Z</time>
</trkpt>
<trkpt lat="39.7643770" lon="3.1307986">
<ele>11.27</ele>
<time>2016-10-15T14:41:44Z</time>
</trkpt>
<trkpt lat="39.7645446" lon="3.1309865">
<ele>12.29</ele>
<time>2016-10-15T14:41:47Z</time>
</trkpt>
<trkpt lat="39.7647062" lon="3.1311593">
<ele>13.13</ele>
<time>2016-10-15T14:41:50Z</time>
</trkpt>
<trkpt lat="39.7648714" lon="3.1313418">
<ele>12.91</ele>
<time>2016-10-15T14:41:53Z</time>
</trkpt>
<trkpt lat="39.7650371" lon="3.1315330">
<ele>12.58</ele>
<time>2016-10-15T14:41:56Z</time>
</trkpt>
<trkpt lat="39.7652016" lon="3.1317216">
<ele>12.72</ele>
<time>2016-10-15T14:41:59Z</time>
</trkpt>
<trkpt lat="39.7653732" lon="3.1319090">
<ele>12.59</ele>
<time>2016-10-15T14:42:02Z</time>
</trkpt>
<trkpt lat="39.7655284" lon="3.1320806">
<ele>11.70</ele>
<time>2016-10-15T14:42:05Z</time>
</trkpt>
<trkpt lat="39.7656973" lon="3.1322595">
<ele>11.97</ele>
<time>2016-10-15T14:42:08Z</time>
</trkpt>
<trkpt lat="39.7658790" lon="3.1324684">
<ele>12.19</ele>
<time>2016-10-15T14:42:11Z</time>
</trkpt>
<trkpt lat="39.7660705" lon="3.1327112">
<ele>11.81</ele>
<time>2016-10-15T14:42:14Z</time>
</trkpt>
<trkpt lat="39.7662542" lon="3.1329439">
<ele>11.57</ele>
<time>2016-10-15T14:42:17Z</time>
</trkpt>
<trkpt lat="39.7664419" lon="3.1331816">
<ele>11.18</ele>
<time>2016-10-15T14:42:20Z</time>
</trkpt>
<trkpt lat="39.7666179" lon="3.1334101">
<ele>10.57</ele>
<time>2016-10-15T14:42:23Z</time>
</trkpt>
<trkpt lat="39.7668019" lon="3.1336504">
<ele>11.70</ele>
<time>2016-10-15T14:42:26Z</time>
</trkpt>
<trkpt lat="39.7669872" lon="3.1339014">
<ele>11.07</ele>
<time>2016-10-15T14:42:29Z</time>
</trkpt>
<trkpt lat="39.7671243" lon="3.1340899">
<ele>10.87</ele>
<time>2016-10-15T14:42:31Z</time>
</trkpt>
<trkpt lat="39.7672647" lon="3.1342809">
<ele>10.93</ele>
<time>2016-10-15T14:42:33Z</time>
</trkpt>
<trkpt lat="39.7673952" lon="3.1344633">
<ele>10.76</ele>
<time>2016-10-15T14:42:35Z</time>
</trkpt>
<trkpt lat="39.7675191" lon="3.1346395">
<ele>10.57</ele>
<time>2016-10-15T14:42:37Z</time>
</trkpt>
<trkpt lat="39.7676481" lon="3.1348181">
<ele>10.85</ele>
<time>2016-10-15T14:42:39Z</time>
</trkpt>
<trkpt lat="39.7677772" lon="3.1349844">
<ele>9.63</ele>
<time>2016-10-15T14:42:41Z</time>
</trkpt>
<trkpt lat="39.7679642" lon="3.1352199">
<ele>7.89</ele>
<time>2016-10-15T14:42:44Z</time>
</trkpt>
<trkpt lat="39.7681350" lon="3.1354360">
<ele>6.50</ele>
<time>2016-10-15T14:42:47Z</time>
</trkpt>
<trkpt lat="39.7683157" lon="3.1356570">
<ele>6.05</ele>
<time>2016-10-15T14:42:50Z</time>
</trkpt>
<trkpt lat="39.7684504" lon="3.1358226">
<ele>5.96</ele>
<time>2016-10-15T14:42:52Z</time>
</trkpt>
<trkpt lat="39.7686386" lon="3.1360612">
<ele>6.64</ele>
<time>2016-10-15T14:42:55Z</time>
</trkpt>
<trkpt lat="39.7688140" lon="3.1363013">
<ele>6.56</ele>
<time>2016-10-15T14:42:58Z</time>
</trkpt>
<trkpt lat="39.7689872" lon="3.1365352">
<ele>5.47</ele>
<time>2016-10-15T14:43:01Z</time>
</trkpt>
<trkpt lat="39.7691595" lon="3.1367494">
<ele>4.55</ele>
<time>2016-10-15T14:43:04Z</time>
</trkpt>
<trkpt lat="39.7693439" lon="3.1369578">
<ele>6.70</ele>
<time>2016-10-15T14:43:07Z</time>
</trkpt>
<trkpt lat="39.7695187" lon="3.1371699">
<ele>7.60</ele>
<time>2016-10-15T14:43:10Z</time>
</trkpt>
<trkpt lat="39.7696649" lon="3.1373545">
<ele>9.08</ele>
<time>2016-10-15T14:43:13Z</time>
</trkpt>
<trkpt lat="39.7697953" lon="3.1375389">
<ele>9.74</ele>
<time>2016-10-15T14:43:16Z</time>
</trkpt>
<trkpt lat="39.7699085" lon="3.1377427">
<ele>10.17</ele>
<time>2016-10-15T14:43:19Z</time>
</trkpt>
<trkpt lat="39.7700035" lon="3.1379665">
<ele>12.20</ele>
<time>2016-10-15T14:43:22Z</time>
</trkpt>
<trkpt lat="39.7701092" lon="3.1382197">
<ele>11.45</ele>
<time>2016-10-15T14:43:25Z</time>
</trkpt>
<trkpt lat="39.7702177" lon="3.1384853">
<ele>10.89</ele>
<time>2016-10-15T14:43:28Z</time>
</trkpt>
<trkpt lat="39.7703497" lon="3.1387895">
<ele>12.59</ele>
<time>2016-10-15T14:43:31Z</time>
</trkpt>
<trkpt lat="39.7704528" lon="3.1390550">
<ele>11.92</ele>
<time>2016-10-15T14:43:34Z</time>
</trkpt>
<trkpt lat="39.7705251" lon="3.1392821">
<ele>9.76</ele>
<time>2016-10-15T14:43:37Z</time>
</trkpt>
<trkpt lat="39.7705932" lon="3.1395767">
<ele>10.85</ele>
<time>2016-10-15T14:43:40Z</time>
</trkpt>
<trkpt lat="39.7706323" lon="3.1398369">
<ele>13.45</ele>
<time>2016-10-15T14:43:43Z</time>
</trkpt>
<trkpt lat="39.7706799" lon="3.1401137">
<ele>14.46</ele>
<time>2016-10-15T14:43:46Z</time>
</trkpt>
<trkpt lat="39.7707410" lon="3.1404140">
<ele>11.73</ele>
<time>2016-10-15T14:43:49Z</time>
</trkpt>
<trkpt lat="39.7707457" lon="3.1407339">
<ele>9.15</ele>
<time>2016-10-15T14:43:52Z</time>
</trkpt>
<trkpt lat="39.7707781" lon="3.1409906">
<ele>8.26</ele>
<time>2016-10-15T14:43:55Z</time>
</trkpt>
<trkpt lat="39.7709215" lon="3.1411687">
<ele>6.63</ele>
<time>2016-10-15T14:43:58Z</time>
</trkpt>
<trkpt lat="39.7710738" lon="3.1414186">
<ele>5.50</ele>
<time>2016-10-15T14:44:01Z</time>
</trkpt>
<trkpt lat="39.7711893" lon="3.1416882">
<ele>3.53</ele>
<time>2016-10-15T14:44:04Z</time>
</trkpt>
<trkpt lat="39.7712731" lon="3.1419110">
<ele>2.26</ele>
<time>2016-10-15T14:44:08Z</time>
</trkpt>
<trkpt lat="39.7712997" lon="3.1421570">
<ele>2.40</ele>
<time>2016-10-15T14:44:13Z</time>
</trkpt>
<trkpt lat="39.7712553" lon="3.1423935">
<ele>3.29</ele>
<time>2016-10-15T14:44:21Z</time>
</trkpt>
<trkpt lat="39.7711330" lon="3.1425710">
<ele>4.23</ele>
<time>2016-10-15T14:44:28Z</time>
</trkpt>
<trkpt lat="39.7709645" lon="3.1427214">
<ele>5.84</ele>
<time>2016-10-15T14:44:34Z</time>
</trkpt>
<trkpt lat="39.7708300" lon="3.1428830">
<ele>7.42</ele>
<time>2016-10-15T14:44:38Z</time>
</trkpt>
<trkpt lat="39.7706828" lon="3.1430367">
<ele>6.86</ele>
<time>2016-10-15T14:44:42Z</time>
</trkpt>
<trkpt lat="39.7705153" lon="3.1431699">
<ele>6.62</ele>
<time>2016-10-15T14:44:47Z</time>
</trkpt>
<trkpt lat="39.7703571" lon="3.1433200">
<ele>6.12</ele>
<time>2016-10-15T14:45:07Z</time>
</trkpt>
<trkpt lat="39.7702255" lon="3.1434882">
<ele>6.37</ele>
<time>2016-10-15T14:45:13Z</time>
</trkpt>
<trkpt lat="39.7700615" lon="3.1436596">
<ele>9.07</ele>
<time>2016-10-15T14:45:18Z</time>
</trkpt>
<trkpt lat="39.7699158" lon="3.1438128">
<ele>14.93</ele>
<time>2016-10-15T14:45:22Z</time>
</trkpt>
<trkpt lat="39.7697379" lon="3.1440069">
<ele>14.23</ele>
<time>2016-10-15T14:45:27Z</time>
</trkpt>
<trkpt lat="39.7695701" lon="3.1441646">
<ele>10.72</ele>
<time>2016-10-15T14:45:31Z</time>
</trkpt>
<trkpt lat="39.7694127" lon="3.1443131">
<ele>8.51</ele>
<time>2016-10-15T14:45:35Z</time>
</trkpt>
<trkpt lat="39.7692342" lon="3.1444950">
<ele>9.72</ele>
<time>2016-10-15T14:45:40Z</time>
</trkpt>
<trkpt lat="39.7690809" lon="3.1446576">
<ele>7.78</ele>
<time>2016-10-15T14:45:44Z</time>
</trkpt>
<trkpt lat="39.7689217" lon="3.1448185">
<ele>6.94</ele>
<time>2016-10-15T14:45:48Z</time>
</trkpt>
<trkpt lat="39.7687500" lon="3.1449975">
<ele>7.95</ele>
<time>2016-10-15T14:45:52Z</time>
</trkpt>
<trkpt lat="39.7685866" lon="3.1451714">
<ele>8.41</ele>
<time>2016-10-15T14:45:57Z</time>
</trkpt>
<trkpt lat="39.7684346" lon="3.1453452">
<ele>10.47</ele>
<time>2016-10-15T14:46:02Z</time>
</trkpt>
<trkpt lat="39.7682691" lon="3.1455226">
<ele>12.48</ele>
<time>2016-10-15T14:46:07Z</time>
</trkpt>
<trkpt lat="39.7680964" lon="3.1456823">
<ele>11.24</ele>
<time>2016-10-15T14:46:12Z</time>
</trkpt>
<trkpt lat="39.7679619" lon="3.1458545">
<ele>11.89</ele>
<time>2016-10-15T14:46:17Z</time>
</trkpt>
<trkpt lat="39.7678090" lon="3.1459943">
<ele>12.72</ele>
<time>2016-10-15T14:46:22Z</time>
</trkpt>
<trkpt lat="39.7676444" lon="3.1461703">
<ele>11.91</ele>
<time>2016-10-15T14:46:27Z</time>
</trkpt>
<trkpt lat="39.7674715" lon="3.1463658">
<ele>10.35</ele>
<time>2016-10-15T14:46:32Z</time>
</trkpt>
<trkpt lat="39.7673269" lon="3.1465259">
<ele>8.83</ele>
<time>2016-10-15T14:46:36Z</time>
</trkpt>
<trkpt lat="39.7671831" lon="3.1466810">
<ele>10.12</ele>
<time>2016-10-15T14:46:41Z</time>
</trkpt>
<trkpt lat="39.7670324" lon="3.1468653">
<ele>11.70</ele>
<time>2016-10-15T14:46:47Z</time>
</trkpt>
<trkpt lat="39.7668910" lon="3.1470396">
<ele>12.51</ele>
<time>2016-10-15T14:46:52Z</time>
</trkpt>
<trkpt lat="39.7667363" lon="3.1466578">
<ele>15.79</ele>
<time>2016-10-15T14:49:12Z</time>
</trkpt>
<trkpt lat="39.7668402" lon="3.1468655">
<ele>11.32</ele>
<time>2016-10-15T14:50:51Z</time>
</trkpt>
<trkpt lat="39.7667939" lon="3.1471028">
<ele>17.61</ele>
<time>2016-10-15T14:51:37Z</time>
</trkpt>
<trkpt lat="39.7666411" lon="3.1472820">
<ele>19.55</ele>
<time>2016-10-15T14:51:43Z</time>
</trkpt>
<trkpt lat="39.7664981" lon="3.1474613">
<ele>19.78</ele>
<time>2016-10-15T14:51:48Z</time>
</trkpt>
<trkpt lat="39.7663519" lon="3.1476330">
<ele>19.53</ele>
<time>2016-10-15T14:51:52Z</time>
</trkpt>
<trkpt lat="39.7662083" lon="3.1478209">
<ele>20.52</ele>
<time>2016-10-15T14:51:56Z</time>
</trkpt>
<trkpt lat="39.7660556" lon="3.1479817">
<ele>21.38</ele>
<time>2016-10-15T14:52:00Z</time>
</trkpt>
<trkpt lat="39.7658969" lon="3.1481347">
<ele>20.04</ele>
<time>2016-10-15T14:52:04Z</time>
</trkpt>
<trkpt lat="39.7657172" lon="3.1482012">
<ele>19.77</ele>
<time>2016-10-15T14:52:10Z</time>
</trkpt>
<trkpt lat="39.7655362" lon="3.1481898">
<ele>19.07</ele>
<time>2016-10-15T14:52:54Z</time>
</trkpt>
</trkseg>
</trk>
</gpx>
